<?xml version="1.0" encoding="UTF-8" standalone="no" ?>
<gpx xmlns="http://www.topografix.com/GPX/1/1" xmlns:xsi="http://www.w3.org/2001/XMLSchema-instance" xsi:schemaLocation="http://www.topografix.com/GPX/1/1 http://www.topografix.com/GPX/1/1/gpx.xsd" version="1.1" creator="VisuGPX - https://www.visugpx.com">
  <metadata>
    <name>Pornichet 17/05/2020</name>
    <desc><![CDATA[Sortie VTT du dimanche 17 mai 2020]]></desc>
  </metadata>
  <trk>
    <name><![CDATA[Pornichet Cyclisme]]></name>
    <trkseg>
      <trkpt lat="47.26371" lon="-2.31573">
        <ele>8.4</ele>
        <time>2020-05-17T06:56:06.000Z</time>
      </trkpt>
      <trkpt lat="47.26372" lon="-2.31593">
        <ele>8.4</ele>
        <time>2020-05-17T06:56:10.000Z</time>
      </trkpt>
      <trkpt lat="47.26372" lon="-2.31598">
        <ele>0.20000000298023</ele>
        <time>2020-05-17T06:56:11.000Z</time>
      </trkpt>
      <trkpt lat="47.26372" lon="-2.31604">
        <ele>0.20000000298023</ele>
        <time>2020-05-17T06:56:12.000Z</time>
      </trkpt>
      <trkpt lat="47.26375" lon="-2.3164">
        <ele>0.20000000298023</ele>
        <time>2020-05-17T06:56:18.000Z</time>
      </trkpt>
      <trkpt lat="47.26376" lon="-2.31653">
        <ele>0.20000000298023</ele>
        <time>2020-05-17T06:56:20.000Z</time>
      </trkpt>
      <trkpt lat="47.2638" lon="-2.31672">
        <ele>0.20000000298023</ele>
        <time>2020-05-17T06:56:23.000Z</time>
      </trkpt>
      <trkpt lat="47.26378" lon="-2.31675">
        <ele>0.20000000298023</ele>
        <time>2020-05-17T06:56:24.000Z</time>
      </trkpt>
      <trkpt lat="47.26372" lon="-2.3168">
        <ele>0.20000000298023</ele>
        <time>2020-05-17T06:56:26.000Z</time>
      </trkpt>
      <trkpt lat="47.26352" lon="-2.31695">
        <ele>0.20000000298023</ele>
        <time>2020-05-17T06:56:31.000Z</time>
      </trkpt>
      <trkpt lat="47.26327" lon="-2.31711">
        <ele>-0.20000000298023</ele>
        <time>2020-05-17T06:56:36.000Z</time>
      </trkpt>
      <trkpt lat="47.26322" lon="-2.31714">
        <ele>-0.60000002384186</ele>
        <time>2020-05-17T06:56:37.000Z</time>
      </trkpt>
      <trkpt lat="47.26317" lon="-2.31716">
        <ele>-1</ele>
        <time>2020-05-17T06:56:38.000Z</time>
      </trkpt>
      <trkpt lat="47.26312" lon="-2.31719">
        <ele>-1.3999999761581</ele>
        <time>2020-05-17T06:56:39.000Z</time>
      </trkpt>
      <trkpt lat="47.26306" lon="-2.31722">
        <ele>-2</ele>
        <time>2020-05-17T06:56:40.000Z</time>
      </trkpt>
      <trkpt lat="47.26288" lon="-2.31732">
        <ele>-2.4000000953674</ele>
        <time>2020-05-17T06:56:44.000Z</time>
      </trkpt>
      <trkpt lat="47.26284" lon="-2.31735">
        <ele>-2.7999999523163</ele>
        <time>2020-05-17T06:56:45.000Z</time>
      </trkpt>
      <trkpt lat="47.26283" lon="-2.31739">
        <ele>-3.2000000476837</ele>
        <time>2020-05-17T06:56:46.000Z</time>
      </trkpt>
      <trkpt lat="47.26282" lon="-2.31742">
        <ele>-3.5999999046326</ele>
        <time>2020-05-17T06:56:47.000Z</time>
      </trkpt>
      <trkpt lat="47.26281" lon="-2.31745">
        <ele>-4</ele>
        <time>2020-05-17T06:56:48.000Z</time>
      </trkpt>
      <trkpt lat="47.2628" lon="-2.31761">
        <ele>-4</ele>
        <time>2020-05-17T06:56:52.000Z</time>
      </trkpt>
      <trkpt lat="47.2628" lon="-2.31773">
        <ele>-4</ele>
        <time>2020-05-17T06:56:54.000Z</time>
      </trkpt>
      <trkpt lat="47.26277" lon="-2.31814">
        <ele>-4</ele>
        <time>2020-05-17T06:57:00.000Z</time>
      </trkpt>
      <trkpt lat="47.26274" lon="-2.31853">
        <ele>-4</ele>
        <time>2020-05-17T06:57:06.000Z</time>
      </trkpt>
      <trkpt lat="47.26273" lon="-2.31877">
        <ele>-4</ele>
        <time>2020-05-17T06:57:11.000Z</time>
      </trkpt>
      <trkpt lat="47.26272" lon="-2.31881">
        <ele>-4</ele>
        <time>2020-05-17T06:57:12.000Z</time>
      </trkpt>
      <trkpt lat="47.26268" lon="-2.31888">
        <ele>-4</ele>
        <time>2020-05-17T06:57:15.000Z</time>
      </trkpt>
      <trkpt lat="47.26265" lon="-2.3189">
        <ele>-4</ele>
        <time>2020-05-17T06:57:16.000Z</time>
      </trkpt>
      <trkpt lat="47.26257" lon="-2.31895">
        <ele>-4</ele>
        <time>2020-05-17T06:57:19.000Z</time>
      </trkpt>
      <trkpt lat="47.26247" lon="-2.31912">
        <ele>-4</ele>
        <time>2020-05-17T06:57:23.000Z</time>
      </trkpt>
      <trkpt lat="47.26238" lon="-2.3193">
        <ele>-4.4000000953674</ele>
        <time>2020-05-17T06:57:27.000Z</time>
      </trkpt>
      <trkpt lat="47.26235" lon="-2.31935">
        <ele>-4.8000001907349</ele>
        <time>2020-05-17T06:57:28.000Z</time>
      </trkpt>
      <trkpt lat="47.26232" lon="-2.31939">
        <ele>-5.1999998092651</ele>
        <time>2020-05-17T06:57:29.000Z</time>
      </trkpt>
      <trkpt lat="47.2623" lon="-2.31943">
        <ele>-5.5999999046326</ele>
        <time>2020-05-17T06:57:30.000Z</time>
      </trkpt>
      <trkpt lat="47.26228" lon="-2.31948">
        <ele>-6</ele>
        <time>2020-05-17T06:57:31.000Z</time>
      </trkpt>
      <trkpt lat="47.26221" lon="-2.31956">
        <ele>-6</ele>
        <time>2020-05-17T06:57:34.000Z</time>
      </trkpt>
      <trkpt lat="47.26208" lon="-2.31969">
        <ele>-6</ele>
        <time>2020-05-17T06:57:39.000Z</time>
      </trkpt>
      <trkpt lat="47.26193" lon="-2.31988">
        <ele>-6</ele>
        <time>2020-05-17T06:57:45.000Z</time>
      </trkpt>
      <trkpt lat="47.26186" lon="-2.31999">
        <ele>-6</ele>
        <time>2020-05-17T06:57:50.000Z</time>
      </trkpt>
      <trkpt lat="47.26182" lon="-2.32008">
        <ele>-6</ele>
        <time>2020-05-17T06:57:54.000Z</time>
      </trkpt>
      <trkpt lat="47.26178" lon="-2.32009">
        <ele>-6</ele>
        <time>2020-05-17T06:57:56.000Z</time>
      </trkpt>
      <trkpt lat="47.26163" lon="-2.32016">
        <ele>-6</ele>
        <time>2020-05-17T06:58:01.000Z</time>
      </trkpt>
      <trkpt lat="47.26158" lon="-2.32018">
        <ele>-6</ele>
        <time>2020-05-17T06:58:02.000Z</time>
      </trkpt>
      <trkpt lat="47.26151" lon="-2.32027">
        <ele>-6</ele>
        <time>2020-05-17T06:58:04.000Z</time>
      </trkpt>
      <trkpt lat="47.26147" lon="-2.32032">
        <ele>-6</ele>
        <time>2020-05-17T06:58:05.000Z</time>
      </trkpt>
      <trkpt lat="47.26141" lon="-2.32043">
        <ele>-6</ele>
        <time>2020-05-17T06:58:07.000Z</time>
      </trkpt>
      <trkpt lat="47.26134" lon="-2.32064">
        <ele>-6</ele>
        <time>2020-05-17T06:58:10.000Z</time>
      </trkpt>
      <trkpt lat="47.2612" lon="-2.32118">
        <ele>-6</ele>
        <time>2020-05-17T06:58:18.000Z</time>
      </trkpt>
      <trkpt lat="47.26104" lon="-2.32165">
        <ele>-6</ele>
        <time>2020-05-17T06:58:25.000Z</time>
      </trkpt>
      <trkpt lat="47.26084" lon="-2.32204">
        <ele>-6</ele>
        <time>2020-05-17T06:58:31.000Z</time>
      </trkpt>
      <trkpt lat="47.2608" lon="-2.3221">
        <ele>-6</ele>
        <time>2020-05-17T06:58:32.000Z</time>
      </trkpt>
      <trkpt lat="47.26052" lon="-2.32248">
        <ele>-6</ele>
        <time>2020-05-17T06:58:39.000Z</time>
      </trkpt>
      <trkpt lat="47.26022" lon="-2.32284">
        <ele>-6</ele>
        <time>2020-05-17T06:58:46.000Z</time>
      </trkpt>
      <trkpt lat="47.25989" lon="-2.32329">
        <ele>-6</ele>
        <time>2020-05-17T06:58:54.000Z</time>
      </trkpt>
      <trkpt lat="47.25956" lon="-2.32376">
        <ele>-6</ele>
        <time>2020-05-17T06:59:02.000Z</time>
      </trkpt>
      <trkpt lat="47.25922" lon="-2.32422">
        <ele>-6</ele>
        <time>2020-05-17T06:59:10.000Z</time>
      </trkpt>
      <trkpt lat="47.2591" lon="-2.32439">
        <ele>-6</ele>
        <time>2020-05-17T06:59:13.000Z</time>
      </trkpt>
      <trkpt lat="47.259" lon="-2.32454">
        <ele>-6</ele>
        <time>2020-05-17T06:59:16.000Z</time>
      </trkpt>
      <trkpt lat="47.25887" lon="-2.32465">
        <ele>-6</ele>
        <time>2020-05-17T06:59:20.000Z</time>
      </trkpt>
      <trkpt lat="47.25882" lon="-2.32468">
        <ele>-6</ele>
        <time>2020-05-17T06:59:21.000Z</time>
      </trkpt>
      <trkpt lat="47.25853" lon="-2.32474">
        <ele>-6</ele>
        <time>2020-05-17T06:59:27.000Z</time>
      </trkpt>
      <trkpt lat="47.25838" lon="-2.32473">
        <ele>-6</ele>
        <time>2020-05-17T06:59:30.000Z</time>
      </trkpt>
      <trkpt lat="47.25823" lon="-2.32467">
        <ele>-6</ele>
        <time>2020-05-17T06:59:33.000Z</time>
      </trkpt>
      <trkpt lat="47.25808" lon="-2.3246">
        <ele>-6</ele>
        <time>2020-05-17T06:59:36.000Z</time>
      </trkpt>
      <trkpt lat="47.25799" lon="-2.32457">
        <ele>-6</ele>
        <time>2020-05-17T06:59:38.000Z</time>
      </trkpt>
      <trkpt lat="47.25794" lon="-2.32458">
        <ele>-6</ele>
        <time>2020-05-17T06:59:39.000Z</time>
      </trkpt>
      <trkpt lat="47.25778" lon="-2.32455">
        <ele>-6</ele>
        <time>2020-05-17T06:59:43.000Z</time>
      </trkpt>
      <trkpt lat="47.25771" lon="-2.32439">
        <ele>-5.5999999046326</ele>
        <time>2020-05-17T06:59:46.000Z</time>
      </trkpt>
      <trkpt lat="47.25768" lon="-2.32435">
        <ele>-5.1999998092651</ele>
        <time>2020-05-17T06:59:47.000Z</time>
      </trkpt>
      <trkpt lat="47.25764" lon="-2.32431">
        <ele>-4.8000001907349</ele>
        <time>2020-05-17T06:59:48.000Z</time>
      </trkpt>
      <trkpt lat="47.25759" lon="-2.32429">
        <ele>-4.4000000953674</ele>
        <time>2020-05-17T06:59:49.000Z</time>
      </trkpt>
      <trkpt lat="47.25754" lon="-2.32428">
        <ele>-4</ele>
        <time>2020-05-17T06:59:50.000Z</time>
      </trkpt>
      <trkpt lat="47.25743" lon="-2.32429">
        <ele>-4</ele>
        <time>2020-05-17T06:59:52.000Z</time>
      </trkpt>
      <trkpt lat="47.25725" lon="-2.32428">
        <ele>-4</ele>
        <time>2020-05-17T06:59:55.000Z</time>
      </trkpt>
      <trkpt lat="47.2568" lon="-2.32424">
        <ele>-4</ele>
        <time>2020-05-17T07:00:03.000Z</time>
      </trkpt>
      <trkpt lat="47.25661" lon="-2.32425">
        <ele>-4</ele>
        <time>2020-05-17T07:00:07.000Z</time>
      </trkpt>
      <trkpt lat="47.25658" lon="-2.32431">
        <ele>-4</ele>
        <time>2020-05-17T07:00:08.000Z</time>
      </trkpt>
      <trkpt lat="47.25659" lon="-2.32445">
        <ele>-4</ele>
        <time>2020-05-17T07:00:10.000Z</time>
      </trkpt>
      <trkpt lat="47.25664" lon="-2.32466">
        <ele>-4</ele>
        <time>2020-05-17T07:00:13.000Z</time>
      </trkpt>
      <trkpt lat="47.25669" lon="-2.32479">
        <ele>-4</ele>
        <time>2020-05-17T07:00:15.000Z</time>
      </trkpt>
      <trkpt lat="47.25684" lon="-2.32524">
        <ele>-4</ele>
        <time>2020-05-17T07:00:22.000Z</time>
      </trkpt>
      <trkpt lat="47.25686" lon="-2.3253">
        <ele>-3.5999999046326</ele>
        <time>2020-05-17T07:00:23.000Z</time>
      </trkpt>
      <trkpt lat="47.25688" lon="-2.32536">
        <ele>-3</ele>
        <time>2020-05-17T07:00:24.000Z</time>
      </trkpt>
      <trkpt lat="47.25689" lon="-2.32543">
        <ele>-2.5999999046326</ele>
        <time>2020-05-17T07:00:25.000Z</time>
      </trkpt>
      <trkpt lat="47.25691" lon="-2.32549">
        <ele>-2.2000000476837</ele>
        <time>2020-05-17T07:00:26.000Z</time>
      </trkpt>
      <trkpt lat="47.25693" lon="-2.32555">
        <ele>-1.7999999523163</ele>
        <time>2020-05-17T07:00:27.000Z</time>
      </trkpt>
      <trkpt lat="47.25695" lon="-2.32562">
        <ele>-1.7999999523163</ele>
        <time>2020-05-17T07:00:28.000Z</time>
      </trkpt>
      <trkpt lat="47.25697" lon="-2.32568">
        <ele>-1.7999999523163</ele>
        <time>2020-05-17T07:00:29.000Z</time>
      </trkpt>
      <trkpt lat="47.25707" lon="-2.3262">
        <ele>-1.7999999523163</ele>
        <time>2020-05-17T07:00:37.000Z</time>
      </trkpt>
      <trkpt lat="47.25695" lon="-2.3263">
        <ele>-1.7999999523163</ele>
        <time>2020-05-17T07:00:40.000Z</time>
      </trkpt>
      <trkpt lat="47.25686" lon="-2.32633">
        <ele>-1</ele>
        <time>2020-05-17T07:00:42.000Z</time>
      </trkpt>
      <trkpt lat="47.25681" lon="-2.32635">
        <ele>-0.40000000596046</ele>
        <time>2020-05-17T07:00:43.000Z</time>
      </trkpt>
      <trkpt lat="47.25676" lon="-2.32637">
        <ele>10.7</ele>
        <time>2020-05-17T07:00:44.000Z</time>
      </trkpt>
      <trkpt lat="47.25672" lon="-2.32639">
        <ele>0.40000000596046</ele>
        <time>2020-05-17T07:00:45.000Z</time>
      </trkpt>
      <trkpt lat="47.25667" lon="-2.32641">
        <ele>0.40000000596046</ele>
        <time>2020-05-17T07:00:46.000Z</time>
      </trkpt>
      <trkpt lat="47.25658" lon="-2.32643">
        <ele>0.40000000596046</ele>
        <time>2020-05-17T07:00:48.000Z</time>
      </trkpt>
      <trkpt lat="47.2564" lon="-2.32652">
        <ele>0.40000000596046</ele>
        <time>2020-05-17T07:00:52.000Z</time>
      </trkpt>
      <trkpt lat="47.25613" lon="-2.32665">
        <ele>0.80000001192093</ele>
        <time>2020-05-17T07:00:58.000Z</time>
      </trkpt>
      <trkpt lat="47.25608" lon="-2.32667">
        <ele>1.2000000476837</ele>
        <time>2020-05-17T07:00:59.000Z</time>
      </trkpt>
      <trkpt lat="47.25603" lon="-2.32669">
        <ele>1.7999999523163</ele>
        <time>2020-05-17T07:01:00.000Z</time>
      </trkpt>
      <trkpt lat="47.25599" lon="-2.32671">
        <ele>2.2000000476837</ele>
        <time>2020-05-17T07:01:01.000Z</time>
      </trkpt>
      <trkpt lat="47.25594" lon="-2.32673">
        <ele>2.5999999046326</ele>
        <time>2020-05-17T07:01:02.000Z</time>
      </trkpt>
      <trkpt lat="47.25559" lon="-2.32688">
        <ele>2.5999999046326</ele>
        <time>2020-05-17T07:01:09.000Z</time>
      </trkpt>
      <trkpt lat="47.25517" lon="-2.32705">
        <ele>2.5999999046326</ele>
        <time>2020-05-17T07:01:17.000Z</time>
      </trkpt>
      <trkpt lat="47.25511" lon="-2.32706">
        <ele>2.5999999046326</ele>
        <time>2020-05-17T07:01:18.000Z</time>
      </trkpt>
      <trkpt lat="47.25488" lon="-2.32709">
        <ele>2.5999999046326</ele>
        <time>2020-05-17T07:01:22.000Z</time>
      </trkpt>
      <trkpt lat="47.25478" lon="-2.32712">
        <ele>2.5999999046326</ele>
        <time>2020-05-17T07:01:24.000Z</time>
      </trkpt>
      <trkpt lat="47.25464" lon="-2.32725">
        <ele>2.5999999046326</ele>
        <time>2020-05-17T07:01:27.000Z</time>
      </trkpt>
      <trkpt lat="47.25452" lon="-2.32743">
        <ele>2.5999999046326</ele>
        <time>2020-05-17T07:01:30.000Z</time>
      </trkpt>
      <trkpt lat="47.2544" lon="-2.32761">
        <ele>2.5999999046326</ele>
        <time>2020-05-17T07:01:33.000Z</time>
      </trkpt>
      <trkpt lat="47.2543" lon="-2.3278">
        <ele>2.5999999046326</ele>
        <time>2020-05-17T07:01:36.000Z</time>
      </trkpt>
      <trkpt lat="47.25423" lon="-2.32794">
        <ele>2.5999999046326</ele>
        <time>2020-05-17T07:01:38.000Z</time>
      </trkpt>
      <trkpt lat="47.25415" lon="-2.32806">
        <ele>2.5999999046326</ele>
        <time>2020-05-17T07:01:40.000Z</time>
      </trkpt>
      <trkpt lat="47.25397" lon="-2.32833">
        <ele>2.5999999046326</ele>
        <time>2020-05-17T07:01:44.000Z</time>
      </trkpt>
      <trkpt lat="47.2536" lon="-2.32875">
        <ele>2.5999999046326</ele>
        <time>2020-05-17T07:01:51.000Z</time>
      </trkpt>
      <trkpt lat="47.25317" lon="-2.32915">
        <ele>2.5999999046326</ele>
        <time>2020-05-17T07:01:59.000Z</time>
      </trkpt>
      <trkpt lat="47.25312" lon="-2.32921">
        <ele>2.5999999046326</ele>
        <time>2020-05-17T07:02:00.000Z</time>
      </trkpt>
      <trkpt lat="47.25303" lon="-2.32935">
        <ele>2.2000000476837</ele>
        <time>2020-05-17T07:02:02.000Z</time>
      </trkpt>
      <trkpt lat="47.25301" lon="-2.32943">
        <ele>1.7999999523163</ele>
        <time>2020-05-17T07:02:03.000Z</time>
      </trkpt>
      <trkpt lat="47.25302" lon="-2.32951">
        <ele>1.3999999761581</ele>
        <time>2020-05-17T07:02:04.000Z</time>
      </trkpt>
      <trkpt lat="47.25304" lon="-2.3296">
        <ele>1</ele>
        <time>2020-05-17T07:02:05.000Z</time>
      </trkpt>
      <trkpt lat="47.25307" lon="-2.32967">
        <ele>0.60000002384186</ele>
        <time>2020-05-17T07:02:06.000Z</time>
      </trkpt>
      <trkpt lat="47.2531" lon="-2.32975">
        <ele>0.60000002384186</ele>
        <time>2020-05-17T07:02:07.000Z</time>
      </trkpt>
      <trkpt lat="47.25319" lon="-2.32996">
        <ele>0.60000002384186</ele>
        <time>2020-05-17T07:02:10.000Z</time>
      </trkpt>
      <trkpt lat="47.25346" lon="-2.33059">
        <ele>0.60000002384186</ele>
        <time>2020-05-17T07:02:19.000Z</time>
      </trkpt>
      <trkpt lat="47.25362" lon="-2.33099">
        <ele>0.60000002384186</ele>
        <time>2020-05-17T07:02:25.000Z</time>
      </trkpt>
      <trkpt lat="47.25368" lon="-2.33113">
        <ele>0.60000002384186</ele>
        <time>2020-05-17T07:02:29.000Z</time>
      </trkpt>
      <trkpt lat="47.25365" lon="-2.33118">
        <ele>0.60000002384186</ele>
        <time>2020-05-17T07:02:32.000Z</time>
      </trkpt>
      <trkpt lat="47.25366" lon="-2.33118">
        <ele>0.60000002384186</ele>
        <time>2020-05-17T07:02:38.000Z</time>
      </trkpt>
      <trkpt lat="47.25366" lon="-2.33118">
        <ele>0.60000002384186</ele>
        <time>2020-05-17T07:02:56.000Z</time>
      </trkpt>
      <trkpt lat="47.25366" lon="-2.33118">
        <ele>0.60000002384186</ele>
        <time>2020-05-17T07:03:13.000Z</time>
      </trkpt>
      <trkpt lat="47.25366" lon="-2.33118">
        <ele>0.60000002384186</ele>
        <time>2020-05-17T07:03:31.000Z</time>
      </trkpt>
      <trkpt lat="47.25366" lon="-2.33118">
        <ele>0.60000002384186</ele>
        <time>2020-05-17T07:03:48.000Z</time>
      </trkpt>
      <trkpt lat="47.25367" lon="-2.33118">
        <ele>0.60000002384186</ele>
        <time>2020-05-17T07:04:07.000Z</time>
      </trkpt>
      <trkpt lat="47.25367" lon="-2.33118">
        <ele>0.60000002384186</ele>
        <time>2020-05-17T07:04:21.000Z</time>
      </trkpt>
      <trkpt lat="47.25367" lon="-2.33118">
        <ele>0.60000002384186</ele>
        <time>2020-05-17T07:04:36.000Z</time>
      </trkpt>
      <trkpt lat="47.25367" lon="-2.33118">
        <ele>0.60000002384186</ele>
        <time>2020-05-17T07:04:52.000Z</time>
      </trkpt>
      <trkpt lat="47.25367" lon="-2.33118">
        <ele>0.60000002384186</ele>
        <time>2020-05-17T07:05:06.000Z</time>
      </trkpt>
      <trkpt lat="47.25368" lon="-2.33118">
        <ele>0.60000002384186</ele>
        <time>2020-05-17T07:05:21.000Z</time>
      </trkpt>
      <trkpt lat="47.25368" lon="-2.33118">
        <ele>0.60000002384186</ele>
        <time>2020-05-17T07:05:36.000Z</time>
      </trkpt>
      <trkpt lat="47.25368" lon="-2.33118">
        <ele>0.60000002384186</ele>
        <time>2020-05-17T07:05:51.000Z</time>
      </trkpt>
      <trkpt lat="47.25368" lon="-2.33117">
        <ele>0.60000002384186</ele>
        <time>2020-05-17T07:06:07.000Z</time>
      </trkpt>
      <trkpt lat="47.25368" lon="-2.33117">
        <ele>0.60000002384186</ele>
        <time>2020-05-17T07:06:22.000Z</time>
      </trkpt>
      <trkpt lat="47.25369" lon="-2.33117">
        <ele>0.60000002384186</ele>
        <time>2020-05-17T07:06:44.000Z</time>
      </trkpt>
      <trkpt lat="47.25369" lon="-2.33117">
        <ele>0.60000002384186</ele>
        <time>2020-05-17T07:07:02.000Z</time>
      </trkpt>
      <trkpt lat="47.25369" lon="-2.33117">
        <ele>0.60000002384186</ele>
        <time>2020-05-17T07:07:22.000Z</time>
      </trkpt>
      <trkpt lat="47.25369" lon="-2.33117">
        <ele>0.60000002384186</ele>
        <time>2020-05-17T07:07:40.000Z</time>
      </trkpt>
      <trkpt lat="47.2537" lon="-2.33117">
        <ele>0.60000002384186</ele>
        <time>2020-05-17T07:07:55.000Z</time>
      </trkpt>
      <trkpt lat="47.2537" lon="-2.33117">
        <ele>0.60000002384186</ele>
        <time>2020-05-17T07:08:08.000Z</time>
      </trkpt>
      <trkpt lat="47.2537" lon="-2.33117">
        <ele>0.60000002384186</ele>
        <time>2020-05-17T07:08:23.000Z</time>
      </trkpt>
      <trkpt lat="47.2537" lon="-2.33116">
        <ele>0.60000002384186</ele>
        <time>2020-05-17T07:08:41.000Z</time>
      </trkpt>
      <trkpt lat="47.2537" lon="-2.33116">
        <ele>0.60000002384186</ele>
        <time>2020-05-17T07:09:02.000Z</time>
      </trkpt>
      <trkpt lat="47.2537" lon="-2.33116">
        <ele>0.60000002384186</ele>
        <time>2020-05-17T07:09:20.000Z</time>
      </trkpt>
      <trkpt lat="47.2537" lon="-2.33116">
        <ele>0.60000002384186</ele>
        <time>2020-05-17T07:09:39.000Z</time>
      </trkpt>
      <trkpt lat="47.2537" lon="-2.33116">
        <ele>0.60000002384186</ele>
        <time>2020-05-17T07:09:55.000Z</time>
      </trkpt>
      <trkpt lat="47.2537" lon="-2.33116">
        <ele>0.60000002384186</ele>
        <time>2020-05-17T07:10:09.000Z</time>
      </trkpt>
      <trkpt lat="47.2537" lon="-2.33116">
        <ele>0.60000002384186</ele>
        <time>2020-05-17T07:10:23.000Z</time>
      </trkpt>
      <trkpt lat="47.25369" lon="-2.33114">
        <ele>0.60000002384186</ele>
        <time>2020-05-17T07:10:41.000Z</time>
      </trkpt>
      <trkpt lat="47.25369" lon="-2.33114">
        <ele>0.60000002384186</ele>
        <time>2020-05-17T07:10:56.000Z</time>
      </trkpt>
      <trkpt lat="47.2537" lon="-2.33115">
        <ele>0.60000002384186</ele>
        <time>2020-05-17T07:11:13.000Z</time>
      </trkpt>
      <trkpt lat="47.2537" lon="-2.33115">
        <ele>0.60000002384186</ele>
        <time>2020-05-17T07:11:30.000Z</time>
      </trkpt>
      <trkpt lat="47.2537" lon="-2.33111">
        <ele>0.60000002384186</ele>
        <time>2020-05-17T07:11:35.000Z</time>
      </trkpt>
      <trkpt lat="47.25368" lon="-2.33106">
        <ele>0.60000002384186</ele>
        <time>2020-05-17T07:11:43.000Z</time>
      </trkpt>
      <trkpt lat="47.25368" lon="-2.33105">
        <ele>0.60000002384186</ele>
        <time>2020-05-17T07:11:48.000Z</time>
      </trkpt>
      <trkpt lat="47.25368" lon="-2.33104">
        <ele>0.60000002384186</ele>
        <time>2020-05-17T07:11:55.000Z</time>
      </trkpt>
      <trkpt lat="47.25368" lon="-2.33104">
        <ele>0.60000002384186</ele>
        <time>2020-05-17T07:12:03.000Z</time>
      </trkpt>
      <trkpt lat="47.25368" lon="-2.33105">
        <ele>0.60000002384186</ele>
        <time>2020-05-17T07:12:04.000Z</time>
      </trkpt>
      <trkpt lat="47.2537" lon="-2.33109">
        <ele>0.60000002384186</ele>
        <time>2020-05-17T07:12:08.000Z</time>
      </trkpt>
      <trkpt lat="47.25377" lon="-2.33124">
        <ele>0.60000002384186</ele>
        <time>2020-05-17T07:12:14.000Z</time>
      </trkpt>
      <trkpt lat="47.2538" lon="-2.33151">
        <ele>0.60000002384186</ele>
        <time>2020-05-17T07:12:20.000Z</time>
      </trkpt>
      <trkpt lat="47.25379" lon="-2.33156">
        <ele>0.60000002384186</ele>
        <time>2020-05-17T07:12:21.000Z</time>
      </trkpt>
      <trkpt lat="47.25374" lon="-2.33162">
        <ele>0.60000002384186</ele>
        <time>2020-05-17T07:12:23.000Z</time>
      </trkpt>
      <trkpt lat="47.25353" lon="-2.3319">
        <ele>0.60000002384186</ele>
        <time>2020-05-17T07:12:30.000Z</time>
      </trkpt>
      <trkpt lat="47.25328" lon="-2.33223">
        <ele>0.60000002384186</ele>
        <time>2020-05-17T07:12:37.000Z</time>
      </trkpt>
      <trkpt lat="47.25324" lon="-2.33227">
        <ele>0.60000002384186</ele>
        <time>2020-05-17T07:12:38.000Z</time>
      </trkpt>
      <trkpt lat="47.25317" lon="-2.33229">
        <ele>0.60000002384186</ele>
        <time>2020-05-17T07:12:40.000Z</time>
      </trkpt>
      <trkpt lat="47.25308" lon="-2.33219">
        <ele>0.60000002384186</ele>
        <time>2020-05-17T07:12:43.000Z</time>
      </trkpt>
      <trkpt lat="47.25303" lon="-2.33209">
        <ele>0.60000002384186</ele>
        <time>2020-05-17T07:12:45.000Z</time>
      </trkpt>
      <trkpt lat="47.25295" lon="-2.33193">
        <ele>0.60000002384186</ele>
        <time>2020-05-17T07:12:48.000Z</time>
      </trkpt>
      <trkpt lat="47.25275" lon="-2.33155">
        <ele>0.60000002384186</ele>
        <time>2020-05-17T07:12:55.000Z</time>
      </trkpt>
      <trkpt lat="47.2525" lon="-2.33112">
        <ele>0.60000002384186</ele>
        <time>2020-05-17T07:13:03.000Z</time>
      </trkpt>
      <trkpt lat="47.25244" lon="-2.33102">
        <ele>0.60000002384186</ele>
        <time>2020-05-17T07:13:05.000Z</time>
      </trkpt>
      <trkpt lat="47.25229" lon="-2.33076">
        <ele>0.60000002384186</ele>
        <time>2020-05-17T07:13:10.000Z</time>
      </trkpt>
      <trkpt lat="47.25216" lon="-2.3305">
        <ele>0.60000002384186</ele>
        <time>2020-05-17T07:13:15.000Z</time>
      </trkpt>
      <trkpt lat="47.25212" lon="-2.33041">
        <ele>0.60000002384186</ele>
        <time>2020-05-17T07:13:17.000Z</time>
      </trkpt>
      <trkpt lat="47.25205" lon="-2.33029">
        <ele>0.60000002384186</ele>
        <time>2020-05-17T07:13:21.000Z</time>
      </trkpt>
      <trkpt lat="47.25199" lon="-2.33013">
        <ele>0.60000002384186</ele>
        <time>2020-05-17T07:13:27.000Z</time>
      </trkpt>
      <trkpt lat="47.25196" lon="-2.33008">
        <ele>1</ele>
        <time>2020-05-17T07:13:29.000Z</time>
      </trkpt>
      <trkpt lat="47.25194" lon="-2.33005">
        <ele>1.3999999761581</ele>
        <time>2020-05-17T07:13:30.000Z</time>
      </trkpt>
      <trkpt lat="47.25192" lon="-2.33002">
        <ele>1.7999999523163</ele>
        <time>2020-05-17T07:13:31.000Z</time>
      </trkpt>
      <trkpt lat="47.25191" lon="-2.32998">
        <ele>2.2000000476837</ele>
        <time>2020-05-17T07:13:32.000Z</time>
      </trkpt>
      <trkpt lat="47.2519" lon="-2.32994">
        <ele>2.5999999046326</ele>
        <time>2020-05-17T07:13:33.000Z</time>
      </trkpt>
      <trkpt lat="47.25183" lon="-2.32974">
        <ele>2.5999999046326</ele>
        <time>2020-05-17T07:13:38.000Z</time>
      </trkpt>
      <trkpt lat="47.25178" lon="-2.32964">
        <ele>2.5999999046326</ele>
        <time>2020-05-17T07:13:45.000Z</time>
      </trkpt>
      <trkpt lat="47.25176" lon="-2.32958">
        <ele>2.5999999046326</ele>
        <time>2020-05-17T07:13:50.000Z</time>
      </trkpt>
      <trkpt lat="47.25175" lon="-2.32955">
        <ele>2.5999999046326</ele>
        <time>2020-05-17T07:13:52.000Z</time>
      </trkpt>
      <trkpt lat="47.25169" lon="-2.32947">
        <ele>2.5999999046326</ele>
        <time>2020-05-17T07:13:58.000Z</time>
      </trkpt>
      <trkpt lat="47.25166" lon="-2.32943">
        <ele>2.2000000476837</ele>
        <time>2020-05-17T07:14:01.000Z</time>
      </trkpt>
      <trkpt lat="47.25165" lon="-2.32943">
        <ele>1.7999999523163</ele>
        <time>2020-05-17T07:14:02.000Z</time>
      </trkpt>
      <trkpt lat="47.25165" lon="-2.32943">
        <ele>1.3999999761581</ele>
        <time>2020-05-17T07:14:03.000Z</time>
      </trkpt>
      <trkpt lat="47.25165" lon="-2.32943">
        <ele>1</ele>
        <time>2020-05-17T07:14:04.000Z</time>
      </trkpt>
      <trkpt lat="47.25165" lon="-2.32943">
        <ele>0.60000002384186</ele>
        <time>2020-05-17T07:14:05.000Z</time>
      </trkpt>
      <trkpt lat="47.25165" lon="-2.32943">
        <ele>0.60000002384186</ele>
        <time>2020-05-17T07:14:06.000Z</time>
      </trkpt>
      <trkpt lat="47.25161" lon="-2.32945">
        <ele>0.60000002384186</ele>
        <time>2020-05-17T07:14:10.000Z</time>
      </trkpt>
      <trkpt lat="47.2516" lon="-2.32947">
        <ele>0.60000002384186</ele>
        <time>2020-05-17T07:14:16.000Z</time>
      </trkpt>
      <trkpt lat="47.25159" lon="-2.32944">
        <ele>0.60000002384186</ele>
        <time>2020-05-17T07:14:21.000Z</time>
      </trkpt>
      <trkpt lat="47.25157" lon="-2.32943">
        <ele>0.60000002384186</ele>
        <time>2020-05-17T07:14:26.000Z</time>
      </trkpt>
      <trkpt lat="47.25156" lon="-2.32942">
        <ele>0.60000002384186</ele>
        <time>2020-05-17T07:14:31.000Z</time>
      </trkpt>
      <trkpt lat="47.25155" lon="-2.32941">
        <ele>0.60000002384186</ele>
        <time>2020-05-17T07:14:32.000Z</time>
      </trkpt>
      <trkpt lat="47.25155" lon="-2.3294">
        <ele>0.60000002384186</ele>
        <time>2020-05-17T07:14:36.000Z</time>
      </trkpt>
      <trkpt lat="47.25147" lon="-2.32929">
        <ele>0.60000002384186</ele>
        <time>2020-05-17T07:14:41.000Z</time>
      </trkpt>
      <trkpt lat="47.2514" lon="-2.32922">
        <ele>0.60000002384186</ele>
        <time>2020-05-17T07:14:43.000Z</time>
      </trkpt>
      <trkpt lat="47.25133" lon="-2.32915">
        <ele>0.60000002384186</ele>
        <time>2020-05-17T07:14:45.000Z</time>
      </trkpt>
      <trkpt lat="47.25126" lon="-2.3291">
        <ele>0.60000002384186</ele>
        <time>2020-05-17T07:14:47.000Z</time>
      </trkpt>
      <trkpt lat="47.25121" lon="-2.32901">
        <ele>0.60000002384186</ele>
        <time>2020-05-17T07:14:49.000Z</time>
      </trkpt>
      <trkpt lat="47.25111" lon="-2.32878">
        <ele>1.2000000476837</ele>
        <time>2020-05-17T07:14:54.000Z</time>
      </trkpt>
      <trkpt lat="47.25109" lon="-2.32873">
        <ele>1.6000000238419</ele>
        <time>2020-05-17T07:14:55.000Z</time>
      </trkpt>
      <trkpt lat="47.25108" lon="-2.32868">
        <ele>2</ele>
        <time>2020-05-17T07:14:56.000Z</time>
      </trkpt>
      <trkpt lat="47.25105" lon="-2.32863">
        <ele>2.5999999046326</ele>
        <time>2020-05-17T07:14:57.000Z</time>
      </trkpt>
      <trkpt lat="47.25103" lon="-2.32858">
        <ele>3</ele>
        <time>2020-05-17T07:14:58.000Z</time>
      </trkpt>
      <trkpt lat="47.251" lon="-2.32855">
        <ele>3</ele>
        <time>2020-05-17T07:14:59.000Z</time>
      </trkpt>
      <trkpt lat="47.25094" lon="-2.3285">
        <ele>3</ele>
        <time>2020-05-17T07:15:01.000Z</time>
      </trkpt>
      <trkpt lat="47.25092" lon="-2.32846">
        <ele>2.5999999046326</ele>
        <time>2020-05-17T07:15:02.000Z</time>
      </trkpt>
      <trkpt lat="47.25089" lon="-2.32842">
        <ele>2</ele>
        <time>2020-05-17T07:15:03.000Z</time>
      </trkpt>
      <trkpt lat="47.25086" lon="-2.32838">
        <ele>1.6000000238419</ele>
        <time>2020-05-17T07:15:04.000Z</time>
      </trkpt>
      <trkpt lat="47.25082" lon="-2.32837">
        <ele>1.2000000476837</ele>
        <time>2020-05-17T07:15:05.000Z</time>
      </trkpt>
      <trkpt lat="47.25079" lon="-2.32837">
        <ele>0.80000001192093</ele>
        <time>2020-05-17T07:15:06.000Z</time>
      </trkpt>
      <trkpt lat="47.25068" lon="-2.32836">
        <ele>0.80000001192093</ele>
        <time>2020-05-17T07:15:10.000Z</time>
      </trkpt>
      <trkpt lat="47.2506" lon="-2.32827">
        <ele>0.80000001192093</ele>
        <time>2020-05-17T07:15:13.000Z</time>
      </trkpt>
      <trkpt lat="47.25055" lon="-2.3282">
        <ele>0.80000001192093</ele>
        <time>2020-05-17T07:15:14.000Z</time>
      </trkpt>
      <trkpt lat="47.25052" lon="-2.32814">
        <ele>0.80000001192093</ele>
        <time>2020-05-17T07:15:15.000Z</time>
      </trkpt>
      <trkpt lat="47.25043" lon="-2.32787">
        <ele>0.80000001192093</ele>
        <time>2020-05-17T07:15:19.000Z</time>
      </trkpt>
      <trkpt lat="47.25041" lon="-2.32782">
        <ele>0.80000001192093</ele>
        <time>2020-05-17T07:15:20.000Z</time>
      </trkpt>
      <trkpt lat="47.25031" lon="-2.32763">
        <ele>0.80000001192093</ele>
        <time>2020-05-17T07:15:24.000Z</time>
      </trkpt>
      <trkpt lat="47.25023" lon="-2.32757">
        <ele>0.80000001192093</ele>
        <time>2020-05-17T07:15:27.000Z</time>
      </trkpt>
      <trkpt lat="47.25019" lon="-2.32758">
        <ele>0.80000001192093</ele>
        <time>2020-05-17T07:15:28.000Z</time>
      </trkpt>
      <trkpt lat="47.25007" lon="-2.32769">
        <ele>0.80000001192093</ele>
        <time>2020-05-17T07:15:31.000Z</time>
      </trkpt>
      <trkpt lat="47.25003" lon="-2.32773">
        <ele>0.80000001192093</ele>
        <time>2020-05-17T07:15:32.000Z</time>
      </trkpt>
      <trkpt lat="47.24986" lon="-2.32786">
        <ele>0.80000001192093</ele>
        <time>2020-05-17T07:15:37.000Z</time>
      </trkpt>
      <trkpt lat="47.24977" lon="-2.32773">
        <ele>0.80000001192093</ele>
        <time>2020-05-17T07:15:41.000Z</time>
      </trkpt>
      <trkpt lat="47.24975" lon="-2.32768">
        <ele>0.80000001192093</ele>
        <time>2020-05-17T07:15:42.000Z</time>
      </trkpt>
      <trkpt lat="47.24966" lon="-2.32741">
        <ele>0.80000001192093</ele>
        <time>2020-05-17T07:15:46.000Z</time>
      </trkpt>
      <trkpt lat="47.24962" lon="-2.32735">
        <ele>0.80000001192093</ele>
        <time>2020-05-17T07:15:47.000Z</time>
      </trkpt>
      <trkpt lat="47.24954" lon="-2.32714">
        <ele>0.80000001192093</ele>
        <time>2020-05-17T07:15:50.000Z</time>
      </trkpt>
      <trkpt lat="47.24933" lon="-2.32657">
        <ele>0.80000001192093</ele>
        <time>2020-05-17T07:15:58.000Z</time>
      </trkpt>
      <trkpt lat="47.24916" lon="-2.32607">
        <ele>0.80000001192093</ele>
        <time>2020-05-17T07:16:05.000Z</time>
      </trkpt>
      <trkpt lat="47.24911" lon="-2.32593">
        <ele>1.2000000476837</ele>
        <time>2020-05-17T07:16:07.000Z</time>
      </trkpt>
      <trkpt lat="47.24909" lon="-2.32587">
        <ele>1.6000000238419</ele>
        <time>2020-05-17T07:16:08.000Z</time>
      </trkpt>
      <trkpt lat="47.24906" lon="-2.3258">
        <ele>2.2000000476837</ele>
        <time>2020-05-17T07:16:09.000Z</time>
      </trkpt>
      <trkpt lat="47.24904" lon="-2.32573">
        <ele>2.5999999046326</ele>
        <time>2020-05-17T07:16:10.000Z</time>
      </trkpt>
      <trkpt lat="47.24901" lon="-2.32566">
        <ele>3</ele>
        <time>2020-05-17T07:16:11.000Z</time>
      </trkpt>
      <trkpt lat="47.24899" lon="-2.3256">
        <ele>3</ele>
        <time>2020-05-17T07:16:12.000Z</time>
      </trkpt>
      <trkpt lat="47.24882" lon="-2.32513">
        <ele>3</ele>
        <time>2020-05-17T07:16:19.000Z</time>
      </trkpt>
      <trkpt lat="47.24858" lon="-2.3245">
        <ele>3</ele>
        <time>2020-05-17T07:16:28.000Z</time>
      </trkpt>
      <trkpt lat="47.2485" lon="-2.32429">
        <ele>3.4000000953674</ele>
        <time>2020-05-17T07:16:31.000Z</time>
      </trkpt>
      <trkpt lat="47.24847" lon="-2.32422">
        <ele>3.7999999523163</ele>
        <time>2020-05-17T07:16:32.000Z</time>
      </trkpt>
      <trkpt lat="47.24844" lon="-2.32415">
        <ele>4.1999998092651</ele>
        <time>2020-05-17T07:16:33.000Z</time>
      </trkpt>
      <trkpt lat="47.2484" lon="-2.32408">
        <ele>4.5999999046326</ele>
        <time>2020-05-17T07:16:34.000Z</time>
      </trkpt>
      <trkpt lat="47.24837" lon="-2.32402">
        <ele>5</ele>
        <time>2020-05-17T07:16:35.000Z</time>
      </trkpt>
      <trkpt lat="47.24816" lon="-2.32363">
        <ele>5</ele>
        <time>2020-05-17T07:16:41.000Z</time>
      </trkpt>
      <trkpt lat="47.24794" lon="-2.32322">
        <ele>5</ele>
        <time>2020-05-17T07:16:48.000Z</time>
      </trkpt>
      <trkpt lat="47.24768" lon="-2.32277">
        <ele>5</ele>
        <time>2020-05-17T07:16:56.000Z</time>
      </trkpt>
      <trkpt lat="47.24743" lon="-2.3223">
        <ele>5</ele>
        <time>2020-05-17T07:17:04.000Z</time>
      </trkpt>
      <trkpt lat="47.24723" lon="-2.32193">
        <ele>5</ele>
        <time>2020-05-17T07:17:10.000Z</time>
      </trkpt>
      <trkpt lat="47.24691" lon="-2.32132">
        <ele>5</ele>
        <time>2020-05-17T07:17:19.000Z</time>
      </trkpt>
      <trkpt lat="47.24665" lon="-2.32083">
        <ele>5</ele>
        <time>2020-05-17T07:17:27.000Z</time>
      </trkpt>
      <trkpt lat="47.24657" lon="-2.32067">
        <ele>5.4000000953674</ele>
        <time>2020-05-17T07:17:30.000Z</time>
      </trkpt>
      <trkpt lat="47.24654" lon="-2.32061">
        <ele>6</ele>
        <time>2020-05-17T07:17:31.000Z</time>
      </trkpt>
      <trkpt lat="47.24651" lon="-2.32056">
        <ele>6.4000000953674</ele>
        <time>2020-05-17T07:17:32.000Z</time>
      </trkpt>
      <trkpt lat="47.24648" lon="-2.3205">
        <ele>6.8000001907349</ele>
        <time>2020-05-17T07:17:33.000Z</time>
      </trkpt>
      <trkpt lat="47.24645" lon="-2.32044">
        <ele>7.1999998092651</ele>
        <time>2020-05-17T07:17:34.000Z</time>
      </trkpt>
      <trkpt lat="47.24625" lon="-2.32003">
        <ele>7.1999998092651</ele>
        <time>2020-05-17T07:17:42.000Z</time>
      </trkpt>
      <trkpt lat="47.24622" lon="-2.31998">
        <ele>7.5999999046326</ele>
        <time>2020-05-17T07:17:43.000Z</time>
      </trkpt>
      <trkpt lat="47.2462" lon="-2.31994">
        <ele>8</ele>
        <time>2020-05-17T07:17:44.000Z</time>
      </trkpt>
      <trkpt lat="47.24617" lon="-2.3199">
        <ele>8.3999996185303</ele>
        <time>2020-05-17T07:17:45.000Z</time>
      </trkpt>
      <trkpt lat="47.24614" lon="-2.31987">
        <ele>8.8000001907349</ele>
        <time>2020-05-17T07:17:46.000Z</time>
      </trkpt>
      <trkpt lat="47.24612" lon="-2.31983">
        <ele>9.3999996185303</ele>
        <time>2020-05-17T07:17:47.000Z</time>
      </trkpt>
      <trkpt lat="47.24605" lon="-2.31968">
        <ele>9.3999996185303</ele>
        <time>2020-05-17T07:17:51.000Z</time>
      </trkpt>
      <trkpt lat="47.24594" lon="-2.3195">
        <ele>9.3999996185303</ele>
        <time>2020-05-17T07:17:56.000Z</time>
      </trkpt>
      <trkpt lat="47.24582" lon="-2.31929">
        <ele>9.3999996185303</ele>
        <time>2020-05-17T07:18:02.000Z</time>
      </trkpt>
      <trkpt lat="47.24572" lon="-2.31912">
        <ele>9.3999996185303</ele>
        <time>2020-05-17T07:18:09.000Z</time>
      </trkpt>
      <trkpt lat="47.24567" lon="-2.31902">
        <ele>9.8000001907349</ele>
        <time>2020-05-17T07:18:12.000Z</time>
      </trkpt>
      <trkpt lat="47.24566" lon="-2.31899">
        <ele>10.199999809265</ele>
        <time>2020-05-17T07:18:13.000Z</time>
      </trkpt>
      <trkpt lat="47.24565" lon="-2.31895">
        <ele>10.60000038147</ele>
        <time>2020-05-17T07:18:14.000Z</time>
      </trkpt>
      <trkpt lat="47.24564" lon="-2.31892">
        <ele>11</ele>
        <time>2020-05-17T07:18:15.000Z</time>
      </trkpt>
      <trkpt lat="47.24562" lon="-2.31889">
        <ele>11.39999961853</ele>
        <time>2020-05-17T07:18:16.000Z</time>
      </trkpt>
      <trkpt lat="47.24553" lon="-2.31871">
        <ele>11.39999961853</ele>
        <time>2020-05-17T07:18:21.000Z</time>
      </trkpt>
      <trkpt lat="47.24539" lon="-2.31847">
        <ele>11.39999961853</ele>
        <time>2020-05-17T07:18:27.000Z</time>
      </trkpt>
      <trkpt lat="47.24521" lon="-2.31815">
        <ele>11.39999961853</ele>
        <time>2020-05-17T07:18:35.000Z</time>
      </trkpt>
      <trkpt lat="47.24515" lon="-2.31802">
        <ele>12</ele>
        <time>2020-05-17T07:18:38.000Z</time>
      </trkpt>
      <trkpt lat="47.24513" lon="-2.31798">
        <ele>12.39999961853</ele>
        <time>2020-05-17T07:18:39.000Z</time>
      </trkpt>
      <trkpt lat="47.24511" lon="-2.31793">
        <ele>12.800000190735</ele>
        <time>2020-05-17T07:18:40.000Z</time>
      </trkpt>
      <trkpt lat="47.24508" lon="-2.31789">
        <ele>13.199999809265</ele>
        <time>2020-05-17T07:18:41.000Z</time>
      </trkpt>
      <trkpt lat="47.24506" lon="-2.31785">
        <ele>13.800000190735</ele>
        <time>2020-05-17T07:18:42.000Z</time>
      </trkpt>
      <trkpt lat="47.24492" lon="-2.31758">
        <ele>13.800000190735</ele>
        <time>2020-05-17T07:18:48.000Z</time>
      </trkpt>
      <trkpt lat="47.24475" lon="-2.31724">
        <ele>13.800000190735</ele>
        <time>2020-05-17T07:18:56.000Z</time>
      </trkpt>
      <trkpt lat="47.24462" lon="-2.31698">
        <ele>13.800000190735</ele>
        <time>2020-05-17T07:19:02.000Z</time>
      </trkpt>
      <trkpt lat="47.24451" lon="-2.31679">
        <ele>13.39999961853</ele>
        <time>2020-05-17T07:19:06.000Z</time>
      </trkpt>
      <trkpt lat="47.24448" lon="-2.31673">
        <ele>13</ele>
        <time>2020-05-17T07:19:07.000Z</time>
      </trkpt>
      <trkpt lat="47.24445" lon="-2.31667">
        <ele>12.60000038147</ele>
        <time>2020-05-17T07:19:08.000Z</time>
      </trkpt>
      <trkpt lat="47.24442" lon="-2.31661">
        <ele>12.199999809265</ele>
        <time>2020-05-17T07:19:09.000Z</time>
      </trkpt>
      <trkpt lat="47.2444" lon="-2.31654">
        <ele>11.800000190735</ele>
        <time>2020-05-17T07:19:10.000Z</time>
      </trkpt>
      <trkpt lat="47.24429" lon="-2.31635">
        <ele>11.800000190735</ele>
        <time>2020-05-17T07:19:13.000Z</time>
      </trkpt>
      <trkpt lat="47.24426" lon="-2.31628">
        <ele>11.800000190735</ele>
        <time>2020-05-17T07:19:14.000Z</time>
      </trkpt>
      <trkpt lat="47.24416" lon="-2.31604">
        <ele>11.199999809265</ele>
        <time>2020-05-17T07:19:17.000Z</time>
      </trkpt>
      <trkpt lat="47.24413" lon="-2.31596">
        <ele>10.800000190735</ele>
        <time>2020-05-17T07:19:18.000Z</time>
      </trkpt>
      <trkpt lat="47.24411" lon="-2.31588">
        <ele>10.39999961853</ele>
        <time>2020-05-17T07:19:19.000Z</time>
      </trkpt>
      <trkpt lat="47.24408" lon="-2.31578">
        <ele>10</ele>
        <time>2020-05-17T07:19:20.000Z</time>
      </trkpt>
      <trkpt lat="47.24406" lon="-2.31569">
        <ele>9.3999996185303</ele>
        <time>2020-05-17T07:19:21.000Z</time>
      </trkpt>
      <trkpt lat="47.24401" lon="-2.31541">
        <ele>9.3999996185303</ele>
        <time>2020-05-17T07:19:24.000Z</time>
      </trkpt>
      <trkpt lat="47.24398" lon="-2.31518">
        <ele>9</ele>
        <time>2020-05-17T07:19:26.000Z</time>
      </trkpt>
      <trkpt lat="47.24397" lon="-2.31504">
        <ele>8.6000003814697</ele>
        <time>2020-05-17T07:19:27.000Z</time>
      </trkpt>
      <trkpt lat="47.24396" lon="-2.31493">
        <ele>8.1999998092651</ele>
        <time>2020-05-17T07:19:28.000Z</time>
      </trkpt>
      <trkpt lat="47.24395" lon="-2.31481">
        <ele>7.8000001907349</ele>
        <time>2020-05-17T07:19:29.000Z</time>
      </trkpt>
      <trkpt lat="47.24393" lon="-2.31469">
        <ele>7.4000000953674</ele>
        <time>2020-05-17T07:19:30.000Z</time>
      </trkpt>
      <trkpt lat="47.2439" lon="-2.31449">
        <ele>7</ele>
        <time>2020-05-17T07:19:32.000Z</time>
      </trkpt>
      <trkpt lat="47.24387" lon="-2.3144">
        <ele>6.5999999046326</ele>
        <time>2020-05-17T07:19:33.000Z</time>
      </trkpt>
      <trkpt lat="47.24385" lon="-2.31432">
        <ele>6.1999998092651</ele>
        <time>2020-05-17T07:19:34.000Z</time>
      </trkpt>
      <trkpt lat="47.24384" lon="-2.31423">
        <ele>5.8000001907349</ele>
        <time>2020-05-17T07:19:35.000Z</time>
      </trkpt>
      <trkpt lat="47.24383" lon="-2.31415">
        <ele>5.1999998092651</ele>
        <time>2020-05-17T07:19:36.000Z</time>
      </trkpt>
      <trkpt lat="47.24381" lon="-2.31408">
        <ele>5.1999998092651</ele>
        <time>2020-05-17T07:19:37.000Z</time>
      </trkpt>
      <trkpt lat="47.2437" lon="-2.31375">
        <ele>5.1999998092651</ele>
        <time>2020-05-17T07:19:41.000Z</time>
      </trkpt>
      <trkpt lat="47.24366" lon="-2.3136">
        <ele>5.1999998092651</ele>
        <time>2020-05-17T07:19:43.000Z</time>
      </trkpt>
      <trkpt lat="47.24367" lon="-2.31347">
        <ele>5.1999998092651</ele>
        <time>2020-05-17T07:19:45.000Z</time>
      </trkpt>
      <trkpt lat="47.2438" lon="-2.3133">
        <ele>5.1999998092651</ele>
        <time>2020-05-17T07:19:49.000Z</time>
      </trkpt>
      <trkpt lat="47.24405" lon="-2.31309">
        <ele>5.1999998092651</ele>
        <time>2020-05-17T07:19:55.000Z</time>
      </trkpt>
      <trkpt lat="47.24409" lon="-2.31306">
        <ele>5.1999998092651</ele>
        <time>2020-05-17T07:19:56.000Z</time>
      </trkpt>
      <trkpt lat="47.24439" lon="-2.31282">
        <ele>5.1999998092651</ele>
        <time>2020-05-17T07:20:04.000Z</time>
      </trkpt>
      <trkpt lat="47.24449" lon="-2.31273">
        <ele>5.8000001907349</ele>
        <time>2020-05-17T07:20:07.000Z</time>
      </trkpt>
      <trkpt lat="47.24451" lon="-2.3127">
        <ele>6.1999998092651</ele>
        <time>2020-05-17T07:20:08.000Z</time>
      </trkpt>
      <trkpt lat="47.24454" lon="-2.31268">
        <ele>6.5999999046326</ele>
        <time>2020-05-17T07:20:09.000Z</time>
      </trkpt>
      <trkpt lat="47.24456" lon="-2.31266">
        <ele>7</ele>
        <time>2020-05-17T07:20:10.000Z</time>
      </trkpt>
      <trkpt lat="47.24458" lon="-2.31265">
        <ele>7.4000000953674</ele>
        <time>2020-05-17T07:20:11.000Z</time>
      </trkpt>
      <trkpt lat="47.24459" lon="-2.31262">
        <ele>7.4000000953674</ele>
        <time>2020-05-17T07:20:12.000Z</time>
      </trkpt>
      <trkpt lat="47.24459" lon="-2.31256">
        <ele>7.4000000953674</ele>
        <time>2020-05-17T07:20:14.000Z</time>
      </trkpt>
      <trkpt lat="47.24458" lon="-2.3125">
        <ele>7.4000000953674</ele>
        <time>2020-05-17T07:20:16.000Z</time>
      </trkpt>
      <trkpt lat="47.24454" lon="-2.3124">
        <ele>7.4000000953674</ele>
        <time>2020-05-17T07:20:19.000Z</time>
      </trkpt>
      <trkpt lat="47.24444" lon="-2.31228">
        <ele>7.4000000953674</ele>
        <time>2020-05-17T07:20:25.000Z</time>
      </trkpt>
      <trkpt lat="47.24434" lon="-2.3123">
        <ele>7</ele>
        <time>2020-05-17T07:20:29.000Z</time>
      </trkpt>
      <trkpt lat="47.24432" lon="-2.31228">
        <ele>6.5999999046326</ele>
        <time>2020-05-17T07:20:30.000Z</time>
      </trkpt>
      <trkpt lat="47.2443" lon="-2.31225">
        <ele>6.1999998092651</ele>
        <time>2020-05-17T07:20:31.000Z</time>
      </trkpt>
      <trkpt lat="47.24428" lon="-2.31223">
        <ele>5.5999999046326</ele>
        <time>2020-05-17T07:20:32.000Z</time>
      </trkpt>
      <trkpt lat="47.24427" lon="-2.31222">
        <ele>5.1999998092651</ele>
        <time>2020-05-17T07:20:33.000Z</time>
      </trkpt>
      <trkpt lat="47.24424" lon="-2.31217">
        <ele>5.1999998092651</ele>
        <time>2020-05-17T07:20:36.000Z</time>
      </trkpt>
      <trkpt lat="47.24416" lon="-2.312">
        <ele>5.1999998092651</ele>
        <time>2020-05-17T07:20:42.000Z</time>
      </trkpt>
      <trkpt lat="47.24415" lon="-2.31196">
        <ele>5.8000001907349</ele>
        <time>2020-05-17T07:20:43.000Z</time>
      </trkpt>
      <trkpt lat="47.24413" lon="-2.31193">
        <ele>6.1999998092651</ele>
        <time>2020-05-17T07:20:44.000Z</time>
      </trkpt>
      <trkpt lat="47.24411" lon="-2.31189">
        <ele>6.5999999046326</ele>
        <time>2020-05-17T07:20:45.000Z</time>
      </trkpt>
      <trkpt lat="47.24409" lon="-2.31186">
        <ele>7</ele>
        <time>2020-05-17T07:20:46.000Z</time>
      </trkpt>
      <trkpt lat="47.24407" lon="-2.31183">
        <ele>7.5999999046326</ele>
        <time>2020-05-17T07:20:47.000Z</time>
      </trkpt>
      <trkpt lat="47.24404" lon="-2.3118">
        <ele>7.5999999046326</ele>
        <time>2020-05-17T07:20:48.000Z</time>
      </trkpt>
      <trkpt lat="47.24385" lon="-2.3116">
        <ele>8</ele>
        <time>2020-05-17T07:20:53.000Z</time>
      </trkpt>
      <trkpt lat="47.24382" lon="-2.31155">
        <ele>8.3999996185303</ele>
        <time>2020-05-17T07:20:54.000Z</time>
      </trkpt>
      <trkpt lat="47.24379" lon="-2.31151">
        <ele>8.8000001907349</ele>
        <time>2020-05-17T07:20:55.000Z</time>
      </trkpt>
      <trkpt lat="47.24376" lon="-2.31147">
        <ele>9.1999998092651</ele>
        <time>2020-05-17T07:20:56.000Z</time>
      </trkpt>
      <trkpt lat="47.24373" lon="-2.31143">
        <ele>9.6000003814697</ele>
        <time>2020-05-17T07:20:57.000Z</time>
      </trkpt>
      <trkpt lat="47.24367" lon="-2.31135">
        <ele>9.6000003814697</ele>
        <time>2020-05-17T07:20:59.000Z</time>
      </trkpt>
      <trkpt lat="47.24357" lon="-2.31112">
        <ele>9.6000003814697</ele>
        <time>2020-05-17T07:21:05.000Z</time>
      </trkpt>
      <trkpt lat="47.24352" lon="-2.31089">
        <ele>9.6000003814697</ele>
        <time>2020-05-17T07:21:11.000Z</time>
      </trkpt>
      <trkpt lat="47.24343" lon="-2.31065">
        <ele>9.6000003814697</ele>
        <time>2020-05-17T07:21:16.000Z</time>
      </trkpt>
      <trkpt lat="47.24329" lon="-2.31041">
        <ele>9.6000003814697</ele>
        <time>2020-05-17T07:21:22.000Z</time>
      </trkpt>
      <trkpt lat="47.2431" lon="-2.31039">
        <ele>9.6000003814697</ele>
        <time>2020-05-17T07:21:27.000Z</time>
      </trkpt>
      <trkpt lat="47.24298" lon="-2.31038">
        <ele>9.1999998092651</ele>
        <time>2020-05-17T07:21:29.000Z</time>
      </trkpt>
      <trkpt lat="47.24292" lon="-2.31037">
        <ele>8.8000001907349</ele>
        <time>2020-05-17T07:21:30.000Z</time>
      </trkpt>
      <trkpt lat="47.24288" lon="-2.31036">
        <ele>8.3999996185303</ele>
        <time>2020-05-17T07:21:31.000Z</time>
      </trkpt>
      <trkpt lat="47.24284" lon="-2.31034">
        <ele>8</ele>
        <time>2020-05-17T07:21:32.000Z</time>
      </trkpt>
      <trkpt lat="47.24282" lon="-2.31031">
        <ele>7.5999999046326</ele>
        <time>2020-05-17T07:21:33.000Z</time>
      </trkpt>
      <trkpt lat="47.2428" lon="-2.31021">
        <ele>7.5999999046326</ele>
        <time>2020-05-17T07:21:35.000Z</time>
      </trkpt>
      <trkpt lat="47.24282" lon="-2.31004">
        <ele>7.5999999046326</ele>
        <time>2020-05-17T07:21:38.000Z</time>
      </trkpt>
      <trkpt lat="47.24285" lon="-2.30987">
        <ele>7.5999999046326</ele>
        <time>2020-05-17T07:21:41.000Z</time>
      </trkpt>
      <trkpt lat="47.2429" lon="-2.30954">
        <ele>8</ele>
        <time>2020-05-17T07:21:48.000Z</time>
      </trkpt>
      <trkpt lat="47.2429" lon="-2.30949">
        <ele>8.3999996185303</ele>
        <time>2020-05-17T07:21:49.000Z</time>
      </trkpt>
      <trkpt lat="47.24291" lon="-2.30945">
        <ele>8.8000001907349</ele>
        <time>2020-05-17T07:21:50.000Z</time>
      </trkpt>
      <trkpt lat="47.24291" lon="-2.30939">
        <ele>9.3999996185303</ele>
        <time>2020-05-17T07:21:51.000Z</time>
      </trkpt>
      <trkpt lat="47.24292" lon="-2.30935">
        <ele>9.8000001907349</ele>
        <time>2020-05-17T07:21:52.000Z</time>
      </trkpt>
      <trkpt lat="47.24292" lon="-2.30919">
        <ele>9.8000001907349</ele>
        <time>2020-05-17T07:21:55.000Z</time>
      </trkpt>
      <trkpt lat="47.24291" lon="-2.30914">
        <ele>10.199999809265</ele>
        <time>2020-05-17T07:21:56.000Z</time>
      </trkpt>
      <trkpt lat="47.2429" lon="-2.30909">
        <ele>10.60000038147</ele>
        <time>2020-05-17T07:21:57.000Z</time>
      </trkpt>
      <trkpt lat="47.24289" lon="-2.30904">
        <ele>11</ele>
        <time>2020-05-17T07:21:58.000Z</time>
      </trkpt>
      <trkpt lat="47.24289" lon="-2.30899">
        <ele>11.39999961853</ele>
        <time>2020-05-17T07:21:59.000Z</time>
      </trkpt>
      <trkpt lat="47.24288" lon="-2.30894">
        <ele>12</ele>
        <time>2020-05-17T07:22:00.000Z</time>
      </trkpt>
      <trkpt lat="47.24286" lon="-2.30883">
        <ele>12</ele>
        <time>2020-05-17T07:22:02.000Z</time>
      </trkpt>
      <trkpt lat="47.24287" lon="-2.30846">
        <ele>12</ele>
        <time>2020-05-17T07:22:08.000Z</time>
      </trkpt>
      <trkpt lat="47.2429" lon="-2.30836">
        <ele>12.39999961853</ele>
        <time>2020-05-17T07:22:10.000Z</time>
      </trkpt>
      <trkpt lat="47.24292" lon="-2.30831">
        <ele>12.800000190735</ele>
        <time>2020-05-17T07:22:11.000Z</time>
      </trkpt>
      <trkpt lat="47.24294" lon="-2.30826">
        <ele>13.199999809265</ele>
        <time>2020-05-17T07:22:12.000Z</time>
      </trkpt>
      <trkpt lat="47.24295" lon="-2.30822">
        <ele>13.60000038147</ele>
        <time>2020-05-17T07:22:13.000Z</time>
      </trkpt>
      <trkpt lat="47.24297" lon="-2.30818">
        <ele>14</ele>
        <time>2020-05-17T07:22:14.000Z</time>
      </trkpt>
      <trkpt lat="47.24312" lon="-2.30803">
        <ele>14</ele>
        <time>2020-05-17T07:22:19.000Z</time>
      </trkpt>
      <trkpt lat="47.24337" lon="-2.30793">
        <ele>14</ele>
        <time>2020-05-17T07:22:25.000Z</time>
      </trkpt>
      <trkpt lat="47.24357" lon="-2.30789">
        <ele>14.39999961853</ele>
        <time>2020-05-17T07:22:30.000Z</time>
      </trkpt>
      <trkpt lat="47.2436" lon="-2.30788">
        <ele>15.39999961853</ele>
        <time>2020-05-17T07:22:31.000Z</time>
      </trkpt>
      <trkpt lat="47.24364" lon="-2.30786">
        <ele>15.800000190735</ele>
        <time>2020-05-17T07:22:32.000Z</time>
      </trkpt>
      <trkpt lat="47.24367" lon="-2.30784">
        <ele>16.200000762939</ele>
        <time>2020-05-17T07:22:33.000Z</time>
      </trkpt>
      <trkpt lat="47.2438" lon="-2.30767">
        <ele>16.60000038147</ele>
        <time>2020-05-17T07:22:39.000Z</time>
      </trkpt>
      <trkpt lat="47.24382" lon="-2.30763">
        <ele>17</ele>
        <time>2020-05-17T07:22:40.000Z</time>
      </trkpt>
      <trkpt lat="47.24384" lon="-2.3076">
        <ele>17.39999961853</ele>
        <time>2020-05-17T07:22:41.000Z</time>
      </trkpt>
      <trkpt lat="47.24386" lon="-2.30757">
        <ele>17.799999237061</ele>
        <time>2020-05-17T07:22:42.000Z</time>
      </trkpt>
      <trkpt lat="47.24388" lon="-2.30754">
        <ele>18.200000762939</ele>
        <time>2020-05-17T07:22:43.000Z</time>
      </trkpt>
      <trkpt lat="47.24395" lon="-2.30746">
        <ele>18.200000762939</ele>
        <time>2020-05-17T07:22:46.000Z</time>
      </trkpt>
      <trkpt lat="47.24398" lon="-2.30737">
        <ele>18.60000038147</ele>
        <time>2020-05-17T07:22:48.000Z</time>
      </trkpt>
      <trkpt lat="47.24399" lon="-2.30731">
        <ele>19</ele>
        <time>2020-05-17T07:22:49.000Z</time>
      </trkpt>
      <trkpt lat="47.24399" lon="-2.30726">
        <ele>19.39999961853</ele>
        <time>2020-05-17T07:22:50.000Z</time>
      </trkpt>
      <trkpt lat="47.24399" lon="-2.30721">
        <ele>19.799999237061</ele>
        <time>2020-05-17T07:22:51.000Z</time>
      </trkpt>
      <trkpt lat="47.24399" lon="-2.30715">
        <ele>20.200000762939</ele>
        <time>2020-05-17T07:22:52.000Z</time>
      </trkpt>
      <trkpt lat="47.24406" lon="-2.3069">
        <ele>20.200000762939</ele>
        <time>2020-05-17T07:22:56.000Z</time>
      </trkpt>
      <trkpt lat="47.24415" lon="-2.3065">
        <ele>20.200000762939</ele>
        <time>2020-05-17T07:23:03.000Z</time>
      </trkpt>
      <trkpt lat="47.24427" lon="-2.30623">
        <ele>20.200000762939</ele>
        <time>2020-05-17T07:23:09.000Z</time>
      </trkpt>
      <trkpt lat="47.24449" lon="-2.30596">
        <ele>20.200000762939</ele>
        <time>2020-05-17T07:23:16.000Z</time>
      </trkpt>
      <trkpt lat="47.24453" lon="-2.30591">
        <ele>20.200000762939</ele>
        <time>2020-05-17T07:23:17.000Z</time>
      </trkpt>
      <trkpt lat="47.24462" lon="-2.30579">
        <ele>20.200000762939</ele>
        <time>2020-05-17T07:23:19.000Z</time>
      </trkpt>
      <trkpt lat="47.24466" lon="-2.30573">
        <ele>19.799999237061</ele>
        <time>2020-05-17T07:23:20.000Z</time>
      </trkpt>
      <trkpt lat="47.24469" lon="-2.30566">
        <ele>19</ele>
        <time>2020-05-17T07:23:21.000Z</time>
      </trkpt>
      <trkpt lat="47.24471" lon="-2.3056">
        <ele>18.60000038147</ele>
        <time>2020-05-17T07:23:22.000Z</time>
      </trkpt>
      <trkpt lat="47.24472" lon="-2.30555">
        <ele>18.200000762939</ele>
        <time>2020-05-17T07:23:23.000Z</time>
      </trkpt>
      <trkpt lat="47.24472" lon="-2.30551">
        <ele>18.200000762939</ele>
        <time>2020-05-17T07:23:24.000Z</time>
      </trkpt>
      <trkpt lat="47.24469" lon="-2.30548">
        <ele>17.799999237061</ele>
        <time>2020-05-17T07:23:26.000Z</time>
      </trkpt>
      <trkpt lat="47.24467" lon="-2.30549">
        <ele>17.39999961853</ele>
        <time>2020-05-17T07:23:27.000Z</time>
      </trkpt>
      <trkpt lat="47.24464" lon="-2.3055">
        <ele>17</ele>
        <time>2020-05-17T07:23:28.000Z</time>
      </trkpt>
      <trkpt lat="47.24461" lon="-2.30553">
        <ele>16.60000038147</ele>
        <time>2020-05-17T07:23:29.000Z</time>
      </trkpt>
      <trkpt lat="47.24457" lon="-2.30557">
        <ele>16</ele>
        <time>2020-05-17T07:23:30.000Z</time>
      </trkpt>
      <trkpt lat="47.24453" lon="-2.30561">
        <ele>16</ele>
        <time>2020-05-17T07:23:31.000Z</time>
      </trkpt>
      <trkpt lat="47.24431" lon="-2.3058">
        <ele>15.60000038147</ele>
        <time>2020-05-17T07:23:36.000Z</time>
      </trkpt>
      <trkpt lat="47.24426" lon="-2.30582">
        <ele>15.199999809265</ele>
        <time>2020-05-17T07:23:37.000Z</time>
      </trkpt>
      <trkpt lat="47.24421" lon="-2.30585">
        <ele>14.800000190735</ele>
        <time>2020-05-17T07:23:38.000Z</time>
      </trkpt>
      <trkpt lat="47.24417" lon="-2.30586">
        <ele>14.39999961853</ele>
        <time>2020-05-17T07:23:39.000Z</time>
      </trkpt>
      <trkpt lat="47.24412" lon="-2.30588">
        <ele>14</ele>
        <time>2020-05-17T07:23:40.000Z</time>
      </trkpt>
      <trkpt lat="47.24409" lon="-2.30589">
        <ele>14</ele>
        <time>2020-05-17T07:23:41.000Z</time>
      </trkpt>
      <trkpt lat="47.24402" lon="-2.30588">
        <ele>14</ele>
        <time>2020-05-17T07:23:43.000Z</time>
      </trkpt>
      <trkpt lat="47.24395" lon="-2.30583">
        <ele>13.60000038147</ele>
        <time>2020-05-17T07:23:45.000Z</time>
      </trkpt>
      <trkpt lat="47.24391" lon="-2.30579">
        <ele>12.60000038147</ele>
        <time>2020-05-17T07:23:46.000Z</time>
      </trkpt>
      <trkpt lat="47.24387" lon="-2.30574">
        <ele>12.199999809265</ele>
        <time>2020-05-17T07:23:47.000Z</time>
      </trkpt>
      <trkpt lat="47.24384" lon="-2.30567">
        <ele>11.800000190735</ele>
        <time>2020-05-17T07:23:48.000Z</time>
      </trkpt>
      <trkpt lat="47.24379" lon="-2.30552">
        <ele>11.800000190735</ele>
        <time>2020-05-17T07:23:50.000Z</time>
      </trkpt>
      <trkpt lat="47.24373" lon="-2.3054">
        <ele>11.800000190735</ele>
        <time>2020-05-17T07:23:53.000Z</time>
      </trkpt>
      <trkpt lat="47.24369" lon="-2.30516">
        <ele>12.199999809265</ele>
        <time>2020-05-17T07:24:00.000Z</time>
      </trkpt>
      <trkpt lat="47.24369" lon="-2.30511">
        <ele>12.60000038147</ele>
        <time>2020-05-17T07:24:01.000Z</time>
      </trkpt>
      <trkpt lat="47.2437" lon="-2.30506">
        <ele>13</ele>
        <time>2020-05-17T07:24:02.000Z</time>
      </trkpt>
      <trkpt lat="47.24371" lon="-2.30501">
        <ele>13.39999961853</ele>
        <time>2020-05-17T07:24:03.000Z</time>
      </trkpt>
      <trkpt lat="47.24373" lon="-2.30495">
        <ele>14</ele>
        <time>2020-05-17T07:24:04.000Z</time>
      </trkpt>
      <trkpt lat="47.24374" lon="-2.30489">
        <ele>14</ele>
        <time>2020-05-17T07:24:05.000Z</time>
      </trkpt>
      <trkpt lat="47.24376" lon="-2.30483">
        <ele>14.39999961853</ele>
        <time>2020-05-17T07:24:06.000Z</time>
      </trkpt>
      <trkpt lat="47.24377" lon="-2.30476">
        <ele>14.800000190735</ele>
        <time>2020-05-17T07:24:07.000Z</time>
      </trkpt>
      <trkpt lat="47.24379" lon="-2.30471">
        <ele>15.199999809265</ele>
        <time>2020-05-17T07:24:08.000Z</time>
      </trkpt>
      <trkpt lat="47.24379" lon="-2.30465">
        <ele>15.60000038147</ele>
        <time>2020-05-17T07:24:09.000Z</time>
      </trkpt>
      <trkpt lat="47.24379" lon="-2.3046">
        <ele>16</ele>
        <time>2020-05-17T07:24:10.000Z</time>
      </trkpt>
      <trkpt lat="47.24379" lon="-2.30456">
        <ele>16</ele>
        <time>2020-05-17T07:24:11.000Z</time>
      </trkpt>
      <trkpt lat="47.24377" lon="-2.30453">
        <ele>16</ele>
        <time>2020-05-17T07:24:12.000Z</time>
      </trkpt>
      <trkpt lat="47.24371" lon="-2.30452">
        <ele>16</ele>
        <time>2020-05-17T07:24:14.000Z</time>
      </trkpt>
      <trkpt lat="47.24354" lon="-2.30453">
        <ele>16</ele>
        <time>2020-05-17T07:24:19.000Z</time>
      </trkpt>
      <trkpt lat="47.2435" lon="-2.30451">
        <ele>16.60000038147</ele>
        <time>2020-05-17T07:24:20.000Z</time>
      </trkpt>
      <trkpt lat="47.24346" lon="-2.30449">
        <ele>17</ele>
        <time>2020-05-17T07:24:21.000Z</time>
      </trkpt>
      <trkpt lat="47.24342" lon="-2.30446">
        <ele>17.39999961853</ele>
        <time>2020-05-17T07:24:22.000Z</time>
      </trkpt>
      <trkpt lat="47.24339" lon="-2.30444">
        <ele>17.799999237061</ele>
        <time>2020-05-17T07:24:23.000Z</time>
      </trkpt>
      <trkpt lat="47.24335" lon="-2.30441">
        <ele>18.39999961853</ele>
        <time>2020-05-17T07:24:24.000Z</time>
      </trkpt>
      <trkpt lat="47.24314" lon="-2.30425">
        <ele>18.39999961853</ele>
        <time>2020-05-17T07:24:30.000Z</time>
      </trkpt>
      <trkpt lat="47.24291" lon="-2.30408">
        <ele>18.39999961853</ele>
        <time>2020-05-17T07:24:37.000Z</time>
      </trkpt>
      <trkpt lat="47.24272" lon="-2.30383">
        <ele>18.39999961853</ele>
        <time>2020-05-17T07:24:42.000Z</time>
      </trkpt>
      <trkpt lat="47.24269" lon="-2.30378">
        <ele>18.799999237061</ele>
        <time>2020-05-17T07:24:43.000Z</time>
      </trkpt>
      <trkpt lat="47.24266" lon="-2.30373">
        <ele>19.200000762939</ele>
        <time>2020-05-17T07:24:44.000Z</time>
      </trkpt>
      <trkpt lat="47.24262" lon="-2.30368">
        <ele>19.60000038147</ele>
        <time>2020-05-17T07:24:45.000Z</time>
      </trkpt>
      <trkpt lat="47.24259" lon="-2.30362">
        <ele>20</ele>
        <time>2020-05-17T07:24:46.000Z</time>
      </trkpt>
      <trkpt lat="47.24255" lon="-2.30358">
        <ele>20.39999961853</ele>
        <time>2020-05-17T07:24:47.000Z</time>
      </trkpt>
      <trkpt lat="47.24249" lon="-2.30347">
        <ele>20.39999961853</ele>
        <time>2020-05-17T07:24:49.000Z</time>
      </trkpt>
      <trkpt lat="47.24233" lon="-2.30325">
        <ele>20.39999961853</ele>
        <time>2020-05-17T07:24:54.000Z</time>
      </trkpt>
      <trkpt lat="47.24218" lon="-2.3033">
        <ele>20.39999961853</ele>
        <time>2020-05-17T07:24:58.000Z</time>
      </trkpt>
      <trkpt lat="47.2421" lon="-2.30332">
        <ele>19.39999961853</ele>
        <time>2020-05-17T07:25:00.000Z</time>
      </trkpt>
      <trkpt lat="47.24206" lon="-2.30331">
        <ele>18.799999237061</ele>
        <time>2020-05-17T07:25:01.000Z</time>
      </trkpt>
      <trkpt lat="47.24204" lon="-2.30328">
        <ele>18.200000762939</ele>
        <time>2020-05-17T07:25:02.000Z</time>
      </trkpt>
      <trkpt lat="47.24202" lon="-2.30324">
        <ele>17.799999237061</ele>
        <time>2020-05-17T07:25:03.000Z</time>
      </trkpt>
      <trkpt lat="47.24201" lon="-2.30319">
        <ele>17.200000762939</ele>
        <time>2020-05-17T07:25:04.000Z</time>
      </trkpt>
      <trkpt lat="47.24199" lon="-2.30312">
        <ele>16.60000038147</ele>
        <time>2020-05-17T07:25:05.000Z</time>
      </trkpt>
      <trkpt lat="47.24197" lon="-2.30304">
        <ele>16</ele>
        <time>2020-05-17T07:25:06.000Z</time>
      </trkpt>
      <trkpt lat="47.24196" lon="-2.30296">
        <ele>15.60000038147</ele>
        <time>2020-05-17T07:25:07.000Z</time>
      </trkpt>
      <trkpt lat="47.24192" lon="-2.30259">
        <ele>15.60000038147</ele>
        <time>2020-05-17T07:25:12.000Z</time>
      </trkpt>
      <trkpt lat="47.24191" lon="-2.3024">
        <ele>15.60000038147</ele>
        <time>2020-05-17T07:25:16.000Z</time>
      </trkpt>
      <trkpt lat="47.24188" lon="-2.30239">
        <ele>15.60000038147</ele>
        <time>2020-05-17T07:25:18.000Z</time>
      </trkpt>
      <trkpt lat="47.24185" lon="-2.30242">
        <ele>15.60000038147</ele>
        <time>2020-05-17T07:25:19.000Z</time>
      </trkpt>
      <trkpt lat="47.24172" lon="-2.3025">
        <ele>15.60000038147</ele>
        <time>2020-05-17T07:25:23.000Z</time>
      </trkpt>
      <trkpt lat="47.24168" lon="-2.30247">
        <ele>15.60000038147</ele>
        <time>2020-05-17T07:25:24.000Z</time>
      </trkpt>
      <trkpt lat="47.24161" lon="-2.30233">
        <ele>15.60000038147</ele>
        <time>2020-05-17T07:25:27.000Z</time>
      </trkpt>
      <trkpt lat="47.24157" lon="-2.30224">
        <ele>15.60000038147</ele>
        <time>2020-05-17T07:25:29.000Z</time>
      </trkpt>
      <trkpt lat="47.24153" lon="-2.30212">
        <ele>15.60000038147</ele>
        <time>2020-05-17T07:25:32.000Z</time>
      </trkpt>
      <trkpt lat="47.24146" lon="-2.30189">
        <ele>15.60000038147</ele>
        <time>2020-05-17T07:25:38.000Z</time>
      </trkpt>
      <trkpt lat="47.24143" lon="-2.30182">
        <ele>15.60000038147</ele>
        <time>2020-05-17T07:25:43.000Z</time>
      </trkpt>
      <trkpt lat="47.24142" lon="-2.30177">
        <ele>15.60000038147</ele>
        <time>2020-05-17T07:25:45.000Z</time>
      </trkpt>
      <trkpt lat="47.2414" lon="-2.30167">
        <ele>16</ele>
        <time>2020-05-17T07:25:49.000Z</time>
      </trkpt>
      <trkpt lat="47.24139" lon="-2.30164">
        <ele>16.39999961853</ele>
        <time>2020-05-17T07:25:50.000Z</time>
      </trkpt>
      <trkpt lat="47.24138" lon="-2.30163">
        <ele>16.799999237061</ele>
        <time>2020-05-17T07:25:51.000Z</time>
      </trkpt>
      <trkpt lat="47.24137" lon="-2.30162">
        <ele>17.200000762939</ele>
        <time>2020-05-17T07:25:52.000Z</time>
      </trkpt>
      <trkpt lat="47.24135" lon="-2.30162">
        <ele>17.60000038147</ele>
        <time>2020-05-17T07:25:53.000Z</time>
      </trkpt>
      <trkpt lat="47.24133" lon="-2.30162">
        <ele>18</ele>
        <time>2020-05-17T07:25:54.000Z</time>
      </trkpt>
      <trkpt lat="47.24132" lon="-2.30163">
        <ele>18.39999961853</ele>
        <time>2020-05-17T07:25:55.000Z</time>
      </trkpt>
      <trkpt lat="47.24131" lon="-2.30164">
        <ele>18.799999237061</ele>
        <time>2020-05-17T07:25:56.000Z</time>
      </trkpt>
      <trkpt lat="47.2413" lon="-2.30165">
        <ele>19.200000762939</ele>
        <time>2020-05-17T07:25:57.000Z</time>
      </trkpt>
      <trkpt lat="47.2413" lon="-2.30165">
        <ele>19.60000038147</ele>
        <time>2020-05-17T07:25:58.000Z</time>
      </trkpt>
      <trkpt lat="47.24129" lon="-2.30166">
        <ele>19.60000038147</ele>
        <time>2020-05-17T07:25:59.000Z</time>
      </trkpt>
      <trkpt lat="47.24129" lon="-2.30166">
        <ele>19.60000038147</ele>
        <time>2020-05-17T07:26:07.000Z</time>
      </trkpt>
      <trkpt lat="47.24129" lon="-2.30166">
        <ele>19.60000038147</ele>
        <time>2020-05-17T07:26:22.000Z</time>
      </trkpt>
      <trkpt lat="47.2413" lon="-2.30166">
        <ele>19.60000038147</ele>
        <time>2020-05-17T07:26:33.000Z</time>
      </trkpt>
      <trkpt lat="47.24126" lon="-2.30168">
        <ele>19.60000038147</ele>
        <time>2020-05-17T07:26:41.000Z</time>
      </trkpt>
      <trkpt lat="47.24119" lon="-2.3017">
        <ele>19.60000038147</ele>
        <time>2020-05-17T07:26:45.000Z</time>
      </trkpt>
      <trkpt lat="47.24117" lon="-2.3017">
        <ele>19.60000038147</ele>
        <time>2020-05-17T07:26:46.000Z</time>
      </trkpt>
      <trkpt lat="47.24098" lon="-2.30165">
        <ele>20.200000762939</ele>
        <time>2020-05-17T07:26:52.000Z</time>
      </trkpt>
      <trkpt lat="47.24095" lon="-2.30165">
        <ele>20.60000038147</ele>
        <time>2020-05-17T07:26:53.000Z</time>
      </trkpt>
      <trkpt lat="47.2409" lon="-2.30165">
        <ele>21</ele>
        <time>2020-05-17T07:26:54.000Z</time>
      </trkpt>
      <trkpt lat="47.24086" lon="-2.30168">
        <ele>21.39999961853</ele>
        <time>2020-05-17T07:26:55.000Z</time>
      </trkpt>
      <trkpt lat="47.24083" lon="-2.30171">
        <ele>21.799999237061</ele>
        <time>2020-05-17T07:26:56.000Z</time>
      </trkpt>
      <trkpt lat="47.24059" lon="-2.30183">
        <ele>21.799999237061</ele>
        <time>2020-05-17T07:27:02.000Z</time>
      </trkpt>
      <trkpt lat="47.2404" lon="-2.3019">
        <ele>21.799999237061</ele>
        <time>2020-05-17T07:27:08.000Z</time>
      </trkpt>
      <trkpt lat="47.24026" lon="-2.30177">
        <ele>21.799999237061</ele>
        <time>2020-05-17T07:27:13.000Z</time>
      </trkpt>
      <trkpt lat="47.24014" lon="-2.30171">
        <ele>21.799999237061</ele>
        <time>2020-05-17T07:27:17.000Z</time>
      </trkpt>
      <trkpt lat="47.23992" lon="-2.30159">
        <ele>21.799999237061</ele>
        <time>2020-05-17T07:27:23.000Z</time>
      </trkpt>
      <trkpt lat="47.23974" lon="-2.30146">
        <ele>21.799999237061</ele>
        <time>2020-05-17T07:27:29.000Z</time>
      </trkpt>
      <trkpt lat="47.23945" lon="-2.30142">
        <ele>21.799999237061</ele>
        <time>2020-05-17T07:27:35.000Z</time>
      </trkpt>
      <trkpt lat="47.23931" lon="-2.30134">
        <ele>21.799999237061</ele>
        <time>2020-05-17T07:27:39.000Z</time>
      </trkpt>
      <trkpt lat="47.23915" lon="-2.30121">
        <ele>21.799999237061</ele>
        <time>2020-05-17T07:27:44.000Z</time>
      </trkpt>
      <trkpt lat="47.23913" lon="-2.30114">
        <ele>21.39999961853</ele>
        <time>2020-05-17T07:27:45.000Z</time>
      </trkpt>
      <trkpt lat="47.23909" lon="-2.30106">
        <ele>21</ele>
        <time>2020-05-17T07:27:46.000Z</time>
      </trkpt>
      <trkpt lat="47.23906" lon="-2.30101">
        <ele>20.60000038147</ele>
        <time>2020-05-17T07:27:47.000Z</time>
      </trkpt>
      <trkpt lat="47.23904" lon="-2.30098">
        <ele>20</ele>
        <time>2020-05-17T07:27:48.000Z</time>
      </trkpt>
      <trkpt lat="47.23902" lon="-2.30096">
        <ele>19.60000038147</ele>
        <time>2020-05-17T07:27:49.000Z</time>
      </trkpt>
      <trkpt lat="47.23892" lon="-2.3009">
        <ele>19.60000038147</ele>
        <time>2020-05-17T07:27:53.000Z</time>
      </trkpt>
      <trkpt lat="47.23874" lon="-2.30074">
        <ele>19.60000038147</ele>
        <time>2020-05-17T07:28:00.000Z</time>
      </trkpt>
      <trkpt lat="47.23869" lon="-2.30054">
        <ele>19.60000038147</ele>
        <time>2020-05-17T07:28:03.000Z</time>
      </trkpt>
      <trkpt lat="47.23866" lon="-2.30045">
        <ele>20</ele>
        <time>2020-05-17T07:28:04.000Z</time>
      </trkpt>
      <trkpt lat="47.23863" lon="-2.30037">
        <ele>20.60000038147</ele>
        <time>2020-05-17T07:28:05.000Z</time>
      </trkpt>
      <trkpt lat="47.23861" lon="-2.30029">
        <ele>21</ele>
        <time>2020-05-17T07:28:06.000Z</time>
      </trkpt>
      <trkpt lat="47.23858" lon="-2.30021">
        <ele>21.39999961853</ele>
        <time>2020-05-17T07:28:07.000Z</time>
      </trkpt>
      <trkpt lat="47.23853" lon="-2.30012">
        <ele>21.799999237061</ele>
        <time>2020-05-17T07:28:08.000Z</time>
      </trkpt>
      <trkpt lat="47.2385" lon="-2.30003">
        <ele>21.799999237061</ele>
        <time>2020-05-17T07:28:09.000Z</time>
      </trkpt>
      <trkpt lat="47.23839" lon="-2.29974">
        <ele>22.200000762939</ele>
        <time>2020-05-17T07:28:13.000Z</time>
      </trkpt>
      <trkpt lat="47.23836" lon="-2.29967">
        <ele>22.60000038147</ele>
        <time>2020-05-17T07:28:14.000Z</time>
      </trkpt>
      <trkpt lat="47.23835" lon="-2.29961">
        <ele>23.200000762939</ele>
        <time>2020-05-17T07:28:15.000Z</time>
      </trkpt>
      <trkpt lat="47.23833" lon="-2.29955">
        <ele>23.60000038147</ele>
        <time>2020-05-17T07:28:16.000Z</time>
      </trkpt>
      <trkpt lat="47.23832" lon="-2.29949">
        <ele>24</ele>
        <time>2020-05-17T07:28:17.000Z</time>
      </trkpt>
      <trkpt lat="47.23824" lon="-2.2991">
        <ele>24</ele>
        <time>2020-05-17T07:28:24.000Z</time>
      </trkpt>
      <trkpt lat="47.23818" lon="-2.29877">
        <ele>24</ele>
        <time>2020-05-17T07:28:30.000Z</time>
      </trkpt>
      <trkpt lat="47.23811" lon="-2.29835">
        <ele>24.39999961853</ele>
        <time>2020-05-17T07:28:37.000Z</time>
      </trkpt>
      <trkpt lat="47.2381" lon="-2.29828">
        <ele>24.799999237061</ele>
        <time>2020-05-17T07:28:38.000Z</time>
      </trkpt>
      <trkpt lat="47.2381" lon="-2.29822">
        <ele>25.200000762939</ele>
        <time>2020-05-17T07:28:39.000Z</time>
      </trkpt>
      <trkpt lat="47.2381" lon="-2.29815">
        <ele>25.60000038147</ele>
        <time>2020-05-17T07:28:40.000Z</time>
      </trkpt>
      <trkpt lat="47.23811" lon="-2.29808">
        <ele>26</ele>
        <time>2020-05-17T07:28:41.000Z</time>
      </trkpt>
      <trkpt lat="47.23812" lon="-2.29781">
        <ele>26</ele>
        <time>2020-05-17T07:28:45.000Z</time>
      </trkpt>
      <trkpt lat="47.23812" lon="-2.29741">
        <ele>26</ele>
        <time>2020-05-17T07:28:51.000Z</time>
      </trkpt>
      <trkpt lat="47.23812" lon="-2.29713">
        <ele>26</ele>
        <time>2020-05-17T07:28:55.000Z</time>
      </trkpt>
      <trkpt lat="47.23814" lon="-2.297">
        <ele>26</ele>
        <time>2020-05-17T07:28:57.000Z</time>
      </trkpt>
      <trkpt lat="47.23816" lon="-2.29679">
        <ele>26</ele>
        <time>2020-05-17T07:29:00.000Z</time>
      </trkpt>
      <trkpt lat="47.23816" lon="-2.29664">
        <ele>26</ele>
        <time>2020-05-17T07:29:02.000Z</time>
      </trkpt>
      <trkpt lat="47.23816" lon="-2.29635">
        <ele>26</ele>
        <time>2020-05-17T07:29:06.000Z</time>
      </trkpt>
      <trkpt lat="47.23817" lon="-2.2962">
        <ele>26</ele>
        <time>2020-05-17T07:29:08.000Z</time>
      </trkpt>
      <trkpt lat="47.23818" lon="-2.29568">
        <ele>26</ele>
        <time>2020-05-17T07:29:15.000Z</time>
      </trkpt>
      <trkpt lat="47.23819" lon="-2.2953">
        <ele>26</ele>
        <time>2020-05-17T07:29:20.000Z</time>
      </trkpt>
      <trkpt lat="47.23818" lon="-2.29523">
        <ele>26</ele>
        <time>2020-05-17T07:29:21.000Z</time>
      </trkpt>
      <trkpt lat="47.23819" lon="-2.29499">
        <ele>26</ele>
        <time>2020-05-17T07:29:24.000Z</time>
      </trkpt>
      <trkpt lat="47.2382" lon="-2.29476">
        <ele>26</ele>
        <time>2020-05-17T07:29:27.000Z</time>
      </trkpt>
      <trkpt lat="47.23824" lon="-2.29433">
        <ele>26</ele>
        <time>2020-05-17T07:29:34.000Z</time>
      </trkpt>
      <trkpt lat="47.23833" lon="-2.29412">
        <ele>26</ele>
        <time>2020-05-17T07:29:38.000Z</time>
      </trkpt>
      <trkpt lat="47.23838" lon="-2.294">
        <ele>26</ele>
        <time>2020-05-17T07:29:40.000Z</time>
      </trkpt>
      <trkpt lat="47.2385" lon="-2.29376">
        <ele>26</ele>
        <time>2020-05-17T07:29:44.000Z</time>
      </trkpt>
      <trkpt lat="47.2387" lon="-2.29336">
        <ele>26</ele>
        <time>2020-05-17T07:29:51.000Z</time>
      </trkpt>
      <trkpt lat="47.23887" lon="-2.29328">
        <ele>26</ele>
        <time>2020-05-17T07:29:55.000Z</time>
      </trkpt>
      <trkpt lat="47.23893" lon="-2.29328">
        <ele>26</ele>
        <time>2020-05-17T07:29:56.000Z</time>
      </trkpt>
      <trkpt lat="47.23908" lon="-2.29333">
        <ele>26</ele>
        <time>2020-05-17T07:29:59.000Z</time>
      </trkpt>
      <trkpt lat="47.23912" lon="-2.29338">
        <ele>26</ele>
        <time>2020-05-17T07:30:00.000Z</time>
      </trkpt>
      <trkpt lat="47.23928" lon="-2.29371">
        <ele>26</ele>
        <time>2020-05-17T07:30:05.000Z</time>
      </trkpt>
      <trkpt lat="47.23946" lon="-2.29406">
        <ele>26</ele>
        <time>2020-05-17T07:30:11.000Z</time>
      </trkpt>
      <trkpt lat="47.23949" lon="-2.29411">
        <ele>26</ele>
        <time>2020-05-17T07:30:12.000Z</time>
      </trkpt>
      <trkpt lat="47.23969" lon="-2.29449">
        <ele>26</ele>
        <time>2020-05-17T07:30:20.000Z</time>
      </trkpt>
      <trkpt lat="47.23985" lon="-2.29482">
        <ele>26</ele>
        <time>2020-05-17T07:30:27.000Z</time>
      </trkpt>
      <trkpt lat="47.23994" lon="-2.29509">
        <ele>26</ele>
        <time>2020-05-17T07:30:32.000Z</time>
      </trkpt>
      <trkpt lat="47.23996" lon="-2.29544">
        <ele>26</ele>
        <time>2020-05-17T07:30:37.000Z</time>
      </trkpt>
      <trkpt lat="47.24" lon="-2.29597">
        <ele>26</ele>
        <time>2020-05-17T07:30:45.000Z</time>
      </trkpt>
      <trkpt lat="47.24004" lon="-2.29633">
        <ele>26</ele>
        <time>2020-05-17T07:30:51.000Z</time>
      </trkpt>
      <trkpt lat="47.24007" lon="-2.29676">
        <ele>26</ele>
        <time>2020-05-17T07:30:57.000Z</time>
      </trkpt>
      <trkpt lat="47.2401" lon="-2.29725">
        <ele>26</ele>
        <time>2020-05-17T07:31:04.000Z</time>
      </trkpt>
      <trkpt lat="47.24014" lon="-2.29783">
        <ele>26</ele>
        <time>2020-05-17T07:31:12.000Z</time>
      </trkpt>
      <trkpt lat="47.24021" lon="-2.29802">
        <ele>26</ele>
        <time>2020-05-17T07:31:16.000Z</time>
      </trkpt>
      <trkpt lat="47.24024" lon="-2.298">
        <ele>26</ele>
        <time>2020-05-17T07:31:17.000Z</time>
      </trkpt>
      <trkpt lat="47.24026" lon="-2.29799">
        <ele>26</ele>
        <time>2020-05-17T07:31:18.000Z</time>
      </trkpt>
      <trkpt lat="47.24028" lon="-2.29799">
        <ele>26</ele>
        <time>2020-05-17T07:31:19.000Z</time>
      </trkpt>
      <trkpt lat="47.24032" lon="-2.29802">
        <ele>26</ele>
        <time>2020-05-17T07:31:22.000Z</time>
      </trkpt>
      <trkpt lat="47.24039" lon="-2.29808">
        <ele>26</ele>
        <time>2020-05-17T07:31:27.000Z</time>
      </trkpt>
      <trkpt lat="47.24041" lon="-2.29811">
        <ele>26</ele>
        <time>2020-05-17T07:31:28.000Z</time>
      </trkpt>
      <trkpt lat="47.24049" lon="-2.29835">
        <ele>26</ele>
        <time>2020-05-17T07:31:36.000Z</time>
      </trkpt>
      <trkpt lat="47.24049" lon="-2.29857">
        <ele>26</ele>
        <time>2020-05-17T07:31:42.000Z</time>
      </trkpt>
      <trkpt lat="47.24046" lon="-2.2988">
        <ele>26</ele>
        <time>2020-05-17T07:31:48.000Z</time>
      </trkpt>
      <trkpt lat="47.24054" lon="-2.29898">
        <ele>26</ele>
        <time>2020-05-17T07:31:53.000Z</time>
      </trkpt>
      <trkpt lat="47.24061" lon="-2.29906">
        <ele>26</ele>
        <time>2020-05-17T07:31:57.000Z</time>
      </trkpt>
      <trkpt lat="47.24063" lon="-2.29906">
        <ele>26</ele>
        <time>2020-05-17T07:31:58.000Z</time>
      </trkpt>
      <trkpt lat="47.2407" lon="-2.29902">
        <ele>26</ele>
        <time>2020-05-17T07:32:03.000Z</time>
      </trkpt>
      <trkpt lat="47.2408" lon="-2.2988">
        <ele>26</ele>
        <time>2020-05-17T07:32:10.000Z</time>
      </trkpt>
      <trkpt lat="47.24091" lon="-2.29852">
        <ele>26</ele>
        <time>2020-05-17T07:32:16.000Z</time>
      </trkpt>
      <trkpt lat="47.24112" lon="-2.29849">
        <ele>26</ele>
        <time>2020-05-17T07:32:22.000Z</time>
      </trkpt>
      <trkpt lat="47.24136" lon="-2.29839">
        <ele>26</ele>
        <time>2020-05-17T07:32:27.000Z</time>
      </trkpt>
      <trkpt lat="47.24154" lon="-2.2984">
        <ele>26</ele>
        <time>2020-05-17T07:32:32.000Z</time>
      </trkpt>
      <trkpt lat="47.24161" lon="-2.29844">
        <ele>26</ele>
        <time>2020-05-17T07:32:34.000Z</time>
      </trkpt>
      <trkpt lat="47.24166" lon="-2.29848">
        <ele>26</ele>
        <time>2020-05-17T07:32:36.000Z</time>
      </trkpt>
      <trkpt lat="47.24172" lon="-2.29862">
        <ele>26</ele>
        <time>2020-05-17T07:32:40.000Z</time>
      </trkpt>
      <trkpt lat="47.24174" lon="-2.29866">
        <ele>26</ele>
        <time>2020-05-17T07:32:41.000Z</time>
      </trkpt>
      <trkpt lat="47.24176" lon="-2.29878">
        <ele>26</ele>
        <time>2020-05-17T07:32:46.000Z</time>
      </trkpt>
      <trkpt lat="47.24173" lon="-2.29906">
        <ele>26</ele>
        <time>2020-05-17T07:32:52.000Z</time>
      </trkpt>
      <trkpt lat="47.24162" lon="-2.29936">
        <ele>26</ele>
        <time>2020-05-17T07:32:58.000Z</time>
      </trkpt>
      <trkpt lat="47.24159" lon="-2.29968">
        <ele>26</ele>
        <time>2020-05-17T07:33:03.000Z</time>
      </trkpt>
      <trkpt lat="47.24166" lon="-2.29982">
        <ele>26</ele>
        <time>2020-05-17T07:33:08.000Z</time>
      </trkpt>
      <trkpt lat="47.24168" lon="-2.29984">
        <ele>26</ele>
        <time>2020-05-17T07:33:09.000Z</time>
      </trkpt>
      <trkpt lat="47.24173" lon="-2.3">
        <ele>26</ele>
        <time>2020-05-17T07:33:13.000Z</time>
      </trkpt>
      <trkpt lat="47.24175" lon="-2.30003">
        <ele>25.60000038147</ele>
        <time>2020-05-17T07:33:14.000Z</time>
      </trkpt>
      <trkpt lat="47.24177" lon="-2.30008">
        <ele>24.799999237061</ele>
        <time>2020-05-17T07:33:15.000Z</time>
      </trkpt>
      <trkpt lat="47.24179" lon="-2.30013">
        <ele>24.39999961853</ele>
        <time>2020-05-17T07:33:16.000Z</time>
      </trkpt>
      <trkpt lat="47.24179" lon="-2.30018">
        <ele>24</ele>
        <time>2020-05-17T07:33:17.000Z</time>
      </trkpt>
      <trkpt lat="47.24179" lon="-2.30022">
        <ele>24</ele>
        <time>2020-05-17T07:33:18.000Z</time>
      </trkpt>
      <trkpt lat="47.24177" lon="-2.3003">
        <ele>24</ele>
        <time>2020-05-17T07:33:20.000Z</time>
      </trkpt>
      <trkpt lat="47.24174" lon="-2.30033">
        <ele>24</ele>
        <time>2020-05-17T07:33:23.000Z</time>
      </trkpt>
      <trkpt lat="47.24173" lon="-2.30034">
        <ele>24</ele>
        <time>2020-05-17T07:33:24.000Z</time>
      </trkpt>
      <trkpt lat="47.24159" lon="-2.30028">
        <ele>24</ele>
        <time>2020-05-17T07:33:29.000Z</time>
      </trkpt>
      <trkpt lat="47.24145" lon="-2.30033">
        <ele>24</ele>
        <time>2020-05-17T07:33:35.000Z</time>
      </trkpt>
      <trkpt lat="47.24144" lon="-2.30035">
        <ele>24</ele>
        <time>2020-05-17T07:33:36.000Z</time>
      </trkpt>
      <trkpt lat="47.24144" lon="-2.30048">
        <ele>24</ele>
        <time>2020-05-17T07:33:40.000Z</time>
      </trkpt>
      <trkpt lat="47.24147" lon="-2.30065">
        <ele>23.60000038147</ele>
        <time>2020-05-17T07:33:43.000Z</time>
      </trkpt>
      <trkpt lat="47.24147" lon="-2.30072">
        <ele>23.200000762939</ele>
        <time>2020-05-17T07:33:44.000Z</time>
      </trkpt>
      <trkpt lat="47.24147" lon="-2.30079">
        <ele>22.60000038147</ele>
        <time>2020-05-17T07:33:45.000Z</time>
      </trkpt>
      <trkpt lat="47.24146" lon="-2.30086">
        <ele>22.200000762939</ele>
        <time>2020-05-17T07:33:46.000Z</time>
      </trkpt>
      <trkpt lat="47.24146" lon="-2.30091">
        <ele>21.799999237061</ele>
        <time>2020-05-17T07:33:47.000Z</time>
      </trkpt>
      <trkpt lat="47.24144" lon="-2.30102">
        <ele>21.39999961853</ele>
        <time>2020-05-17T07:33:49.000Z</time>
      </trkpt>
      <trkpt lat="47.24143" lon="-2.30107">
        <ele>21</ele>
        <time>2020-05-17T07:33:50.000Z</time>
      </trkpt>
      <trkpt lat="47.24142" lon="-2.30113">
        <ele>20.60000038147</ele>
        <time>2020-05-17T07:33:51.000Z</time>
      </trkpt>
      <trkpt lat="47.24141" lon="-2.30118">
        <ele>20.200000762939</ele>
        <time>2020-05-17T07:33:52.000Z</time>
      </trkpt>
      <trkpt lat="47.2414" lon="-2.30124">
        <ele>19.799999237061</ele>
        <time>2020-05-17T07:33:53.000Z</time>
      </trkpt>
      <trkpt lat="47.24138" lon="-2.3013">
        <ele>19.799999237061</ele>
        <time>2020-05-17T07:33:54.000Z</time>
      </trkpt>
      <trkpt lat="47.24132" lon="-2.30152">
        <ele>19.799999237061</ele>
        <time>2020-05-17T07:33:59.000Z</time>
      </trkpt>
      <trkpt lat="47.2413" lon="-2.30156">
        <ele>19.799999237061</ele>
        <time>2020-05-17T07:34:00.000Z</time>
      </trkpt>
      <trkpt lat="47.24118" lon="-2.30169">
        <ele>19.799999237061</ele>
        <time>2020-05-17T07:34:05.000Z</time>
      </trkpt>
      <trkpt lat="47.24107" lon="-2.30166">
        <ele>20.200000762939</ele>
        <time>2020-05-17T07:34:08.000Z</time>
      </trkpt>
      <trkpt lat="47.24103" lon="-2.30164">
        <ele>20.60000038147</ele>
        <time>2020-05-17T07:34:09.000Z</time>
      </trkpt>
      <trkpt lat="47.241" lon="-2.30165">
        <ele>21</ele>
        <time>2020-05-17T07:34:10.000Z</time>
      </trkpt>
      <trkpt lat="47.24097" lon="-2.30165">
        <ele>21.39999961853</ele>
        <time>2020-05-17T07:34:11.000Z</time>
      </trkpt>
      <trkpt lat="47.24094" lon="-2.30165">
        <ele>22</ele>
        <time>2020-05-17T07:34:12.000Z</time>
      </trkpt>
      <trkpt lat="47.24092" lon="-2.30162">
        <ele>22</ele>
        <time>2020-05-17T07:34:14.000Z</time>
      </trkpt>
      <trkpt lat="47.24091" lon="-2.30161">
        <ele>22</ele>
        <time>2020-05-17T07:34:15.000Z</time>
      </trkpt>
      <trkpt lat="47.24088" lon="-2.30151">
        <ele>22</ele>
        <time>2020-05-17T07:34:23.000Z</time>
      </trkpt>
      <trkpt lat="47.24088" lon="-2.30144">
        <ele>22</ele>
        <time>2020-05-17T07:34:26.000Z</time>
      </trkpt>
      <trkpt lat="47.24091" lon="-2.30133">
        <ele>22</ele>
        <time>2020-05-17T07:34:29.000Z</time>
      </trkpt>
      <trkpt lat="47.24092" lon="-2.30127">
        <ele>22</ele>
        <time>2020-05-17T07:34:35.000Z</time>
      </trkpt>
      <trkpt lat="47.24095" lon="-2.30122">
        <ele>22</ele>
        <time>2020-05-17T07:34:41.000Z</time>
      </trkpt>
      <trkpt lat="47.24096" lon="-2.3012">
        <ele>22</ele>
        <time>2020-05-17T07:34:42.000Z</time>
      </trkpt>
      <trkpt lat="47.24098" lon="-2.30106">
        <ele>22</ele>
        <time>2020-05-17T07:34:46.000Z</time>
      </trkpt>
      <trkpt lat="47.24102" lon="-2.30098">
        <ele>22</ele>
        <time>2020-05-17T07:34:48.000Z</time>
      </trkpt>
      <trkpt lat="47.24106" lon="-2.30088">
        <ele>22</ele>
        <time>2020-05-17T07:34:51.000Z</time>
      </trkpt>
      <trkpt lat="47.2411" lon="-2.30071">
        <ele>22</ele>
        <time>2020-05-17T07:34:57.000Z</time>
      </trkpt>
      <trkpt lat="47.2411" lon="-2.30048">
        <ele>22</ele>
        <time>2020-05-17T07:35:03.000Z</time>
      </trkpt>
      <trkpt lat="47.24117" lon="-2.30037">
        <ele>22</ele>
        <time>2020-05-17T07:35:08.000Z</time>
      </trkpt>
      <trkpt lat="47.24134" lon="-2.30034">
        <ele>22</ele>
        <time>2020-05-17T07:35:13.000Z</time>
      </trkpt>
      <trkpt lat="47.24138" lon="-2.30034">
        <ele>22.39999961853</ele>
        <time>2020-05-17T07:35:15.000Z</time>
      </trkpt>
      <trkpt lat="47.2414" lon="-2.30035">
        <ele>22.799999237061</ele>
        <time>2020-05-17T07:35:16.000Z</time>
      </trkpt>
      <trkpt lat="47.24141" lon="-2.30035">
        <ele>23.200000762939</ele>
        <time>2020-05-17T07:35:17.000Z</time>
      </trkpt>
      <trkpt lat="47.24143" lon="-2.30036">
        <ele>23.60000038147</ele>
        <time>2020-05-17T07:35:18.000Z</time>
      </trkpt>
      <trkpt lat="47.24145" lon="-2.30038">
        <ele>24</ele>
        <time>2020-05-17T07:35:19.000Z</time>
      </trkpt>
      <trkpt lat="47.24152" lon="-2.30051">
        <ele>24</ele>
        <time>2020-05-17T07:35:23.000Z</time>
      </trkpt>
      <trkpt lat="47.24154" lon="-2.30053">
        <ele>23.60000038147</ele>
        <time>2020-05-17T07:35:24.000Z</time>
      </trkpt>
      <trkpt lat="47.24155" lon="-2.30054">
        <ele>23.200000762939</ele>
        <time>2020-05-17T07:35:25.000Z</time>
      </trkpt>
      <trkpt lat="47.24156" lon="-2.30052">
        <ele>22.799999237061</ele>
        <time>2020-05-17T07:35:26.000Z</time>
      </trkpt>
      <trkpt lat="47.24156" lon="-2.30052">
        <ele>22.39999961853</ele>
        <time>2020-05-17T07:35:27.000Z</time>
      </trkpt>
      <trkpt lat="47.24157" lon="-2.30051">
        <ele>22</ele>
        <time>2020-05-17T07:35:28.000Z</time>
      </trkpt>
      <trkpt lat="47.24161" lon="-2.30048">
        <ele>22</ele>
        <time>2020-05-17T07:35:34.000Z</time>
      </trkpt>
      <trkpt lat="47.24162" lon="-2.30048">
        <ele>22</ele>
        <time>2020-05-17T07:35:42.000Z</time>
      </trkpt>
      <trkpt lat="47.24162" lon="-2.30048">
        <ele>22</ele>
        <time>2020-05-17T07:35:50.000Z</time>
      </trkpt>
      <trkpt lat="47.24162" lon="-2.30048">
        <ele>22</ele>
        <time>2020-05-17T07:36:02.000Z</time>
      </trkpt>
      <trkpt lat="47.24162" lon="-2.30048">
        <ele>22</ele>
        <time>2020-05-17T07:36:16.000Z</time>
      </trkpt>
      <trkpt lat="47.24165" lon="-2.30049">
        <ele>22</ele>
        <time>2020-05-17T07:36:26.000Z</time>
      </trkpt>
      <trkpt lat="47.24171" lon="-2.30042">
        <ele>22</ele>
        <time>2020-05-17T07:36:33.000Z</time>
      </trkpt>
      <trkpt lat="47.24178" lon="-2.30038">
        <ele>22</ele>
        <time>2020-05-17T07:36:40.000Z</time>
      </trkpt>
      <trkpt lat="47.24183" lon="-2.30027">
        <ele>22</ele>
        <time>2020-05-17T07:36:44.000Z</time>
      </trkpt>
      <trkpt lat="47.24182" lon="-2.30025">
        <ele>22</ele>
        <time>2020-05-17T07:36:45.000Z</time>
      </trkpt>
      <trkpt lat="47.24181" lon="-2.30023">
        <ele>22</ele>
        <time>2020-05-17T07:36:46.000Z</time>
      </trkpt>
      <trkpt lat="47.24177" lon="-2.30011">
        <ele>22.39999961853</ele>
        <time>2020-05-17T07:36:51.000Z</time>
      </trkpt>
      <trkpt lat="47.24177" lon="-2.30009">
        <ele>22.799999237061</ele>
        <time>2020-05-17T07:36:52.000Z</time>
      </trkpt>
      <trkpt lat="47.24177" lon="-2.30007">
        <ele>23.200000762939</ele>
        <time>2020-05-17T07:36:53.000Z</time>
      </trkpt>
      <trkpt lat="47.24176" lon="-2.30006">
        <ele>23.60000038147</ele>
        <time>2020-05-17T07:36:54.000Z</time>
      </trkpt>
      <trkpt lat="47.24176" lon="-2.30005">
        <ele>24</ele>
        <time>2020-05-17T07:36:55.000Z</time>
      </trkpt>
      <trkpt lat="47.24176" lon="-2.30003">
        <ele>24</ele>
        <time>2020-05-17T07:37:01.000Z</time>
      </trkpt>
      <trkpt lat="47.24176" lon="-2.30003">
        <ele>24</ele>
        <time>2020-05-17T07:37:14.000Z</time>
      </trkpt>
      <trkpt lat="47.24176" lon="-2.30003">
        <ele>24</ele>
        <time>2020-05-17T07:37:24.000Z</time>
      </trkpt>
      <trkpt lat="47.24176" lon="-2.30003">
        <ele>24</ele>
        <time>2020-05-17T07:37:37.000Z</time>
      </trkpt>
      <trkpt lat="47.24174" lon="-2.29998">
        <ele>24</ele>
        <time>2020-05-17T07:37:47.000Z</time>
      </trkpt>
      <trkpt lat="47.24174" lon="-2.29981">
        <ele>24</ele>
        <time>2020-05-17T07:37:52.000Z</time>
      </trkpt>
      <trkpt lat="47.24179" lon="-2.2998">
        <ele>24</ele>
        <time>2020-05-17T07:37:54.000Z</time>
      </trkpt>
      <trkpt lat="47.24184" lon="-2.29978">
        <ele>24</ele>
        <time>2020-05-17T07:37:56.000Z</time>
      </trkpt>
      <trkpt lat="47.24201" lon="-2.29965">
        <ele>24</ele>
        <time>2020-05-17T07:38:01.000Z</time>
      </trkpt>
      <trkpt lat="47.24226" lon="-2.29956">
        <ele>24</ele>
        <time>2020-05-17T07:38:07.000Z</time>
      </trkpt>
      <trkpt lat="47.2424" lon="-2.29947">
        <ele>24</ele>
        <time>2020-05-17T07:38:10.000Z</time>
      </trkpt>
      <trkpt lat="47.24246" lon="-2.29943">
        <ele>24</ele>
        <time>2020-05-17T07:38:11.000Z</time>
      </trkpt>
      <trkpt lat="47.24264" lon="-2.29924">
        <ele>24</ele>
        <time>2020-05-17T07:38:15.000Z</time>
      </trkpt>
      <trkpt lat="47.24288" lon="-2.29898">
        <ele>24</ele>
        <time>2020-05-17T07:38:21.000Z</time>
      </trkpt>
      <trkpt lat="47.24294" lon="-2.29894">
        <ele>24</ele>
        <time>2020-05-17T07:38:22.000Z</time>
      </trkpt>
      <trkpt lat="47.24305" lon="-2.29885">
        <ele>24</ele>
        <time>2020-05-17T07:38:24.000Z</time>
      </trkpt>
      <trkpt lat="47.24309" lon="-2.29878">
        <ele>24</ele>
        <time>2020-05-17T07:38:25.000Z</time>
      </trkpt>
      <trkpt lat="47.24316" lon="-2.29849">
        <ele>24</ele>
        <time>2020-05-17T07:38:29.000Z</time>
      </trkpt>
      <trkpt lat="47.24321" lon="-2.2982">
        <ele>24</ele>
        <time>2020-05-17T07:38:33.000Z</time>
      </trkpt>
      <trkpt lat="47.24335" lon="-2.29809">
        <ele>24</ele>
        <time>2020-05-17T07:38:36.000Z</time>
      </trkpt>
      <trkpt lat="47.24347" lon="-2.29804">
        <ele>24</ele>
        <time>2020-05-17T07:38:38.000Z</time>
      </trkpt>
      <trkpt lat="47.24362" lon="-2.29794">
        <ele>24</ele>
        <time>2020-05-17T07:38:41.000Z</time>
      </trkpt>
      <trkpt lat="47.24366" lon="-2.29788">
        <ele>24</ele>
        <time>2020-05-17T07:38:42.000Z</time>
      </trkpt>
      <trkpt lat="47.24379" lon="-2.29762">
        <ele>24.39999961853</ele>
        <time>2020-05-17T07:38:46.000Z</time>
      </trkpt>
      <trkpt lat="47.24382" lon="-2.29755">
        <ele>25</ele>
        <time>2020-05-17T07:38:47.000Z</time>
      </trkpt>
      <trkpt lat="47.24385" lon="-2.29748">
        <ele>25.39999961853</ele>
        <time>2020-05-17T07:38:48.000Z</time>
      </trkpt>
      <trkpt lat="47.24388" lon="-2.29741">
        <ele>25.799999237061</ele>
        <time>2020-05-17T07:38:49.000Z</time>
      </trkpt>
      <trkpt lat="47.2439" lon="-2.29733">
        <ele>26.200000762939</ele>
        <time>2020-05-17T07:38:50.000Z</time>
      </trkpt>
      <trkpt lat="47.24401" lon="-2.29705">
        <ele>26.200000762939</ele>
        <time>2020-05-17T07:38:54.000Z</time>
      </trkpt>
      <trkpt lat="47.24404" lon="-2.29701">
        <ele>26.200000762939</ele>
        <time>2020-05-17T07:38:55.000Z</time>
      </trkpt>
      <trkpt lat="47.24415" lon="-2.2969">
        <ele>26.200000762939</ele>
        <time>2020-05-17T07:38:58.000Z</time>
      </trkpt>
      <trkpt lat="47.24429" lon="-2.29692">
        <ele>26.200000762939</ele>
        <time>2020-05-17T07:39:01.000Z</time>
      </trkpt>
      <trkpt lat="47.24439" lon="-2.29711">
        <ele>26.200000762939</ele>
        <time>2020-05-17T07:39:04.000Z</time>
      </trkpt>
      <trkpt lat="47.24444" lon="-2.29725">
        <ele>26.200000762939</ele>
        <time>2020-05-17T07:39:06.000Z</time>
      </trkpt>
      <trkpt lat="47.24456" lon="-2.29753">
        <ele>26.200000762939</ele>
        <time>2020-05-17T07:39:10.000Z</time>
      </trkpt>
      <trkpt lat="47.24459" lon="-2.29767">
        <ele>26.200000762939</ele>
        <time>2020-05-17T07:39:12.000Z</time>
      </trkpt>
      <trkpt lat="47.24462" lon="-2.29786">
        <ele>26.200000762939</ele>
        <time>2020-05-17T07:39:15.000Z</time>
      </trkpt>
      <trkpt lat="47.24472" lon="-2.29813">
        <ele>26.200000762939</ele>
        <time>2020-05-17T07:39:19.000Z</time>
      </trkpt>
      <trkpt lat="47.24476" lon="-2.29818">
        <ele>26.200000762939</ele>
        <time>2020-05-17T07:39:20.000Z</time>
      </trkpt>
      <trkpt lat="47.24494" lon="-2.29843">
        <ele>26.200000762939</ele>
        <time>2020-05-17T07:39:25.000Z</time>
      </trkpt>
      <trkpt lat="47.24499" lon="-2.29846">
        <ele>26.200000762939</ele>
        <time>2020-05-17T07:39:26.000Z</time>
      </trkpt>
      <trkpt lat="47.24534" lon="-2.29866">
        <ele>26.200000762939</ele>
        <time>2020-05-17T07:39:33.000Z</time>
      </trkpt>
      <trkpt lat="47.24558" lon="-2.29877">
        <ele>26.200000762939</ele>
        <time>2020-05-17T07:39:38.000Z</time>
      </trkpt>
      <trkpt lat="47.24562" lon="-2.29882">
        <ele>26.200000762939</ele>
        <time>2020-05-17T07:39:39.000Z</time>
      </trkpt>
      <trkpt lat="47.24574" lon="-2.29904">
        <ele>26.200000762939</ele>
        <time>2020-05-17T07:39:43.000Z</time>
      </trkpt>
      <trkpt lat="47.24578" lon="-2.2991">
        <ele>26.200000762939</ele>
        <time>2020-05-17T07:39:44.000Z</time>
      </trkpt>
      <trkpt lat="47.24599" lon="-2.29944">
        <ele>26.200000762939</ele>
        <time>2020-05-17T07:39:50.000Z</time>
      </trkpt>
      <trkpt lat="47.24604" lon="-2.29944">
        <ele>26.200000762939</ele>
        <time>2020-05-17T07:39:51.000Z</time>
      </trkpt>
      <trkpt lat="47.2462" lon="-2.29938">
        <ele>26.200000762939</ele>
        <time>2020-05-17T07:39:54.000Z</time>
      </trkpt>
      <trkpt lat="47.24658" lon="-2.29925">
        <ele>26.60000038147</ele>
        <time>2020-05-17T07:40:01.000Z</time>
      </trkpt>
      <trkpt lat="47.24663" lon="-2.29923">
        <ele>27</ele>
        <time>2020-05-17T07:40:02.000Z</time>
      </trkpt>
      <trkpt lat="47.24669" lon="-2.29921">
        <ele>27.39999961853</ele>
        <time>2020-05-17T07:40:03.000Z</time>
      </trkpt>
      <trkpt lat="47.24674" lon="-2.29919">
        <ele>27.799999237061</ele>
        <time>2020-05-17T07:40:04.000Z</time>
      </trkpt>
      <trkpt lat="47.24679" lon="-2.29917">
        <ele>28.200000762939</ele>
        <time>2020-05-17T07:40:05.000Z</time>
      </trkpt>
      <trkpt lat="47.24703" lon="-2.29908">
        <ele>28.200000762939</ele>
        <time>2020-05-17T07:40:10.000Z</time>
      </trkpt>
      <trkpt lat="47.24741" lon="-2.29894">
        <ele>28.200000762939</ele>
        <time>2020-05-17T07:40:18.000Z</time>
      </trkpt>
      <trkpt lat="47.24771" lon="-2.29874">
        <ele>28.200000762939</ele>
        <time>2020-05-17T07:40:24.000Z</time>
      </trkpt>
      <trkpt lat="47.2479" lon="-2.29859">
        <ele>28.60000038147</ele>
        <time>2020-05-17T07:40:28.000Z</time>
      </trkpt>
      <trkpt lat="47.24794" lon="-2.29856">
        <ele>29</ele>
        <time>2020-05-17T07:40:29.000Z</time>
      </trkpt>
      <trkpt lat="47.24799" lon="-2.29853">
        <ele>29.60000038147</ele>
        <time>2020-05-17T07:40:30.000Z</time>
      </trkpt>
      <trkpt lat="47.24804" lon="-2.29851">
        <ele>30</ele>
        <time>2020-05-17T07:40:31.000Z</time>
      </trkpt>
      <trkpt lat="47.24809" lon="-2.29849">
        <ele>30.39999961853</ele>
        <time>2020-05-17T07:40:32.000Z</time>
      </trkpt>
      <trkpt lat="47.24843" lon="-2.29839">
        <ele>30.39999961853</ele>
        <time>2020-05-17T07:40:39.000Z</time>
      </trkpt>
      <trkpt lat="47.24847" lon="-2.29837">
        <ele>30.39999961853</ele>
        <time>2020-05-17T07:40:40.000Z</time>
      </trkpt>
      <trkpt lat="47.24861" lon="-2.2983">
        <ele>30.39999961853</ele>
        <time>2020-05-17T07:40:44.000Z</time>
      </trkpt>
      <trkpt lat="47.24864" lon="-2.29833">
        <ele>30.39999961853</ele>
        <time>2020-05-17T07:40:45.000Z</time>
      </trkpt>
      <trkpt lat="47.24868" lon="-2.29843">
        <ele>30.39999961853</ele>
        <time>2020-05-17T07:40:47.000Z</time>
      </trkpt>
      <trkpt lat="47.2487" lon="-2.29858">
        <ele>30.39999961853</ele>
        <time>2020-05-17T07:40:49.000Z</time>
      </trkpt>
      <trkpt lat="47.24873" lon="-2.29872">
        <ele>30.39999961853</ele>
        <time>2020-05-17T07:40:51.000Z</time>
      </trkpt>
      <trkpt lat="47.2488" lon="-2.29918">
        <ele>30.39999961853</ele>
        <time>2020-05-17T07:40:57.000Z</time>
      </trkpt>
      <trkpt lat="47.24889" lon="-2.29962">
        <ele>30.39999961853</ele>
        <time>2020-05-17T07:41:02.000Z</time>
      </trkpt>
      <trkpt lat="47.24905" lon="-2.30033">
        <ele>30.39999961853</ele>
        <time>2020-05-17T07:41:10.000Z</time>
      </trkpt>
      <trkpt lat="47.24903" lon="-2.30049">
        <ele>30.39999961853</ele>
        <time>2020-05-17T07:41:13.000Z</time>
      </trkpt>
      <trkpt lat="47.24904" lon="-2.30054">
        <ele>30.39999961853</ele>
        <time>2020-05-17T07:41:14.000Z</time>
      </trkpt>
      <trkpt lat="47.24908" lon="-2.30058">
        <ele>30.39999961853</ele>
        <time>2020-05-17T07:41:16.000Z</time>
      </trkpt>
      <trkpt lat="47.24918" lon="-2.30058">
        <ele>30.39999961853</ele>
        <time>2020-05-17T07:41:19.000Z</time>
      </trkpt>
      <trkpt lat="47.24922" lon="-2.30057">
        <ele>30.39999961853</ele>
        <time>2020-05-17T07:41:20.000Z</time>
      </trkpt>
      <trkpt lat="47.24948" lon="-2.30056">
        <ele>30.39999961853</ele>
        <time>2020-05-17T07:41:26.000Z</time>
      </trkpt>
      <trkpt lat="47.24975" lon="-2.30055">
        <ele>30.39999961853</ele>
        <time>2020-05-17T07:41:32.000Z</time>
      </trkpt>
      <trkpt lat="47.25009" lon="-2.30052">
        <ele>30.39999961853</ele>
        <time>2020-05-17T07:41:39.000Z</time>
      </trkpt>
      <trkpt lat="47.25013" lon="-2.30052">
        <ele>30.39999961853</ele>
        <time>2020-05-17T07:41:40.000Z</time>
      </trkpt>
      <trkpt lat="47.25037" lon="-2.30053">
        <ele>30</ele>
        <time>2020-05-17T07:41:46.000Z</time>
      </trkpt>
      <trkpt lat="47.25041" lon="-2.30054">
        <ele>29.60000038147</ele>
        <time>2020-05-17T07:41:47.000Z</time>
      </trkpt>
      <trkpt lat="47.25045" lon="-2.30054">
        <ele>29</ele>
        <time>2020-05-17T07:41:48.000Z</time>
      </trkpt>
      <trkpt lat="47.2505" lon="-2.30055">
        <ele>28.60000038147</ele>
        <time>2020-05-17T07:41:49.000Z</time>
      </trkpt>
      <trkpt lat="47.25054" lon="-2.30055">
        <ele>28.200000762939</ele>
        <time>2020-05-17T07:41:50.000Z</time>
      </trkpt>
      <trkpt lat="47.25065" lon="-2.30058">
        <ele>28.200000762939</ele>
        <time>2020-05-17T07:41:54.000Z</time>
      </trkpt>
      <trkpt lat="47.25071" lon="-2.30061">
        <ele>28.200000762939</ele>
        <time>2020-05-17T07:41:58.000Z</time>
      </trkpt>
      <trkpt lat="47.25072" lon="-2.30064">
        <ele>28.200000762939</ele>
        <time>2020-05-17T07:41:59.000Z</time>
      </trkpt>
      <trkpt lat="47.2507" lon="-2.3009">
        <ele>28.200000762939</ele>
        <time>2020-05-17T07:42:04.000Z</time>
      </trkpt>
      <trkpt lat="47.25068" lon="-2.3013">
        <ele>28.200000762939</ele>
        <time>2020-05-17T07:42:10.000Z</time>
      </trkpt>
      <trkpt lat="47.25075" lon="-2.30135">
        <ele>28.200000762939</ele>
        <time>2020-05-17T07:42:12.000Z</time>
      </trkpt>
      <trkpt lat="47.25084" lon="-2.30134">
        <ele>28.200000762939</ele>
        <time>2020-05-17T07:42:14.000Z</time>
      </trkpt>
      <trkpt lat="47.25099" lon="-2.30131">
        <ele>28.200000762939</ele>
        <time>2020-05-17T07:42:17.000Z</time>
      </trkpt>
      <trkpt lat="47.25134" lon="-2.30122">
        <ele>28.200000762939</ele>
        <time>2020-05-17T07:42:23.000Z</time>
      </trkpt>
      <trkpt lat="47.25173" lon="-2.30114">
        <ele>27.799999237061</ele>
        <time>2020-05-17T07:42:29.000Z</time>
      </trkpt>
      <trkpt lat="47.25178" lon="-2.30116">
        <ele>27.39999961853</ele>
        <time>2020-05-17T07:42:30.000Z</time>
      </trkpt>
      <trkpt lat="47.25182" lon="-2.30121">
        <ele>27</ele>
        <time>2020-05-17T07:42:31.000Z</time>
      </trkpt>
      <trkpt lat="47.25186" lon="-2.30127">
        <ele>26.60000038147</ele>
        <time>2020-05-17T07:42:32.000Z</time>
      </trkpt>
      <trkpt lat="47.25189" lon="-2.30135">
        <ele>26.200000762939</ele>
        <time>2020-05-17T07:42:33.000Z</time>
      </trkpt>
      <trkpt lat="47.25198" lon="-2.3015">
        <ele>26.200000762939</ele>
        <time>2020-05-17T07:42:35.000Z</time>
      </trkpt>
      <trkpt lat="47.25219" lon="-2.30174">
        <ele>26.200000762939</ele>
        <time>2020-05-17T07:42:39.000Z</time>
      </trkpt>
      <trkpt lat="47.25224" lon="-2.30178">
        <ele>25.60000038147</ele>
        <time>2020-05-17T07:42:40.000Z</time>
      </trkpt>
      <trkpt lat="47.2523" lon="-2.30181">
        <ele>25.200000762939</ele>
        <time>2020-05-17T07:42:41.000Z</time>
      </trkpt>
      <trkpt lat="47.25236" lon="-2.30183">
        <ele>24.799999237061</ele>
        <time>2020-05-17T07:42:42.000Z</time>
      </trkpt>
      <trkpt lat="47.25241" lon="-2.30184">
        <ele>24.200000762939</ele>
        <time>2020-05-17T07:42:43.000Z</time>
      </trkpt>
      <trkpt lat="47.25247" lon="-2.30186">
        <ele>23.799999237061</ele>
        <time>2020-05-17T07:42:44.000Z</time>
      </trkpt>
      <trkpt lat="47.25257" lon="-2.30191">
        <ele>23.799999237061</ele>
        <time>2020-05-17T07:42:46.000Z</time>
      </trkpt>
      <trkpt lat="47.25268" lon="-2.30196">
        <ele>23.799999237061</ele>
        <time>2020-05-17T07:42:48.000Z</time>
      </trkpt>
      <trkpt lat="47.25274" lon="-2.302">
        <ele>23.39999961853</ele>
        <time>2020-05-17T07:42:49.000Z</time>
      </trkpt>
      <trkpt lat="47.25279" lon="-2.30202">
        <ele>23</ele>
        <time>2020-05-17T07:42:50.000Z</time>
      </trkpt>
      <trkpt lat="47.25284" lon="-2.30204">
        <ele>22.60000038147</ele>
        <time>2020-05-17T07:42:51.000Z</time>
      </trkpt>
      <trkpt lat="47.25288" lon="-2.30206">
        <ele>22.200000762939</ele>
        <time>2020-05-17T07:42:52.000Z</time>
      </trkpt>
      <trkpt lat="47.25292" lon="-2.30208">
        <ele>21.799999237061</ele>
        <time>2020-05-17T07:42:53.000Z</time>
      </trkpt>
      <trkpt lat="47.25298" lon="-2.30209">
        <ele>21.799999237061</ele>
        <time>2020-05-17T07:42:55.000Z</time>
      </trkpt>
      <trkpt lat="47.2531" lon="-2.30202">
        <ele>21.39999961853</ele>
        <time>2020-05-17T07:43:00.000Z</time>
      </trkpt>
      <trkpt lat="47.25313" lon="-2.30202">
        <ele>21</ele>
        <time>2020-05-17T07:43:01.000Z</time>
      </trkpt>
      <trkpt lat="47.25318" lon="-2.30203">
        <ele>20.39999961853</ele>
        <time>2020-05-17T07:43:02.000Z</time>
      </trkpt>
      <trkpt lat="47.25322" lon="-2.30204">
        <ele>20</ele>
        <time>2020-05-17T07:43:03.000Z</time>
      </trkpt>
      <trkpt lat="47.25327" lon="-2.30204">
        <ele>19.60000038147</ele>
        <time>2020-05-17T07:43:04.000Z</time>
      </trkpt>
      <trkpt lat="47.25333" lon="-2.30205">
        <ele>19.60000038147</ele>
        <time>2020-05-17T07:43:05.000Z</time>
      </trkpt>
      <trkpt lat="47.25369" lon="-2.30208">
        <ele>19.60000038147</ele>
        <time>2020-05-17T07:43:12.000Z</time>
      </trkpt>
      <trkpt lat="47.25391" lon="-2.30216">
        <ele>19.60000038147</ele>
        <time>2020-05-17T07:43:17.000Z</time>
      </trkpt>
      <trkpt lat="47.254" lon="-2.30222">
        <ele>19.60000038147</ele>
        <time>2020-05-17T07:43:19.000Z</time>
      </trkpt>
      <trkpt lat="47.25408" lon="-2.30226">
        <ele>19.200000762939</ele>
        <time>2020-05-17T07:43:21.000Z</time>
      </trkpt>
      <trkpt lat="47.25412" lon="-2.30228">
        <ele>18.799999237061</ele>
        <time>2020-05-17T07:43:22.000Z</time>
      </trkpt>
      <trkpt lat="47.25416" lon="-2.30229">
        <ele>18.39999961853</ele>
        <time>2020-05-17T07:43:23.000Z</time>
      </trkpt>
      <trkpt lat="47.25419" lon="-2.30231">
        <ele>18</ele>
        <time>2020-05-17T07:43:24.000Z</time>
      </trkpt>
      <trkpt lat="47.25424" lon="-2.30233">
        <ele>17.60000038147</ele>
        <time>2020-05-17T07:43:25.000Z</time>
      </trkpt>
      <trkpt lat="47.25445" lon="-2.30239">
        <ele>17.60000038147</ele>
        <time>2020-05-17T07:43:29.000Z</time>
      </trkpt>
      <trkpt lat="47.25468" lon="-2.30245">
        <ele>17.60000038147</ele>
        <time>2020-05-17T07:43:34.000Z</time>
      </trkpt>
      <trkpt lat="47.25478" lon="-2.30228">
        <ele>17.60000038147</ele>
        <time>2020-05-17T07:43:38.000Z</time>
      </trkpt>
      <trkpt lat="47.2548" lon="-2.30223">
        <ele>17.60000038147</ele>
        <time>2020-05-17T07:43:39.000Z</time>
      </trkpt>
      <trkpt lat="47.25491" lon="-2.30194">
        <ele>17.200000762939</ele>
        <time>2020-05-17T07:43:44.000Z</time>
      </trkpt>
      <trkpt lat="47.25493" lon="-2.30191">
        <ele>16.799999237061</ele>
        <time>2020-05-17T07:43:45.000Z</time>
      </trkpt>
      <trkpt lat="47.25496" lon="-2.30189">
        <ele>16.39999961853</ele>
        <time>2020-05-17T07:43:46.000Z</time>
      </trkpt>
      <trkpt lat="47.25498" lon="-2.30187">
        <ele>16</ele>
        <time>2020-05-17T07:43:47.000Z</time>
      </trkpt>
      <trkpt lat="47.25501" lon="-2.30187">
        <ele>15.60000038147</ele>
        <time>2020-05-17T07:43:48.000Z</time>
      </trkpt>
      <trkpt lat="47.25507" lon="-2.30187">
        <ele>15.60000038147</ele>
        <time>2020-05-17T07:43:49.000Z</time>
      </trkpt>
      <trkpt lat="47.25533" lon="-2.30176">
        <ele>15.60000038147</ele>
        <time>2020-05-17T07:43:54.000Z</time>
      </trkpt>
      <trkpt lat="47.25539" lon="-2.30176">
        <ele>15.60000038147</ele>
        <time>2020-05-17T07:43:55.000Z</time>
      </trkpt>
      <trkpt lat="47.25558" lon="-2.3018">
        <ele>15.60000038147</ele>
        <time>2020-05-17T07:43:58.000Z</time>
      </trkpt>
      <trkpt lat="47.25564" lon="-2.30182">
        <ele>15.60000038147</ele>
        <time>2020-05-17T07:43:59.000Z</time>
      </trkpt>
      <trkpt lat="47.25584" lon="-2.302">
        <ele>15.60000038147</ele>
        <time>2020-05-17T07:44:02.000Z</time>
      </trkpt>
      <trkpt lat="47.2559" lon="-2.30206">
        <ele>15.60000038147</ele>
        <time>2020-05-17T07:44:03.000Z</time>
      </trkpt>
      <trkpt lat="47.25605" lon="-2.30227">
        <ele>15.60000038147</ele>
        <time>2020-05-17T07:44:06.000Z</time>
      </trkpt>
      <trkpt lat="47.25612" lon="-2.30243">
        <ele>15.199999809265</ele>
        <time>2020-05-17T07:44:08.000Z</time>
      </trkpt>
      <trkpt lat="47.25615" lon="-2.3025">
        <ele>14.800000190735</ele>
        <time>2020-05-17T07:44:09.000Z</time>
      </trkpt>
      <trkpt lat="47.25617" lon="-2.30258">
        <ele>14.39999961853</ele>
        <time>2020-05-17T07:44:10.000Z</time>
      </trkpt>
      <trkpt lat="47.25619" lon="-2.30266">
        <ele>14</ele>
        <time>2020-05-17T07:44:11.000Z</time>
      </trkpt>
      <trkpt lat="47.2562" lon="-2.30276">
        <ele>13.60000038147</ele>
        <time>2020-05-17T07:44:12.000Z</time>
      </trkpt>
      <trkpt lat="47.25625" lon="-2.30325">
        <ele>13.60000038147</ele>
        <time>2020-05-17T07:44:18.000Z</time>
      </trkpt>
      <trkpt lat="47.2563" lon="-2.3034">
        <ele>13.60000038147</ele>
        <time>2020-05-17T07:44:21.000Z</time>
      </trkpt>
      <trkpt lat="47.25635" lon="-2.30338">
        <ele>13.60000038147</ele>
        <time>2020-05-17T07:44:24.000Z</time>
      </trkpt>
      <trkpt lat="47.25648" lon="-2.30317">
        <ele>13.60000038147</ele>
        <time>2020-05-17T07:44:29.000Z</time>
      </trkpt>
      <trkpt lat="47.2565" lon="-2.30312">
        <ele>13.60000038147</ele>
        <time>2020-05-17T07:44:30.000Z</time>
      </trkpt>
      <trkpt lat="47.25653" lon="-2.30295">
        <ele>13.60000038147</ele>
        <time>2020-05-17T07:44:33.000Z</time>
      </trkpt>
      <trkpt lat="47.2566" lon="-2.30272">
        <ele>13.60000038147</ele>
        <time>2020-05-17T07:44:38.000Z</time>
      </trkpt>
      <trkpt lat="47.25673" lon="-2.30257">
        <ele>13.60000038147</ele>
        <time>2020-05-17T07:44:45.000Z</time>
      </trkpt>
      <trkpt lat="47.2568" lon="-2.30237">
        <ele>13.60000038147</ele>
        <time>2020-05-17T07:44:50.000Z</time>
      </trkpt>
      <trkpt lat="47.25695" lon="-2.30212">
        <ele>13.60000038147</ele>
        <time>2020-05-17T07:44:57.000Z</time>
      </trkpt>
      <trkpt lat="47.25717" lon="-2.30202">
        <ele>13.199999809265</ele>
        <time>2020-05-17T07:45:03.000Z</time>
      </trkpt>
      <trkpt lat="47.25721" lon="-2.30202">
        <ele>12.800000190735</ele>
        <time>2020-05-17T07:45:04.000Z</time>
      </trkpt>
      <trkpt lat="47.25725" lon="-2.30204">
        <ele>12.39999961853</ele>
        <time>2020-05-17T07:45:05.000Z</time>
      </trkpt>
      <trkpt lat="47.2573" lon="-2.30205">
        <ele>12</ele>
        <time>2020-05-17T07:45:06.000Z</time>
      </trkpt>
      <trkpt lat="47.25734" lon="-2.30207">
        <ele>11.60000038147</ele>
        <time>2020-05-17T07:45:07.000Z</time>
      </trkpt>
      <trkpt lat="47.25738" lon="-2.3021">
        <ele>11.60000038147</ele>
        <time>2020-05-17T07:45:08.000Z</time>
      </trkpt>
      <trkpt lat="47.25771" lon="-2.30227">
        <ele>11.60000038147</ele>
        <time>2020-05-17T07:45:15.000Z</time>
      </trkpt>
      <trkpt lat="47.25809" lon="-2.30243">
        <ele>11.60000038147</ele>
        <time>2020-05-17T07:45:22.000Z</time>
      </trkpt>
      <trkpt lat="47.25839" lon="-2.30261">
        <ele>11.60000038147</ele>
        <time>2020-05-17T07:45:28.000Z</time>
      </trkpt>
      <trkpt lat="47.25868" lon="-2.30269">
        <ele>11.60000038147</ele>
        <time>2020-05-17T07:45:35.000Z</time>
      </trkpt>
      <trkpt lat="47.25879" lon="-2.30261">
        <ele>11.60000038147</ele>
        <time>2020-05-17T07:45:38.000Z</time>
      </trkpt>
      <trkpt lat="47.25885" lon="-2.30253">
        <ele>11.60000038147</ele>
        <time>2020-05-17T07:45:40.000Z</time>
      </trkpt>
      <trkpt lat="47.25888" lon="-2.30248">
        <ele>11.60000038147</ele>
        <time>2020-05-17T07:45:41.000Z</time>
      </trkpt>
      <trkpt lat="47.2589" lon="-2.30235">
        <ele>11.60000038147</ele>
        <time>2020-05-17T07:45:43.000Z</time>
      </trkpt>
      <trkpt lat="47.25889" lon="-2.30205">
        <ele>11.60000038147</ele>
        <time>2020-05-17T07:45:48.000Z</time>
      </trkpt>
      <trkpt lat="47.25887" lon="-2.30184">
        <ele>11.60000038147</ele>
        <time>2020-05-17T07:45:52.000Z</time>
      </trkpt>
      <trkpt lat="47.25889" lon="-2.3018">
        <ele>11.60000038147</ele>
        <time>2020-05-17T07:45:53.000Z</time>
      </trkpt>
      <trkpt lat="47.259" lon="-2.30178">
        <ele>11.60000038147</ele>
        <time>2020-05-17T07:45:56.000Z</time>
      </trkpt>
      <trkpt lat="47.25908" lon="-2.30175">
        <ele>11.60000038147</ele>
        <time>2020-05-17T07:45:58.000Z</time>
      </trkpt>
      <trkpt lat="47.25922" lon="-2.3017">
        <ele>11.60000038147</ele>
        <time>2020-05-17T07:46:01.000Z</time>
      </trkpt>
      <trkpt lat="47.25927" lon="-2.30169">
        <ele>11.199999809265</ele>
        <time>2020-05-17T07:46:02.000Z</time>
      </trkpt>
      <trkpt lat="47.25932" lon="-2.30168">
        <ele>10.800000190735</ele>
        <time>2020-05-17T07:46:03.000Z</time>
      </trkpt>
      <trkpt lat="47.25937" lon="-2.30167">
        <ele>10.39999961853</ele>
        <time>2020-05-17T07:46:04.000Z</time>
      </trkpt>
      <trkpt lat="47.25943" lon="-2.30164">
        <ele>9.8000001907349</ele>
        <time>2020-05-17T07:46:05.000Z</time>
      </trkpt>
      <trkpt lat="47.25948" lon="-2.30162">
        <ele>9.3999996185303</ele>
        <time>2020-05-17T07:46:06.000Z</time>
      </trkpt>
      <trkpt lat="47.25963" lon="-2.30141">
        <ele>9.3999996185303</ele>
        <time>2020-05-17T07:46:10.000Z</time>
      </trkpt>
      <trkpt lat="47.25966" lon="-2.30136">
        <ele>9.3999996185303</ele>
        <time>2020-05-17T07:46:11.000Z</time>
      </trkpt>
      <trkpt lat="47.2597" lon="-2.30132">
        <ele>9.3999996185303</ele>
        <time>2020-05-17T07:46:12.000Z</time>
      </trkpt>
      <trkpt lat="47.25976" lon="-2.30131">
        <ele>9.3999996185303</ele>
        <time>2020-05-17T07:46:14.000Z</time>
      </trkpt>
      <trkpt lat="47.25984" lon="-2.3013">
        <ele>9.3999996185303</ele>
        <time>2020-05-17T07:46:16.000Z</time>
      </trkpt>
      <trkpt lat="47.25993" lon="-2.30127">
        <ele>9.3999996185303</ele>
        <time>2020-05-17T07:46:19.000Z</time>
      </trkpt>
      <trkpt lat="47.26003" lon="-2.30124">
        <ele>9.3999996185303</ele>
        <time>2020-05-17T07:46:24.000Z</time>
      </trkpt>
      <trkpt lat="47.26015" lon="-2.30129">
        <ele>9.3999996185303</ele>
        <time>2020-05-17T07:46:28.000Z</time>
      </trkpt>
      <trkpt lat="47.26019" lon="-2.30132">
        <ele>9.3999996185303</ele>
        <time>2020-05-17T07:46:30.000Z</time>
      </trkpt>
      <trkpt lat="47.26026" lon="-2.30131">
        <ele>9.3999996185303</ele>
        <time>2020-05-17T07:46:32.000Z</time>
      </trkpt>
      <trkpt lat="47.26038" lon="-2.30128">
        <ele>10</ele>
        <time>2020-05-17T07:46:35.000Z</time>
      </trkpt>
      <trkpt lat="47.26042" lon="-2.30128">
        <ele>10.39999961853</ele>
        <time>2020-05-17T07:46:36.000Z</time>
      </trkpt>
      <trkpt lat="47.26045" lon="-2.3013">
        <ele>10.800000190735</ele>
        <time>2020-05-17T07:46:37.000Z</time>
      </trkpt>
      <trkpt lat="47.26047" lon="-2.30133">
        <ele>11.199999809265</ele>
        <time>2020-05-17T07:46:38.000Z</time>
      </trkpt>
      <trkpt lat="47.2605" lon="-2.30136">
        <ele>11.60000038147</ele>
        <time>2020-05-17T07:46:39.000Z</time>
      </trkpt>
      <trkpt lat="47.26056" lon="-2.30142">
        <ele>11.60000038147</ele>
        <time>2020-05-17T07:46:41.000Z</time>
      </trkpt>
      <trkpt lat="47.26062" lon="-2.30148">
        <ele>11.60000038147</ele>
        <time>2020-05-17T07:46:43.000Z</time>
      </trkpt>
      <trkpt lat="47.26078" lon="-2.30149">
        <ele>11.60000038147</ele>
        <time>2020-05-17T07:46:48.000Z</time>
      </trkpt>
      <trkpt lat="47.26083" lon="-2.30151">
        <ele>11.60000038147</ele>
        <time>2020-05-17T07:46:50.000Z</time>
      </trkpt>
      <trkpt lat="47.26085" lon="-2.30152">
        <ele>12.39999961853</ele>
        <time>2020-05-17T07:46:51.000Z</time>
      </trkpt>
      <trkpt lat="47.26087" lon="-2.30155">
        <ele>12.800000190735</ele>
        <time>2020-05-17T07:46:52.000Z</time>
      </trkpt>
      <trkpt lat="47.2609" lon="-2.30158">
        <ele>13.199999809265</ele>
        <time>2020-05-17T07:46:53.000Z</time>
      </trkpt>
      <trkpt lat="47.26092" lon="-2.30159">
        <ele>13.60000038147</ele>
        <time>2020-05-17T07:46:54.000Z</time>
      </trkpt>
      <trkpt lat="47.26097" lon="-2.30158">
        <ele>13.60000038147</ele>
        <time>2020-05-17T07:46:56.000Z</time>
      </trkpt>
      <trkpt lat="47.26119" lon="-2.30151">
        <ele>13.60000038147</ele>
        <time>2020-05-17T07:47:02.000Z</time>
      </trkpt>
      <trkpt lat="47.26122" lon="-2.3015">
        <ele>14</ele>
        <time>2020-05-17T07:47:03.000Z</time>
      </trkpt>
      <trkpt lat="47.26126" lon="-2.30149">
        <ele>14.60000038147</ele>
        <time>2020-05-17T07:47:04.000Z</time>
      </trkpt>
      <trkpt lat="47.26129" lon="-2.30148">
        <ele>15</ele>
        <time>2020-05-17T07:47:05.000Z</time>
      </trkpt>
      <trkpt lat="47.26133" lon="-2.30148">
        <ele>15.39999961853</ele>
        <time>2020-05-17T07:47:06.000Z</time>
      </trkpt>
      <trkpt lat="47.26137" lon="-2.30147">
        <ele>15.800000190735</ele>
        <time>2020-05-17T07:47:07.000Z</time>
      </trkpt>
      <trkpt lat="47.26146" lon="-2.30145">
        <ele>15.800000190735</ele>
        <time>2020-05-17T07:47:09.000Z</time>
      </trkpt>
      <trkpt lat="47.2616" lon="-2.30142">
        <ele>16.200000762939</ele>
        <time>2020-05-17T07:47:13.000Z</time>
      </trkpt>
      <trkpt lat="47.26164" lon="-2.30144">
        <ele>16.60000038147</ele>
        <time>2020-05-17T07:47:14.000Z</time>
      </trkpt>
      <trkpt lat="47.26167" lon="-2.30147">
        <ele>17</ele>
        <time>2020-05-17T07:47:15.000Z</time>
      </trkpt>
      <trkpt lat="47.26169" lon="-2.30152">
        <ele>17.799999237061</ele>
        <time>2020-05-17T07:47:16.000Z</time>
      </trkpt>
      <trkpt lat="47.26173" lon="-2.30154">
        <ele>17.799999237061</ele>
        <time>2020-05-17T07:47:17.000Z</time>
      </trkpt>
      <trkpt lat="47.26176" lon="-2.30154">
        <ele>17.799999237061</ele>
        <time>2020-05-17T07:47:18.000Z</time>
      </trkpt>
      <trkpt lat="47.26201" lon="-2.30144">
        <ele>17.799999237061</ele>
        <time>2020-05-17T07:47:25.000Z</time>
      </trkpt>
      <trkpt lat="47.26222" lon="-2.30138">
        <ele>18.200000762939</ele>
        <time>2020-05-17T07:47:30.000Z</time>
      </trkpt>
      <trkpt lat="47.26226" lon="-2.30137">
        <ele>18.60000038147</ele>
        <time>2020-05-17T07:47:31.000Z</time>
      </trkpt>
      <trkpt lat="47.26231" lon="-2.30136">
        <ele>19</ele>
        <time>2020-05-17T07:47:32.000Z</time>
      </trkpt>
      <trkpt lat="47.26234" lon="-2.30134">
        <ele>19.39999961853</ele>
        <time>2020-05-17T07:47:33.000Z</time>
      </trkpt>
      <trkpt lat="47.26237" lon="-2.30132">
        <ele>19.799999237061</ele>
        <time>2020-05-17T07:47:34.000Z</time>
      </trkpt>
      <trkpt lat="47.26241" lon="-2.30131">
        <ele>19.799999237061</ele>
        <time>2020-05-17T07:47:35.000Z</time>
      </trkpt>
      <trkpt lat="47.26244" lon="-2.30132">
        <ele>19.799999237061</ele>
        <time>2020-05-17T07:47:36.000Z</time>
      </trkpt>
      <trkpt lat="47.2625" lon="-2.30139">
        <ele>19.799999237061</ele>
        <time>2020-05-17T07:47:38.000Z</time>
      </trkpt>
      <trkpt lat="47.26254" lon="-2.30151">
        <ele>19.799999237061</ele>
        <time>2020-05-17T07:47:40.000Z</time>
      </trkpt>
      <trkpt lat="47.26262" lon="-2.3017">
        <ele>19.799999237061</ele>
        <time>2020-05-17T07:47:43.000Z</time>
      </trkpt>
      <trkpt lat="47.26266" lon="-2.30185">
        <ele>19.799999237061</ele>
        <time>2020-05-17T07:47:45.000Z</time>
      </trkpt>
      <trkpt lat="47.2627" lon="-2.3021">
        <ele>19.799999237061</ele>
        <time>2020-05-17T07:47:48.000Z</time>
      </trkpt>
      <trkpt lat="47.26273" lon="-2.30226">
        <ele>19.799999237061</ele>
        <time>2020-05-17T07:47:50.000Z</time>
      </trkpt>
      <trkpt lat="47.26279" lon="-2.30257">
        <ele>19.799999237061</ele>
        <time>2020-05-17T07:47:54.000Z</time>
      </trkpt>
      <trkpt lat="47.26288" lon="-2.30302">
        <ele>19.799999237061</ele>
        <time>2020-05-17T07:48:00.000Z</time>
      </trkpt>
      <trkpt lat="47.26301" lon="-2.30344">
        <ele>19.799999237061</ele>
        <time>2020-05-17T07:48:06.000Z</time>
      </trkpt>
      <trkpt lat="47.26304" lon="-2.30359">
        <ele>19.799999237061</ele>
        <time>2020-05-17T07:48:08.000Z</time>
      </trkpt>
      <trkpt lat="47.26307" lon="-2.30383">
        <ele>19.799999237061</ele>
        <time>2020-05-17T07:48:11.000Z</time>
      </trkpt>
      <trkpt lat="47.26309" lon="-2.30391">
        <ele>19.799999237061</ele>
        <time>2020-05-17T07:48:12.000Z</time>
      </trkpt>
      <trkpt lat="47.26318" lon="-2.30431">
        <ele>19.799999237061</ele>
        <time>2020-05-17T07:48:17.000Z</time>
      </trkpt>
      <trkpt lat="47.26329" lon="-2.30482">
        <ele>19.799999237061</ele>
        <time>2020-05-17T07:48:24.000Z</time>
      </trkpt>
      <trkpt lat="47.26334" lon="-2.30512">
        <ele>19.799999237061</ele>
        <time>2020-05-17T07:48:28.000Z</time>
      </trkpt>
      <trkpt lat="47.26335" lon="-2.30525">
        <ele>19.799999237061</ele>
        <time>2020-05-17T07:48:30.000Z</time>
      </trkpt>
      <trkpt lat="47.26341" lon="-2.30557">
        <ele>19.39999961853</ele>
        <time>2020-05-17T07:48:35.000Z</time>
      </trkpt>
      <trkpt lat="47.26342" lon="-2.30562">
        <ele>19</ele>
        <time>2020-05-17T07:48:36.000Z</time>
      </trkpt>
      <trkpt lat="47.26343" lon="-2.30567">
        <ele>18.60000038147</ele>
        <time>2020-05-17T07:48:37.000Z</time>
      </trkpt>
      <trkpt lat="47.26343" lon="-2.30573">
        <ele>18.200000762939</ele>
        <time>2020-05-17T07:48:38.000Z</time>
      </trkpt>
      <trkpt lat="47.26344" lon="-2.3058">
        <ele>17.799999237061</ele>
        <time>2020-05-17T07:48:39.000Z</time>
      </trkpt>
      <trkpt lat="47.26345" lon="-2.30587">
        <ele>17.799999237061</ele>
        <time>2020-05-17T07:48:40.000Z</time>
      </trkpt>
      <trkpt lat="47.26349" lon="-2.30602">
        <ele>17.799999237061</ele>
        <time>2020-05-17T07:48:42.000Z</time>
      </trkpt>
      <trkpt lat="47.26355" lon="-2.30615">
        <ele>17.799999237061</ele>
        <time>2020-05-17T07:48:44.000Z</time>
      </trkpt>
      <trkpt lat="47.2637" lon="-2.30647">
        <ele>17.799999237061</ele>
        <time>2020-05-17T07:48:50.000Z</time>
      </trkpt>
      <trkpt lat="47.26394" lon="-2.30667">
        <ele>17.799999237061</ele>
        <time>2020-05-17T07:48:57.000Z</time>
      </trkpt>
      <trkpt lat="47.2641" lon="-2.3068">
        <ele>17.799999237061</ele>
        <time>2020-05-17T07:49:02.000Z</time>
      </trkpt>
      <trkpt lat="47.2642" lon="-2.30695">
        <ele>17.39999961853</ele>
        <time>2020-05-17T07:49:07.000Z</time>
      </trkpt>
      <trkpt lat="47.26422" lon="-2.30699">
        <ele>17</ele>
        <time>2020-05-17T07:49:08.000Z</time>
      </trkpt>
      <trkpt lat="47.26424" lon="-2.30703">
        <ele>16.60000038147</ele>
        <time>2020-05-17T07:49:09.000Z</time>
      </trkpt>
      <trkpt lat="47.26426" lon="-2.30708">
        <ele>16.200000762939</ele>
        <time>2020-05-17T07:49:10.000Z</time>
      </trkpt>
      <trkpt lat="47.26429" lon="-2.30713">
        <ele>15.800000190735</ele>
        <time>2020-05-17T07:49:11.000Z</time>
      </trkpt>
      <trkpt lat="47.26432" lon="-2.30719">
        <ele>15.800000190735</ele>
        <time>2020-05-17T07:49:12.000Z</time>
      </trkpt>
      <trkpt lat="47.26451" lon="-2.30764">
        <ele>15.800000190735</ele>
        <time>2020-05-17T07:49:19.000Z</time>
      </trkpt>
      <trkpt lat="47.26466" lon="-2.308">
        <ele>15.39999961853</ele>
        <time>2020-05-17T07:49:24.000Z</time>
      </trkpt>
      <trkpt lat="47.26469" lon="-2.30807">
        <ele>15</ele>
        <time>2020-05-17T07:49:25.000Z</time>
      </trkpt>
      <trkpt lat="47.26471" lon="-2.30813">
        <ele>14.39999961853</ele>
        <time>2020-05-17T07:49:26.000Z</time>
      </trkpt>
      <trkpt lat="47.26474" lon="-2.30818">
        <ele>14</ele>
        <time>2020-05-17T07:49:27.000Z</time>
      </trkpt>
      <trkpt lat="47.26476" lon="-2.30823">
        <ele>13.60000038147</ele>
        <time>2020-05-17T07:49:28.000Z</time>
      </trkpt>
      <trkpt lat="47.26478" lon="-2.30826">
        <ele>13.60000038147</ele>
        <time>2020-05-17T07:49:29.000Z</time>
      </trkpt>
      <trkpt lat="47.26479" lon="-2.3083">
        <ele>13.60000038147</ele>
        <time>2020-05-17T07:49:30.000Z</time>
      </trkpt>
      <trkpt lat="47.26482" lon="-2.30837">
        <ele>13.199999809265</ele>
        <time>2020-05-17T07:49:32.000Z</time>
      </trkpt>
      <trkpt lat="47.26484" lon="-2.30841">
        <ele>12.800000190735</ele>
        <time>2020-05-17T07:49:33.000Z</time>
      </trkpt>
      <trkpt lat="47.26487" lon="-2.30846">
        <ele>12.39999961853</ele>
        <time>2020-05-17T07:49:34.000Z</time>
      </trkpt>
      <trkpt lat="47.26489" lon="-2.30851">
        <ele>12</ele>
        <time>2020-05-17T07:49:35.000Z</time>
      </trkpt>
      <trkpt lat="47.26491" lon="-2.30857">
        <ele>11.60000038147</ele>
        <time>2020-05-17T07:49:36.000Z</time>
      </trkpt>
      <trkpt lat="47.26497" lon="-2.30873">
        <ele>11.199999809265</ele>
        <time>2020-05-17T07:49:39.000Z</time>
      </trkpt>
      <trkpt lat="47.26499" lon="-2.30877">
        <ele>10.60000038147</ele>
        <time>2020-05-17T07:49:40.000Z</time>
      </trkpt>
      <trkpt lat="47.26501" lon="-2.3088">
        <ele>10.199999809265</ele>
        <time>2020-05-17T07:49:41.000Z</time>
      </trkpt>
      <trkpt lat="47.26503" lon="-2.30882">
        <ele>9.6000003814697</ele>
        <time>2020-05-17T07:49:42.000Z</time>
      </trkpt>
      <trkpt lat="47.26506" lon="-2.30881">
        <ele>9.1999998092651</ele>
        <time>2020-05-17T07:49:43.000Z</time>
      </trkpt>
      <trkpt lat="47.26508" lon="-2.3088">
        <ele>8</ele>
        <time>2020-05-17T07:49:44.000Z</time>
      </trkpt>
      <trkpt lat="47.26511" lon="-2.30877">
        <ele>7.5999999046326</ele>
        <time>2020-05-17T07:49:45.000Z</time>
      </trkpt>
      <trkpt lat="47.26513" lon="-2.30875">
        <ele>7</ele>
        <time>2020-05-17T07:49:46.000Z</time>
      </trkpt>
      <trkpt lat="47.26525" lon="-2.30866">
        <ele>7</ele>
        <time>2020-05-17T07:49:51.000Z</time>
      </trkpt>
      <trkpt lat="47.26536" lon="-2.30852">
        <ele>7</ele>
        <time>2020-05-17T07:49:56.000Z</time>
      </trkpt>
      <trkpt lat="47.2655" lon="-2.30834">
        <ele>7</ele>
        <time>2020-05-17T07:50:02.000Z</time>
      </trkpt>
      <trkpt lat="47.26552" lon="-2.30829">
        <ele>7.4000000953674</ele>
        <time>2020-05-17T07:50:04.000Z</time>
      </trkpt>
      <trkpt lat="47.26554" lon="-2.30825">
        <ele>7.8000001907349</ele>
        <time>2020-05-17T07:50:05.000Z</time>
      </trkpt>
      <trkpt lat="47.26556" lon="-2.30821">
        <ele>8.1999998092651</ele>
        <time>2020-05-17T07:50:06.000Z</time>
      </trkpt>
      <trkpt lat="47.26558" lon="-2.30818">
        <ele>8.6000003814697</ele>
        <time>2020-05-17T07:50:07.000Z</time>
      </trkpt>
      <trkpt lat="47.2656" lon="-2.30815">
        <ele>9</ele>
        <time>2020-05-17T07:50:08.000Z</time>
      </trkpt>
      <trkpt lat="47.26569" lon="-2.308">
        <ele>9.3999996185303</ele>
        <time>2020-05-17T07:50:12.000Z</time>
      </trkpt>
      <trkpt lat="47.26572" lon="-2.30798">
        <ele>9.8000001907349</ele>
        <time>2020-05-17T07:50:13.000Z</time>
      </trkpt>
      <trkpt lat="47.26576" lon="-2.30795">
        <ele>10.39999961853</ele>
        <time>2020-05-17T07:50:14.000Z</time>
      </trkpt>
      <trkpt lat="47.2658" lon="-2.30791">
        <ele>10.800000190735</ele>
        <time>2020-05-17T07:50:15.000Z</time>
      </trkpt>
      <trkpt lat="47.26583" lon="-2.30785">
        <ele>11.199999809265</ele>
        <time>2020-05-17T07:50:16.000Z</time>
      </trkpt>
      <trkpt lat="47.26589" lon="-2.30776">
        <ele>11.199999809265</ele>
        <time>2020-05-17T07:50:18.000Z</time>
      </trkpt>
      <trkpt lat="47.26596" lon="-2.30768">
        <ele>11.199999809265</ele>
        <time>2020-05-17T07:50:20.000Z</time>
      </trkpt>
      <trkpt lat="47.26608" lon="-2.30746">
        <ele>11.199999809265</ele>
        <time>2020-05-17T07:50:25.000Z</time>
      </trkpt>
      <trkpt lat="47.26626" lon="-2.30724">
        <ele>11.199999809265</ele>
        <time>2020-05-17T07:50:30.000Z</time>
      </trkpt>
      <trkpt lat="47.26638" lon="-2.30705">
        <ele>12</ele>
        <time>2020-05-17T07:50:34.000Z</time>
      </trkpt>
      <trkpt lat="47.2664" lon="-2.307">
        <ele>12.39999961853</ele>
        <time>2020-05-17T07:50:35.000Z</time>
      </trkpt>
      <trkpt lat="47.26642" lon="-2.30695">
        <ele>12.800000190735</ele>
        <time>2020-05-17T07:50:36.000Z</time>
      </trkpt>
      <trkpt lat="47.26644" lon="-2.30693">
        <ele>13.199999809265</ele>
        <time>2020-05-17T07:50:37.000Z</time>
      </trkpt>
      <trkpt lat="47.26645" lon="-2.30692">
        <ele>13.199999809265</ele>
        <time>2020-05-17T07:50:38.000Z</time>
      </trkpt>
      <trkpt lat="47.26653" lon="-2.30704">
        <ele>13.199999809265</ele>
        <time>2020-05-17T07:50:41.000Z</time>
      </trkpt>
      <trkpt lat="47.26656" lon="-2.3071">
        <ele>13.199999809265</ele>
        <time>2020-05-17T07:50:42.000Z</time>
      </trkpt>
      <trkpt lat="47.26663" lon="-2.30723">
        <ele>13.199999809265</ele>
        <time>2020-05-17T07:50:44.000Z</time>
      </trkpt>
      <trkpt lat="47.2667" lon="-2.30735">
        <ele>13.199999809265</ele>
        <time>2020-05-17T07:50:46.000Z</time>
      </trkpt>
      <trkpt lat="47.26685" lon="-2.30764">
        <ele>13.800000190735</ele>
        <time>2020-05-17T07:50:51.000Z</time>
      </trkpt>
      <trkpt lat="47.26687" lon="-2.3077">
        <ele>14.199999809265</ele>
        <time>2020-05-17T07:50:52.000Z</time>
      </trkpt>
      <trkpt lat="47.2669" lon="-2.30775">
        <ele>14.60000038147</ele>
        <time>2020-05-17T07:50:53.000Z</time>
      </trkpt>
      <trkpt lat="47.26692" lon="-2.3078">
        <ele>15</ele>
        <time>2020-05-17T07:50:54.000Z</time>
      </trkpt>
      <trkpt lat="47.26695" lon="-2.30786">
        <ele>15.39999961853</ele>
        <time>2020-05-17T07:50:55.000Z</time>
      </trkpt>
      <trkpt lat="47.26707" lon="-2.30813">
        <ele>15.800000190735</ele>
        <time>2020-05-17T07:51:00.000Z</time>
      </trkpt>
      <trkpt lat="47.26709" lon="-2.30819">
        <ele>16.39999961853</ele>
        <time>2020-05-17T07:51:01.000Z</time>
      </trkpt>
      <trkpt lat="47.26711" lon="-2.30825">
        <ele>16.799999237061</ele>
        <time>2020-05-17T07:51:02.000Z</time>
      </trkpt>
      <trkpt lat="47.26713" lon="-2.30831">
        <ele>17.200000762939</ele>
        <time>2020-05-17T07:51:03.000Z</time>
      </trkpt>
      <trkpt lat="47.26716" lon="-2.30836">
        <ele>17.60000038147</ele>
        <time>2020-05-17T07:51:04.000Z</time>
      </trkpt>
      <trkpt lat="47.26728" lon="-2.30859">
        <ele>17.60000038147</ele>
        <time>2020-05-17T07:51:08.000Z</time>
      </trkpt>
      <trkpt lat="47.26734" lon="-2.3087">
        <ele>17.60000038147</ele>
        <time>2020-05-17T07:51:10.000Z</time>
      </trkpt>
      <trkpt lat="47.26741" lon="-2.30872">
        <ele>17.60000038147</ele>
        <time>2020-05-17T07:51:12.000Z</time>
      </trkpt>
      <trkpt lat="47.26759" lon="-2.30855">
        <ele>17.60000038147</ele>
        <time>2020-05-17T07:51:16.000Z</time>
      </trkpt>
      <trkpt lat="47.26776" lon="-2.30838">
        <ele>18</ele>
        <time>2020-05-17T07:51:20.000Z</time>
      </trkpt>
      <trkpt lat="47.2678" lon="-2.30833">
        <ele>18.39999961853</ele>
        <time>2020-05-17T07:51:21.000Z</time>
      </trkpt>
      <trkpt lat="47.26784" lon="-2.30829">
        <ele>18.799999237061</ele>
        <time>2020-05-17T07:51:22.000Z</time>
      </trkpt>
      <trkpt lat="47.26788" lon="-2.30824">
        <ele>19.60000038147</ele>
        <time>2020-05-17T07:51:23.000Z</time>
      </trkpt>
      <trkpt lat="47.26809" lon="-2.308">
        <ele>19.60000038147</ele>
        <time>2020-05-17T07:51:29.000Z</time>
      </trkpt>
      <trkpt lat="47.26822" lon="-2.30793">
        <ele>19.60000038147</ele>
        <time>2020-05-17T07:51:33.000Z</time>
      </trkpt>
      <trkpt lat="47.26824" lon="-2.30793">
        <ele>19.60000038147</ele>
        <time>2020-05-17T07:51:37.000Z</time>
      </trkpt>
      <trkpt lat="47.26824" lon="-2.30793">
        <ele>19.60000038147</ele>
        <time>2020-05-17T07:51:48.000Z</time>
      </trkpt>
      <trkpt lat="47.26826" lon="-2.3079">
        <ele>19.60000038147</ele>
        <time>2020-05-17T07:51:53.000Z</time>
      </trkpt>
      <trkpt lat="47.26827" lon="-2.30789">
        <ele>19.60000038147</ele>
        <time>2020-05-17T07:51:54.000Z</time>
      </trkpt>
      <trkpt lat="47.2683" lon="-2.30775">
        <ele>19.60000038147</ele>
        <time>2020-05-17T07:52:00.000Z</time>
      </trkpt>
      <trkpt lat="47.26834" lon="-2.30764">
        <ele>19.60000038147</ele>
        <time>2020-05-17T07:52:07.000Z</time>
      </trkpt>
      <trkpt lat="47.26842" lon="-2.30743">
        <ele>19.60000038147</ele>
        <time>2020-05-17T07:52:14.000Z</time>
      </trkpt>
      <trkpt lat="47.26855" lon="-2.3071">
        <ele>19.60000038147</ele>
        <time>2020-05-17T07:52:20.000Z</time>
      </trkpt>
      <trkpt lat="47.26863" lon="-2.30693">
        <ele>19.60000038147</ele>
        <time>2020-05-17T07:52:23.000Z</time>
      </trkpt>
      <trkpt lat="47.26876" lon="-2.30673">
        <ele>19.60000038147</ele>
        <time>2020-05-17T07:52:27.000Z</time>
      </trkpt>
      <trkpt lat="47.26905" lon="-2.30643">
        <ele>19.60000038147</ele>
        <time>2020-05-17T07:52:35.000Z</time>
      </trkpt>
      <trkpt lat="47.26912" lon="-2.30639">
        <ele>19.60000038147</ele>
        <time>2020-05-17T07:52:37.000Z</time>
      </trkpt>
      <trkpt lat="47.26926" lon="-2.30631">
        <ele>19.60000038147</ele>
        <time>2020-05-17T07:52:41.000Z</time>
      </trkpt>
      <trkpt lat="47.2693" lon="-2.3063">
        <ele>19.200000762939</ele>
        <time>2020-05-17T07:52:42.000Z</time>
      </trkpt>
      <trkpt lat="47.26935" lon="-2.30629">
        <ele>18.799999237061</ele>
        <time>2020-05-17T07:52:43.000Z</time>
      </trkpt>
      <trkpt lat="47.2694" lon="-2.30628">
        <ele>18.39999961853</ele>
        <time>2020-05-17T07:52:44.000Z</time>
      </trkpt>
      <trkpt lat="47.26945" lon="-2.30627">
        <ele>17.799999237061</ele>
        <time>2020-05-17T07:52:45.000Z</time>
      </trkpt>
      <trkpt lat="47.2695" lon="-2.30626">
        <ele>17.39999961853</ele>
        <time>2020-05-17T07:52:46.000Z</time>
      </trkpt>
      <trkpt lat="47.26959" lon="-2.30622">
        <ele>17.39999961853</ele>
        <time>2020-05-17T07:52:48.000Z</time>
      </trkpt>
      <trkpt lat="47.26974" lon="-2.30613">
        <ele>17.39999961853</ele>
        <time>2020-05-17T07:52:51.000Z</time>
      </trkpt>
      <trkpt lat="47.26997" lon="-2.30598">
        <ele>17.39999961853</ele>
        <time>2020-05-17T07:52:55.000Z</time>
      </trkpt>
      <trkpt lat="47.27002" lon="-2.30591">
        <ele>17.39999961853</ele>
        <time>2020-05-17T07:52:56.000Z</time>
      </trkpt>
      <trkpt lat="47.27012" lon="-2.30569">
        <ele>17.39999961853</ele>
        <time>2020-05-17T07:52:59.000Z</time>
      </trkpt>
      <trkpt lat="47.27017" lon="-2.30554">
        <ele>17.39999961853</ele>
        <time>2020-05-17T07:53:01.000Z</time>
      </trkpt>
      <trkpt lat="47.27027" lon="-2.3052">
        <ele>17.39999961853</ele>
        <time>2020-05-17T07:53:05.000Z</time>
      </trkpt>
      <trkpt lat="47.27038" lon="-2.30476">
        <ele>17.39999961853</ele>
        <time>2020-05-17T07:53:11.000Z</time>
      </trkpt>
      <trkpt lat="47.2704" lon="-2.3047">
        <ele>17.39999961853</ele>
        <time>2020-05-17T07:53:13.000Z</time>
      </trkpt>
      <trkpt lat="47.27042" lon="-2.30469">
        <ele>17.39999961853</ele>
        <time>2020-05-17T07:53:14.000Z</time>
      </trkpt>
      <trkpt lat="47.27047" lon="-2.30472">
        <ele>17</ele>
        <time>2020-05-17T07:53:17.000Z</time>
      </trkpt>
      <trkpt lat="47.27049" lon="-2.30474">
        <ele>16.60000038147</ele>
        <time>2020-05-17T07:53:18.000Z</time>
      </trkpt>
      <trkpt lat="47.27053" lon="-2.30476">
        <ele>16.200000762939</ele>
        <time>2020-05-17T07:53:19.000Z</time>
      </trkpt>
      <trkpt lat="47.27057" lon="-2.30477">
        <ele>15.800000190735</ele>
        <time>2020-05-17T07:53:20.000Z</time>
      </trkpt>
      <trkpt lat="47.27061" lon="-2.30478">
        <ele>15.199999809265</ele>
        <time>2020-05-17T07:53:21.000Z</time>
      </trkpt>
      <trkpt lat="47.27067" lon="-2.30479">
        <ele>15.199999809265</ele>
        <time>2020-05-17T07:53:23.000Z</time>
      </trkpt>
      <trkpt lat="47.2707" lon="-2.3048">
        <ele>15.199999809265</ele>
        <time>2020-05-17T07:53:24.000Z</time>
      </trkpt>
      <trkpt lat="47.27087" lon="-2.30485">
        <ele>15.199999809265</ele>
        <time>2020-05-17T07:53:29.000Z</time>
      </trkpt>
      <trkpt lat="47.27104" lon="-2.30489">
        <ele>14.800000190735</ele>
        <time>2020-05-17T07:53:34.000Z</time>
      </trkpt>
      <trkpt lat="47.27107" lon="-2.30491">
        <ele>14.39999961853</ele>
        <time>2020-05-17T07:53:35.000Z</time>
      </trkpt>
      <trkpt lat="47.2711" lon="-2.30492">
        <ele>14</ele>
        <time>2020-05-17T07:53:36.000Z</time>
      </trkpt>
      <trkpt lat="47.27114" lon="-2.30493">
        <ele>13.60000038147</ele>
        <time>2020-05-17T07:53:37.000Z</time>
      </trkpt>
      <trkpt lat="47.27118" lon="-2.30494">
        <ele>13.199999809265</ele>
        <time>2020-05-17T07:53:38.000Z</time>
      </trkpt>
      <trkpt lat="47.27125" lon="-2.30498">
        <ele>13.199999809265</ele>
        <time>2020-05-17T07:53:40.000Z</time>
      </trkpt>
      <trkpt lat="47.27142" lon="-2.3051">
        <ele>12.800000190735</ele>
        <time>2020-05-17T07:53:46.000Z</time>
      </trkpt>
      <trkpt lat="47.27144" lon="-2.30513">
        <ele>12.39999961853</ele>
        <time>2020-05-17T07:53:47.000Z</time>
      </trkpt>
      <trkpt lat="47.27147" lon="-2.30517">
        <ele>12</ele>
        <time>2020-05-17T07:53:48.000Z</time>
      </trkpt>
      <trkpt lat="47.2715" lon="-2.3052">
        <ele>11.60000038147</ele>
        <time>2020-05-17T07:53:49.000Z</time>
      </trkpt>
      <trkpt lat="47.27153" lon="-2.30523">
        <ele>11.199999809265</ele>
        <time>2020-05-17T07:53:50.000Z</time>
      </trkpt>
      <trkpt lat="47.27159" lon="-2.30527">
        <ele>11.199999809265</ele>
        <time>2020-05-17T07:53:52.000Z</time>
      </trkpt>
      <trkpt lat="47.27174" lon="-2.30535">
        <ele>11.199999809265</ele>
        <time>2020-05-17T07:53:59.000Z</time>
      </trkpt>
      <trkpt lat="47.27191" lon="-2.30539">
        <ele>11.199999809265</ele>
        <time>2020-05-17T07:54:06.000Z</time>
      </trkpt>
      <trkpt lat="47.27197" lon="-2.30541">
        <ele>10.800000190735</ele>
        <time>2020-05-17T07:54:08.000Z</time>
      </trkpt>
      <trkpt lat="47.27199" lon="-2.30541">
        <ele>10.39999961853</ele>
        <time>2020-05-17T07:54:09.000Z</time>
      </trkpt>
      <trkpt lat="47.27201" lon="-2.30542">
        <ele>10</ele>
        <time>2020-05-17T07:54:10.000Z</time>
      </trkpt>
      <trkpt lat="47.27204" lon="-2.30542">
        <ele>9.6000003814697</ele>
        <time>2020-05-17T07:54:11.000Z</time>
      </trkpt>
      <trkpt lat="47.27207" lon="-2.30542">
        <ele>9.1999998092651</ele>
        <time>2020-05-17T07:54:12.000Z</time>
      </trkpt>
      <trkpt lat="47.2722" lon="-2.30541">
        <ele>9.1999998092651</ele>
        <time>2020-05-17T07:54:17.000Z</time>
      </trkpt>
      <trkpt lat="47.27223" lon="-2.30542">
        <ele>9.1999998092651</ele>
        <time>2020-05-17T07:54:19.000Z</time>
      </trkpt>
      <trkpt lat="47.2723" lon="-2.30541">
        <ele>9.1999998092651</ele>
        <time>2020-05-17T07:54:23.000Z</time>
      </trkpt>
      <trkpt lat="47.2724" lon="-2.30542">
        <ele>9.1999998092651</ele>
        <time>2020-05-17T07:54:30.000Z</time>
      </trkpt>
      <trkpt lat="47.27247" lon="-2.30543">
        <ele>8.8000001907349</ele>
        <time>2020-05-17T07:54:34.000Z</time>
      </trkpt>
      <trkpt lat="47.27249" lon="-2.30544">
        <ele>8.3999996185303</ele>
        <time>2020-05-17T07:54:35.000Z</time>
      </trkpt>
      <trkpt lat="47.27249" lon="-2.30544">
        <ele>8</ele>
        <time>2020-05-17T07:54:36.000Z</time>
      </trkpt>
      <trkpt lat="47.27249" lon="-2.30544">
        <ele>7.5999999046326</ele>
        <time>2020-05-17T07:54:37.000Z</time>
      </trkpt>
      <trkpt lat="47.27249" lon="-2.30544">
        <ele>7.1999998092651</ele>
        <time>2020-05-17T07:54:38.000Z</time>
      </trkpt>
      <trkpt lat="47.27249" lon="-2.30545">
        <ele>7.1999998092651</ele>
        <time>2020-05-17T07:54:48.000Z</time>
      </trkpt>
      <trkpt lat="47.27253" lon="-2.30543">
        <ele>7.1999998092651</ele>
        <time>2020-05-17T07:54:50.000Z</time>
      </trkpt>
      <trkpt lat="47.27259" lon="-2.30542">
        <ele>7.1999998092651</ele>
        <time>2020-05-17T07:54:53.000Z</time>
      </trkpt>
      <trkpt lat="47.27266" lon="-2.30543">
        <ele>7.1999998092651</ele>
        <time>2020-05-17T07:54:59.000Z</time>
      </trkpt>
      <trkpt lat="47.27271" lon="-2.30543">
        <ele>7.1999998092651</ele>
        <time>2020-05-17T07:55:05.000Z</time>
      </trkpt>
      <trkpt lat="47.27276" lon="-2.30542">
        <ele>7.1999998092651</ele>
        <time>2020-05-17T07:55:11.000Z</time>
      </trkpt>
      <trkpt lat="47.27277" lon="-2.30541">
        <ele>7.1999998092651</ele>
        <time>2020-05-17T07:55:12.000Z</time>
      </trkpt>
      <trkpt lat="47.27287" lon="-2.30536">
        <ele>7.1999998092651</ele>
        <time>2020-05-17T07:55:18.000Z</time>
      </trkpt>
      <trkpt lat="47.27296" lon="-2.30534">
        <ele>7.1999998092651</ele>
        <time>2020-05-17T07:55:25.000Z</time>
      </trkpt>
      <trkpt lat="47.27296" lon="-2.30534">
        <ele>5.8000001907349</ele>
        <time>2020-05-17T07:55:27.000Z</time>
      </trkpt>
      <trkpt lat="47.27296" lon="-2.30534">
        <ele>5.4000000953674</ele>
        <time>2020-05-17T07:55:28.000Z</time>
      </trkpt>
      <trkpt lat="47.27296" lon="-2.30533">
        <ele>5</ele>
        <time>2020-05-17T07:55:29.000Z</time>
      </trkpt>
      <trkpt lat="47.27297" lon="-2.30532">
        <ele>6.8000001907349</ele>
        <time>2020-05-17T07:55:30.000Z</time>
      </trkpt>
      <trkpt lat="47.27297" lon="-2.30531">
        <ele>7.1999998092651</ele>
        <time>2020-05-17T07:55:31.000Z</time>
      </trkpt>
      <trkpt lat="47.27298" lon="-2.30531">
        <ele>7.5999999046326</ele>
        <time>2020-05-17T07:55:32.000Z</time>
      </trkpt>
      <trkpt lat="47.27298" lon="-2.30531">
        <ele>8</ele>
        <time>2020-05-17T07:55:33.000Z</time>
      </trkpt>
      <trkpt lat="47.27299" lon="-2.30531">
        <ele>8.1999998092651</ele>
        <time>2020-05-17T07:55:34.000Z</time>
      </trkpt>
      <trkpt lat="47.27299" lon="-2.3053">
        <ele>7.8000001907349</ele>
        <time>2020-05-17T07:55:36.000Z</time>
      </trkpt>
      <trkpt lat="47.273" lon="-2.3053">
        <ele>7.4000000953674</ele>
        <time>2020-05-17T07:55:37.000Z</time>
      </trkpt>
      <trkpt lat="47.27301" lon="-2.30529">
        <ele>7</ele>
        <time>2020-05-17T07:55:38.000Z</time>
      </trkpt>
      <trkpt lat="47.27301" lon="-2.30529">
        <ele>6.5999999046326</ele>
        <time>2020-05-17T07:55:39.000Z</time>
      </trkpt>
      <trkpt lat="47.27302" lon="-2.30528">
        <ele>6.1999998092651</ele>
        <time>2020-05-17T07:55:40.000Z</time>
      </trkpt>
      <trkpt lat="47.27303" lon="-2.30528">
        <ele>6.1999998092651</ele>
        <time>2020-05-17T07:55:41.000Z</time>
      </trkpt>
      <trkpt lat="47.27304" lon="-2.30527">
        <ele>6.1999998092651</ele>
        <time>2020-05-17T07:55:49.000Z</time>
      </trkpt>
      <trkpt lat="47.27307" lon="-2.30526">
        <ele>6.1999998092651</ele>
        <time>2020-05-17T07:55:56.000Z</time>
      </trkpt>
      <trkpt lat="47.27307" lon="-2.30526">
        <ele>5</ele>
        <time>2020-05-17T07:55:59.000Z</time>
      </trkpt>
      <trkpt lat="47.27307" lon="-2.30526">
        <ele>4.8000001907349</ele>
        <time>2020-05-17T07:56:00.000Z</time>
      </trkpt>
      <trkpt lat="47.27308" lon="-2.30526">
        <ele>4.4000000953674</ele>
        <time>2020-05-17T07:56:01.000Z</time>
      </trkpt>
      <trkpt lat="47.27308" lon="-2.30526">
        <ele>5.5999999046326</ele>
        <time>2020-05-17T07:56:02.000Z</time>
      </trkpt>
      <trkpt lat="47.27308" lon="-2.30526">
        <ele>6</ele>
        <time>2020-05-17T07:56:03.000Z</time>
      </trkpt>
      <trkpt lat="47.27308" lon="-2.30526">
        <ele>6.4000000953674</ele>
        <time>2020-05-17T07:56:04.000Z</time>
      </trkpt>
      <trkpt lat="47.27309" lon="-2.30526">
        <ele>6.8000001907349</ele>
        <time>2020-05-17T07:56:05.000Z</time>
      </trkpt>
      <trkpt lat="47.2731" lon="-2.30525">
        <ele>7.1999998092651</ele>
        <time>2020-05-17T07:56:06.000Z</time>
      </trkpt>
      <trkpt lat="47.27311" lon="-2.30525">
        <ele>7.5999999046326</ele>
        <time>2020-05-17T07:56:07.000Z</time>
      </trkpt>
      <trkpt lat="47.27313" lon="-2.30525">
        <ele>7.5999999046326</ele>
        <time>2020-05-17T07:56:09.000Z</time>
      </trkpt>
      <trkpt lat="47.27319" lon="-2.30523">
        <ele>7.5999999046326</ele>
        <time>2020-05-17T07:56:17.000Z</time>
      </trkpt>
      <trkpt lat="47.27321" lon="-2.30523">
        <ele>7.5999999046326</ele>
        <time>2020-05-17T07:56:24.000Z</time>
      </trkpt>
      <trkpt lat="47.27329" lon="-2.30519">
        <ele>7.5999999046326</ele>
        <time>2020-05-17T07:56:32.000Z</time>
      </trkpt>
      <trkpt lat="47.27333" lon="-2.30519">
        <ele>7.5999999046326</ele>
        <time>2020-05-17T07:56:38.000Z</time>
      </trkpt>
      <trkpt lat="47.27334" lon="-2.30519">
        <ele>7.5999999046326</ele>
        <time>2020-05-17T07:56:39.000Z</time>
      </trkpt>
      <trkpt lat="47.27342" lon="-2.30515">
        <ele>7.5999999046326</ele>
        <time>2020-05-17T07:56:45.000Z</time>
      </trkpt>
      <trkpt lat="47.27349" lon="-2.30512">
        <ele>7.5999999046326</ele>
        <time>2020-05-17T07:56:52.000Z</time>
      </trkpt>
      <trkpt lat="47.27357" lon="-2.30508">
        <ele>7.5999999046326</ele>
        <time>2020-05-17T07:56:59.000Z</time>
      </trkpt>
      <trkpt lat="47.27362" lon="-2.30505">
        <ele>7.5999999046326</ele>
        <time>2020-05-17T07:57:06.000Z</time>
      </trkpt>
      <trkpt lat="47.27366" lon="-2.305">
        <ele>7.5999999046326</ele>
        <time>2020-05-17T07:57:11.000Z</time>
      </trkpt>
      <trkpt lat="47.27368" lon="-2.30498">
        <ele>7.5999999046326</ele>
        <time>2020-05-17T07:57:13.000Z</time>
      </trkpt>
      <trkpt lat="47.27371" lon="-2.30497">
        <ele>7.5999999046326</ele>
        <time>2020-05-17T07:57:16.000Z</time>
      </trkpt>
      <trkpt lat="47.27378" lon="-2.30493">
        <ele>7.5999999046326</ele>
        <time>2020-05-17T07:57:20.000Z</time>
      </trkpt>
      <trkpt lat="47.27389" lon="-2.30482">
        <ele>7.5999999046326</ele>
        <time>2020-05-17T07:57:26.000Z</time>
      </trkpt>
      <trkpt lat="47.27396" lon="-2.30475">
        <ele>7.5999999046326</ele>
        <time>2020-05-17T07:57:33.000Z</time>
      </trkpt>
      <trkpt lat="47.27402" lon="-2.3047">
        <ele>7.5999999046326</ele>
        <time>2020-05-17T07:57:41.000Z</time>
      </trkpt>
      <trkpt lat="47.27408" lon="-2.30466">
        <ele>7.5999999046326</ele>
        <time>2020-05-17T07:57:46.000Z</time>
      </trkpt>
      <trkpt lat="47.27413" lon="-2.30461">
        <ele>7.5999999046326</ele>
        <time>2020-05-17T07:57:51.000Z</time>
      </trkpt>
      <trkpt lat="47.27423" lon="-2.30456">
        <ele>7.5999999046326</ele>
        <time>2020-05-17T07:57:56.000Z</time>
      </trkpt>
      <trkpt lat="47.27444" lon="-2.30452">
        <ele>7.5999999046326</ele>
        <time>2020-05-17T07:58:03.000Z</time>
      </trkpt>
      <trkpt lat="47.27461" lon="-2.30445">
        <ele>7.5999999046326</ele>
        <time>2020-05-17T07:58:09.000Z</time>
      </trkpt>
      <trkpt lat="47.27479" lon="-2.30441">
        <ele>7.5999999046326</ele>
        <time>2020-05-17T07:58:14.000Z</time>
      </trkpt>
      <trkpt lat="47.27499" lon="-2.3043">
        <ele>7.5999999046326</ele>
        <time>2020-05-17T07:58:21.000Z</time>
      </trkpt>
      <trkpt lat="47.27501" lon="-2.30424">
        <ele>7.5999999046326</ele>
        <time>2020-05-17T07:58:23.000Z</time>
      </trkpt>
      <trkpt lat="47.27501" lon="-2.30417">
        <ele>7.5999999046326</ele>
        <time>2020-05-17T07:58:25.000Z</time>
      </trkpt>
      <trkpt lat="47.27495" lon="-2.30384">
        <ele>8</ele>
        <time>2020-05-17T07:58:32.000Z</time>
      </trkpt>
      <trkpt lat="47.27494" lon="-2.30378">
        <ele>8.3999996185303</ele>
        <time>2020-05-17T07:58:33.000Z</time>
      </trkpt>
      <trkpt lat="47.27493" lon="-2.30373">
        <ele>8.8000001907349</ele>
        <time>2020-05-17T07:58:34.000Z</time>
      </trkpt>
      <trkpt lat="47.27492" lon="-2.30367">
        <ele>9.1999998092651</ele>
        <time>2020-05-17T07:58:35.000Z</time>
      </trkpt>
      <trkpt lat="47.2749" lon="-2.30362">
        <ele>9.6000003814697</ele>
        <time>2020-05-17T07:58:36.000Z</time>
      </trkpt>
      <trkpt lat="47.27486" lon="-2.30348">
        <ele>9.6000003814697</ele>
        <time>2020-05-17T07:58:39.000Z</time>
      </trkpt>
      <trkpt lat="47.27481" lon="-2.30318">
        <ele>10</ele>
        <time>2020-05-17T07:58:45.000Z</time>
      </trkpt>
      <trkpt lat="47.27481" lon="-2.30314">
        <ele>10.39999961853</ele>
        <time>2020-05-17T07:58:46.000Z</time>
      </trkpt>
      <trkpt lat="47.2748" lon="-2.30309">
        <ele>10.800000190735</ele>
        <time>2020-05-17T07:58:47.000Z</time>
      </trkpt>
      <trkpt lat="47.27479" lon="-2.30304">
        <ele>11.800000190735</ele>
        <time>2020-05-17T07:58:48.000Z</time>
      </trkpt>
      <trkpt lat="47.27474" lon="-2.30277">
        <ele>11.800000190735</ele>
        <time>2020-05-17T07:58:53.000Z</time>
      </trkpt>
      <trkpt lat="47.27468" lon="-2.30245">
        <ele>12.199999809265</ele>
        <time>2020-05-17T07:58:59.000Z</time>
      </trkpt>
      <trkpt lat="47.27468" lon="-2.3024">
        <ele>12.60000038147</ele>
        <time>2020-05-17T07:59:00.000Z</time>
      </trkpt>
      <trkpt lat="47.27467" lon="-2.30235">
        <ele>13</ele>
        <time>2020-05-17T07:59:01.000Z</time>
      </trkpt>
      <trkpt lat="47.27467" lon="-2.3023">
        <ele>13.39999961853</ele>
        <time>2020-05-17T07:59:02.000Z</time>
      </trkpt>
      <trkpt lat="47.27467" lon="-2.30225">
        <ele>13.800000190735</ele>
        <time>2020-05-17T07:59:03.000Z</time>
      </trkpt>
      <trkpt lat="47.27465" lon="-2.30219">
        <ele>13.800000190735</ele>
        <time>2020-05-17T07:59:05.000Z</time>
      </trkpt>
      <trkpt lat="47.27463" lon="-2.30218">
        <ele>13.800000190735</ele>
        <time>2020-05-17T07:59:06.000Z</time>
      </trkpt>
      <trkpt lat="47.27454" lon="-2.30223">
        <ele>13.800000190735</ele>
        <time>2020-05-17T07:59:10.000Z</time>
      </trkpt>
      <trkpt lat="47.27444" lon="-2.30225">
        <ele>13.800000190735</ele>
        <time>2020-05-17T07:59:13.000Z</time>
      </trkpt>
      <trkpt lat="47.27438" lon="-2.30228">
        <ele>13.800000190735</ele>
        <time>2020-05-17T07:59:15.000Z</time>
      </trkpt>
      <trkpt lat="47.27419" lon="-2.30237">
        <ele>13.800000190735</ele>
        <time>2020-05-17T07:59:21.000Z</time>
      </trkpt>
      <trkpt lat="47.27396" lon="-2.30247">
        <ele>13.800000190735</ele>
        <time>2020-05-17T07:59:27.000Z</time>
      </trkpt>
      <trkpt lat="47.27376" lon="-2.30254">
        <ele>13.800000190735</ele>
        <time>2020-05-17T07:59:32.000Z</time>
      </trkpt>
      <trkpt lat="47.27344" lon="-2.30257">
        <ele>13.800000190735</ele>
        <time>2020-05-17T07:59:39.000Z</time>
      </trkpt>
      <trkpt lat="47.2733" lon="-2.3026">
        <ele>13.800000190735</ele>
        <time>2020-05-17T07:59:42.000Z</time>
      </trkpt>
      <trkpt lat="47.27314" lon="-2.3026">
        <ele>13.800000190735</ele>
        <time>2020-05-17T07:59:45.000Z</time>
      </trkpt>
      <trkpt lat="47.2727" lon="-2.30264">
        <ele>13.800000190735</ele>
        <time>2020-05-17T07:59:52.000Z</time>
      </trkpt>
      <trkpt lat="47.27259" lon="-2.30267">
        <ele>13.800000190735</ele>
        <time>2020-05-17T07:59:54.000Z</time>
      </trkpt>
      <trkpt lat="47.27245" lon="-2.30265">
        <ele>13.800000190735</ele>
        <time>2020-05-17T07:59:57.000Z</time>
      </trkpt>
      <trkpt lat="47.27242" lon="-2.30264">
        <ele>13.800000190735</ele>
        <time>2020-05-17T07:59:58.000Z</time>
      </trkpt>
      <trkpt lat="47.27221" lon="-2.30261">
        <ele>13.800000190735</ele>
        <time>2020-05-17T08:00:03.000Z</time>
      </trkpt>
      <trkpt lat="47.27214" lon="-2.30259">
        <ele>13.800000190735</ele>
        <time>2020-05-17T08:00:05.000Z</time>
      </trkpt>
      <trkpt lat="47.27208" lon="-2.3026">
        <ele>13.800000190735</ele>
        <time>2020-05-17T08:00:07.000Z</time>
      </trkpt>
      <trkpt lat="47.27193" lon="-2.30263">
        <ele>13.800000190735</ele>
        <time>2020-05-17T08:00:13.000Z</time>
      </trkpt>
      <trkpt lat="47.27191" lon="-2.30261">
        <ele>13.800000190735</ele>
        <time>2020-05-17T08:00:14.000Z</time>
      </trkpt>
      <trkpt lat="47.27184" lon="-2.30255">
        <ele>13.800000190735</ele>
        <time>2020-05-17T08:00:17.000Z</time>
      </trkpt>
      <trkpt lat="47.27172" lon="-2.30248">
        <ele>13.800000190735</ele>
        <time>2020-05-17T08:00:22.000Z</time>
      </trkpt>
      <trkpt lat="47.27166" lon="-2.30243">
        <ele>13.800000190735</ele>
        <time>2020-05-17T08:00:29.000Z</time>
      </trkpt>
      <trkpt lat="47.27165" lon="-2.30238">
        <ele>13.800000190735</ele>
        <time>2020-05-17T08:00:32.000Z</time>
      </trkpt>
      <trkpt lat="47.27165" lon="-2.30233">
        <ele>13.800000190735</ele>
        <time>2020-05-17T08:00:34.000Z</time>
      </trkpt>
      <trkpt lat="47.27165" lon="-2.30225">
        <ele>13.800000190735</ele>
        <time>2020-05-17T08:00:38.000Z</time>
      </trkpt>
      <trkpt lat="47.27164" lon="-2.30222">
        <ele>13.800000190735</ele>
        <time>2020-05-17T08:00:39.000Z</time>
      </trkpt>
      <trkpt lat="47.27162" lon="-2.30205">
        <ele>13.800000190735</ele>
        <time>2020-05-17T08:00:43.000Z</time>
      </trkpt>
      <trkpt lat="47.2716" lon="-2.30177">
        <ele>13.800000190735</ele>
        <time>2020-05-17T08:00:48.000Z</time>
      </trkpt>
      <trkpt lat="47.2716" lon="-2.30154">
        <ele>14.199999809265</ele>
        <time>2020-05-17T08:00:53.000Z</time>
      </trkpt>
      <trkpt lat="47.2716" lon="-2.3015">
        <ele>14.60000038147</ele>
        <time>2020-05-17T08:00:54.000Z</time>
      </trkpt>
      <trkpt lat="47.27159" lon="-2.30145">
        <ele>15.199999809265</ele>
        <time>2020-05-17T08:00:55.000Z</time>
      </trkpt>
      <trkpt lat="47.27159" lon="-2.30141">
        <ele>15.60000038147</ele>
        <time>2020-05-17T08:00:56.000Z</time>
      </trkpt>
      <trkpt lat="47.27158" lon="-2.30136">
        <ele>16</ele>
        <time>2020-05-17T08:00:57.000Z</time>
      </trkpt>
      <trkpt lat="47.27154" lon="-2.3013">
        <ele>16</ele>
        <time>2020-05-17T08:00:59.000Z</time>
      </trkpt>
      <trkpt lat="47.27139" lon="-2.30125">
        <ele>16</ele>
        <time>2020-05-17T08:01:03.000Z</time>
      </trkpt>
      <trkpt lat="47.27132" lon="-2.30122">
        <ele>16</ele>
        <time>2020-05-17T08:01:05.000Z</time>
      </trkpt>
      <trkpt lat="47.27123" lon="-2.30118">
        <ele>16</ele>
        <time>2020-05-17T08:01:08.000Z</time>
      </trkpt>
      <trkpt lat="47.27109" lon="-2.30108">
        <ele>16.39999961853</ele>
        <time>2020-05-17T08:01:12.000Z</time>
      </trkpt>
      <trkpt lat="47.27105" lon="-2.30105">
        <ele>16.799999237061</ele>
        <time>2020-05-17T08:01:13.000Z</time>
      </trkpt>
      <trkpt lat="47.27102" lon="-2.30102">
        <ele>17.200000762939</ele>
        <time>2020-05-17T08:01:14.000Z</time>
      </trkpt>
      <trkpt lat="47.27099" lon="-2.30099">
        <ele>17.60000038147</ele>
        <time>2020-05-17T08:01:15.000Z</time>
      </trkpt>
      <trkpt lat="47.27096" lon="-2.30096">
        <ele>18</ele>
        <time>2020-05-17T08:01:16.000Z</time>
      </trkpt>
      <trkpt lat="47.27084" lon="-2.30083">
        <ele>18</ele>
        <time>2020-05-17T08:01:20.000Z</time>
      </trkpt>
      <trkpt lat="47.27067" lon="-2.30075">
        <ele>18</ele>
        <time>2020-05-17T08:01:24.000Z</time>
      </trkpt>
      <trkpt lat="47.27036" lon="-2.30069">
        <ele>18</ele>
        <time>2020-05-17T08:01:31.000Z</time>
      </trkpt>
      <trkpt lat="47.27032" lon="-2.30069">
        <ele>18.39999961853</ele>
        <time>2020-05-17T08:01:32.000Z</time>
      </trkpt>
      <trkpt lat="47.27028" lon="-2.30068">
        <ele>18.799999237061</ele>
        <time>2020-05-17T08:01:33.000Z</time>
      </trkpt>
      <trkpt lat="47.27025" lon="-2.30068">
        <ele>19.200000762939</ele>
        <time>2020-05-17T08:01:34.000Z</time>
      </trkpt>
      <trkpt lat="47.27021" lon="-2.30067">
        <ele>19.60000038147</ele>
        <time>2020-05-17T08:01:35.000Z</time>
      </trkpt>
      <trkpt lat="47.27019" lon="-2.30066">
        <ele>20.200000762939</ele>
        <time>2020-05-17T08:01:36.000Z</time>
      </trkpt>
      <trkpt lat="47.27018" lon="-2.30065">
        <ele>20.200000762939</ele>
        <time>2020-05-17T08:01:37.000Z</time>
      </trkpt>
      <trkpt lat="47.27017" lon="-2.30064">
        <ele>20.200000762939</ele>
        <time>2020-05-17T08:01:42.000Z</time>
      </trkpt>
      <trkpt lat="47.27017" lon="-2.30063">
        <ele>20.200000762939</ele>
        <time>2020-05-17T08:01:44.000Z</time>
      </trkpt>
      <trkpt lat="47.27018" lon="-2.30054">
        <ele>20.200000762939</ele>
        <time>2020-05-17T08:01:46.000Z</time>
      </trkpt>
      <trkpt lat="47.2702" lon="-2.30046">
        <ele>20.200000762939</ele>
        <time>2020-05-17T08:01:48.000Z</time>
      </trkpt>
      <trkpt lat="47.27024" lon="-2.30027">
        <ele>20.200000762939</ele>
        <time>2020-05-17T08:01:52.000Z</time>
      </trkpt>
      <trkpt lat="47.27031" lon="-2.30005">
        <ele>20.200000762939</ele>
        <time>2020-05-17T08:01:56.000Z</time>
      </trkpt>
      <trkpt lat="47.27035" lon="-2.29993">
        <ele>20.200000762939</ele>
        <time>2020-05-17T08:01:58.000Z</time>
      </trkpt>
      <trkpt lat="47.27052" lon="-2.29953">
        <ele>20.200000762939</ele>
        <time>2020-05-17T08:02:05.000Z</time>
      </trkpt>
      <trkpt lat="47.27061" lon="-2.29938">
        <ele>20.200000762939</ele>
        <time>2020-05-17T08:02:08.000Z</time>
      </trkpt>
      <trkpt lat="47.27071" lon="-2.29925">
        <ele>20.200000762939</ele>
        <time>2020-05-17T08:02:11.000Z</time>
      </trkpt>
      <trkpt lat="47.27082" lon="-2.29913">
        <ele>20.200000762939</ele>
        <time>2020-05-17T08:02:14.000Z</time>
      </trkpt>
      <trkpt lat="47.27088" lon="-2.29902">
        <ele>20.200000762939</ele>
        <time>2020-05-17T08:02:16.000Z</time>
      </trkpt>
      <trkpt lat="47.27092" lon="-2.29889">
        <ele>20.200000762939</ele>
        <time>2020-05-17T08:02:18.000Z</time>
      </trkpt>
      <trkpt lat="47.27095" lon="-2.29883">
        <ele>20.200000762939</ele>
        <time>2020-05-17T08:02:19.000Z</time>
      </trkpt>
      <trkpt lat="47.27102" lon="-2.29864">
        <ele>20.200000762939</ele>
        <time>2020-05-17T08:02:22.000Z</time>
      </trkpt>
      <trkpt lat="47.27104" lon="-2.29858">
        <ele>20.200000762939</ele>
        <time>2020-05-17T08:02:23.000Z</time>
      </trkpt>
      <trkpt lat="47.27109" lon="-2.29833">
        <ele>20.200000762939</ele>
        <time>2020-05-17T08:02:27.000Z</time>
      </trkpt>
      <trkpt lat="47.27111" lon="-2.29796">
        <ele>20.200000762939</ele>
        <time>2020-05-17T08:02:33.000Z</time>
      </trkpt>
      <trkpt lat="47.27109" lon="-2.29766">
        <ele>20.200000762939</ele>
        <time>2020-05-17T08:02:38.000Z</time>
      </trkpt>
      <trkpt lat="47.27109" lon="-2.29753">
        <ele>20.60000038147</ele>
        <time>2020-05-17T08:02:40.000Z</time>
      </trkpt>
      <trkpt lat="47.27109" lon="-2.29748">
        <ele>21</ele>
        <time>2020-05-17T08:02:41.000Z</time>
      </trkpt>
      <trkpt lat="47.27109" lon="-2.29743">
        <ele>21.39999961853</ele>
        <time>2020-05-17T08:02:42.000Z</time>
      </trkpt>
      <trkpt lat="47.27109" lon="-2.29737">
        <ele>21.799999237061</ele>
        <time>2020-05-17T08:02:43.000Z</time>
      </trkpt>
      <trkpt lat="47.2711" lon="-2.29733">
        <ele>22.200000762939</ele>
        <time>2020-05-17T08:02:44.000Z</time>
      </trkpt>
      <trkpt lat="47.2711" lon="-2.29728">
        <ele>22.200000762939</ele>
        <time>2020-05-17T08:02:45.000Z</time>
      </trkpt>
      <trkpt lat="47.27112" lon="-2.29699">
        <ele>22.200000762939</ele>
        <time>2020-05-17T08:02:50.000Z</time>
      </trkpt>
      <trkpt lat="47.27109" lon="-2.29672">
        <ele>22.200000762939</ele>
        <time>2020-05-17T08:02:56.000Z</time>
      </trkpt>
      <trkpt lat="47.27111" lon="-2.29667">
        <ele>22.200000762939</ele>
        <time>2020-05-17T08:03:00.000Z</time>
      </trkpt>
      <trkpt lat="47.27112" lon="-2.29653">
        <ele>22.200000762939</ele>
        <time>2020-05-17T08:03:06.000Z</time>
      </trkpt>
      <trkpt lat="47.27113" lon="-2.29651">
        <ele>22.200000762939</ele>
        <time>2020-05-17T08:03:12.000Z</time>
      </trkpt>
      <trkpt lat="47.27113" lon="-2.29651">
        <ele>22.200000762939</ele>
        <time>2020-05-17T08:03:23.000Z</time>
      </trkpt>
      <trkpt lat="47.27113" lon="-2.29651">
        <ele>22.200000762939</ele>
        <time>2020-05-17T08:03:35.000Z</time>
      </trkpt>
      <trkpt lat="47.27113" lon="-2.29651">
        <ele>22.200000762939</ele>
        <time>2020-05-17T08:03:48.000Z</time>
      </trkpt>
      <trkpt lat="47.27113" lon="-2.29651">
        <ele>22.200000762939</ele>
        <time>2020-05-17T08:03:56.000Z</time>
      </trkpt>
      <trkpt lat="47.27113" lon="-2.29651">
        <ele>22.200000762939</ele>
        <time>2020-05-17T08:04:04.000Z</time>
      </trkpt>
      <trkpt lat="47.27113" lon="-2.29651">
        <ele>22.200000762939</ele>
        <time>2020-05-17T08:04:12.000Z</time>
      </trkpt>
      <trkpt lat="47.27114" lon="-2.2965">
        <ele>22.200000762939</ele>
        <time>2020-05-17T08:04:20.000Z</time>
      </trkpt>
      <trkpt lat="47.27114" lon="-2.2965">
        <ele>22.200000762939</ele>
        <time>2020-05-17T08:04:28.000Z</time>
      </trkpt>
      <trkpt lat="47.27114" lon="-2.2965">
        <ele>22.200000762939</ele>
        <time>2020-05-17T08:04:39.000Z</time>
      </trkpt>
      <trkpt lat="47.27118" lon="-2.29648">
        <ele>22.200000762939</ele>
        <time>2020-05-17T08:04:41.000Z</time>
      </trkpt>
      <trkpt lat="47.27124" lon="-2.29646">
        <ele>22.200000762939</ele>
        <time>2020-05-17T08:04:43.000Z</time>
      </trkpt>
      <trkpt lat="47.27147" lon="-2.29643">
        <ele>22.200000762939</ele>
        <time>2020-05-17T08:04:49.000Z</time>
      </trkpt>
      <trkpt lat="47.27151" lon="-2.29641">
        <ele>22.200000762939</ele>
        <time>2020-05-17T08:04:50.000Z</time>
      </trkpt>
      <trkpt lat="47.27161" lon="-2.29635">
        <ele>22.200000762939</ele>
        <time>2020-05-17T08:04:53.000Z</time>
      </trkpt>
      <trkpt lat="47.27168" lon="-2.29631">
        <ele>22.200000762939</ele>
        <time>2020-05-17T08:04:55.000Z</time>
      </trkpt>
      <trkpt lat="47.27189" lon="-2.29614">
        <ele>22.200000762939</ele>
        <time>2020-05-17T08:05:01.000Z</time>
      </trkpt>
      <trkpt lat="47.27197" lon="-2.29607">
        <ele>21.799999237061</ele>
        <time>2020-05-17T08:05:03.000Z</time>
      </trkpt>
      <trkpt lat="47.272" lon="-2.29605">
        <ele>21.39999961853</ele>
        <time>2020-05-17T08:05:04.000Z</time>
      </trkpt>
      <trkpt lat="47.27204" lon="-2.29602">
        <ele>21</ele>
        <time>2020-05-17T08:05:05.000Z</time>
      </trkpt>
      <trkpt lat="47.27207" lon="-2.296">
        <ele>20.60000038147</ele>
        <time>2020-05-17T08:05:06.000Z</time>
      </trkpt>
      <trkpt lat="47.2721" lon="-2.29597">
        <ele>20.200000762939</ele>
        <time>2020-05-17T08:05:07.000Z</time>
      </trkpt>
      <trkpt lat="47.27225" lon="-2.29588">
        <ele>20.200000762939</ele>
        <time>2020-05-17T08:05:12.000Z</time>
      </trkpt>
      <trkpt lat="47.2724" lon="-2.29574">
        <ele>20.200000762939</ele>
        <time>2020-05-17T08:05:18.000Z</time>
      </trkpt>
      <trkpt lat="47.27242" lon="-2.29562">
        <ele>20.200000762939</ele>
        <time>2020-05-17T08:05:23.000Z</time>
      </trkpt>
      <trkpt lat="47.27244" lon="-2.29548">
        <ele>20.200000762939</ele>
        <time>2020-05-17T08:05:31.000Z</time>
      </trkpt>
      <trkpt lat="47.27243" lon="-2.29537">
        <ele>20.200000762939</ele>
        <time>2020-05-17T08:05:37.000Z</time>
      </trkpt>
      <trkpt lat="47.27238" lon="-2.29522">
        <ele>20.200000762939</ele>
        <time>2020-05-17T08:05:42.000Z</time>
      </trkpt>
      <trkpt lat="47.27231" lon="-2.295">
        <ele>20.200000762939</ele>
        <time>2020-05-17T08:05:47.000Z</time>
      </trkpt>
      <trkpt lat="47.27217" lon="-2.29462">
        <ele>20.200000762939</ele>
        <time>2020-05-17T08:05:52.000Z</time>
      </trkpt>
      <trkpt lat="47.27198" lon="-2.294">
        <ele>20.200000762939</ele>
        <time>2020-05-17T08:05:59.000Z</time>
      </trkpt>
      <trkpt lat="47.27179" lon="-2.29353">
        <ele>20.200000762939</ele>
        <time>2020-05-17T08:06:05.000Z</time>
      </trkpt>
      <trkpt lat="47.27176" lon="-2.29347">
        <ele>20.200000762939</ele>
        <time>2020-05-17T08:06:06.000Z</time>
      </trkpt>
      <trkpt lat="47.2716" lon="-2.29328">
        <ele>20.200000762939</ele>
        <time>2020-05-17T08:06:10.000Z</time>
      </trkpt>
      <trkpt lat="47.27147" lon="-2.29309">
        <ele>20.200000762939</ele>
        <time>2020-05-17T08:06:15.000Z</time>
      </trkpt>
      <trkpt lat="47.27151" lon="-2.29285">
        <ele>20.200000762939</ele>
        <time>2020-05-17T08:06:19.000Z</time>
      </trkpt>
      <trkpt lat="47.27156" lon="-2.2927">
        <ele>20.200000762939</ele>
        <time>2020-05-17T08:06:21.000Z</time>
      </trkpt>
      <trkpt lat="47.27162" lon="-2.29248">
        <ele>20.200000762939</ele>
        <time>2020-05-17T08:06:24.000Z</time>
      </trkpt>
      <trkpt lat="47.27162" lon="-2.29235">
        <ele>19.799999237061</ele>
        <time>2020-05-17T08:06:27.000Z</time>
      </trkpt>
      <trkpt lat="47.27161" lon="-2.29231">
        <ele>19.39999961853</ele>
        <time>2020-05-17T08:06:28.000Z</time>
      </trkpt>
      <trkpt lat="47.27159" lon="-2.29228">
        <ele>19</ele>
        <time>2020-05-17T08:06:29.000Z</time>
      </trkpt>
      <trkpt lat="47.27158" lon="-2.29225">
        <ele>18.60000038147</ele>
        <time>2020-05-17T08:06:30.000Z</time>
      </trkpt>
      <trkpt lat="47.27157" lon="-2.29221">
        <ele>18.200000762939</ele>
        <time>2020-05-17T08:06:31.000Z</time>
      </trkpt>
      <trkpt lat="47.27153" lon="-2.29212">
        <ele>18.200000762939</ele>
        <time>2020-05-17T08:06:34.000Z</time>
      </trkpt>
      <trkpt lat="47.27149" lon="-2.29203">
        <ele>18.200000762939</ele>
        <time>2020-05-17T08:06:38.000Z</time>
      </trkpt>
      <trkpt lat="47.27149" lon="-2.29202">
        <ele>18.200000762939</ele>
        <time>2020-05-17T08:06:40.000Z</time>
      </trkpt>
      <trkpt lat="47.27149" lon="-2.29202">
        <ele>18.200000762939</ele>
        <time>2020-05-17T08:06:45.000Z</time>
      </trkpt>
      <trkpt lat="47.27149" lon="-2.29202">
        <ele>18.200000762939</ele>
        <time>2020-05-17T08:06:54.000Z</time>
      </trkpt>
      <trkpt lat="47.27149" lon="-2.29202">
        <ele>18.200000762939</ele>
        <time>2020-05-17T08:07:09.000Z</time>
      </trkpt>
      <trkpt lat="47.2715" lon="-2.29201">
        <ele>18.200000762939</ele>
        <time>2020-05-17T08:07:21.000Z</time>
      </trkpt>
      <trkpt lat="47.2715" lon="-2.29201">
        <ele>18.200000762939</ele>
        <time>2020-05-17T08:07:35.000Z</time>
      </trkpt>
      <trkpt lat="47.2715" lon="-2.29201">
        <ele>18.200000762939</ele>
        <time>2020-05-17T08:07:48.000Z</time>
      </trkpt>
      <trkpt lat="47.2715" lon="-2.292">
        <ele>18.200000762939</ele>
        <time>2020-05-17T08:08:01.000Z</time>
      </trkpt>
      <trkpt lat="47.2715" lon="-2.292">
        <ele>18.200000762939</ele>
        <time>2020-05-17T08:08:09.000Z</time>
      </trkpt>
      <trkpt lat="47.2715" lon="-2.292">
        <ele>18.200000762939</ele>
        <time>2020-05-17T08:08:19.000Z</time>
      </trkpt>
      <trkpt lat="47.2715" lon="-2.292">
        <ele>18.200000762939</ele>
        <time>2020-05-17T08:08:28.000Z</time>
      </trkpt>
      <trkpt lat="47.2715" lon="-2.292">
        <ele>18.200000762939</ele>
        <time>2020-05-17T08:08:31.000Z</time>
      </trkpt>
      <trkpt lat="47.2715" lon="-2.292">
        <ele>18.200000762939</ele>
        <time>2020-05-17T08:08:34.000Z</time>
      </trkpt>
      <trkpt lat="47.2715" lon="-2.292">
        <ele>18.200000762939</ele>
        <time>2020-05-17T08:08:44.000Z</time>
      </trkpt>
      <trkpt lat="47.2715" lon="-2.292">
        <ele>18.200000762939</ele>
        <time>2020-05-17T08:09:00.000Z</time>
      </trkpt>
      <trkpt lat="47.2715" lon="-2.292">
        <ele>18.200000762939</ele>
        <time>2020-05-17T08:09:07.000Z</time>
      </trkpt>
      <trkpt lat="47.2715" lon="-2.29198">
        <ele>18.200000762939</ele>
        <time>2020-05-17T08:09:15.000Z</time>
      </trkpt>
      <trkpt lat="47.2715" lon="-2.29196">
        <ele>18.200000762939</ele>
        <time>2020-05-17T08:09:16.000Z</time>
      </trkpt>
      <trkpt lat="47.27149" lon="-2.29193">
        <ele>18.200000762939</ele>
        <time>2020-05-17T08:09:17.000Z</time>
      </trkpt>
      <trkpt lat="47.27148" lon="-2.29179">
        <ele>18.200000762939</ele>
        <time>2020-05-17T08:09:20.000Z</time>
      </trkpt>
      <trkpt lat="47.27153" lon="-2.29157">
        <ele>18.200000762939</ele>
        <time>2020-05-17T08:09:25.000Z</time>
      </trkpt>
      <trkpt lat="47.27161" lon="-2.29142">
        <ele>18.200000762939</ele>
        <time>2020-05-17T08:09:28.000Z</time>
      </trkpt>
      <trkpt lat="47.27171" lon="-2.29133">
        <ele>18.200000762939</ele>
        <time>2020-05-17T08:09:30.000Z</time>
      </trkpt>
      <trkpt lat="47.2718" lon="-2.29124">
        <ele>18.200000762939</ele>
        <time>2020-05-17T08:09:32.000Z</time>
      </trkpt>
      <trkpt lat="47.27186" lon="-2.29114">
        <ele>18.200000762939</ele>
        <time>2020-05-17T08:09:34.000Z</time>
      </trkpt>
      <trkpt lat="47.27196" lon="-2.29103">
        <ele>18.200000762939</ele>
        <time>2020-05-17T08:09:37.000Z</time>
      </trkpt>
      <trkpt lat="47.27202" lon="-2.29098">
        <ele>18.200000762939</ele>
        <time>2020-05-17T08:09:39.000Z</time>
      </trkpt>
      <trkpt lat="47.27221" lon="-2.29076">
        <ele>18.200000762939</ele>
        <time>2020-05-17T08:09:46.000Z</time>
      </trkpt>
      <trkpt lat="47.27239" lon="-2.29063">
        <ele>18.200000762939</ele>
        <time>2020-05-17T08:09:51.000Z</time>
      </trkpt>
      <trkpt lat="47.27255" lon="-2.2904">
        <ele>18.200000762939</ele>
        <time>2020-05-17T08:09:56.000Z</time>
      </trkpt>
      <trkpt lat="47.27262" lon="-2.29029">
        <ele>18.200000762939</ele>
        <time>2020-05-17T08:09:58.000Z</time>
      </trkpt>
      <trkpt lat="47.27265" lon="-2.29023">
        <ele>18.200000762939</ele>
        <time>2020-05-17T08:09:59.000Z</time>
      </trkpt>
      <trkpt lat="47.27269" lon="-2.29011">
        <ele>18.200000762939</ele>
        <time>2020-05-17T08:10:01.000Z</time>
      </trkpt>
      <trkpt lat="47.27275" lon="-2.29001">
        <ele>18.200000762939</ele>
        <time>2020-05-17T08:10:03.000Z</time>
      </trkpt>
      <trkpt lat="47.27278" lon="-2.28997">
        <ele>18.200000762939</ele>
        <time>2020-05-17T08:10:04.000Z</time>
      </trkpt>
      <trkpt lat="47.27285" lon="-2.28987">
        <ele>18.200000762939</ele>
        <time>2020-05-17T08:10:06.000Z</time>
      </trkpt>
      <trkpt lat="47.27293" lon="-2.28981">
        <ele>17.799999237061</ele>
        <time>2020-05-17T08:10:08.000Z</time>
      </trkpt>
      <trkpt lat="47.27295" lon="-2.28977">
        <ele>17.200000762939</ele>
        <time>2020-05-17T08:10:09.000Z</time>
      </trkpt>
      <trkpt lat="47.27297" lon="-2.28974">
        <ele>16.799999237061</ele>
        <time>2020-05-17T08:10:10.000Z</time>
      </trkpt>
      <trkpt lat="47.27299" lon="-2.2897">
        <ele>16.39999961853</ele>
        <time>2020-05-17T08:10:11.000Z</time>
      </trkpt>
      <trkpt lat="47.273" lon="-2.28966">
        <ele>16</ele>
        <time>2020-05-17T08:10:12.000Z</time>
      </trkpt>
      <trkpt lat="47.27307" lon="-2.28952">
        <ele>16</ele>
        <time>2020-05-17T08:10:15.000Z</time>
      </trkpt>
      <trkpt lat="47.27319" lon="-2.28951">
        <ele>16</ele>
        <time>2020-05-17T08:10:18.000Z</time>
      </trkpt>
      <trkpt lat="47.27331" lon="-2.2896">
        <ele>16</ele>
        <time>2020-05-17T08:10:21.000Z</time>
      </trkpt>
      <trkpt lat="47.27335" lon="-2.28957">
        <ele>16</ele>
        <time>2020-05-17T08:10:22.000Z</time>
      </trkpt>
      <trkpt lat="47.27341" lon="-2.28944">
        <ele>16</ele>
        <time>2020-05-17T08:10:25.000Z</time>
      </trkpt>
      <trkpt lat="47.27344" lon="-2.28938">
        <ele>16</ele>
        <time>2020-05-17T08:10:26.000Z</time>
      </trkpt>
      <trkpt lat="47.27349" lon="-2.28922">
        <ele>16</ele>
        <time>2020-05-17T08:10:28.000Z</time>
      </trkpt>
      <trkpt lat="47.27349" lon="-2.28912">
        <ele>16</ele>
        <time>2020-05-17T08:10:29.000Z</time>
      </trkpt>
      <trkpt lat="47.27352" lon="-2.28885">
        <ele>16</ele>
        <time>2020-05-17T08:10:32.000Z</time>
      </trkpt>
      <trkpt lat="47.27357" lon="-2.28868">
        <ele>16</ele>
        <time>2020-05-17T08:10:34.000Z</time>
      </trkpt>
      <trkpt lat="47.27365" lon="-2.28823">
        <ele>16</ele>
        <time>2020-05-17T08:10:39.000Z</time>
      </trkpt>
      <trkpt lat="47.27364" lon="-2.28814">
        <ele>16</ele>
        <time>2020-05-17T08:10:40.000Z</time>
      </trkpt>
      <trkpt lat="47.27354" lon="-2.28792">
        <ele>16</ele>
        <time>2020-05-17T08:10:43.000Z</time>
      </trkpt>
      <trkpt lat="47.27334" lon="-2.28779">
        <ele>16</ele>
        <time>2020-05-17T08:10:47.000Z</time>
      </trkpt>
      <trkpt lat="47.2732" lon="-2.28768">
        <ele>16</ele>
        <time>2020-05-17T08:10:50.000Z</time>
      </trkpt>
      <trkpt lat="47.27314" lon="-2.2876">
        <ele>16</ele>
        <time>2020-05-17T08:10:52.000Z</time>
      </trkpt>
      <trkpt lat="47.2731" lon="-2.28736">
        <ele>16.39999961853</ele>
        <time>2020-05-17T08:10:56.000Z</time>
      </trkpt>
      <trkpt lat="47.27312" lon="-2.28728">
        <ele>16.799999237061</ele>
        <time>2020-05-17T08:10:57.000Z</time>
      </trkpt>
      <trkpt lat="47.27316" lon="-2.28718">
        <ele>17.200000762939</ele>
        <time>2020-05-17T08:10:58.000Z</time>
      </trkpt>
      <trkpt lat="47.27319" lon="-2.28709">
        <ele>17.60000038147</ele>
        <time>2020-05-17T08:10:59.000Z</time>
      </trkpt>
      <trkpt lat="47.27322" lon="-2.287">
        <ele>18.200000762939</ele>
        <time>2020-05-17T08:11:00.000Z</time>
      </trkpt>
      <trkpt lat="47.27339" lon="-2.28652">
        <ele>18.200000762939</ele>
        <time>2020-05-17T08:11:06.000Z</time>
      </trkpt>
      <trkpt lat="47.2734" lon="-2.28645">
        <ele>18.200000762939</ele>
        <time>2020-05-17T08:11:07.000Z</time>
      </trkpt>
      <trkpt lat="47.2734" lon="-2.28624">
        <ele>18.200000762939</ele>
        <time>2020-05-17T08:11:10.000Z</time>
      </trkpt>
      <trkpt lat="47.27339" lon="-2.2862">
        <ele>18.200000762939</ele>
        <time>2020-05-17T08:11:11.000Z</time>
      </trkpt>
      <trkpt lat="47.27331" lon="-2.28606">
        <ele>18.200000762939</ele>
        <time>2020-05-17T08:11:15.000Z</time>
      </trkpt>
      <trkpt lat="47.27311" lon="-2.28597">
        <ele>18.200000762939</ele>
        <time>2020-05-17T08:11:19.000Z</time>
      </trkpt>
      <trkpt lat="47.27288" lon="-2.28589">
        <ele>18.200000762939</ele>
        <time>2020-05-17T08:11:24.000Z</time>
      </trkpt>
      <trkpt lat="47.27269" lon="-2.28585">
        <ele>18.200000762939</ele>
        <time>2020-05-17T08:11:28.000Z</time>
      </trkpt>
      <trkpt lat="47.27234" lon="-2.28586">
        <ele>18.200000762939</ele>
        <time>2020-05-17T08:11:34.000Z</time>
      </trkpt>
      <trkpt lat="47.27212" lon="-2.28589">
        <ele>18.60000038147</ele>
        <time>2020-05-17T08:11:38.000Z</time>
      </trkpt>
      <trkpt lat="47.27207" lon="-2.2859">
        <ele>19</ele>
        <time>2020-05-17T08:11:39.000Z</time>
      </trkpt>
      <trkpt lat="47.27202" lon="-2.28591">
        <ele>19.39999961853</ele>
        <time>2020-05-17T08:11:40.000Z</time>
      </trkpt>
      <trkpt lat="47.27198" lon="-2.28592">
        <ele>19.799999237061</ele>
        <time>2020-05-17T08:11:41.000Z</time>
      </trkpt>
      <trkpt lat="47.27193" lon="-2.28594">
        <ele>20.200000762939</ele>
        <time>2020-05-17T08:11:42.000Z</time>
      </trkpt>
      <trkpt lat="47.27185" lon="-2.28591">
        <ele>20.200000762939</ele>
        <time>2020-05-17T08:11:44.000Z</time>
      </trkpt>
      <trkpt lat="47.2718" lon="-2.28587">
        <ele>20.200000762939</ele>
        <time>2020-05-17T08:11:45.000Z</time>
      </trkpt>
      <trkpt lat="47.2717" lon="-2.28565">
        <ele>20.200000762939</ele>
        <time>2020-05-17T08:11:49.000Z</time>
      </trkpt>
      <trkpt lat="47.27166" lon="-2.28546">
        <ele>20.200000762939</ele>
        <time>2020-05-17T08:11:52.000Z</time>
      </trkpt>
      <trkpt lat="47.27162" lon="-2.28527">
        <ele>20.200000762939</ele>
        <time>2020-05-17T08:11:55.000Z</time>
      </trkpt>
      <trkpt lat="47.27157" lon="-2.28499">
        <ele>20.60000038147</ele>
        <time>2020-05-17T08:11:59.000Z</time>
      </trkpt>
      <trkpt lat="47.27157" lon="-2.28493">
        <ele>21</ele>
        <time>2020-05-17T08:12:00.000Z</time>
      </trkpt>
      <trkpt lat="47.27156" lon="-2.28488">
        <ele>21.39999961853</ele>
        <time>2020-05-17T08:12:01.000Z</time>
      </trkpt>
      <trkpt lat="47.27156" lon="-2.28483">
        <ele>21.799999237061</ele>
        <time>2020-05-17T08:12:02.000Z</time>
      </trkpt>
      <trkpt lat="47.27155" lon="-2.28478">
        <ele>22.39999961853</ele>
        <time>2020-05-17T08:12:03.000Z</time>
      </trkpt>
      <trkpt lat="47.27154" lon="-2.28455">
        <ele>22.39999961853</ele>
        <time>2020-05-17T08:12:07.000Z</time>
      </trkpt>
      <trkpt lat="47.27148" lon="-2.28417">
        <ele>22.39999961853</ele>
        <time>2020-05-17T08:12:13.000Z</time>
      </trkpt>
      <trkpt lat="47.27146" lon="-2.28387">
        <ele>22.39999961853</ele>
        <time>2020-05-17T08:12:17.000Z</time>
      </trkpt>
      <trkpt lat="47.27145" lon="-2.28379">
        <ele>22.799999237061</ele>
        <time>2020-05-17T08:12:18.000Z</time>
      </trkpt>
      <trkpt lat="47.27143" lon="-2.28371">
        <ele>23.200000762939</ele>
        <time>2020-05-17T08:12:19.000Z</time>
      </trkpt>
      <trkpt lat="47.27143" lon="-2.28362">
        <ele>23.60000038147</ele>
        <time>2020-05-17T08:12:20.000Z</time>
      </trkpt>
      <trkpt lat="47.27142" lon="-2.28353">
        <ele>24.39999961853</ele>
        <time>2020-05-17T08:12:21.000Z</time>
      </trkpt>
      <trkpt lat="47.27138" lon="-2.28328">
        <ele>24.39999961853</ele>
        <time>2020-05-17T08:12:24.000Z</time>
      </trkpt>
      <trkpt lat="47.27127" lon="-2.2829">
        <ele>24.39999961853</ele>
        <time>2020-05-17T08:12:29.000Z</time>
      </trkpt>
      <trkpt lat="47.27123" lon="-2.28276">
        <ele>24.39999961853</ele>
        <time>2020-05-17T08:12:31.000Z</time>
      </trkpt>
      <trkpt lat="47.27116" lon="-2.28247">
        <ele>24.39999961853</ele>
        <time>2020-05-17T08:12:35.000Z</time>
      </trkpt>
      <trkpt lat="47.27117" lon="-2.2823">
        <ele>24.39999961853</ele>
        <time>2020-05-17T08:12:37.000Z</time>
      </trkpt>
      <trkpt lat="47.2712" lon="-2.28214">
        <ele>24.39999961853</ele>
        <time>2020-05-17T08:12:39.000Z</time>
      </trkpt>
      <trkpt lat="47.27123" lon="-2.28183">
        <ele>24.39999961853</ele>
        <time>2020-05-17T08:12:43.000Z</time>
      </trkpt>
      <trkpt lat="47.27126" lon="-2.28148">
        <ele>24.39999961853</ele>
        <time>2020-05-17T08:12:49.000Z</time>
      </trkpt>
      <trkpt lat="47.27124" lon="-2.28125">
        <ele>24.39999961853</ele>
        <time>2020-05-17T08:12:54.000Z</time>
      </trkpt>
      <trkpt lat="47.27123" lon="-2.28096">
        <ele>24.39999961853</ele>
        <time>2020-05-17T08:13:00.000Z</time>
      </trkpt>
      <trkpt lat="47.27123" lon="-2.28077">
        <ele>24.799999237061</ele>
        <time>2020-05-17T08:13:03.000Z</time>
      </trkpt>
      <trkpt lat="47.27123" lon="-2.2807">
        <ele>25.200000762939</ele>
        <time>2020-05-17T08:13:04.000Z</time>
      </trkpt>
      <trkpt lat="47.27123" lon="-2.28063">
        <ele>25.60000038147</ele>
        <time>2020-05-17T08:13:05.000Z</time>
      </trkpt>
      <trkpt lat="47.27122" lon="-2.28055">
        <ele>26</ele>
        <time>2020-05-17T08:13:06.000Z</time>
      </trkpt>
      <trkpt lat="47.27121" lon="-2.28047">
        <ele>26.39999961853</ele>
        <time>2020-05-17T08:13:07.000Z</time>
      </trkpt>
      <trkpt lat="47.27114" lon="-2.28006">
        <ele>26.39999961853</ele>
        <time>2020-05-17T08:13:12.000Z</time>
      </trkpt>
      <trkpt lat="47.27111" lon="-2.27999">
        <ele>26.39999961853</ele>
        <time>2020-05-17T08:13:13.000Z</time>
      </trkpt>
      <trkpt lat="47.27103" lon="-2.27988">
        <ele>26.39999961853</ele>
        <time>2020-05-17T08:13:15.000Z</time>
      </trkpt>
      <trkpt lat="47.27092" lon="-2.27987">
        <ele>26.39999961853</ele>
        <time>2020-05-17T08:13:17.000Z</time>
      </trkpt>
      <trkpt lat="47.27087" lon="-2.27984">
        <ele>26.39999961853</ele>
        <time>2020-05-17T08:13:18.000Z</time>
      </trkpt>
      <trkpt lat="47.27082" lon="-2.2798">
        <ele>26.799999237061</ele>
        <time>2020-05-17T08:13:19.000Z</time>
      </trkpt>
      <trkpt lat="47.27077" lon="-2.27975">
        <ele>27.200000762939</ele>
        <time>2020-05-17T08:13:20.000Z</time>
      </trkpt>
      <trkpt lat="47.27073" lon="-2.2797">
        <ele>27.60000038147</ele>
        <time>2020-05-17T08:13:21.000Z</time>
      </trkpt>
      <trkpt lat="47.2707" lon="-2.27963">
        <ele>28</ele>
        <time>2020-05-17T08:13:22.000Z</time>
      </trkpt>
      <trkpt lat="47.27068" lon="-2.27956">
        <ele>28.39999961853</ele>
        <time>2020-05-17T08:13:23.000Z</time>
      </trkpt>
      <trkpt lat="47.27065" lon="-2.27931">
        <ele>28.39999961853</ele>
        <time>2020-05-17T08:13:26.000Z</time>
      </trkpt>
      <trkpt lat="47.27073" lon="-2.27908">
        <ele>28.39999961853</ele>
        <time>2020-05-17T08:13:29.000Z</time>
      </trkpt>
      <trkpt lat="47.27091" lon="-2.27884">
        <ele>28.39999961853</ele>
        <time>2020-05-17T08:13:33.000Z</time>
      </trkpt>
      <trkpt lat="47.27095" lon="-2.27878">
        <ele>28.39999961853</ele>
        <time>2020-05-17T08:13:34.000Z</time>
      </trkpt>
      <trkpt lat="47.27103" lon="-2.27854">
        <ele>28.39999961853</ele>
        <time>2020-05-17T08:13:37.000Z</time>
      </trkpt>
      <trkpt lat="47.27107" lon="-2.27835">
        <ele>28.39999961853</ele>
        <time>2020-05-17T08:13:39.000Z</time>
      </trkpt>
      <trkpt lat="47.27109" lon="-2.27826">
        <ele>28</ele>
        <time>2020-05-17T08:13:40.000Z</time>
      </trkpt>
      <trkpt lat="47.27111" lon="-2.27818">
        <ele>27.60000038147</ele>
        <time>2020-05-17T08:13:41.000Z</time>
      </trkpt>
      <trkpt lat="47.27113" lon="-2.27811">
        <ele>27.200000762939</ele>
        <time>2020-05-17T08:13:42.000Z</time>
      </trkpt>
      <trkpt lat="47.27114" lon="-2.27804">
        <ele>26.799999237061</ele>
        <time>2020-05-17T08:13:43.000Z</time>
      </trkpt>
      <trkpt lat="47.27113" lon="-2.27796">
        <ele>26.39999961853</ele>
        <time>2020-05-17T08:13:44.000Z</time>
      </trkpt>
      <trkpt lat="47.27112" lon="-2.27788">
        <ele>25.799999237061</ele>
        <time>2020-05-17T08:13:45.000Z</time>
      </trkpt>
      <trkpt lat="47.2711" lon="-2.27781">
        <ele>25.39999961853</ele>
        <time>2020-05-17T08:13:46.000Z</time>
      </trkpt>
      <trkpt lat="47.27108" lon="-2.27774">
        <ele>25</ele>
        <time>2020-05-17T08:13:47.000Z</time>
      </trkpt>
      <trkpt lat="47.27106" lon="-2.27767">
        <ele>24.60000038147</ele>
        <time>2020-05-17T08:13:48.000Z</time>
      </trkpt>
      <trkpt lat="47.27104" lon="-2.27761">
        <ele>24</ele>
        <time>2020-05-17T08:13:49.000Z</time>
      </trkpt>
      <trkpt lat="47.27101" lon="-2.27755">
        <ele>24</ele>
        <time>2020-05-17T08:13:50.000Z</time>
      </trkpt>
      <trkpt lat="47.27093" lon="-2.27747">
        <ele>24</ele>
        <time>2020-05-17T08:13:52.000Z</time>
      </trkpt>
      <trkpt lat="47.27068" lon="-2.27736">
        <ele>24</ele>
        <time>2020-05-17T08:13:56.000Z</time>
      </trkpt>
      <trkpt lat="47.27061" lon="-2.27734">
        <ele>24</ele>
        <time>2020-05-17T08:13:57.000Z</time>
      </trkpt>
      <trkpt lat="47.27046" lon="-2.27732">
        <ele>24</ele>
        <time>2020-05-17T08:13:59.000Z</time>
      </trkpt>
      <trkpt lat="47.27034" lon="-2.27727">
        <ele>23.60000038147</ele>
        <time>2020-05-17T08:14:01.000Z</time>
      </trkpt>
      <trkpt lat="47.27028" lon="-2.27723">
        <ele>23.200000762939</ele>
        <time>2020-05-17T08:14:02.000Z</time>
      </trkpt>
      <trkpt lat="47.27024" lon="-2.2772">
        <ele>22.799999237061</ele>
        <time>2020-05-17T08:14:03.000Z</time>
      </trkpt>
      <trkpt lat="47.2702" lon="-2.27716">
        <ele>22.39999961853</ele>
        <time>2020-05-17T08:14:04.000Z</time>
      </trkpt>
      <trkpt lat="47.2702" lon="-2.2771">
        <ele>22</ele>
        <time>2020-05-17T08:14:05.000Z</time>
      </trkpt>
      <trkpt lat="47.27024" lon="-2.27698">
        <ele>22</ele>
        <time>2020-05-17T08:14:07.000Z</time>
      </trkpt>
      <trkpt lat="47.27036" lon="-2.27682">
        <ele>22</ele>
        <time>2020-05-17T08:14:10.000Z</time>
      </trkpt>
      <trkpt lat="47.27071" lon="-2.27647">
        <ele>22</ele>
        <time>2020-05-17T08:14:17.000Z</time>
      </trkpt>
      <trkpt lat="47.27111" lon="-2.27618">
        <ele>22</ele>
        <time>2020-05-17T08:14:24.000Z</time>
      </trkpt>
      <trkpt lat="47.27135" lon="-2.27602">
        <ele>22</ele>
        <time>2020-05-17T08:14:28.000Z</time>
      </trkpt>
      <trkpt lat="47.27139" lon="-2.27596">
        <ele>22</ele>
        <time>2020-05-17T08:14:29.000Z</time>
      </trkpt>
      <trkpt lat="47.27146" lon="-2.27569">
        <ele>22</ele>
        <time>2020-05-17T08:14:32.000Z</time>
      </trkpt>
      <trkpt lat="47.27149" lon="-2.27543">
        <ele>22</ele>
        <time>2020-05-17T08:14:35.000Z</time>
      </trkpt>
      <trkpt lat="47.27149" lon="-2.27525">
        <ele>22</ele>
        <time>2020-05-17T08:14:37.000Z</time>
      </trkpt>
      <trkpt lat="47.27146" lon="-2.27474">
        <ele>22</ele>
        <time>2020-05-17T08:14:43.000Z</time>
      </trkpt>
      <trkpt lat="47.27139" lon="-2.27421">
        <ele>22</ele>
        <time>2020-05-17T08:14:49.000Z</time>
      </trkpt>
      <trkpt lat="47.2713" lon="-2.27358">
        <ele>22</ele>
        <time>2020-05-17T08:14:56.000Z</time>
      </trkpt>
      <trkpt lat="47.27123" lon="-2.2731">
        <ele>21.60000038147</ele>
        <time>2020-05-17T08:15:01.000Z</time>
      </trkpt>
      <trkpt lat="47.27121" lon="-2.273">
        <ele>21.200000762939</ele>
        <time>2020-05-17T08:15:02.000Z</time>
      </trkpt>
      <trkpt lat="47.27119" lon="-2.27291">
        <ele>20.799999237061</ele>
        <time>2020-05-17T08:15:03.000Z</time>
      </trkpt>
      <trkpt lat="47.27117" lon="-2.27281">
        <ele>20.39999961853</ele>
        <time>2020-05-17T08:15:04.000Z</time>
      </trkpt>
      <trkpt lat="47.27113" lon="-2.27271">
        <ele>19.799999237061</ele>
        <time>2020-05-17T08:15:05.000Z</time>
      </trkpt>
      <trkpt lat="47.27106" lon="-2.27252">
        <ele>19.799999237061</ele>
        <time>2020-05-17T08:15:07.000Z</time>
      </trkpt>
      <trkpt lat="47.27087" lon="-2.27218">
        <ele>19.39999961853</ele>
        <time>2020-05-17T08:15:11.000Z</time>
      </trkpt>
      <trkpt lat="47.27082" lon="-2.27209">
        <ele>19</ele>
        <time>2020-05-17T08:15:12.000Z</time>
      </trkpt>
      <trkpt lat="47.27076" lon="-2.27199">
        <ele>18.60000038147</ele>
        <time>2020-05-17T08:15:13.000Z</time>
      </trkpt>
      <trkpt lat="47.2707" lon="-2.27189">
        <ele>17.799999237061</ele>
        <time>2020-05-17T08:15:14.000Z</time>
      </trkpt>
      <trkpt lat="47.27059" lon="-2.27171">
        <ele>17.200000762939</ele>
        <time>2020-05-17T08:15:16.000Z</time>
      </trkpt>
      <trkpt lat="47.27055" lon="-2.27166">
        <ele>16.39999961853</ele>
        <time>2020-05-17T08:15:17.000Z</time>
      </trkpt>
      <trkpt lat="47.27052" lon="-2.27161">
        <ele>15.800000190735</ele>
        <time>2020-05-17T08:15:18.000Z</time>
      </trkpt>
      <trkpt lat="47.2705" lon="-2.27158">
        <ele>15.199999809265</ele>
        <time>2020-05-17T08:15:19.000Z</time>
      </trkpt>
      <trkpt lat="47.27048" lon="-2.27157">
        <ele>14.39999961853</ele>
        <time>2020-05-17T08:15:20.000Z</time>
      </trkpt>
      <trkpt lat="47.27047" lon="-2.27156">
        <ele>13.60000038147</ele>
        <time>2020-05-17T08:15:21.000Z</time>
      </trkpt>
      <trkpt lat="47.27046" lon="-2.27156">
        <ele>12.800000190735</ele>
        <time>2020-05-17T08:15:22.000Z</time>
      </trkpt>
      <trkpt lat="47.27044" lon="-2.27156">
        <ele>12</ele>
        <time>2020-05-17T08:15:23.000Z</time>
      </trkpt>
      <trkpt lat="47.27042" lon="-2.27156">
        <ele>12</ele>
        <time>2020-05-17T08:15:25.000Z</time>
      </trkpt>
      <trkpt lat="47.27039" lon="-2.27155">
        <ele>12</ele>
        <time>2020-05-17T08:15:34.000Z</time>
      </trkpt>
      <trkpt lat="47.27036" lon="-2.27154">
        <ele>12</ele>
        <time>2020-05-17T08:15:39.000Z</time>
      </trkpt>
      <trkpt lat="47.27034" lon="-2.2715">
        <ele>12</ele>
        <time>2020-05-17T08:15:41.000Z</time>
      </trkpt>
      <trkpt lat="47.27032" lon="-2.27149">
        <ele>12</ele>
        <time>2020-05-17T08:15:43.000Z</time>
      </trkpt>
      <trkpt lat="47.2703" lon="-2.27153">
        <ele>12</ele>
        <time>2020-05-17T08:15:46.000Z</time>
      </trkpt>
      <trkpt lat="47.27025" lon="-2.27159">
        <ele>12</ele>
        <time>2020-05-17T08:15:51.000Z</time>
      </trkpt>
      <trkpt lat="47.27021" lon="-2.27164">
        <ele>12</ele>
        <time>2020-05-17T08:15:57.000Z</time>
      </trkpt>
      <trkpt lat="47.27021" lon="-2.27169">
        <ele>12</ele>
        <time>2020-05-17T08:16:00.000Z</time>
      </trkpt>
      <trkpt lat="47.27019" lon="-2.27172">
        <ele>12</ele>
        <time>2020-05-17T08:16:03.000Z</time>
      </trkpt>
      <trkpt lat="47.27014" lon="-2.27169">
        <ele>12</ele>
        <time>2020-05-17T08:16:08.000Z</time>
      </trkpt>
      <trkpt lat="47.27013" lon="-2.27168">
        <ele>12</ele>
        <time>2020-05-17T08:16:09.000Z</time>
      </trkpt>
      <trkpt lat="47.2701" lon="-2.27166">
        <ele>12</ele>
        <time>2020-05-17T08:16:11.000Z</time>
      </trkpt>
      <trkpt lat="47.27007" lon="-2.27168">
        <ele>12.39999961853</ele>
        <time>2020-05-17T08:16:13.000Z</time>
      </trkpt>
      <trkpt lat="47.27006" lon="-2.27169">
        <ele>12.800000190735</ele>
        <time>2020-05-17T08:16:14.000Z</time>
      </trkpt>
      <trkpt lat="47.27005" lon="-2.2717">
        <ele>13.199999809265</ele>
        <time>2020-05-17T08:16:15.000Z</time>
      </trkpt>
      <trkpt lat="47.27004" lon="-2.2717">
        <ele>13.60000038147</ele>
        <time>2020-05-17T08:16:16.000Z</time>
      </trkpt>
      <trkpt lat="47.27002" lon="-2.27171">
        <ele>14</ele>
        <time>2020-05-17T08:16:17.000Z</time>
      </trkpt>
      <trkpt lat="47.26999" lon="-2.27174">
        <ele>14</ele>
        <time>2020-05-17T08:16:20.000Z</time>
      </trkpt>
      <trkpt lat="47.26995" lon="-2.27174">
        <ele>14</ele>
        <time>2020-05-17T08:16:24.000Z</time>
      </trkpt>
      <trkpt lat="47.26991" lon="-2.27172">
        <ele>14</ele>
        <time>2020-05-17T08:16:26.000Z</time>
      </trkpt>
      <trkpt lat="47.26988" lon="-2.27173">
        <ele>14</ele>
        <time>2020-05-17T08:16:29.000Z</time>
      </trkpt>
      <trkpt lat="47.26988" lon="-2.27175">
        <ele>14</ele>
        <time>2020-05-17T08:16:30.000Z</time>
      </trkpt>
      <trkpt lat="47.26987" lon="-2.27177">
        <ele>14</ele>
        <time>2020-05-17T08:16:31.000Z</time>
      </trkpt>
      <trkpt lat="47.26985" lon="-2.27183">
        <ele>14</ele>
        <time>2020-05-17T08:16:34.000Z</time>
      </trkpt>
      <trkpt lat="47.26984" lon="-2.27184">
        <ele>14</ele>
        <time>2020-05-17T08:16:36.000Z</time>
      </trkpt>
      <trkpt lat="47.26979" lon="-2.27187">
        <ele>14</ele>
        <time>2020-05-17T08:16:39.000Z</time>
      </trkpt>
      <trkpt lat="47.26978" lon="-2.27192">
        <ele>14</ele>
        <time>2020-05-17T08:16:41.000Z</time>
      </trkpt>
      <trkpt lat="47.26981" lon="-2.2721">
        <ele>14</ele>
        <time>2020-05-17T08:16:47.000Z</time>
      </trkpt>
      <trkpt lat="47.26978" lon="-2.27226">
        <ele>14</ele>
        <time>2020-05-17T08:16:53.000Z</time>
      </trkpt>
      <trkpt lat="47.26968" lon="-2.2724">
        <ele>14</ele>
        <time>2020-05-17T08:16:58.000Z</time>
      </trkpt>
      <trkpt lat="47.26966" lon="-2.27239">
        <ele>14</ele>
        <time>2020-05-17T08:16:59.000Z</time>
      </trkpt>
      <trkpt lat="47.26952" lon="-2.27245">
        <ele>14</ele>
        <time>2020-05-17T08:17:05.000Z</time>
      </trkpt>
      <trkpt lat="47.26948" lon="-2.27249">
        <ele>14</ele>
        <time>2020-05-17T08:17:08.000Z</time>
      </trkpt>
      <trkpt lat="47.26945" lon="-2.27255">
        <ele>14</ele>
        <time>2020-05-17T08:17:11.000Z</time>
      </trkpt>
      <trkpt lat="47.2694" lon="-2.27264">
        <ele>14.39999961853</ele>
        <time>2020-05-17T08:17:14.000Z</time>
      </trkpt>
      <trkpt lat="47.26938" lon="-2.27266">
        <ele>14.800000190735</ele>
        <time>2020-05-17T08:17:15.000Z</time>
      </trkpt>
      <trkpt lat="47.26937" lon="-2.27269">
        <ele>15.60000038147</ele>
        <time>2020-05-17T08:17:16.000Z</time>
      </trkpt>
      <trkpt lat="47.26937" lon="-2.27269">
        <ele>15.60000038147</ele>
        <time>2020-05-17T08:17:17.000Z</time>
      </trkpt>
      <trkpt lat="47.26937" lon="-2.27273">
        <ele>16.200000762939</ele>
        <time>2020-05-17T08:17:18.000Z</time>
      </trkpt>
      <trkpt lat="47.26937" lon="-2.27282">
        <ele>16.200000762939</ele>
        <time>2020-05-17T08:17:21.000Z</time>
      </trkpt>
      <trkpt lat="47.26937" lon="-2.27288">
        <ele>16.200000762939</ele>
        <time>2020-05-17T08:17:23.000Z</time>
      </trkpt>
      <trkpt lat="47.26936" lon="-2.27302">
        <ele>15.60000038147</ele>
        <time>2020-05-17T08:17:28.000Z</time>
      </trkpt>
      <trkpt lat="47.26935" lon="-2.27305">
        <ele>15.199999809265</ele>
        <time>2020-05-17T08:17:29.000Z</time>
      </trkpt>
      <trkpt lat="47.26934" lon="-2.27309">
        <ele>14.800000190735</ele>
        <time>2020-05-17T08:17:30.000Z</time>
      </trkpt>
      <trkpt lat="47.26934" lon="-2.27312">
        <ele>14.39999961853</ele>
        <time>2020-05-17T08:17:31.000Z</time>
      </trkpt>
      <trkpt lat="47.26932" lon="-2.27316">
        <ele>14</ele>
        <time>2020-05-17T08:17:32.000Z</time>
      </trkpt>
      <trkpt lat="47.26929" lon="-2.27328">
        <ele>14</ele>
        <time>2020-05-17T08:17:36.000Z</time>
      </trkpt>
      <trkpt lat="47.26922" lon="-2.27342">
        <ele>14</ele>
        <time>2020-05-17T08:17:41.000Z</time>
      </trkpt>
      <trkpt lat="47.26912" lon="-2.27359">
        <ele>14</ele>
        <time>2020-05-17T08:17:46.000Z</time>
      </trkpt>
      <trkpt lat="47.26888" lon="-2.27378">
        <ele>14</ele>
        <time>2020-05-17T08:17:54.000Z</time>
      </trkpt>
      <trkpt lat="47.26884" lon="-2.27379">
        <ele>14.39999961853</ele>
        <time>2020-05-17T08:17:55.000Z</time>
      </trkpt>
      <trkpt lat="47.2688" lon="-2.27381">
        <ele>14.800000190735</ele>
        <time>2020-05-17T08:17:56.000Z</time>
      </trkpt>
      <trkpt lat="47.26877" lon="-2.27383">
        <ele>15.199999809265</ele>
        <time>2020-05-17T08:17:57.000Z</time>
      </trkpt>
      <trkpt lat="47.26874" lon="-2.27385">
        <ele>15.60000038147</ele>
        <time>2020-05-17T08:17:58.000Z</time>
      </trkpt>
      <trkpt lat="47.26871" lon="-2.27386">
        <ele>16</ele>
        <time>2020-05-17T08:17:59.000Z</time>
      </trkpt>
      <trkpt lat="47.26864" lon="-2.2739">
        <ele>16</ele>
        <time>2020-05-17T08:18:01.000Z</time>
      </trkpt>
      <trkpt lat="47.2685" lon="-2.27396">
        <ele>16</ele>
        <time>2020-05-17T08:18:06.000Z</time>
      </trkpt>
      <trkpt lat="47.26842" lon="-2.27399">
        <ele>16.39999961853</ele>
        <time>2020-05-17T08:18:09.000Z</time>
      </trkpt>
      <trkpt lat="47.26838" lon="-2.27399">
        <ele>16.799999237061</ele>
        <time>2020-05-17T08:18:10.000Z</time>
      </trkpt>
      <trkpt lat="47.26836" lon="-2.274">
        <ele>17.200000762939</ele>
        <time>2020-05-17T08:18:11.000Z</time>
      </trkpt>
      <trkpt lat="47.26832" lon="-2.27402">
        <ele>17.60000038147</ele>
        <time>2020-05-17T08:18:12.000Z</time>
      </trkpt>
      <trkpt lat="47.26828" lon="-2.27403">
        <ele>18.200000762939</ele>
        <time>2020-05-17T08:18:13.000Z</time>
      </trkpt>
      <trkpt lat="47.26812" lon="-2.27406">
        <ele>18.200000762939</ele>
        <time>2020-05-17T08:18:16.000Z</time>
      </trkpt>
      <trkpt lat="47.26777" lon="-2.27411">
        <ele>18.200000762939</ele>
        <time>2020-05-17T08:18:24.000Z</time>
      </trkpt>
      <trkpt lat="47.26752" lon="-2.27408">
        <ele>18.200000762939</ele>
        <time>2020-05-17T08:18:31.000Z</time>
      </trkpt>
      <trkpt lat="47.2675" lon="-2.27405">
        <ele>18.60000038147</ele>
        <time>2020-05-17T08:18:32.000Z</time>
      </trkpt>
      <trkpt lat="47.26747" lon="-2.274">
        <ele>19</ele>
        <time>2020-05-17T08:18:33.000Z</time>
      </trkpt>
      <trkpt lat="47.26744" lon="-2.27394">
        <ele>19.39999961853</ele>
        <time>2020-05-17T08:18:34.000Z</time>
      </trkpt>
      <trkpt lat="47.26743" lon="-2.27388">
        <ele>19.799999237061</ele>
        <time>2020-05-17T08:18:35.000Z</time>
      </trkpt>
      <trkpt lat="47.26741" lon="-2.27381">
        <ele>20.200000762939</ele>
        <time>2020-05-17T08:18:36.000Z</time>
      </trkpt>
      <trkpt lat="47.26733" lon="-2.27335">
        <ele>20.200000762939</ele>
        <time>2020-05-17T08:18:42.000Z</time>
      </trkpt>
      <trkpt lat="47.26725" lon="-2.27292">
        <ele>20.60000038147</ele>
        <time>2020-05-17T08:18:48.000Z</time>
      </trkpt>
      <trkpt lat="47.26724" lon="-2.27285">
        <ele>21</ele>
        <time>2020-05-17T08:18:49.000Z</time>
      </trkpt>
      <trkpt lat="47.26723" lon="-2.27278">
        <ele>21.39999961853</ele>
        <time>2020-05-17T08:18:50.000Z</time>
      </trkpt>
      <trkpt lat="47.26722" lon="-2.27271">
        <ele>21.799999237061</ele>
        <time>2020-05-17T08:18:51.000Z</time>
      </trkpt>
      <trkpt lat="47.26721" lon="-2.27265">
        <ele>22.200000762939</ele>
        <time>2020-05-17T08:18:52.000Z</time>
      </trkpt>
      <trkpt lat="47.26717" lon="-2.27242">
        <ele>22.200000762939</ele>
        <time>2020-05-17T08:18:56.000Z</time>
      </trkpt>
      <trkpt lat="47.26716" lon="-2.27236">
        <ele>22.200000762939</ele>
        <time>2020-05-17T08:18:57.000Z</time>
      </trkpt>
      <trkpt lat="47.26716" lon="-2.27212">
        <ele>22.200000762939</ele>
        <time>2020-05-17T08:19:01.000Z</time>
      </trkpt>
      <trkpt lat="47.26716" lon="-2.27198">
        <ele>22.200000762939</ele>
        <time>2020-05-17T08:19:05.000Z</time>
      </trkpt>
      <trkpt lat="47.2672" lon="-2.27189">
        <ele>22.200000762939</ele>
        <time>2020-05-17T08:19:07.000Z</time>
      </trkpt>
      <trkpt lat="47.26728" lon="-2.27181">
        <ele>22.200000762939</ele>
        <time>2020-05-17T08:19:09.000Z</time>
      </trkpt>
      <trkpt lat="47.26756" lon="-2.27155">
        <ele>22.200000762939</ele>
        <time>2020-05-17T08:19:15.000Z</time>
      </trkpt>
      <trkpt lat="47.26766" lon="-2.27148">
        <ele>21.799999237061</ele>
        <time>2020-05-17T08:19:17.000Z</time>
      </trkpt>
      <trkpt lat="47.26772" lon="-2.27146">
        <ele>21.39999961853</ele>
        <time>2020-05-17T08:19:18.000Z</time>
      </trkpt>
      <trkpt lat="47.26777" lon="-2.27143">
        <ele>21</ele>
        <time>2020-05-17T08:19:19.000Z</time>
      </trkpt>
      <trkpt lat="47.26782" lon="-2.27141">
        <ele>20.39999961853</ele>
        <time>2020-05-17T08:19:20.000Z</time>
      </trkpt>
      <trkpt lat="47.26787" lon="-2.27139">
        <ele>20</ele>
        <time>2020-05-17T08:19:21.000Z</time>
      </trkpt>
      <trkpt lat="47.26813" lon="-2.27131">
        <ele>20</ele>
        <time>2020-05-17T08:19:26.000Z</time>
      </trkpt>
      <trkpt lat="47.26822" lon="-2.27129">
        <ele>20</ele>
        <time>2020-05-17T08:19:28.000Z</time>
      </trkpt>
      <trkpt lat="47.26836" lon="-2.27125">
        <ele>20</ele>
        <time>2020-05-17T08:19:31.000Z</time>
      </trkpt>
      <trkpt lat="47.2684" lon="-2.27123">
        <ele>19.60000038147</ele>
        <time>2020-05-17T08:19:32.000Z</time>
      </trkpt>
      <trkpt lat="47.26844" lon="-2.27121">
        <ele>19.200000762939</ele>
        <time>2020-05-17T08:19:33.000Z</time>
      </trkpt>
      <trkpt lat="47.26849" lon="-2.27118">
        <ele>18.799999237061</ele>
        <time>2020-05-17T08:19:34.000Z</time>
      </trkpt>
      <trkpt lat="47.26854" lon="-2.27114">
        <ele>18.39999961853</ele>
        <time>2020-05-17T08:19:35.000Z</time>
      </trkpt>
      <trkpt lat="47.2686" lon="-2.2711">
        <ele>18</ele>
        <time>2020-05-17T08:19:36.000Z</time>
      </trkpt>
      <trkpt lat="47.26865" lon="-2.27105">
        <ele>18</ele>
        <time>2020-05-17T08:19:37.000Z</time>
      </trkpt>
      <trkpt lat="47.26885" lon="-2.27082">
        <ele>18</ele>
        <time>2020-05-17T08:19:41.000Z</time>
      </trkpt>
      <trkpt lat="47.26906" lon="-2.27055">
        <ele>17.60000038147</ele>
        <time>2020-05-17T08:19:45.000Z</time>
      </trkpt>
      <trkpt lat="47.26911" lon="-2.27048">
        <ele>16.60000038147</ele>
        <time>2020-05-17T08:19:46.000Z</time>
      </trkpt>
      <trkpt lat="47.26917" lon="-2.27041">
        <ele>16.200000762939</ele>
        <time>2020-05-17T08:19:47.000Z</time>
      </trkpt>
      <trkpt lat="47.26922" lon="-2.27034">
        <ele>15.800000190735</ele>
        <time>2020-05-17T08:19:48.000Z</time>
      </trkpt>
      <trkpt lat="47.26926" lon="-2.27027">
        <ele>15.199999809265</ele>
        <time>2020-05-17T08:19:49.000Z</time>
      </trkpt>
      <trkpt lat="47.2693" lon="-2.2702">
        <ele>14.800000190735</ele>
        <time>2020-05-17T08:19:50.000Z</time>
      </trkpt>
      <trkpt lat="47.26933" lon="-2.27014">
        <ele>14.199999809265</ele>
        <time>2020-05-17T08:19:51.000Z</time>
      </trkpt>
      <trkpt lat="47.26935" lon="-2.27009">
        <ele>13.800000190735</ele>
        <time>2020-05-17T08:19:52.000Z</time>
      </trkpt>
      <trkpt lat="47.26944" lon="-2.26988">
        <ele>13.800000190735</ele>
        <time>2020-05-17T08:19:55.000Z</time>
      </trkpt>
      <trkpt lat="47.26946" lon="-2.26979">
        <ele>13.800000190735</ele>
        <time>2020-05-17T08:19:56.000Z</time>
      </trkpt>
      <trkpt lat="47.26951" lon="-2.2695">
        <ele>13.800000190735</ele>
        <time>2020-05-17T08:19:59.000Z</time>
      </trkpt>
      <trkpt lat="47.26954" lon="-2.26929">
        <ele>13.800000190735</ele>
        <time>2020-05-17T08:20:01.000Z</time>
      </trkpt>
      <trkpt lat="47.26956" lon="-2.26918">
        <ele>13.39999961853</ele>
        <time>2020-05-17T08:20:02.000Z</time>
      </trkpt>
      <trkpt lat="47.26956" lon="-2.26908">
        <ele>13</ele>
        <time>2020-05-17T08:20:03.000Z</time>
      </trkpt>
      <trkpt lat="47.26956" lon="-2.26897">
        <ele>12.60000038147</ele>
        <time>2020-05-17T08:20:04.000Z</time>
      </trkpt>
      <trkpt lat="47.26956" lon="-2.26887">
        <ele>12</ele>
        <time>2020-05-17T08:20:05.000Z</time>
      </trkpt>
      <trkpt lat="47.26954" lon="-2.26877">
        <ele>11.60000038147</ele>
        <time>2020-05-17T08:20:06.000Z</time>
      </trkpt>
      <trkpt lat="47.26948" lon="-2.26835">
        <ele>11.60000038147</ele>
        <time>2020-05-17T08:20:10.000Z</time>
      </trkpt>
      <trkpt lat="47.26946" lon="-2.26825">
        <ele>11.60000038147</ele>
        <time>2020-05-17T08:20:11.000Z</time>
      </trkpt>
      <trkpt lat="47.26936" lon="-2.26798">
        <ele>11.60000038147</ele>
        <time>2020-05-17T08:20:14.000Z</time>
      </trkpt>
      <trkpt lat="47.26914" lon="-2.26748">
        <ele>11.60000038147</ele>
        <time>2020-05-17T08:20:20.000Z</time>
      </trkpt>
      <trkpt lat="47.26897" lon="-2.26701">
        <ele>11.60000038147</ele>
        <time>2020-05-17T08:20:26.000Z</time>
      </trkpt>
      <trkpt lat="47.26877" lon="-2.26645">
        <ele>11.60000038147</ele>
        <time>2020-05-17T08:20:33.000Z</time>
      </trkpt>
      <trkpt lat="47.26859" lon="-2.26594">
        <ele>11.60000038147</ele>
        <time>2020-05-17T08:20:40.000Z</time>
      </trkpt>
      <trkpt lat="47.26854" lon="-2.26582">
        <ele>11.60000038147</ele>
        <time>2020-05-17T08:20:42.000Z</time>
      </trkpt>
      <trkpt lat="47.26854" lon="-2.26564">
        <ele>11.60000038147</ele>
        <time>2020-05-17T08:20:45.000Z</time>
      </trkpt>
      <trkpt lat="47.26865" lon="-2.26553">
        <ele>11.60000038147</ele>
        <time>2020-05-17T08:20:48.000Z</time>
      </trkpt>
      <trkpt lat="47.26871" lon="-2.26549">
        <ele>11.60000038147</ele>
        <time>2020-05-17T08:20:49.000Z</time>
      </trkpt>
      <trkpt lat="47.26895" lon="-2.26535">
        <ele>11.60000038147</ele>
        <time>2020-05-17T08:20:53.000Z</time>
      </trkpt>
      <trkpt lat="47.26908" lon="-2.2653">
        <ele>12.199999809265</ele>
        <time>2020-05-17T08:20:55.000Z</time>
      </trkpt>
      <trkpt lat="47.26915" lon="-2.26527">
        <ele>12.60000038147</ele>
        <time>2020-05-17T08:20:56.000Z</time>
      </trkpt>
      <trkpt lat="47.26921" lon="-2.26524">
        <ele>13</ele>
        <time>2020-05-17T08:20:57.000Z</time>
      </trkpt>
      <trkpt lat="47.26928" lon="-2.26521">
        <ele>13.39999961853</ele>
        <time>2020-05-17T08:20:58.000Z</time>
      </trkpt>
      <trkpt lat="47.26934" lon="-2.26517">
        <ele>13.800000190735</ele>
        <time>2020-05-17T08:20:59.000Z</time>
      </trkpt>
      <trkpt lat="47.26963" lon="-2.26498">
        <ele>13.800000190735</ele>
        <time>2020-05-17T08:21:04.000Z</time>
      </trkpt>
      <trkpt lat="47.26984" lon="-2.26477">
        <ele>13.800000190735</ele>
        <time>2020-05-17T08:21:08.000Z</time>
      </trkpt>
      <trkpt lat="47.26993" lon="-2.26464">
        <ele>13.800000190735</ele>
        <time>2020-05-17T08:21:10.000Z</time>
      </trkpt>
      <trkpt lat="47.27026" lon="-2.26415">
        <ele>13.800000190735</ele>
        <time>2020-05-17T08:21:18.000Z</time>
      </trkpt>
      <trkpt lat="47.27039" lon="-2.26397">
        <ele>13.800000190735</ele>
        <time>2020-05-17T08:21:21.000Z</time>
      </trkpt>
      <trkpt lat="47.27049" lon="-2.26386">
        <ele>13.800000190735</ele>
        <time>2020-05-17T08:21:23.000Z</time>
      </trkpt>
      <trkpt lat="47.27083" lon="-2.26338">
        <ele>13.800000190735</ele>
        <time>2020-05-17T08:21:30.000Z</time>
      </trkpt>
      <trkpt lat="47.27101" lon="-2.26308">
        <ele>13.800000190735</ele>
        <time>2020-05-17T08:21:34.000Z</time>
      </trkpt>
      <trkpt lat="47.27112" lon="-2.26293">
        <ele>13.800000190735</ele>
        <time>2020-05-17T08:21:36.000Z</time>
      </trkpt>
      <trkpt lat="47.27151" lon="-2.26242">
        <ele>13.800000190735</ele>
        <time>2020-05-17T08:21:43.000Z</time>
      </trkpt>
      <trkpt lat="47.27194" lon="-2.26197">
        <ele>13</ele>
        <time>2020-05-17T08:21:50.000Z</time>
      </trkpt>
      <trkpt lat="47.27201" lon="-2.26191">
        <ele>12.60000038147</ele>
        <time>2020-05-17T08:21:51.000Z</time>
      </trkpt>
      <trkpt lat="47.27208" lon="-2.26185">
        <ele>12.199999809265</ele>
        <time>2020-05-17T08:21:52.000Z</time>
      </trkpt>
      <trkpt lat="47.27214" lon="-2.2618">
        <ele>11.800000190735</ele>
        <time>2020-05-17T08:21:53.000Z</time>
      </trkpt>
      <trkpt lat="47.27234" lon="-2.26167">
        <ele>11.800000190735</ele>
        <time>2020-05-17T08:21:56.000Z</time>
      </trkpt>
      <trkpt lat="47.27282" lon="-2.26145">
        <ele>11.800000190735</ele>
        <time>2020-05-17T08:22:03.000Z</time>
      </trkpt>
      <trkpt lat="47.27309" lon="-2.26135">
        <ele>11.39999961853</ele>
        <time>2020-05-17T08:22:07.000Z</time>
      </trkpt>
      <trkpt lat="47.27316" lon="-2.26133">
        <ele>11</ele>
        <time>2020-05-17T08:22:08.000Z</time>
      </trkpt>
      <trkpt lat="47.27322" lon="-2.2613">
        <ele>10.39999961853</ele>
        <time>2020-05-17T08:22:09.000Z</time>
      </trkpt>
      <trkpt lat="47.27328" lon="-2.26128">
        <ele>10</ele>
        <time>2020-05-17T08:22:10.000Z</time>
      </trkpt>
      <trkpt lat="47.27334" lon="-2.26126">
        <ele>9.6000003814697</ele>
        <time>2020-05-17T08:22:11.000Z</time>
      </trkpt>
      <trkpt lat="47.27346" lon="-2.26123">
        <ele>9.6000003814697</ele>
        <time>2020-05-17T08:22:13.000Z</time>
      </trkpt>
      <trkpt lat="47.27358" lon="-2.26127">
        <ele>9.6000003814697</ele>
        <time>2020-05-17T08:22:15.000Z</time>
      </trkpt>
      <trkpt lat="47.27371" lon="-2.26143">
        <ele>9.6000003814697</ele>
        <time>2020-05-17T08:22:18.000Z</time>
      </trkpt>
      <trkpt lat="47.27395" lon="-2.26181">
        <ele>9.6000003814697</ele>
        <time>2020-05-17T08:22:24.000Z</time>
      </trkpt>
      <trkpt lat="47.27413" lon="-2.26208">
        <ele>9.1999998092651</ele>
        <time>2020-05-17T08:22:28.000Z</time>
      </trkpt>
      <trkpt lat="47.27417" lon="-2.26215">
        <ele>8.8000001907349</ele>
        <time>2020-05-17T08:22:29.000Z</time>
      </trkpt>
      <trkpt lat="47.27423" lon="-2.26222">
        <ele>8.1999998092651</ele>
        <time>2020-05-17T08:22:30.000Z</time>
      </trkpt>
      <trkpt lat="47.27428" lon="-2.26228">
        <ele>7.8000001907349</ele>
        <time>2020-05-17T08:22:31.000Z</time>
      </trkpt>
      <trkpt lat="47.27433" lon="-2.26235">
        <ele>7.4000000953674</ele>
        <time>2020-05-17T08:22:32.000Z</time>
      </trkpt>
      <trkpt lat="47.27462" lon="-2.26264">
        <ele>7.4000000953674</ele>
        <time>2020-05-17T08:22:37.000Z</time>
      </trkpt>
      <trkpt lat="47.27468" lon="-2.26269">
        <ele>7.4000000953674</ele>
        <time>2020-05-17T08:22:38.000Z</time>
      </trkpt>
      <trkpt lat="47.27475" lon="-2.26273">
        <ele>7</ele>
        <time>2020-05-17T08:22:39.000Z</time>
      </trkpt>
      <trkpt lat="47.27482" lon="-2.26277">
        <ele>6.4000000953674</ele>
        <time>2020-05-17T08:22:40.000Z</time>
      </trkpt>
      <trkpt lat="47.27489" lon="-2.2628">
        <ele>6</ele>
        <time>2020-05-17T08:22:41.000Z</time>
      </trkpt>
      <trkpt lat="47.27496" lon="-2.26282">
        <ele>5.5999999046326</ele>
        <time>2020-05-17T08:22:42.000Z</time>
      </trkpt>
      <trkpt lat="47.27503" lon="-2.26284">
        <ele>5</ele>
        <time>2020-05-17T08:22:43.000Z</time>
      </trkpt>
      <trkpt lat="47.27511" lon="-2.26285">
        <ele>5</ele>
        <time>2020-05-17T08:22:44.000Z</time>
      </trkpt>
      <trkpt lat="47.27519" lon="-2.26285">
        <ele>5</ele>
        <time>2020-05-17T08:22:45.000Z</time>
      </trkpt>
      <trkpt lat="47.27572" lon="-2.26285">
        <ele>5</ele>
        <time>2020-05-17T08:22:52.000Z</time>
      </trkpt>
      <trkpt lat="47.27592" lon="-2.26287">
        <ele>5</ele>
        <time>2020-05-17T08:22:55.000Z</time>
      </trkpt>
      <trkpt lat="47.27605" lon="-2.2629">
        <ele>5</ele>
        <time>2020-05-17T08:22:57.000Z</time>
      </trkpt>
      <trkpt lat="47.27617" lon="-2.26295">
        <ele>5</ele>
        <time>2020-05-17T08:22:59.000Z</time>
      </trkpt>
      <trkpt lat="47.27629" lon="-2.26305">
        <ele>5</ele>
        <time>2020-05-17T08:23:01.000Z</time>
      </trkpt>
      <trkpt lat="47.27642" lon="-2.26315">
        <ele>4.5999999046326</ele>
        <time>2020-05-17T08:23:03.000Z</time>
      </trkpt>
      <trkpt lat="47.27647" lon="-2.26322">
        <ele>3.7999999523163</ele>
        <time>2020-05-17T08:23:04.000Z</time>
      </trkpt>
      <trkpt lat="47.27652" lon="-2.26328">
        <ele>3.4000000953674</ele>
        <time>2020-05-17T08:23:05.000Z</time>
      </trkpt>
      <trkpt lat="47.27655" lon="-2.26333">
        <ele>3</ele>
        <time>2020-05-17T08:23:06.000Z</time>
      </trkpt>
      <trkpt lat="47.27662" lon="-2.26337">
        <ele>3</ele>
        <time>2020-05-17T08:23:08.000Z</time>
      </trkpt>
      <trkpt lat="47.27667" lon="-2.26329">
        <ele>3</ele>
        <time>2020-05-17T08:23:11.000Z</time>
      </trkpt>
      <trkpt lat="47.27665" lon="-2.26318">
        <ele>3</ele>
        <time>2020-05-17T08:23:13.000Z</time>
      </trkpt>
      <trkpt lat="47.27662" lon="-2.26307">
        <ele>3</ele>
        <time>2020-05-17T08:23:15.000Z</time>
      </trkpt>
      <trkpt lat="47.2766" lon="-2.26301">
        <ele>3</ele>
        <time>2020-05-17T08:23:16.000Z</time>
      </trkpt>
      <trkpt lat="47.27648" lon="-2.26268">
        <ele>3</ele>
        <time>2020-05-17T08:23:22.000Z</time>
      </trkpt>
      <trkpt lat="47.27637" lon="-2.26249">
        <ele>3</ele>
        <time>2020-05-17T08:23:27.000Z</time>
      </trkpt>
      <trkpt lat="47.27619" lon="-2.2622">
        <ele>3</ele>
        <time>2020-05-17T08:23:34.000Z</time>
      </trkpt>
      <trkpt lat="47.27619" lon="-2.26213">
        <ele>3</ele>
        <time>2020-05-17T08:23:35.000Z</time>
      </trkpt>
      <trkpt lat="47.27619" lon="-2.26201">
        <ele>3</ele>
        <time>2020-05-17T08:23:37.000Z</time>
      </trkpt>
      <trkpt lat="47.27616" lon="-2.26182">
        <ele>3</ele>
        <time>2020-05-17T08:23:41.000Z</time>
      </trkpt>
      <trkpt lat="47.27618" lon="-2.26179">
        <ele>3</ele>
        <time>2020-05-17T08:23:42.000Z</time>
      </trkpt>
      <trkpt lat="47.27628" lon="-2.26173">
        <ele>3</ele>
        <time>2020-05-17T08:23:45.000Z</time>
      </trkpt>
      <trkpt lat="47.27639" lon="-2.26166">
        <ele>3</ele>
        <time>2020-05-17T08:23:49.000Z</time>
      </trkpt>
      <trkpt lat="47.27658" lon="-2.26148">
        <ele>3</ele>
        <time>2020-05-17T08:23:55.000Z</time>
      </trkpt>
      <trkpt lat="47.27678" lon="-2.26124">
        <ele>3</ele>
        <time>2020-05-17T08:24:01.000Z</time>
      </trkpt>
      <trkpt lat="47.27693" lon="-2.26111">
        <ele>3</ele>
        <time>2020-05-17T08:24:05.000Z</time>
      </trkpt>
      <trkpt lat="47.27697" lon="-2.26106">
        <ele>3</ele>
        <time>2020-05-17T08:24:06.000Z</time>
      </trkpt>
      <trkpt lat="47.27708" lon="-2.26093">
        <ele>3</ele>
        <time>2020-05-17T08:24:10.000Z</time>
      </trkpt>
      <trkpt lat="47.27704" lon="-2.26079">
        <ele>3</ele>
        <time>2020-05-17T08:24:13.000Z</time>
      </trkpt>
      <trkpt lat="47.27699" lon="-2.26066">
        <ele>3</ele>
        <time>2020-05-17T08:24:15.000Z</time>
      </trkpt>
      <trkpt lat="47.27693" lon="-2.26047">
        <ele>3</ele>
        <time>2020-05-17T08:24:18.000Z</time>
      </trkpt>
      <trkpt lat="47.27678" lon="-2.26003">
        <ele>3</ele>
        <time>2020-05-17T08:24:25.000Z</time>
      </trkpt>
      <trkpt lat="47.27667" lon="-2.25965">
        <ele>3</ele>
        <time>2020-05-17T08:24:31.000Z</time>
      </trkpt>
      <trkpt lat="47.27648" lon="-2.25939">
        <ele>3</ele>
        <time>2020-05-17T08:24:36.000Z</time>
      </trkpt>
      <trkpt lat="47.27645" lon="-2.25933">
        <ele>3</ele>
        <time>2020-05-17T08:24:37.000Z</time>
      </trkpt>
      <trkpt lat="47.27631" lon="-2.25904">
        <ele>3</ele>
        <time>2020-05-17T08:24:42.000Z</time>
      </trkpt>
      <trkpt lat="47.27629" lon="-2.25892">
        <ele>3</ele>
        <time>2020-05-17T08:24:45.000Z</time>
      </trkpt>
      <trkpt lat="47.2763" lon="-2.25889">
        <ele>3</ele>
        <time>2020-05-17T08:24:46.000Z</time>
      </trkpt>
      <trkpt lat="47.27643" lon="-2.25875">
        <ele>3</ele>
        <time>2020-05-17T08:24:51.000Z</time>
      </trkpt>
      <trkpt lat="47.27654" lon="-2.25869">
        <ele>3</ele>
        <time>2020-05-17T08:24:54.000Z</time>
      </trkpt>
      <trkpt lat="47.27663" lon="-2.25864">
        <ele>3</ele>
        <time>2020-05-17T08:24:57.000Z</time>
      </trkpt>
      <trkpt lat="47.27673" lon="-2.25853">
        <ele>3</ele>
        <time>2020-05-17T08:25:00.000Z</time>
      </trkpt>
      <trkpt lat="47.27676" lon="-2.25848">
        <ele>3</ele>
        <time>2020-05-17T08:25:01.000Z</time>
      </trkpt>
      <trkpt lat="47.2768" lon="-2.25841">
        <ele>3</ele>
        <time>2020-05-17T08:25:03.000Z</time>
      </trkpt>
      <trkpt lat="47.27679" lon="-2.25839">
        <ele>3</ele>
        <time>2020-05-17T08:25:04.000Z</time>
      </trkpt>
      <trkpt lat="47.27678" lon="-2.25834">
        <ele>3</ele>
        <time>2020-05-17T08:25:07.000Z</time>
      </trkpt>
      <trkpt lat="47.27675" lon="-2.25827">
        <ele>3</ele>
        <time>2020-05-17T08:25:11.000Z</time>
      </trkpt>
      <trkpt lat="47.27674" lon="-2.25825">
        <ele>3</ele>
        <time>2020-05-17T08:25:14.000Z</time>
      </trkpt>
      <trkpt lat="47.27669" lon="-2.25817">
        <ele>3</ele>
        <time>2020-05-17T08:25:17.000Z</time>
      </trkpt>
      <trkpt lat="47.27669" lon="-2.25811">
        <ele>3</ele>
        <time>2020-05-17T08:25:19.000Z</time>
      </trkpt>
      <trkpt lat="47.27668" lon="-2.25806">
        <ele>3</ele>
        <time>2020-05-17T08:25:21.000Z</time>
      </trkpt>
      <trkpt lat="47.27666" lon="-2.25796">
        <ele>3</ele>
        <time>2020-05-17T08:25:25.000Z</time>
      </trkpt>
      <trkpt lat="47.27666" lon="-2.25792">
        <ele>3</ele>
        <time>2020-05-17T08:25:31.000Z</time>
      </trkpt>
      <trkpt lat="47.27666" lon="-2.25792">
        <ele>3</ele>
        <time>2020-05-17T08:25:38.000Z</time>
      </trkpt>
      <trkpt lat="47.27665" lon="-2.25788">
        <ele>3</ele>
        <time>2020-05-17T08:25:43.000Z</time>
      </trkpt>
      <trkpt lat="47.27661" lon="-2.25781">
        <ele>3</ele>
        <time>2020-05-17T08:25:48.000Z</time>
      </trkpt>
      <trkpt lat="47.27655" lon="-2.25763">
        <ele>3</ele>
        <time>2020-05-17T08:25:53.000Z</time>
      </trkpt>
      <trkpt lat="47.27652" lon="-2.25758">
        <ele>3</ele>
        <time>2020-05-17T08:25:57.000Z</time>
      </trkpt>
      <trkpt lat="47.27652" lon="-2.25756">
        <ele>3</ele>
        <time>2020-05-17T08:25:58.000Z</time>
      </trkpt>
      <trkpt lat="47.27652" lon="-2.25756">
        <ele>2.5999999046326</ele>
        <time>2020-05-17T08:26:00.000Z</time>
      </trkpt>
      <trkpt lat="47.27652" lon="-2.25756">
        <ele>2.2000000476837</ele>
        <time>2020-05-17T08:26:01.000Z</time>
      </trkpt>
      <trkpt lat="47.27652" lon="-2.25756">
        <ele>1.7999999523163</ele>
        <time>2020-05-17T08:26:02.000Z</time>
      </trkpt>
      <trkpt lat="47.27651" lon="-2.25755">
        <ele>1.3999999761581</ele>
        <time>2020-05-17T08:26:03.000Z</time>
      </trkpt>
      <trkpt lat="47.2765" lon="-2.25754">
        <ele>1</ele>
        <time>2020-05-17T08:26:04.000Z</time>
      </trkpt>
      <trkpt lat="47.27647" lon="-2.25747">
        <ele>1</ele>
        <time>2020-05-17T08:26:09.000Z</time>
      </trkpt>
      <trkpt lat="47.27644" lon="-2.25727">
        <ele>1</ele>
        <time>2020-05-17T08:26:15.000Z</time>
      </trkpt>
      <trkpt lat="47.27638" lon="-2.25701">
        <ele>1</ele>
        <time>2020-05-17T08:26:21.000Z</time>
      </trkpt>
      <trkpt lat="47.27637" lon="-2.25696">
        <ele>1</ele>
        <time>2020-05-17T08:26:23.000Z</time>
      </trkpt>
      <trkpt lat="47.27637" lon="-2.25689">
        <ele>1</ele>
        <time>2020-05-17T08:26:26.000Z</time>
      </trkpt>
      <trkpt lat="47.27636" lon="-2.25682">
        <ele>1</ele>
        <time>2020-05-17T08:26:29.000Z</time>
      </trkpt>
      <trkpt lat="47.27631" lon="-2.25676">
        <ele>1</ele>
        <time>2020-05-17T08:26:31.000Z</time>
      </trkpt>
      <trkpt lat="47.27621" lon="-2.25668">
        <ele>1</ele>
        <time>2020-05-17T08:26:34.000Z</time>
      </trkpt>
      <trkpt lat="47.27614" lon="-2.25659">
        <ele>1</ele>
        <time>2020-05-17T08:26:36.000Z</time>
      </trkpt>
      <trkpt lat="47.27609" lon="-2.25655">
        <ele>1</ele>
        <time>2020-05-17T08:26:38.000Z</time>
      </trkpt>
      <trkpt lat="47.27607" lon="-2.25656">
        <ele>1</ele>
        <time>2020-05-17T08:26:39.000Z</time>
      </trkpt>
      <trkpt lat="47.27597" lon="-2.25655">
        <ele>1</ele>
        <time>2020-05-17T08:26:44.000Z</time>
      </trkpt>
      <trkpt lat="47.27588" lon="-2.25654">
        <ele>1</ele>
        <time>2020-05-17T08:26:49.000Z</time>
      </trkpt>
      <trkpt lat="47.27586" lon="-2.25653">
        <ele>1</ele>
        <time>2020-05-17T08:26:50.000Z</time>
      </trkpt>
      <trkpt lat="47.27582" lon="-2.25647">
        <ele>1</ele>
        <time>2020-05-17T08:26:54.000Z</time>
      </trkpt>
      <trkpt lat="47.27582" lon="-2.25643">
        <ele>1</ele>
        <time>2020-05-17T08:26:56.000Z</time>
      </trkpt>
      <trkpt lat="47.27582" lon="-2.25636">
        <ele>1</ele>
        <time>2020-05-17T08:26:59.000Z</time>
      </trkpt>
      <trkpt lat="47.27579" lon="-2.2563">
        <ele>1</ele>
        <time>2020-05-17T08:27:02.000Z</time>
      </trkpt>
      <trkpt lat="47.27566" lon="-2.25624">
        <ele>1</ele>
        <time>2020-05-17T08:27:06.000Z</time>
      </trkpt>
      <trkpt lat="47.27553" lon="-2.25608">
        <ele>1</ele>
        <time>2020-05-17T08:27:11.000Z</time>
      </trkpt>
      <trkpt lat="47.27551" lon="-2.25587">
        <ele>1</ele>
        <time>2020-05-17T08:27:15.000Z</time>
      </trkpt>
      <trkpt lat="47.27541" lon="-2.25548">
        <ele>1</ele>
        <time>2020-05-17T08:27:21.000Z</time>
      </trkpt>
      <trkpt lat="47.27523" lon="-2.25506">
        <ele>1</ele>
        <time>2020-05-17T08:27:27.000Z</time>
      </trkpt>
      <trkpt lat="47.27511" lon="-2.25485">
        <ele>1</ele>
        <time>2020-05-17T08:27:30.000Z</time>
      </trkpt>
      <trkpt lat="47.27502" lon="-2.25476">
        <ele>1</ele>
        <time>2020-05-17T08:27:32.000Z</time>
      </trkpt>
      <trkpt lat="47.27493" lon="-2.25468">
        <ele>1</ele>
        <time>2020-05-17T08:27:34.000Z</time>
      </trkpt>
      <trkpt lat="47.27478" lon="-2.25463">
        <ele>1</ele>
        <time>2020-05-17T08:27:37.000Z</time>
      </trkpt>
      <trkpt lat="47.27451" lon="-2.25462">
        <ele>1</ele>
        <time>2020-05-17T08:27:42.000Z</time>
      </trkpt>
      <trkpt lat="47.27432" lon="-2.25448">
        <ele>1</ele>
        <time>2020-05-17T08:27:46.000Z</time>
      </trkpt>
      <trkpt lat="47.27428" lon="-2.25443">
        <ele>1</ele>
        <time>2020-05-17T08:27:47.000Z</time>
      </trkpt>
      <trkpt lat="47.27417" lon="-2.2543">
        <ele>1</ele>
        <time>2020-05-17T08:27:50.000Z</time>
      </trkpt>
      <trkpt lat="47.27413" lon="-2.25427">
        <ele>1</ele>
        <time>2020-05-17T08:27:51.000Z</time>
      </trkpt>
      <trkpt lat="47.27404" lon="-2.25412">
        <ele>1</ele>
        <time>2020-05-17T08:27:55.000Z</time>
      </trkpt>
      <trkpt lat="47.27396" lon="-2.254">
        <ele>1</ele>
        <time>2020-05-17T08:27:59.000Z</time>
      </trkpt>
      <trkpt lat="47.27393" lon="-2.25397">
        <ele>1</ele>
        <time>2020-05-17T08:28:00.000Z</time>
      </trkpt>
      <trkpt lat="47.27391" lon="-2.25393">
        <ele>1.3999999761581</ele>
        <time>2020-05-17T08:28:01.000Z</time>
      </trkpt>
      <trkpt lat="47.2739" lon="-2.25389">
        <ele>1.7999999523163</ele>
        <time>2020-05-17T08:28:02.000Z</time>
      </trkpt>
      <trkpt lat="47.27388" lon="-2.25385">
        <ele>2.2000000476837</ele>
        <time>2020-05-17T08:28:03.000Z</time>
      </trkpt>
      <trkpt lat="47.27387" lon="-2.25382">
        <ele>2.5999999046326</ele>
        <time>2020-05-17T08:28:04.000Z</time>
      </trkpt>
      <trkpt lat="47.27388" lon="-2.25378">
        <ele>3</ele>
        <time>2020-05-17T08:28:05.000Z</time>
      </trkpt>
      <trkpt lat="47.27392" lon="-2.2537">
        <ele>3</ele>
        <time>2020-05-17T08:28:09.000Z</time>
      </trkpt>
      <trkpt lat="47.27394" lon="-2.25378">
        <ele>3</ele>
        <time>2020-05-17T08:28:14.000Z</time>
      </trkpt>
      <trkpt lat="47.27401" lon="-2.25392">
        <ele>3</ele>
        <time>2020-05-17T08:28:22.000Z</time>
      </trkpt>
      <trkpt lat="47.27402" lon="-2.25391">
        <ele>3</ele>
        <time>2020-05-17T08:28:27.000Z</time>
      </trkpt>
      <trkpt lat="47.27403" lon="-2.25388">
        <ele>3</ele>
        <time>2020-05-17T08:28:28.000Z</time>
      </trkpt>
      <trkpt lat="47.27403" lon="-2.2538">
        <ele>3</ele>
        <time>2020-05-17T08:28:32.000Z</time>
      </trkpt>
      <trkpt lat="47.27402" lon="-2.25378">
        <ele>3</ele>
        <time>2020-05-17T08:28:33.000Z</time>
      </trkpt>
      <trkpt lat="47.274" lon="-2.25374">
        <ele>3</ele>
        <time>2020-05-17T08:28:35.000Z</time>
      </trkpt>
      <trkpt lat="47.27398" lon="-2.25368">
        <ele>3</ele>
        <time>2020-05-17T08:28:38.000Z</time>
      </trkpt>
      <trkpt lat="47.27396" lon="-2.25361">
        <ele>3</ele>
        <time>2020-05-17T08:28:41.000Z</time>
      </trkpt>
      <trkpt lat="47.27395" lon="-2.25357">
        <ele>3</ele>
        <time>2020-05-17T08:28:43.000Z</time>
      </trkpt>
      <trkpt lat="47.27395" lon="-2.2534">
        <ele>3</ele>
        <time>2020-05-17T08:28:47.000Z</time>
      </trkpt>
      <trkpt lat="47.27396" lon="-2.25328">
        <ele>2.5999999046326</ele>
        <time>2020-05-17T08:28:52.000Z</time>
      </trkpt>
      <trkpt lat="47.27396" lon="-2.25328">
        <ele>2.2000000476837</ele>
        <time>2020-05-17T08:28:53.000Z</time>
      </trkpt>
      <trkpt lat="47.27396" lon="-2.25329">
        <ele>1.7999999523163</ele>
        <time>2020-05-17T08:28:54.000Z</time>
      </trkpt>
      <trkpt lat="47.27397" lon="-2.25331">
        <ele>1.2000000476837</ele>
        <time>2020-05-17T08:28:55.000Z</time>
      </trkpt>
      <trkpt lat="47.27398" lon="-2.25334">
        <ele>0.80000001192093</ele>
        <time>2020-05-17T08:28:56.000Z</time>
      </trkpt>
      <trkpt lat="47.27399" lon="-2.25337">
        <ele>0.80000001192093</ele>
        <time>2020-05-17T08:28:57.000Z</time>
      </trkpt>
      <trkpt lat="47.27404" lon="-2.25356">
        <ele>0.80000001192093</ele>
        <time>2020-05-17T08:29:02.000Z</time>
      </trkpt>
      <trkpt lat="47.2741" lon="-2.25375">
        <ele>0.80000001192093</ele>
        <time>2020-05-17T08:29:08.000Z</time>
      </trkpt>
      <trkpt lat="47.27412" lon="-2.25378">
        <ele>0.80000001192093</ele>
        <time>2020-05-17T08:29:09.000Z</time>
      </trkpt>
      <trkpt lat="47.27415" lon="-2.2538">
        <ele>0.80000001192093</ele>
        <time>2020-05-17T08:29:12.000Z</time>
      </trkpt>
      <trkpt lat="47.27416" lon="-2.25372">
        <ele>0.80000001192093</ele>
        <time>2020-05-17T08:29:17.000Z</time>
      </trkpt>
      <trkpt lat="47.27417" lon="-2.2537">
        <ele>0.80000001192093</ele>
        <time>2020-05-17T08:29:18.000Z</time>
      </trkpt>
      <trkpt lat="47.2742" lon="-2.25361">
        <ele>0.80000001192093</ele>
        <time>2020-05-17T08:29:22.000Z</time>
      </trkpt>
      <trkpt lat="47.27418" lon="-2.25347">
        <ele>0.80000001192093</ele>
        <time>2020-05-17T08:29:27.000Z</time>
      </trkpt>
      <trkpt lat="47.27418" lon="-2.25343">
        <ele>0.80000001192093</ele>
        <time>2020-05-17T08:29:28.000Z</time>
      </trkpt>
      <trkpt lat="47.27417" lon="-2.25336">
        <ele>0.80000001192093</ele>
        <time>2020-05-17T08:29:31.000Z</time>
      </trkpt>
      <trkpt lat="47.27416" lon="-2.25335">
        <ele>0.80000001192093</ele>
        <time>2020-05-17T08:29:32.000Z</time>
      </trkpt>
      <trkpt lat="47.27415" lon="-2.25336">
        <ele>0.80000001192093</ele>
        <time>2020-05-17T08:29:33.000Z</time>
      </trkpt>
      <trkpt lat="47.27415" lon="-2.25334">
        <ele>0.80000001192093</ele>
        <time>2020-05-17T08:29:37.000Z</time>
      </trkpt>
      <trkpt lat="47.27416" lon="-2.25326">
        <ele>0.80000001192093</ele>
        <time>2020-05-17T08:29:41.000Z</time>
      </trkpt>
      <trkpt lat="47.27415" lon="-2.25321">
        <ele>0.80000001192093</ele>
        <time>2020-05-17T08:29:43.000Z</time>
      </trkpt>
      <trkpt lat="47.27413" lon="-2.25319">
        <ele>0.80000001192093</ele>
        <time>2020-05-17T08:29:44.000Z</time>
      </trkpt>
      <trkpt lat="47.27412" lon="-2.25312">
        <ele>0.80000001192093</ele>
        <time>2020-05-17T08:29:47.000Z</time>
      </trkpt>
      <trkpt lat="47.27412" lon="-2.25306">
        <ele>0.80000001192093</ele>
        <time>2020-05-17T08:29:49.000Z</time>
      </trkpt>
      <trkpt lat="47.27405" lon="-2.25298">
        <ele>0.80000001192093</ele>
        <time>2020-05-17T08:29:53.000Z</time>
      </trkpt>
      <trkpt lat="47.27403" lon="-2.25297">
        <ele>0.80000001192093</ele>
        <time>2020-05-17T08:29:54.000Z</time>
      </trkpt>
      <trkpt lat="47.274" lon="-2.25295">
        <ele>0.80000001192093</ele>
        <time>2020-05-17T08:29:55.000Z</time>
      </trkpt>
      <trkpt lat="47.27395" lon="-2.25285">
        <ele>0.80000001192093</ele>
        <time>2020-05-17T08:29:58.000Z</time>
      </trkpt>
      <trkpt lat="47.27392" lon="-2.25266">
        <ele>0.80000001192093</ele>
        <time>2020-05-17T08:30:03.000Z</time>
      </trkpt>
      <trkpt lat="47.27387" lon="-2.25253">
        <ele>0.80000001192093</ele>
        <time>2020-05-17T08:30:06.000Z</time>
      </trkpt>
      <trkpt lat="47.27386" lon="-2.25243">
        <ele>0.80000001192093</ele>
        <time>2020-05-17T08:30:08.000Z</time>
      </trkpt>
      <trkpt lat="47.27387" lon="-2.25238">
        <ele>0.80000001192093</ele>
        <time>2020-05-17T08:30:09.000Z</time>
      </trkpt>
      <trkpt lat="47.27388" lon="-2.25215">
        <ele>0.80000001192093</ele>
        <time>2020-05-17T08:30:14.000Z</time>
      </trkpt>
      <trkpt lat="47.27387" lon="-2.25212">
        <ele>0.80000001192093</ele>
        <time>2020-05-17T08:30:15.000Z</time>
      </trkpt>
      <trkpt lat="47.27381" lon="-2.25191">
        <ele>0.80000001192093</ele>
        <time>2020-05-17T08:30:20.000Z</time>
      </trkpt>
      <trkpt lat="47.27368" lon="-2.25161">
        <ele>0.80000001192093</ele>
        <time>2020-05-17T08:30:26.000Z</time>
      </trkpt>
      <trkpt lat="47.2735" lon="-2.2512">
        <ele>0.80000001192093</ele>
        <time>2020-05-17T08:30:34.000Z</time>
      </trkpt>
      <trkpt lat="47.27342" lon="-2.25098">
        <ele>0.80000001192093</ele>
        <time>2020-05-17T08:30:39.000Z</time>
      </trkpt>
      <trkpt lat="47.27337" lon="-2.25089">
        <ele>0.80000001192093</ele>
        <time>2020-05-17T08:30:44.000Z</time>
      </trkpt>
      <trkpt lat="47.27335" lon="-2.25085">
        <ele>0.80000001192093</ele>
        <time>2020-05-17T08:30:49.000Z</time>
      </trkpt>
      <trkpt lat="47.27334" lon="-2.25084">
        <ele>0.80000001192093</ele>
        <time>2020-05-17T08:30:50.000Z</time>
      </trkpt>
      <trkpt lat="47.27333" lon="-2.25082">
        <ele>0.80000001192093</ele>
        <time>2020-05-17T08:30:55.000Z</time>
      </trkpt>
      <trkpt lat="47.27333" lon="-2.25082">
        <ele>0.80000001192093</ele>
        <time>2020-05-17T08:30:59.000Z</time>
      </trkpt>
      <trkpt lat="47.27333" lon="-2.25082">
        <ele>0.80000001192093</ele>
        <time>2020-05-17T08:31:13.000Z</time>
      </trkpt>
      <trkpt lat="47.27333" lon="-2.25082">
        <ele>0.80000001192093</ele>
        <time>2020-05-17T08:31:27.000Z</time>
      </trkpt>
      <trkpt lat="47.27332" lon="-2.25077">
        <ele>0.80000001192093</ele>
        <time>2020-05-17T08:31:42.000Z</time>
      </trkpt>
      <trkpt lat="47.27332" lon="-2.25077">
        <ele>0.80000001192093</ele>
        <time>2020-05-17T08:31:58.000Z</time>
      </trkpt>
      <trkpt lat="47.27332" lon="-2.25077">
        <ele>0.80000001192093</ele>
        <time>2020-05-17T08:32:11.000Z</time>
      </trkpt>
      <trkpt lat="47.27336" lon="-2.25075">
        <ele>0.80000001192093</ele>
        <time>2020-05-17T08:32:20.000Z</time>
      </trkpt>
      <trkpt lat="47.27336" lon="-2.25075">
        <ele>0.80000001192093</ele>
        <time>2020-05-17T08:32:35.000Z</time>
      </trkpt>
      <trkpt lat="47.27336" lon="-2.25075">
        <ele>0.80000001192093</ele>
        <time>2020-05-17T08:32:52.000Z</time>
      </trkpt>
      <trkpt lat="47.27336" lon="-2.25074">
        <ele>0.80000001192093</ele>
        <time>2020-05-17T08:33:10.000Z</time>
      </trkpt>
      <trkpt lat="47.27336" lon="-2.25074">
        <ele>0.40000000596046</ele>
        <time>2020-05-17T08:33:21.000Z</time>
      </trkpt>
      <trkpt lat="47.27336" lon="-2.25074">
        <ele>14.6</ele>
        <time>2020-05-17T08:33:22.000Z</time>
      </trkpt>
      <trkpt lat="47.27336" lon="-2.25074">
        <ele>-0.40000000596046</ele>
        <time>2020-05-17T08:33:23.000Z</time>
      </trkpt>
      <trkpt lat="47.27336" lon="-2.25074">
        <ele>-0.80000001192093</ele>
        <time>2020-05-17T08:33:24.000Z</time>
      </trkpt>
      <trkpt lat="47.27336" lon="-2.25074">
        <ele>-1.2000000476837</ele>
        <time>2020-05-17T08:33:25.000Z</time>
      </trkpt>
      <trkpt lat="47.27336" lon="-2.25074">
        <ele>-1.2000000476837</ele>
        <time>2020-05-17T08:33:39.000Z</time>
      </trkpt>
      <trkpt lat="47.27336" lon="-2.25074">
        <ele>-1.2000000476837</ele>
        <time>2020-05-17T08:33:55.000Z</time>
      </trkpt>
      <trkpt lat="47.27336" lon="-2.25074">
        <ele>-1.2000000476837</ele>
        <time>2020-05-17T08:34:11.000Z</time>
      </trkpt>
      <trkpt lat="47.27336" lon="-2.25073">
        <ele>-1.2000000476837</ele>
        <time>2020-05-17T08:34:26.000Z</time>
      </trkpt>
      <trkpt lat="47.27336" lon="-2.25073">
        <ele>-1.2000000476837</ele>
        <time>2020-05-17T08:34:43.000Z</time>
      </trkpt>
      <trkpt lat="47.27336" lon="-2.25073">
        <ele>-1.2000000476837</ele>
        <time>2020-05-17T08:35:01.000Z</time>
      </trkpt>
      <trkpt lat="47.27336" lon="-2.25073">
        <ele>-1.2000000476837</ele>
        <time>2020-05-17T08:35:15.000Z</time>
      </trkpt>
      <trkpt lat="47.27336" lon="-2.25073">
        <ele>-1.2000000476837</ele>
        <time>2020-05-17T08:35:31.000Z</time>
      </trkpt>
      <trkpt lat="47.27336" lon="-2.25073">
        <ele>-1.2000000476837</ele>
        <time>2020-05-17T08:35:46.000Z</time>
      </trkpt>
      <trkpt lat="47.27336" lon="-2.25073">
        <ele>-1.2000000476837</ele>
        <time>2020-05-17T08:36:03.000Z</time>
      </trkpt>
      <trkpt lat="47.27336" lon="-2.25072">
        <ele>-1.2000000476837</ele>
        <time>2020-05-17T08:36:19.000Z</time>
      </trkpt>
      <trkpt lat="47.27336" lon="-2.25072">
        <ele>-1.2000000476837</ele>
        <time>2020-05-17T08:36:35.000Z</time>
      </trkpt>
      <trkpt lat="47.27336" lon="-2.25072">
        <ele>-1.2000000476837</ele>
        <time>2020-05-17T08:36:42.000Z</time>
      </trkpt>
      <trkpt lat="47.27336" lon="-2.25072">
        <ele>-1.2000000476837</ele>
        <time>2020-05-17T08:36:53.000Z</time>
      </trkpt>
      <trkpt lat="47.27336" lon="-2.25072">
        <ele>-1.2000000476837</ele>
        <time>2020-05-17T08:37:08.000Z</time>
      </trkpt>
      <trkpt lat="47.27336" lon="-2.25072">
        <ele>-1.2000000476837</ele>
        <time>2020-05-17T08:37:25.000Z</time>
      </trkpt>
      <trkpt lat="47.27336" lon="-2.25073">
        <ele>-1.2000000476837</ele>
        <time>2020-05-17T08:37:41.000Z</time>
      </trkpt>
      <trkpt lat="47.27336" lon="-2.25073">
        <ele>-1.2000000476837</ele>
        <time>2020-05-17T08:37:53.000Z</time>
      </trkpt>
      <trkpt lat="47.27336" lon="-2.25073">
        <ele>-1.2000000476837</ele>
        <time>2020-05-17T08:38:07.000Z</time>
      </trkpt>
      <trkpt lat="47.27336" lon="-2.25073">
        <ele>-1.2000000476837</ele>
        <time>2020-05-17T08:38:23.000Z</time>
      </trkpt>
      <trkpt lat="47.27336" lon="-2.25073">
        <ele>-1.2000000476837</ele>
        <time>2020-05-17T08:38:39.000Z</time>
      </trkpt>
      <trkpt lat="47.27336" lon="-2.25073">
        <ele>-1.2000000476837</ele>
        <time>2020-05-17T08:38:54.000Z</time>
      </trkpt>
      <trkpt lat="47.27336" lon="-2.25072">
        <ele>-1.2000000476837</ele>
        <time>2020-05-17T08:39:08.000Z</time>
      </trkpt>
      <trkpt lat="47.27336" lon="-2.25072">
        <ele>-1.2000000476837</ele>
        <time>2020-05-17T08:39:24.000Z</time>
      </trkpt>
      <trkpt lat="47.27337" lon="-2.25073">
        <ele>-1.2000000476837</ele>
        <time>2020-05-17T08:39:38.000Z</time>
      </trkpt>
      <trkpt lat="47.27337" lon="-2.25073">
        <ele>-1.2000000476837</ele>
        <time>2020-05-17T08:39:52.000Z</time>
      </trkpt>
      <trkpt lat="47.27337" lon="-2.25073">
        <ele>-1.2000000476837</ele>
        <time>2020-05-17T08:40:08.000Z</time>
      </trkpt>
      <trkpt lat="47.27337" lon="-2.25073">
        <ele>-1.2000000476837</ele>
        <time>2020-05-17T08:40:22.000Z</time>
      </trkpt>
      <trkpt lat="47.27337" lon="-2.25073">
        <ele>-1.2000000476837</ele>
        <time>2020-05-17T08:40:23.000Z</time>
      </trkpt>
      <trkpt lat="47.27337" lon="-2.25073">
        <ele>-1.2000000476837</ele>
        <time>2020-05-17T08:40:40.000Z</time>
      </trkpt>
      <trkpt lat="47.27337" lon="-2.25073">
        <ele>-1.2000000476837</ele>
        <time>2020-05-17T08:40:58.000Z</time>
      </trkpt>
      <trkpt lat="47.27337" lon="-2.25073">
        <ele>-1.2000000476837</ele>
        <time>2020-05-17T08:41:13.000Z</time>
      </trkpt>
      <trkpt lat="47.27337" lon="-2.25073">
        <ele>-1.2000000476837</ele>
        <time>2020-05-17T08:41:28.000Z</time>
      </trkpt>
      <trkpt lat="47.27337" lon="-2.25073">
        <ele>-1.2000000476837</ele>
        <time>2020-05-17T08:41:46.000Z</time>
      </trkpt>
      <trkpt lat="47.27337" lon="-2.25073">
        <ele>-1.2000000476837</ele>
        <time>2020-05-17T08:42:00.000Z</time>
      </trkpt>
      <trkpt lat="47.27337" lon="-2.25073">
        <ele>-1.2000000476837</ele>
        <time>2020-05-17T08:42:01.000Z</time>
      </trkpt>
      <trkpt lat="47.27337" lon="-2.25073">
        <ele>-1.2000000476837</ele>
        <time>2020-05-17T08:42:19.000Z</time>
      </trkpt>
      <trkpt lat="47.27337" lon="-2.25073">
        <ele>-1.2000000476837</ele>
        <time>2020-05-17T08:42:36.000Z</time>
      </trkpt>
      <trkpt lat="47.27337" lon="-2.25073">
        <ele>-1.2000000476837</ele>
        <time>2020-05-17T08:42:52.000Z</time>
      </trkpt>
      <trkpt lat="47.27337" lon="-2.25074">
        <ele>-1.2000000476837</ele>
        <time>2020-05-17T08:43:08.000Z</time>
      </trkpt>
      <trkpt lat="47.27337" lon="-2.25074">
        <ele>-1.2000000476837</ele>
        <time>2020-05-17T08:43:23.000Z</time>
      </trkpt>
      <trkpt lat="47.27337" lon="-2.25074">
        <ele>-1.2000000476837</ele>
        <time>2020-05-17T08:43:39.000Z</time>
      </trkpt>
      <trkpt lat="47.27337" lon="-2.25074">
        <ele>-1.2000000476837</ele>
        <time>2020-05-17T08:43:55.000Z</time>
      </trkpt>
      <trkpt lat="47.27337" lon="-2.25074">
        <ele>-1.2000000476837</ele>
        <time>2020-05-17T08:44:12.000Z</time>
      </trkpt>
      <trkpt lat="47.27337" lon="-2.25074">
        <ele>-1.2000000476837</ele>
        <time>2020-05-17T08:44:20.000Z</time>
      </trkpt>
      <trkpt lat="47.27337" lon="-2.25074">
        <ele>-1.2000000476837</ele>
        <time>2020-05-17T08:44:30.000Z</time>
      </trkpt>
      <trkpt lat="47.27337" lon="-2.25074">
        <ele>-1.2000000476837</ele>
        <time>2020-05-17T08:44:44.000Z</time>
      </trkpt>
      <trkpt lat="47.27337" lon="-2.25074">
        <ele>-1.2000000476837</ele>
        <time>2020-05-17T08:44:58.000Z</time>
      </trkpt>
      <trkpt lat="47.27337" lon="-2.25074">
        <ele>-1.2000000476837</ele>
        <time>2020-05-17T08:45:10.000Z</time>
      </trkpt>
      <trkpt lat="47.27338" lon="-2.25073">
        <ele>-1.2000000476837</ele>
        <time>2020-05-17T08:45:23.000Z</time>
      </trkpt>
      <trkpt lat="47.27338" lon="-2.25073">
        <ele>-1.2000000476837</ele>
        <time>2020-05-17T08:45:35.000Z</time>
      </trkpt>
      <trkpt lat="47.27338" lon="-2.25073">
        <ele>-1.2000000476837</ele>
        <time>2020-05-17T08:45:52.000Z</time>
      </trkpt>
      <trkpt lat="47.27338" lon="-2.25073">
        <ele>-1.2000000476837</ele>
        <time>2020-05-17T08:46:10.000Z</time>
      </trkpt>
      <trkpt lat="47.27338" lon="-2.25073">
        <ele>-1.2000000476837</ele>
        <time>2020-05-17T08:46:15.000Z</time>
      </trkpt>
      <trkpt lat="47.27338" lon="-2.25073">
        <ele>-1.2000000476837</ele>
        <time>2020-05-17T08:46:30.000Z</time>
      </trkpt>
      <trkpt lat="47.27338" lon="-2.25073">
        <ele>-1.2000000476837</ele>
        <time>2020-05-17T08:46:46.000Z</time>
      </trkpt>
      <trkpt lat="47.27339" lon="-2.25073">
        <ele>-1.2000000476837</ele>
        <time>2020-05-17T08:46:59.000Z</time>
      </trkpt>
      <trkpt lat="47.27339" lon="-2.25072">
        <ele>-1.2000000476837</ele>
        <time>2020-05-17T08:47:06.000Z</time>
      </trkpt>
      <trkpt lat="47.2734" lon="-2.25072">
        <ele>-1.2000000476837</ele>
        <time>2020-05-17T08:47:15.000Z</time>
      </trkpt>
      <trkpt lat="47.27341" lon="-2.25071">
        <ele>-1.2000000476837</ele>
        <time>2020-05-17T08:47:22.000Z</time>
      </trkpt>
      <trkpt lat="47.27341" lon="-2.25063">
        <ele>-1.2000000476837</ele>
        <time>2020-05-17T08:47:29.000Z</time>
      </trkpt>
      <trkpt lat="47.27341" lon="-2.25062">
        <ele>-1.2000000476837</ele>
        <time>2020-05-17T08:47:30.000Z</time>
      </trkpt>
      <trkpt lat="47.27342" lon="-2.25047">
        <ele>-1.2000000476837</ele>
        <time>2020-05-17T08:47:34.000Z</time>
      </trkpt>
      <trkpt lat="47.2735" lon="-2.25023">
        <ele>-1.2000000476837</ele>
        <time>2020-05-17T08:47:39.000Z</time>
      </trkpt>
      <trkpt lat="47.27371" lon="-2.24987">
        <ele>-1.2000000476837</ele>
        <time>2020-05-17T08:47:48.000Z</time>
      </trkpt>
      <trkpt lat="47.27388" lon="-2.24972">
        <ele>-1.2000000476837</ele>
        <time>2020-05-17T08:47:54.000Z</time>
      </trkpt>
      <trkpt lat="47.2741" lon="-2.24963">
        <ele>-1.2000000476837</ele>
        <time>2020-05-17T08:48:01.000Z</time>
      </trkpt>
      <trkpt lat="47.27424" lon="-2.24951">
        <ele>-1.2000000476837</ele>
        <time>2020-05-17T08:48:06.000Z</time>
      </trkpt>
      <trkpt lat="47.27433" lon="-2.24953">
        <ele>-1.2000000476837</ele>
        <time>2020-05-17T08:48:08.000Z</time>
      </trkpt>
      <trkpt lat="47.27437" lon="-2.24955">
        <ele>-1.2000000476837</ele>
        <time>2020-05-17T08:48:09.000Z</time>
      </trkpt>
      <trkpt lat="47.27468" lon="-2.24976">
        <ele>-1.2000000476837</ele>
        <time>2020-05-17T08:48:16.000Z</time>
      </trkpt>
      <trkpt lat="47.2749" lon="-2.24992">
        <ele>-1.2000000476837</ele>
        <time>2020-05-17T08:48:21.000Z</time>
      </trkpt>
      <trkpt lat="47.27495" lon="-2.24996">
        <ele>-1.2000000476837</ele>
        <time>2020-05-17T08:48:22.000Z</time>
      </trkpt>
      <trkpt lat="47.27513" lon="-2.25013">
        <ele>-1.2000000476837</ele>
        <time>2020-05-17T08:48:27.000Z</time>
      </trkpt>
      <trkpt lat="47.27524" lon="-2.25024">
        <ele>-1.2000000476837</ele>
        <time>2020-05-17T08:48:30.000Z</time>
      </trkpt>
      <trkpt lat="47.27535" lon="-2.25038">
        <ele>-1.2000000476837</ele>
        <time>2020-05-17T08:48:33.000Z</time>
      </trkpt>
      <trkpt lat="47.27553" lon="-2.25059">
        <ele>-1.2000000476837</ele>
        <time>2020-05-17T08:48:38.000Z</time>
      </trkpt>
      <trkpt lat="47.27557" lon="-2.25063">
        <ele>-1.2000000476837</ele>
        <time>2020-05-17T08:48:39.000Z</time>
      </trkpt>
      <trkpt lat="47.2757" lon="-2.25068">
        <ele>-1.2000000476837</ele>
        <time>2020-05-17T08:48:42.000Z</time>
      </trkpt>
      <trkpt lat="47.27596" lon="-2.25083">
        <ele>-1.2000000476837</ele>
        <time>2020-05-17T08:48:49.000Z</time>
      </trkpt>
      <trkpt lat="47.27612" lon="-2.25094">
        <ele>-1.2000000476837</ele>
        <time>2020-05-17T08:48:54.000Z</time>
      </trkpt>
      <trkpt lat="47.27637" lon="-2.25098">
        <ele>-1.2000000476837</ele>
        <time>2020-05-17T08:49:00.000Z</time>
      </trkpt>
      <trkpt lat="47.27665" lon="-2.25089">
        <ele>-1.2000000476837</ele>
        <time>2020-05-17T08:49:06.000Z</time>
      </trkpt>
      <trkpt lat="47.27683" lon="-2.25085">
        <ele>-1.2000000476837</ele>
        <time>2020-05-17T08:49:10.000Z</time>
      </trkpt>
      <trkpt lat="47.27687" lon="-2.25083">
        <ele>-1.2000000476837</ele>
        <time>2020-05-17T08:49:11.000Z</time>
      </trkpt>
      <trkpt lat="47.27707" lon="-2.25068">
        <ele>-1.2000000476837</ele>
        <time>2020-05-17T08:49:16.000Z</time>
      </trkpt>
      <trkpt lat="47.27727" lon="-2.25052">
        <ele>-1.2000000476837</ele>
        <time>2020-05-17T08:49:22.000Z</time>
      </trkpt>
      <trkpt lat="47.27739" lon="-2.25042">
        <ele>-1.2000000476837</ele>
        <time>2020-05-17T08:49:25.000Z</time>
      </trkpt>
      <trkpt lat="47.27747" lon="-2.25037">
        <ele>-1.2000000476837</ele>
        <time>2020-05-17T08:49:27.000Z</time>
      </trkpt>
      <trkpt lat="47.27772" lon="-2.25023">
        <ele>-1.2000000476837</ele>
        <time>2020-05-17T08:49:33.000Z</time>
      </trkpt>
      <trkpt lat="47.27796" lon="-2.25028">
        <ele>-1.2000000476837</ele>
        <time>2020-05-17T08:49:38.000Z</time>
      </trkpt>
      <trkpt lat="47.27805" lon="-2.25033">
        <ele>-1.2000000476837</ele>
        <time>2020-05-17T08:49:40.000Z</time>
      </trkpt>
      <trkpt lat="47.27823" lon="-2.25041">
        <ele>-1.2000000476837</ele>
        <time>2020-05-17T08:49:43.000Z</time>
      </trkpt>
      <trkpt lat="47.27844" lon="-2.25053">
        <ele>-1.2000000476837</ele>
        <time>2020-05-17T08:49:47.000Z</time>
      </trkpt>
      <trkpt lat="47.27854" lon="-2.25057">
        <ele>-1.2000000476837</ele>
        <time>2020-05-17T08:49:49.000Z</time>
      </trkpt>
      <trkpt lat="47.27875" lon="-2.25066">
        <ele>-1.2000000476837</ele>
        <time>2020-05-17T08:49:53.000Z</time>
      </trkpt>
      <trkpt lat="47.2788" lon="-2.2507">
        <ele>-1.2000000476837</ele>
        <time>2020-05-17T08:49:54.000Z</time>
      </trkpt>
      <trkpt lat="47.27899" lon="-2.25083">
        <ele>-1.2000000476837</ele>
        <time>2020-05-17T08:49:58.000Z</time>
      </trkpt>
      <trkpt lat="47.27914" lon="-2.2508">
        <ele>-1.2000000476837</ele>
        <time>2020-05-17T08:50:01.000Z</time>
      </trkpt>
      <trkpt lat="47.27928" lon="-2.25075">
        <ele>-1.2000000476837</ele>
        <time>2020-05-17T08:50:04.000Z</time>
      </trkpt>
      <trkpt lat="47.27933" lon="-2.25075">
        <ele>-1.2000000476837</ele>
        <time>2020-05-17T08:50:05.000Z</time>
      </trkpt>
      <trkpt lat="47.27938" lon="-2.25075">
        <ele>-1.2000000476837</ele>
        <time>2020-05-17T08:50:06.000Z</time>
      </trkpt>
      <trkpt lat="47.27962" lon="-2.25073">
        <ele>-1.2000000476837</ele>
        <time>2020-05-17T08:50:11.000Z</time>
      </trkpt>
      <trkpt lat="47.27966" lon="-2.25074">
        <ele>-1.2000000476837</ele>
        <time>2020-05-17T08:50:12.000Z</time>
      </trkpt>
      <trkpt lat="47.27973" lon="-2.25073">
        <ele>-1.2000000476837</ele>
        <time>2020-05-17T08:50:15.000Z</time>
      </trkpt>
      <trkpt lat="47.27976" lon="-2.25073">
        <ele>-1.2000000476837</ele>
        <time>2020-05-17T08:50:17.000Z</time>
      </trkpt>
      <trkpt lat="47.27982" lon="-2.25072">
        <ele>-1.2000000476837</ele>
        <time>2020-05-17T08:50:21.000Z</time>
      </trkpt>
      <trkpt lat="47.27989" lon="-2.25076">
        <ele>-1.2000000476837</ele>
        <time>2020-05-17T08:50:24.000Z</time>
      </trkpt>
      <trkpt lat="47.28012" lon="-2.25092">
        <ele>-1.2000000476837</ele>
        <time>2020-05-17T08:50:32.000Z</time>
      </trkpt>
      <trkpt lat="47.28022" lon="-2.251">
        <ele>-1.2000000476837</ele>
        <time>2020-05-17T08:50:38.000Z</time>
      </trkpt>
      <trkpt lat="47.28025" lon="-2.25101">
        <ele>-1.2000000476837</ele>
        <time>2020-05-17T08:50:43.000Z</time>
      </trkpt>
      <trkpt lat="47.28029" lon="-2.25104">
        <ele>-1.2000000476837</ele>
        <time>2020-05-17T08:50:48.000Z</time>
      </trkpt>
      <trkpt lat="47.28039" lon="-2.25111">
        <ele>-1.2000000476837</ele>
        <time>2020-05-17T08:50:55.000Z</time>
      </trkpt>
      <trkpt lat="47.28054" lon="-2.25123">
        <ele>-1.2000000476837</ele>
        <time>2020-05-17T08:51:02.000Z</time>
      </trkpt>
      <trkpt lat="47.28074" lon="-2.2514">
        <ele>-1.2000000476837</ele>
        <time>2020-05-17T08:51:09.000Z</time>
      </trkpt>
      <trkpt lat="47.28096" lon="-2.25165">
        <ele>-1.2000000476837</ele>
        <time>2020-05-17T08:51:16.000Z</time>
      </trkpt>
      <trkpt lat="47.281" lon="-2.25175">
        <ele>-1.2000000476837</ele>
        <time>2020-05-17T08:51:18.000Z</time>
      </trkpt>
      <trkpt lat="47.28102" lon="-2.25188">
        <ele>-1.2000000476837</ele>
        <time>2020-05-17T08:51:20.000Z</time>
      </trkpt>
      <trkpt lat="47.28099" lon="-2.25216">
        <ele>-1.2000000476837</ele>
        <time>2020-05-17T08:51:24.000Z</time>
      </trkpt>
      <trkpt lat="47.28098" lon="-2.25222">
        <ele>-1.2000000476837</ele>
        <time>2020-05-17T08:51:25.000Z</time>
      </trkpt>
      <trkpt lat="47.28089" lon="-2.25258">
        <ele>-1.2000000476837</ele>
        <time>2020-05-17T08:51:30.000Z</time>
      </trkpt>
      <trkpt lat="47.28085" lon="-2.25275">
        <ele>-1.2000000476837</ele>
        <time>2020-05-17T08:51:32.000Z</time>
      </trkpt>
      <trkpt lat="47.28083" lon="-2.253">
        <ele>-1.2000000476837</ele>
        <time>2020-05-17T08:51:35.000Z</time>
      </trkpt>
      <trkpt lat="47.28083" lon="-2.25346">
        <ele>-1.2000000476837</ele>
        <time>2020-05-17T08:51:41.000Z</time>
      </trkpt>
      <trkpt lat="47.28085" lon="-2.25353">
        <ele>-1.2000000476837</ele>
        <time>2020-05-17T08:51:42.000Z</time>
      </trkpt>
      <trkpt lat="47.28095" lon="-2.25391">
        <ele>-1.2000000476837</ele>
        <time>2020-05-17T08:51:48.000Z</time>
      </trkpt>
      <trkpt lat="47.28095" lon="-2.25414">
        <ele>-1.2000000476837</ele>
        <time>2020-05-17T08:51:52.000Z</time>
      </trkpt>
      <trkpt lat="47.28092" lon="-2.25434">
        <ele>-1.2000000476837</ele>
        <time>2020-05-17T08:51:55.000Z</time>
      </trkpt>
      <trkpt lat="47.2809" lon="-2.25448">
        <ele>-1.2000000476837</ele>
        <time>2020-05-17T08:51:57.000Z</time>
      </trkpt>
      <trkpt lat="47.28092" lon="-2.2547">
        <ele>-1.2000000476837</ele>
        <time>2020-05-17T08:52:01.000Z</time>
      </trkpt>
      <trkpt lat="47.28095" lon="-2.25472">
        <ele>-1.2000000476837</ele>
        <time>2020-05-17T08:52:02.000Z</time>
      </trkpt>
      <trkpt lat="47.28104" lon="-2.25471">
        <ele>-1.2000000476837</ele>
        <time>2020-05-17T08:52:06.000Z</time>
      </trkpt>
      <trkpt lat="47.28113" lon="-2.25466">
        <ele>-1.2000000476837</ele>
        <time>2020-05-17T08:52:10.000Z</time>
      </trkpt>
      <trkpt lat="47.28116" lon="-2.25463">
        <ele>-1.2000000476837</ele>
        <time>2020-05-17T08:52:11.000Z</time>
      </trkpt>
      <trkpt lat="47.28123" lon="-2.25457">
        <ele>-0.80000001192093</ele>
        <time>2020-05-17T08:52:13.000Z</time>
      </trkpt>
      <trkpt lat="47.28126" lon="-2.25455">
        <ele>-0.40000000596046</ele>
        <time>2020-05-17T08:52:14.000Z</time>
      </trkpt>
      <trkpt lat="47.28131" lon="-2.25452">
        <ele>16.6</ele>
        <time>2020-05-17T08:52:15.000Z</time>
      </trkpt>
      <trkpt lat="47.28135" lon="-2.25451">
        <ele>0.60000002384186</ele>
        <time>2020-05-17T08:52:16.000Z</time>
      </trkpt>
      <trkpt lat="47.28138" lon="-2.2545">
        <ele>1</ele>
        <time>2020-05-17T08:52:17.000Z</time>
      </trkpt>
      <trkpt lat="47.2815" lon="-2.25442">
        <ele>1</ele>
        <time>2020-05-17T08:52:21.000Z</time>
      </trkpt>
      <trkpt lat="47.28164" lon="-2.25435">
        <ele>1</ele>
        <time>2020-05-17T08:52:26.000Z</time>
      </trkpt>
      <trkpt lat="47.28179" lon="-2.25423">
        <ele>1.3999999761581</ele>
        <time>2020-05-17T08:52:31.000Z</time>
      </trkpt>
      <trkpt lat="47.28182" lon="-2.25422">
        <ele>1.7999999523163</ele>
        <time>2020-05-17T08:52:32.000Z</time>
      </trkpt>
      <trkpt lat="47.28185" lon="-2.2542">
        <ele>2.2000000476837</ele>
        <time>2020-05-17T08:52:33.000Z</time>
      </trkpt>
      <trkpt lat="47.28188" lon="-2.25418">
        <ele>2.5999999046326</ele>
        <time>2020-05-17T08:52:34.000Z</time>
      </trkpt>
      <trkpt lat="47.28191" lon="-2.25415">
        <ele>3</ele>
        <time>2020-05-17T08:52:35.000Z</time>
      </trkpt>
      <trkpt lat="47.28194" lon="-2.25413">
        <ele>3</ele>
        <time>2020-05-17T08:52:36.000Z</time>
      </trkpt>
      <trkpt lat="47.28208" lon="-2.25403">
        <ele>3.4000000953674</ele>
        <time>2020-05-17T08:52:40.000Z</time>
      </trkpt>
      <trkpt lat="47.28211" lon="-2.25401">
        <ele>3.7999999523163</ele>
        <time>2020-05-17T08:52:41.000Z</time>
      </trkpt>
      <trkpt lat="47.28215" lon="-2.25399">
        <ele>4.1999998092651</ele>
        <time>2020-05-17T08:52:42.000Z</time>
      </trkpt>
      <trkpt lat="47.28218" lon="-2.25397">
        <ele>4.5999999046326</ele>
        <time>2020-05-17T08:52:43.000Z</time>
      </trkpt>
      <trkpt lat="47.2822" lon="-2.25395">
        <ele>5.1999998092651</ele>
        <time>2020-05-17T08:52:44.000Z</time>
      </trkpt>
      <trkpt lat="47.28229" lon="-2.25387">
        <ele>5.1999998092651</ele>
        <time>2020-05-17T08:52:49.000Z</time>
      </trkpt>
      <trkpt lat="47.28231" lon="-2.25385">
        <ele>5.1999998092651</ele>
        <time>2020-05-17T08:52:50.000Z</time>
      </trkpt>
      <trkpt lat="47.28237" lon="-2.2538">
        <ele>5.5999999046326</ele>
        <time>2020-05-17T08:52:53.000Z</time>
      </trkpt>
      <trkpt lat="47.28239" lon="-2.25379">
        <ele>6</ele>
        <time>2020-05-17T08:52:54.000Z</time>
      </trkpt>
      <trkpt lat="47.28241" lon="-2.25378">
        <ele>6.4000000953674</ele>
        <time>2020-05-17T08:52:55.000Z</time>
      </trkpt>
      <trkpt lat="47.28243" lon="-2.25377">
        <ele>6.8000001907349</ele>
        <time>2020-05-17T08:52:56.000Z</time>
      </trkpt>
      <trkpt lat="47.28245" lon="-2.25375">
        <ele>7.1999998092651</ele>
        <time>2020-05-17T08:52:57.000Z</time>
      </trkpt>
      <trkpt lat="47.28258" lon="-2.25367">
        <ele>7.1999998092651</ele>
        <time>2020-05-17T08:53:02.000Z</time>
      </trkpt>
      <trkpt lat="47.2828" lon="-2.25365">
        <ele>7.5999999046326</ele>
        <time>2020-05-17T08:53:09.000Z</time>
      </trkpt>
      <trkpt lat="47.28283" lon="-2.25364">
        <ele>8</ele>
        <time>2020-05-17T08:53:10.000Z</time>
      </trkpt>
      <trkpt lat="47.28287" lon="-2.25363">
        <ele>8.3999996185303</ele>
        <time>2020-05-17T08:53:11.000Z</time>
      </trkpt>
      <trkpt lat="47.2829" lon="-2.25362">
        <ele>9</ele>
        <time>2020-05-17T08:53:12.000Z</time>
      </trkpt>
      <trkpt lat="47.28293" lon="-2.2536">
        <ele>9.3999996185303</ele>
        <time>2020-05-17T08:53:13.000Z</time>
      </trkpt>
      <trkpt lat="47.28302" lon="-2.25356">
        <ele>9.3999996185303</ele>
        <time>2020-05-17T08:53:16.000Z</time>
      </trkpt>
      <trkpt lat="47.28318" lon="-2.25352">
        <ele>9.3999996185303</ele>
        <time>2020-05-17T08:53:21.000Z</time>
      </trkpt>
      <trkpt lat="47.28324" lon="-2.25349">
        <ele>9.8000001907349</ele>
        <time>2020-05-17T08:53:23.000Z</time>
      </trkpt>
      <trkpt lat="47.28327" lon="-2.25346">
        <ele>10.199999809265</ele>
        <time>2020-05-17T08:53:24.000Z</time>
      </trkpt>
      <trkpt lat="47.28331" lon="-2.25343">
        <ele>11</ele>
        <time>2020-05-17T08:53:25.000Z</time>
      </trkpt>
      <trkpt lat="47.28335" lon="-2.2534">
        <ele>11.39999961853</ele>
        <time>2020-05-17T08:53:26.000Z</time>
      </trkpt>
      <trkpt lat="47.28356" lon="-2.25326">
        <ele>11.39999961853</ele>
        <time>2020-05-17T08:53:32.000Z</time>
      </trkpt>
      <trkpt lat="47.28373" lon="-2.25316">
        <ele>11.39999961853</ele>
        <time>2020-05-17T08:53:37.000Z</time>
      </trkpt>
      <trkpt lat="47.2838" lon="-2.25316">
        <ele>11.39999961853</ele>
        <time>2020-05-17T08:53:39.000Z</time>
      </trkpt>
      <trkpt lat="47.28386" lon="-2.25315">
        <ele>11.39999961853</ele>
        <time>2020-05-17T08:53:41.000Z</time>
      </trkpt>
      <trkpt lat="47.28392" lon="-2.25299">
        <ele>11.39999961853</ele>
        <time>2020-05-17T08:53:44.000Z</time>
      </trkpt>
      <trkpt lat="47.28394" lon="-2.25292">
        <ele>11.39999961853</ele>
        <time>2020-05-17T08:53:45.000Z</time>
      </trkpt>
      <trkpt lat="47.28397" lon="-2.25286">
        <ele>11.39999961853</ele>
        <time>2020-05-17T08:53:46.000Z</time>
      </trkpt>
      <trkpt lat="47.28406" lon="-2.2527">
        <ele>11.39999961853</ele>
        <time>2020-05-17T08:53:49.000Z</time>
      </trkpt>
      <trkpt lat="47.28415" lon="-2.25243">
        <ele>11.39999961853</ele>
        <time>2020-05-17T08:53:53.000Z</time>
      </trkpt>
      <trkpt lat="47.28416" lon="-2.25235">
        <ele>11.39999961853</ele>
        <time>2020-05-17T08:53:54.000Z</time>
      </trkpt>
      <trkpt lat="47.28421" lon="-2.2521">
        <ele>11</ele>
        <time>2020-05-17T08:53:57.000Z</time>
      </trkpt>
      <trkpt lat="47.28422" lon="-2.252">
        <ele>10.60000038147</ele>
        <time>2020-05-17T08:53:58.000Z</time>
      </trkpt>
      <trkpt lat="47.28424" lon="-2.25191">
        <ele>10.199999809265</ele>
        <time>2020-05-17T08:53:59.000Z</time>
      </trkpt>
      <trkpt lat="47.28425" lon="-2.25181">
        <ele>9.8000001907349</ele>
        <time>2020-05-17T08:54:00.000Z</time>
      </trkpt>
      <trkpt lat="47.28426" lon="-2.2517">
        <ele>9.3999996185303</ele>
        <time>2020-05-17T08:54:01.000Z</time>
      </trkpt>
      <trkpt lat="47.28427" lon="-2.25159">
        <ele>8.8000001907349</ele>
        <time>2020-05-17T08:54:02.000Z</time>
      </trkpt>
      <trkpt lat="47.28429" lon="-2.25148">
        <ele>8.3999996185303</ele>
        <time>2020-05-17T08:54:03.000Z</time>
      </trkpt>
      <trkpt lat="47.28431" lon="-2.25137">
        <ele>8</ele>
        <time>2020-05-17T08:54:04.000Z</time>
      </trkpt>
      <trkpt lat="47.28433" lon="-2.25126">
        <ele>7.4000000953674</ele>
        <time>2020-05-17T08:54:05.000Z</time>
      </trkpt>
      <trkpt lat="47.28434" lon="-2.25116">
        <ele>7</ele>
        <time>2020-05-17T08:54:06.000Z</time>
      </trkpt>
      <trkpt lat="47.28435" lon="-2.25107">
        <ele>6.5999999046326</ele>
        <time>2020-05-17T08:54:07.000Z</time>
      </trkpt>
      <trkpt lat="47.28436" lon="-2.25099">
        <ele>6</ele>
        <time>2020-05-17T08:54:08.000Z</time>
      </trkpt>
      <trkpt lat="47.28435" lon="-2.25092">
        <ele>5.5999999046326</ele>
        <time>2020-05-17T08:54:09.000Z</time>
      </trkpt>
      <trkpt lat="47.28433" lon="-2.25087">
        <ele>5</ele>
        <time>2020-05-17T08:54:10.000Z</time>
      </trkpt>
      <trkpt lat="47.28429" lon="-2.25084">
        <ele>4.4000000953674</ele>
        <time>2020-05-17T08:54:11.000Z</time>
      </trkpt>
      <trkpt lat="47.28425" lon="-2.25084">
        <ele>3.5999999046326</ele>
        <time>2020-05-17T08:54:12.000Z</time>
      </trkpt>
      <trkpt lat="47.2842" lon="-2.25085">
        <ele>3</ele>
        <time>2020-05-17T08:54:13.000Z</time>
      </trkpt>
      <trkpt lat="47.28416" lon="-2.25085">
        <ele>2</ele>
        <time>2020-05-17T08:54:14.000Z</time>
      </trkpt>
      <trkpt lat="47.28412" lon="-2.25085">
        <ele>1.3999999761581</ele>
        <time>2020-05-17T08:54:15.000Z</time>
      </trkpt>
      <trkpt lat="47.28409" lon="-2.25083">
        <ele>1</ele>
        <time>2020-05-17T08:54:16.000Z</time>
      </trkpt>
      <trkpt lat="47.28406" lon="-2.2508">
        <ele>0.60000002384186</ele>
        <time>2020-05-17T08:54:17.000Z</time>
      </trkpt>
      <trkpt lat="47.28404" lon="-2.25075">
        <ele>0.20000000298023</ele>
        <time>2020-05-17T08:54:18.000Z</time>
      </trkpt>
      <trkpt lat="47.28402" lon="-2.25069">
        <ele>0.20000000298023</ele>
        <time>2020-05-17T08:54:19.000Z</time>
      </trkpt>
      <trkpt lat="47.28401" lon="-2.25061">
        <ele>0.20000000298023</ele>
        <time>2020-05-17T08:54:20.000Z</time>
      </trkpt>
      <trkpt lat="47.28397" lon="-2.25032">
        <ele>0.20000000298023</ele>
        <time>2020-05-17T08:54:23.000Z</time>
      </trkpt>
      <trkpt lat="47.28392" lon="-2.24968">
        <ele>-0.20000000298023</ele>
        <time>2020-05-17T08:54:28.000Z</time>
      </trkpt>
      <trkpt lat="47.28391" lon="-2.24954">
        <ele>-0.80000001192093</ele>
        <time>2020-05-17T08:54:29.000Z</time>
      </trkpt>
      <trkpt lat="47.2839" lon="-2.24941">
        <ele>-1.2000000476837</ele>
        <time>2020-05-17T08:54:30.000Z</time>
      </trkpt>
      <trkpt lat="47.28389" lon="-2.24927">
        <ele>-1.6000000238419</ele>
        <time>2020-05-17T08:54:31.000Z</time>
      </trkpt>
      <trkpt lat="47.28389" lon="-2.24914">
        <ele>-2</ele>
        <time>2020-05-17T08:54:32.000Z</time>
      </trkpt>
      <trkpt lat="47.28388" lon="-2.249">
        <ele>-2.5999999046326</ele>
        <time>2020-05-17T08:54:33.000Z</time>
      </trkpt>
      <trkpt lat="47.28387" lon="-2.24887">
        <ele>-3</ele>
        <time>2020-05-17T08:54:34.000Z</time>
      </trkpt>
      <trkpt lat="47.28386" lon="-2.24874">
        <ele>-3.5999999046326</ele>
        <time>2020-05-17T08:54:35.000Z</time>
      </trkpt>
      <trkpt lat="47.28385" lon="-2.24863">
        <ele>-4</ele>
        <time>2020-05-17T08:54:36.000Z</time>
      </trkpt>
      <trkpt lat="47.28384" lon="-2.24844">
        <ele>-4.4000000953674</ele>
        <time>2020-05-17T08:54:38.000Z</time>
      </trkpt>
      <trkpt lat="47.28385" lon="-2.24838">
        <ele>-5.1999998092651</ele>
        <time>2020-05-17T08:54:39.000Z</time>
      </trkpt>
      <trkpt lat="47.28387" lon="-2.24834">
        <ele>-5.5999999046326</ele>
        <time>2020-05-17T08:54:40.000Z</time>
      </trkpt>
      <trkpt lat="47.2839" lon="-2.24832">
        <ele>-6</ele>
        <time>2020-05-17T08:54:41.000Z</time>
      </trkpt>
      <trkpt lat="47.28406" lon="-2.24824">
        <ele>-6.4000000953674</ele>
        <time>2020-05-17T08:54:45.000Z</time>
      </trkpt>
      <trkpt lat="47.28411" lon="-2.24821">
        <ele>-6.8000001907349</ele>
        <time>2020-05-17T08:54:46.000Z</time>
      </trkpt>
      <trkpt lat="47.28416" lon="-2.24819">
        <ele>-7.1999998092651</ele>
        <time>2020-05-17T08:54:47.000Z</time>
      </trkpt>
      <trkpt lat="47.28421" lon="-2.24817">
        <ele>-7.5999999046326</ele>
        <time>2020-05-17T08:54:48.000Z</time>
      </trkpt>
      <trkpt lat="47.28426" lon="-2.24815">
        <ele>-8.1999998092651</ele>
        <time>2020-05-17T08:54:49.000Z</time>
      </trkpt>
      <trkpt lat="47.2843" lon="-2.24813">
        <ele>-8.1999998092651</ele>
        <time>2020-05-17T08:54:50.000Z</time>
      </trkpt>
      <trkpt lat="47.2846" lon="-2.24797">
        <ele>-8.1999998092651</ele>
        <time>2020-05-17T08:54:57.000Z</time>
      </trkpt>
      <trkpt lat="47.28482" lon="-2.24786">
        <ele>-8.1999998092651</ele>
        <time>2020-05-17T08:55:01.000Z</time>
      </trkpt>
      <trkpt lat="47.28487" lon="-2.24783">
        <ele>-8.1999998092651</ele>
        <time>2020-05-17T08:55:02.000Z</time>
      </trkpt>
      <trkpt lat="47.28519" lon="-2.24762">
        <ele>-8.1999998092651</ele>
        <time>2020-05-17T08:55:08.000Z</time>
      </trkpt>
      <trkpt lat="47.28538" lon="-2.24754">
        <ele>-8.1999998092651</ele>
        <time>2020-05-17T08:55:13.000Z</time>
      </trkpt>
      <trkpt lat="47.28561" lon="-2.24741">
        <ele>-8.1999998092651</ele>
        <time>2020-05-17T08:55:20.000Z</time>
      </trkpt>
      <trkpt lat="47.28591" lon="-2.24734">
        <ele>-8.1999998092651</ele>
        <time>2020-05-17T08:55:28.000Z</time>
      </trkpt>
      <trkpt lat="47.28615" lon="-2.24728">
        <ele>-8.1999998092651</ele>
        <time>2020-05-17T08:55:34.000Z</time>
      </trkpt>
      <trkpt lat="47.28637" lon="-2.2472">
        <ele>-8.1999998092651</ele>
        <time>2020-05-17T08:55:40.000Z</time>
      </trkpt>
      <trkpt lat="47.28648" lon="-2.24717">
        <ele>-8.1999998092651</ele>
        <time>2020-05-17T08:55:45.000Z</time>
      </trkpt>
      <trkpt lat="47.28659" lon="-2.2471">
        <ele>-8.1999998092651</ele>
        <time>2020-05-17T08:55:52.000Z</time>
      </trkpt>
      <trkpt lat="47.28662" lon="-2.2471">
        <ele>-8.1999998092651</ele>
        <time>2020-05-17T08:55:57.000Z</time>
      </trkpt>
      <trkpt lat="47.28663" lon="-2.2471">
        <ele>-8.1999998092651</ele>
        <time>2020-05-17T08:56:05.000Z</time>
      </trkpt>
      <trkpt lat="47.28663" lon="-2.24713">
        <ele>-8.1999998092651</ele>
        <time>2020-05-17T08:56:10.000Z</time>
      </trkpt>
      <trkpt lat="47.28662" lon="-2.24713">
        <ele>-8.1999998092651</ele>
        <time>2020-05-17T08:56:11.000Z</time>
      </trkpt>
      <trkpt lat="47.28651" lon="-2.24706">
        <ele>-8.1999998092651</ele>
        <time>2020-05-17T08:56:16.000Z</time>
      </trkpt>
      <trkpt lat="47.28644" lon="-2.24697">
        <ele>-8.1999998092651</ele>
        <time>2020-05-17T08:56:18.000Z</time>
      </trkpt>
      <trkpt lat="47.28635" lon="-2.2468">
        <ele>-8.1999998092651</ele>
        <time>2020-05-17T08:56:21.000Z</time>
      </trkpt>
      <trkpt lat="47.28613" lon="-2.24638">
        <ele>-8.1999998092651</ele>
        <time>2020-05-17T08:56:27.000Z</time>
      </trkpt>
      <trkpt lat="47.28611" lon="-2.24632">
        <ele>-8.1999998092651</ele>
        <time>2020-05-17T08:56:28.000Z</time>
      </trkpt>
      <trkpt lat="47.28601" lon="-2.2461">
        <ele>-8.1999998092651</ele>
        <time>2020-05-17T08:56:32.000Z</time>
      </trkpt>
      <trkpt lat="47.28602" lon="-2.24604">
        <ele>-8.1999998092651</ele>
        <time>2020-05-17T08:56:33.000Z</time>
      </trkpt>
      <trkpt lat="47.28605" lon="-2.24593">
        <ele>-8.1999998092651</ele>
        <time>2020-05-17T08:56:35.000Z</time>
      </trkpt>
      <trkpt lat="47.2861" lon="-2.24571">
        <ele>-8.1999998092651</ele>
        <time>2020-05-17T08:56:40.000Z</time>
      </trkpt>
      <trkpt lat="47.28616" lon="-2.24548">
        <ele>-8.1999998092651</ele>
        <time>2020-05-17T08:56:46.000Z</time>
      </trkpt>
      <trkpt lat="47.28621" lon="-2.24525">
        <ele>-8.1999998092651</ele>
        <time>2020-05-17T08:56:50.000Z</time>
      </trkpt>
      <trkpt lat="47.28624" lon="-2.24512">
        <ele>-8.1999998092651</ele>
        <time>2020-05-17T08:56:52.000Z</time>
      </trkpt>
      <trkpt lat="47.28635" lon="-2.24473">
        <ele>-8.1999998092651</ele>
        <time>2020-05-17T08:56:57.000Z</time>
      </trkpt>
      <trkpt lat="47.28647" lon="-2.24423">
        <ele>-8.1999998092651</ele>
        <time>2020-05-17T08:57:03.000Z</time>
      </trkpt>
      <trkpt lat="47.28664" lon="-2.24359">
        <ele>-8.1999998092651</ele>
        <time>2020-05-17T08:57:10.000Z</time>
      </trkpt>
      <trkpt lat="47.28684" lon="-2.24289">
        <ele>-8.1999998092651</ele>
        <time>2020-05-17T08:57:18.000Z</time>
      </trkpt>
      <trkpt lat="47.2869" lon="-2.2427">
        <ele>-8.1999998092651</ele>
        <time>2020-05-17T08:57:21.000Z</time>
      </trkpt>
      <trkpt lat="47.28695" lon="-2.24262">
        <ele>-8.1999998092651</ele>
        <time>2020-05-17T08:57:23.000Z</time>
      </trkpt>
      <trkpt lat="47.28709" lon="-2.24257">
        <ele>-8.1999998092651</ele>
        <time>2020-05-17T08:57:27.000Z</time>
      </trkpt>
      <trkpt lat="47.28728" lon="-2.24258">
        <ele>-8.1999998092651</ele>
        <time>2020-05-17T08:57:31.000Z</time>
      </trkpt>
      <trkpt lat="47.28737" lon="-2.24259">
        <ele>-8.1999998092651</ele>
        <time>2020-05-17T08:57:33.000Z</time>
      </trkpt>
      <trkpt lat="47.28768" lon="-2.24257">
        <ele>-8.1999998092651</ele>
        <time>2020-05-17T08:57:39.000Z</time>
      </trkpt>
      <trkpt lat="47.28774" lon="-2.24254">
        <ele>-8.1999998092651</ele>
        <time>2020-05-17T08:57:40.000Z</time>
      </trkpt>
      <trkpt lat="47.28783" lon="-2.24237">
        <ele>-8.1999998092651</ele>
        <time>2020-05-17T08:57:43.000Z</time>
      </trkpt>
      <trkpt lat="47.28783" lon="-2.24223">
        <ele>-8.1999998092651</ele>
        <time>2020-05-17T08:57:45.000Z</time>
      </trkpt>
      <trkpt lat="47.28783" lon="-2.24205">
        <ele>-8.1999998092651</ele>
        <time>2020-05-17T08:57:47.000Z</time>
      </trkpt>
      <trkpt lat="47.28782" lon="-2.24147">
        <ele>-8.1999998092651</ele>
        <time>2020-05-17T08:57:53.000Z</time>
      </trkpt>
      <trkpt lat="47.28783" lon="-2.24085">
        <ele>-8.1999998092651</ele>
        <time>2020-05-17T08:57:59.000Z</time>
      </trkpt>
      <trkpt lat="47.2879" lon="-2.24015">
        <ele>-8.1999998092651</ele>
        <time>2020-05-17T08:58:06.000Z</time>
      </trkpt>
      <trkpt lat="47.28796" lon="-2.23959">
        <ele>-8.1999998092651</ele>
        <time>2020-05-17T08:58:12.000Z</time>
      </trkpt>
      <trkpt lat="47.28801" lon="-2.23905">
        <ele>-8.1999998092651</ele>
        <time>2020-05-17T08:58:18.000Z</time>
      </trkpt>
      <trkpt lat="47.28804" lon="-2.23853">
        <ele>-8.1999998092651</ele>
        <time>2020-05-17T08:58:24.000Z</time>
      </trkpt>
      <trkpt lat="47.28804" lon="-2.23842">
        <ele>-8.1999998092651</ele>
        <time>2020-05-17T08:58:26.000Z</time>
      </trkpt>
      <trkpt lat="47.28805" lon="-2.23837">
        <ele>-8.1999998092651</ele>
        <time>2020-05-17T08:58:27.000Z</time>
      </trkpt>
      <trkpt lat="47.2881" lon="-2.23819">
        <ele>-8.1999998092651</ele>
        <time>2020-05-17T08:58:31.000Z</time>
      </trkpt>
      <trkpt lat="47.2881" lon="-2.23813">
        <ele>-8.1999998092651</ele>
        <time>2020-05-17T08:58:32.000Z</time>
      </trkpt>
      <trkpt lat="47.28803" lon="-2.23794">
        <ele>-8.1999998092651</ele>
        <time>2020-05-17T08:58:35.000Z</time>
      </trkpt>
      <trkpt lat="47.288" lon="-2.23787">
        <ele>-8.1999998092651</ele>
        <time>2020-05-17T08:58:36.000Z</time>
      </trkpt>
      <trkpt lat="47.28781" lon="-2.23751">
        <ele>-8.1999998092651</ele>
        <time>2020-05-17T08:58:41.000Z</time>
      </trkpt>
      <trkpt lat="47.2875" lon="-2.23705">
        <ele>-8.1999998092651</ele>
        <time>2020-05-17T08:58:48.000Z</time>
      </trkpt>
      <trkpt lat="47.28723" lon="-2.23658">
        <ele>-8.1999998092651</ele>
        <time>2020-05-17T08:58:55.000Z</time>
      </trkpt>
      <trkpt lat="47.28705" lon="-2.23619">
        <ele>-8.1999998092651</ele>
        <time>2020-05-17T08:59:01.000Z</time>
      </trkpt>
      <trkpt lat="47.28695" lon="-2.23601">
        <ele>-8.1999998092651</ele>
        <time>2020-05-17T08:59:05.000Z</time>
      </trkpt>
      <trkpt lat="47.28696" lon="-2.23596">
        <ele>-8.1999998092651</ele>
        <time>2020-05-17T08:59:07.000Z</time>
      </trkpt>
      <trkpt lat="47.287" lon="-2.23593">
        <ele>-8.1999998092651</ele>
        <time>2020-05-17T08:59:09.000Z</time>
      </trkpt>
      <trkpt lat="47.28706" lon="-2.23588">
        <ele>-8.1999998092651</ele>
        <time>2020-05-17T08:59:11.000Z</time>
      </trkpt>
      <trkpt lat="47.28713" lon="-2.2358">
        <ele>-8.1999998092651</ele>
        <time>2020-05-17T08:59:13.000Z</time>
      </trkpt>
      <trkpt lat="47.28723" lon="-2.2356">
        <ele>-8.1999998092651</ele>
        <time>2020-05-17T08:59:17.000Z</time>
      </trkpt>
      <trkpt lat="47.28726" lon="-2.23555">
        <ele>-8.1999998092651</ele>
        <time>2020-05-17T08:59:18.000Z</time>
      </trkpt>
      <trkpt lat="47.28729" lon="-2.23551">
        <ele>-8.1999998092651</ele>
        <time>2020-05-17T08:59:19.000Z</time>
      </trkpt>
      <trkpt lat="47.28741" lon="-2.23537">
        <ele>-8.1999998092651</ele>
        <time>2020-05-17T08:59:23.000Z</time>
      </trkpt>
      <trkpt lat="47.28744" lon="-2.23535">
        <ele>-8.1999998092651</ele>
        <time>2020-05-17T08:59:24.000Z</time>
      </trkpt>
      <trkpt lat="47.28755" lon="-2.23527">
        <ele>-8.1999998092651</ele>
        <time>2020-05-17T08:59:28.000Z</time>
      </trkpt>
      <trkpt lat="47.28763" lon="-2.23521">
        <ele>-7.8000001907349</ele>
        <time>2020-05-17T08:59:31.000Z</time>
      </trkpt>
      <trkpt lat="47.28766" lon="-2.2352">
        <ele>-7.1999998092651</ele>
        <time>2020-05-17T08:59:32.000Z</time>
      </trkpt>
      <trkpt lat="47.28769" lon="-2.23519">
        <ele>-6.8000001907349</ele>
        <time>2020-05-17T08:59:33.000Z</time>
      </trkpt>
      <trkpt lat="47.28772" lon="-2.23518">
        <ele>-6.4000000953674</ele>
        <time>2020-05-17T08:59:34.000Z</time>
      </trkpt>
      <trkpt lat="47.28775" lon="-2.23516">
        <ele>-6</ele>
        <time>2020-05-17T08:59:35.000Z</time>
      </trkpt>
      <trkpt lat="47.28793" lon="-2.2351">
        <ele>-6</ele>
        <time>2020-05-17T08:59:41.000Z</time>
      </trkpt>
      <trkpt lat="47.28812" lon="-2.23509">
        <ele>-6</ele>
        <time>2020-05-17T08:59:47.000Z</time>
      </trkpt>
      <trkpt lat="47.2882" lon="-2.23507">
        <ele>-5.5999999046326</ele>
        <time>2020-05-17T08:59:50.000Z</time>
      </trkpt>
      <trkpt lat="47.28823" lon="-2.23506">
        <ele>-5.1999998092651</ele>
        <time>2020-05-17T08:59:51.000Z</time>
      </trkpt>
      <trkpt lat="47.28825" lon="-2.23507">
        <ele>-4.8000001907349</ele>
        <time>2020-05-17T08:59:52.000Z</time>
      </trkpt>
      <trkpt lat="47.28828" lon="-2.23507">
        <ele>-4.4000000953674</ele>
        <time>2020-05-17T08:59:53.000Z</time>
      </trkpt>
      <trkpt lat="47.28831" lon="-2.23506">
        <ele>-4</ele>
        <time>2020-05-17T08:59:54.000Z</time>
      </trkpt>
      <trkpt lat="47.28847" lon="-2.23505">
        <ele>-4</ele>
        <time>2020-05-17T09:00:00.000Z</time>
      </trkpt>
      <trkpt lat="47.28866" lon="-2.23505">
        <ele>-4</ele>
        <time>2020-05-17T09:00:06.000Z</time>
      </trkpt>
      <trkpt lat="47.28873" lon="-2.23504">
        <ele>-3.5999999046326</ele>
        <time>2020-05-17T09:00:08.000Z</time>
      </trkpt>
      <trkpt lat="47.28877" lon="-2.23504">
        <ele>-3.2000000476837</ele>
        <time>2020-05-17T09:00:09.000Z</time>
      </trkpt>
      <trkpt lat="47.28882" lon="-2.23505">
        <ele>-2.7999999523163</ele>
        <time>2020-05-17T09:00:10.000Z</time>
      </trkpt>
      <trkpt lat="47.28886" lon="-2.23505">
        <ele>-2.4000000953674</ele>
        <time>2020-05-17T09:00:11.000Z</time>
      </trkpt>
      <trkpt lat="47.28891" lon="-2.23505">
        <ele>-1.7999999523163</ele>
        <time>2020-05-17T09:00:12.000Z</time>
      </trkpt>
      <trkpt lat="47.28896" lon="-2.23504">
        <ele>-1.7999999523163</ele>
        <time>2020-05-17T09:00:13.000Z</time>
      </trkpt>
      <trkpt lat="47.28917" lon="-2.23499">
        <ele>-1.7999999523163</ele>
        <time>2020-05-17T09:00:17.000Z</time>
      </trkpt>
      <trkpt lat="47.28936" lon="-2.23494">
        <ele>-1.7999999523163</ele>
        <time>2020-05-17T09:00:21.000Z</time>
      </trkpt>
      <trkpt lat="47.28943" lon="-2.23493">
        <ele>-1.7999999523163</ele>
        <time>2020-05-17T09:00:23.000Z</time>
      </trkpt>
      <trkpt lat="47.28957" lon="-2.23483">
        <ele>-1.7999999523163</ele>
        <time>2020-05-17T09:00:27.000Z</time>
      </trkpt>
      <trkpt lat="47.2896" lon="-2.23463">
        <ele>-1.7999999523163</ele>
        <time>2020-05-17T09:00:30.000Z</time>
      </trkpt>
      <trkpt lat="47.28961" lon="-2.23456">
        <ele>-1.7999999523163</ele>
        <time>2020-05-17T09:00:31.000Z</time>
      </trkpt>
      <trkpt lat="47.28964" lon="-2.23417">
        <ele>-1.3999999761581</ele>
        <time>2020-05-17T09:00:36.000Z</time>
      </trkpt>
      <trkpt lat="47.28965" lon="-2.23409">
        <ele>-1</ele>
        <time>2020-05-17T09:00:37.000Z</time>
      </trkpt>
      <trkpt lat="47.28966" lon="-2.23402">
        <ele>-0.60000002384186</ele>
        <time>2020-05-17T09:00:38.000Z</time>
      </trkpt>
      <trkpt lat="47.28967" lon="-2.23394">
        <ele>-0.20000000298023</ele>
        <time>2020-05-17T09:00:39.000Z</time>
      </trkpt>
      <trkpt lat="47.28967" lon="-2.23386">
        <ele>0.20000000298023</ele>
        <time>2020-05-17T09:00:40.000Z</time>
      </trkpt>
      <trkpt lat="47.28972" lon="-2.23337">
        <ele>0.20000000298023</ele>
        <time>2020-05-17T09:00:46.000Z</time>
      </trkpt>
      <trkpt lat="47.28977" lon="-2.23281">
        <ele>0.20000000298023</ele>
        <time>2020-05-17T09:00:52.000Z</time>
      </trkpt>
      <trkpt lat="47.28982" lon="-2.23217">
        <ele>-0.20000000298023</ele>
        <time>2020-05-17T09:00:58.000Z</time>
      </trkpt>
      <trkpt lat="47.28983" lon="-2.23206">
        <ele>-0.60000002384186</ele>
        <time>2020-05-17T09:00:59.000Z</time>
      </trkpt>
      <trkpt lat="47.28984" lon="-2.23195">
        <ele>-1.2000000476837</ele>
        <time>2020-05-17T09:01:00.000Z</time>
      </trkpt>
      <trkpt lat="47.28986" lon="-2.23183">
        <ele>-1.6000000238419</ele>
        <time>2020-05-17T09:01:01.000Z</time>
      </trkpt>
      <trkpt lat="47.28987" lon="-2.23172">
        <ele>-2</ele>
        <time>2020-05-17T09:01:02.000Z</time>
      </trkpt>
      <trkpt lat="47.2899" lon="-2.2315">
        <ele>-2.4000000953674</ele>
        <time>2020-05-17T09:01:04.000Z</time>
      </trkpt>
      <trkpt lat="47.28991" lon="-2.2314">
        <ele>-2.7999999523163</ele>
        <time>2020-05-17T09:01:05.000Z</time>
      </trkpt>
      <trkpt lat="47.28993" lon="-2.2313">
        <ele>-3.2000000476837</ele>
        <time>2020-05-17T09:01:06.000Z</time>
      </trkpt>
      <trkpt lat="47.28994" lon="-2.23121">
        <ele>-3.5999999046326</ele>
        <time>2020-05-17T09:01:07.000Z</time>
      </trkpt>
      <trkpt lat="47.28995" lon="-2.2311">
        <ele>-4.1999998092651</ele>
        <time>2020-05-17T09:01:08.000Z</time>
      </trkpt>
      <trkpt lat="47.28997" lon="-2.23101">
        <ele>-4.5999999046326</ele>
        <time>2020-05-17T09:01:09.000Z</time>
      </trkpt>
      <trkpt lat="47.28998" lon="-2.23091">
        <ele>-5</ele>
        <time>2020-05-17T09:01:10.000Z</time>
      </trkpt>
      <trkpt lat="47.29" lon="-2.23081">
        <ele>-5.4000000953674</ele>
        <time>2020-05-17T09:01:11.000Z</time>
      </trkpt>
      <trkpt lat="47.29001" lon="-2.23071">
        <ele>-6</ele>
        <time>2020-05-17T09:01:12.000Z</time>
      </trkpt>
      <trkpt lat="47.29004" lon="-2.23062">
        <ele>-6.4000000953674</ele>
        <time>2020-05-17T09:01:13.000Z</time>
      </trkpt>
      <trkpt lat="47.29009" lon="-2.23043">
        <ele>-6.8000001907349</ele>
        <time>2020-05-17T09:01:15.000Z</time>
      </trkpt>
      <trkpt lat="47.29012" lon="-2.23033">
        <ele>-7.1999998092651</ele>
        <time>2020-05-17T09:01:16.000Z</time>
      </trkpt>
      <trkpt lat="47.29015" lon="-2.23024">
        <ele>-7.5999999046326</ele>
        <time>2020-05-17T09:01:17.000Z</time>
      </trkpt>
      <trkpt lat="47.29017" lon="-2.23014">
        <ele>-8</ele>
        <time>2020-05-17T09:01:18.000Z</time>
      </trkpt>
      <trkpt lat="47.29019" lon="-2.23005">
        <ele>-8.3999996185303</ele>
        <time>2020-05-17T09:01:19.000Z</time>
      </trkpt>
      <trkpt lat="47.29022" lon="-2.22998">
        <ele>-8.3999996185303</ele>
        <time>2020-05-17T09:01:20.000Z</time>
      </trkpt>
      <trkpt lat="47.29027" lon="-2.22976">
        <ele>-8.3999996185303</ele>
        <time>2020-05-17T09:01:23.000Z</time>
      </trkpt>
      <trkpt lat="47.29035" lon="-2.22974">
        <ele>-8.3999996185303</ele>
        <time>2020-05-17T09:01:25.000Z</time>
      </trkpt>
      <trkpt lat="47.29047" lon="-2.22992">
        <ele>-8.3999996185303</ele>
        <time>2020-05-17T09:01:28.000Z</time>
      </trkpt>
      <trkpt lat="47.29051" lon="-2.22999">
        <ele>-8.8000001907349</ele>
        <time>2020-05-17T09:01:29.000Z</time>
      </trkpt>
      <trkpt lat="47.29056" lon="-2.23006">
        <ele>-9.1999998092651</ele>
        <time>2020-05-17T09:01:30.000Z</time>
      </trkpt>
      <trkpt lat="47.29062" lon="-2.23013">
        <ele>-9.6000003814697</ele>
        <time>2020-05-17T09:01:31.000Z</time>
      </trkpt>
      <trkpt lat="47.29068" lon="-2.23019">
        <ele>-10</ele>
        <time>2020-05-17T09:01:32.000Z</time>
      </trkpt>
      <trkpt lat="47.29074" lon="-2.23026">
        <ele>-10.39999961853</ele>
        <time>2020-05-17T09:01:33.000Z</time>
      </trkpt>
      <trkpt lat="47.2908" lon="-2.23033">
        <ele>-10</ele>
        <time>2020-05-17T09:01:34.000Z</time>
      </trkpt>
      <trkpt lat="47.29085" lon="-2.23041">
        <ele>-9.6000003814697</ele>
        <time>2020-05-17T09:01:35.000Z</time>
      </trkpt>
      <trkpt lat="47.2909" lon="-2.23049">
        <ele>-9.1999998092651</ele>
        <time>2020-05-17T09:01:36.000Z</time>
      </trkpt>
      <trkpt lat="47.29096" lon="-2.23057">
        <ele>-8.6000003814697</ele>
        <time>2020-05-17T09:01:37.000Z</time>
      </trkpt>
      <trkpt lat="47.29101" lon="-2.23065">
        <ele>-8.1999998092651</ele>
        <time>2020-05-17T09:01:39.000Z</time>
      </trkpt>
      <trkpt lat="47.29136" lon="-2.23106">
        <ele>-8.1999998092651</ele>
        <time>2020-05-17T09:01:45.000Z</time>
      </trkpt>
      <trkpt lat="47.29176" lon="-2.23156">
        <ele>-8.1999998092651</ele>
        <time>2020-05-17T09:01:52.000Z</time>
      </trkpt>
      <trkpt lat="47.29182" lon="-2.23164">
        <ele>-8.1999998092651</ele>
        <time>2020-05-17T09:01:53.000Z</time>
      </trkpt>
      <trkpt lat="47.29196" lon="-2.23191">
        <ele>-8.1999998092651</ele>
        <time>2020-05-17T09:01:56.000Z</time>
      </trkpt>
      <trkpt lat="47.29203" lon="-2.23222">
        <ele>-8.1999998092651</ele>
        <time>2020-05-17T09:01:59.000Z</time>
      </trkpt>
      <trkpt lat="47.29207" lon="-2.23231">
        <ele>-8.1999998092651</ele>
        <time>2020-05-17T09:02:00.000Z</time>
      </trkpt>
      <trkpt lat="47.29217" lon="-2.23246">
        <ele>-8.1999998092651</ele>
        <time>2020-05-17T09:02:02.000Z</time>
      </trkpt>
      <trkpt lat="47.29247" lon="-2.23286">
        <ele>-8.1999998092651</ele>
        <time>2020-05-17T09:02:08.000Z</time>
      </trkpt>
      <trkpt lat="47.29255" lon="-2.23299">
        <ele>-8.1999998092651</ele>
        <time>2020-05-17T09:02:10.000Z</time>
      </trkpt>
      <trkpt lat="47.29263" lon="-2.23323">
        <ele>-8.1999998092651</ele>
        <time>2020-05-17T09:02:13.000Z</time>
      </trkpt>
      <trkpt lat="47.29272" lon="-2.23358">
        <ele>-8.6000003814697</ele>
        <time>2020-05-17T09:02:17.000Z</time>
      </trkpt>
      <trkpt lat="47.29274" lon="-2.23367">
        <ele>-9</ele>
        <time>2020-05-17T09:02:18.000Z</time>
      </trkpt>
      <trkpt lat="47.29276" lon="-2.23376">
        <ele>-9.6000003814697</ele>
        <time>2020-05-17T09:02:19.000Z</time>
      </trkpt>
      <trkpt lat="47.29277" lon="-2.23385">
        <ele>-10</ele>
        <time>2020-05-17T09:02:20.000Z</time>
      </trkpt>
      <trkpt lat="47.2928" lon="-2.23394">
        <ele>-10.39999961853</ele>
        <time>2020-05-17T09:02:21.000Z</time>
      </trkpt>
      <trkpt lat="47.2929" lon="-2.23442">
        <ele>-10.39999961853</ele>
        <time>2020-05-17T09:02:26.000Z</time>
      </trkpt>
      <trkpt lat="47.29304" lon="-2.23517">
        <ele>-10.39999961853</ele>
        <time>2020-05-17T09:02:34.000Z</time>
      </trkpt>
      <trkpt lat="47.29311" lon="-2.23581">
        <ele>-10.39999961853</ele>
        <time>2020-05-17T09:02:41.000Z</time>
      </trkpt>
      <trkpt lat="47.29312" lon="-2.23638">
        <ele>-10.39999961853</ele>
        <time>2020-05-17T09:02:47.000Z</time>
      </trkpt>
      <trkpt lat="47.29312" lon="-2.23681">
        <ele>-10.39999961853</ele>
        <time>2020-05-17T09:02:52.000Z</time>
      </trkpt>
      <trkpt lat="47.29313" lon="-2.23745">
        <ele>-10.39999961853</ele>
        <time>2020-05-17T09:03:00.000Z</time>
      </trkpt>
      <trkpt lat="47.29314" lon="-2.23774">
        <ele>-10.39999961853</ele>
        <time>2020-05-17T09:03:04.000Z</time>
      </trkpt>
      <trkpt lat="47.29317" lon="-2.23777">
        <ele>-10.39999961853</ele>
        <time>2020-05-17T09:03:05.000Z</time>
      </trkpt>
      <trkpt lat="47.29332" lon="-2.23778">
        <ele>-10.39999961853</ele>
        <time>2020-05-17T09:03:08.000Z</time>
      </trkpt>
      <trkpt lat="47.29337" lon="-2.2378">
        <ele>-10.39999961853</ele>
        <time>2020-05-17T09:03:09.000Z</time>
      </trkpt>
      <trkpt lat="47.29347" lon="-2.23787">
        <ele>-10.39999961853</ele>
        <time>2020-05-17T09:03:11.000Z</time>
      </trkpt>
      <trkpt lat="47.29366" lon="-2.23785">
        <ele>-10.39999961853</ele>
        <time>2020-05-17T09:03:15.000Z</time>
      </trkpt>
      <trkpt lat="47.2937" lon="-2.23763">
        <ele>-10.39999961853</ele>
        <time>2020-05-17T09:03:18.000Z</time>
      </trkpt>
      <trkpt lat="47.29371" lon="-2.23755">
        <ele>-10.39999961853</ele>
        <time>2020-05-17T09:03:19.000Z</time>
      </trkpt>
      <trkpt lat="47.2938" lon="-2.23716">
        <ele>-10</ele>
        <time>2020-05-17T09:03:24.000Z</time>
      </trkpt>
      <trkpt lat="47.29384" lon="-2.2371">
        <ele>-9.3999996185303</ele>
        <time>2020-05-17T09:03:25.000Z</time>
      </trkpt>
      <trkpt lat="47.29389" lon="-2.23705">
        <ele>-9</ele>
        <time>2020-05-17T09:03:26.000Z</time>
      </trkpt>
      <trkpt lat="47.29394" lon="-2.23702">
        <ele>-8.6000003814697</ele>
        <time>2020-05-17T09:03:27.000Z</time>
      </trkpt>
      <trkpt lat="47.29399" lon="-2.23699">
        <ele>-8.1999998092651</ele>
        <time>2020-05-17T09:03:28.000Z</time>
      </trkpt>
      <trkpt lat="47.29405" lon="-2.23697">
        <ele>-8.1999998092651</ele>
        <time>2020-05-17T09:03:29.000Z</time>
      </trkpt>
      <trkpt lat="47.29422" lon="-2.23694">
        <ele>-8.1999998092651</ele>
        <time>2020-05-17T09:03:32.000Z</time>
      </trkpt>
      <trkpt lat="47.29433" lon="-2.23691">
        <ele>-7.8000001907349</ele>
        <time>2020-05-17T09:03:34.000Z</time>
      </trkpt>
      <trkpt lat="47.29439" lon="-2.23689">
        <ele>-7.1999998092651</ele>
        <time>2020-05-17T09:03:35.000Z</time>
      </trkpt>
      <trkpt lat="47.29444" lon="-2.23686">
        <ele>-6.8000001907349</ele>
        <time>2020-05-17T09:03:36.000Z</time>
      </trkpt>
      <trkpt lat="47.29449" lon="-2.23684">
        <ele>-6.4000000953674</ele>
        <time>2020-05-17T09:03:37.000Z</time>
      </trkpt>
      <trkpt lat="47.29454" lon="-2.23681">
        <ele>-6</ele>
        <time>2020-05-17T09:03:38.000Z</time>
      </trkpt>
      <trkpt lat="47.29464" lon="-2.23677">
        <ele>-5.4000000953674</ele>
        <time>2020-05-17T09:03:40.000Z</time>
      </trkpt>
      <trkpt lat="47.29469" lon="-2.23673">
        <ele>-5</ele>
        <time>2020-05-17T09:03:41.000Z</time>
      </trkpt>
      <trkpt lat="47.29473" lon="-2.23671">
        <ele>-4.5999999046326</ele>
        <time>2020-05-17T09:03:42.000Z</time>
      </trkpt>
      <trkpt lat="47.29478" lon="-2.23668">
        <ele>-3.5999999046326</ele>
        <time>2020-05-17T09:03:43.000Z</time>
      </trkpt>
      <trkpt lat="47.29501" lon="-2.23653">
        <ele>-3.5999999046326</ele>
        <time>2020-05-17T09:03:47.000Z</time>
      </trkpt>
      <trkpt lat="47.29529" lon="-2.23643">
        <ele>-3.5999999046326</ele>
        <time>2020-05-17T09:03:51.000Z</time>
      </trkpt>
      <trkpt lat="47.29536" lon="-2.23642">
        <ele>-3.5999999046326</ele>
        <time>2020-05-17T09:03:52.000Z</time>
      </trkpt>
      <trkpt lat="47.29582" lon="-2.23647">
        <ele>-3.5999999046326</ele>
        <time>2020-05-17T09:03:58.000Z</time>
      </trkpt>
      <trkpt lat="47.29603" lon="-2.23652">
        <ele>-4</ele>
        <time>2020-05-17T09:04:01.000Z</time>
      </trkpt>
      <trkpt lat="47.29611" lon="-2.23654">
        <ele>-4.4000000953674</ele>
        <time>2020-05-17T09:04:02.000Z</time>
      </trkpt>
      <trkpt lat="47.29618" lon="-2.23655">
        <ele>-5</ele>
        <time>2020-05-17T09:04:03.000Z</time>
      </trkpt>
      <trkpt lat="47.29624" lon="-2.23656">
        <ele>-5.4000000953674</ele>
        <time>2020-05-17T09:04:04.000Z</time>
      </trkpt>
      <trkpt lat="47.29631" lon="-2.23657">
        <ele>-5.8000001907349</ele>
        <time>2020-05-17T09:04:05.000Z</time>
      </trkpt>
      <trkpt lat="47.29637" lon="-2.23659">
        <ele>-6.1999998092651</ele>
        <time>2020-05-17T09:04:06.000Z</time>
      </trkpt>
      <trkpt lat="47.29641" lon="-2.2366">
        <ele>-6.5999999046326</ele>
        <time>2020-05-17T09:04:07.000Z</time>
      </trkpt>
      <trkpt lat="47.29646" lon="-2.23661">
        <ele>-7.5999999046326</ele>
        <time>2020-05-17T09:04:08.000Z</time>
      </trkpt>
      <trkpt lat="47.29649" lon="-2.23662">
        <ele>-8</ele>
        <time>2020-05-17T09:04:09.000Z</time>
      </trkpt>
      <trkpt lat="47.29654" lon="-2.23669">
        <ele>-8.6000003814697</ele>
        <time>2020-05-17T09:04:11.000Z</time>
      </trkpt>
      <trkpt lat="47.29655" lon="-2.23675">
        <ele>-9</ele>
        <time>2020-05-17T09:04:12.000Z</time>
      </trkpt>
      <trkpt lat="47.29655" lon="-2.2368">
        <ele>-9.3999996185303</ele>
        <time>2020-05-17T09:04:13.000Z</time>
      </trkpt>
      <trkpt lat="47.29655" lon="-2.23685">
        <ele>-9.8000001907349</ele>
        <time>2020-05-17T09:04:14.000Z</time>
      </trkpt>
      <trkpt lat="47.29654" lon="-2.23691">
        <ele>-10.199999809265</ele>
        <time>2020-05-17T09:04:15.000Z</time>
      </trkpt>
      <trkpt lat="47.29654" lon="-2.23697">
        <ele>-10.199999809265</ele>
        <time>2020-05-17T09:04:16.000Z</time>
      </trkpt>
      <trkpt lat="47.29651" lon="-2.23735">
        <ele>-10.199999809265</ele>
        <time>2020-05-17T09:04:23.000Z</time>
      </trkpt>
      <trkpt lat="47.29647" lon="-2.23776">
        <ele>-10.199999809265</ele>
        <time>2020-05-17T09:04:31.000Z</time>
      </trkpt>
      <trkpt lat="47.29644" lon="-2.23805">
        <ele>-10.199999809265</ele>
        <time>2020-05-17T09:04:36.000Z</time>
      </trkpt>
      <trkpt lat="47.2964" lon="-2.23859">
        <ele>-10.199999809265</ele>
        <time>2020-05-17T09:04:44.000Z</time>
      </trkpt>
      <trkpt lat="47.29635" lon="-2.23906">
        <ele>-10.199999809265</ele>
        <time>2020-05-17T09:04:51.000Z</time>
      </trkpt>
      <trkpt lat="47.29632" lon="-2.2395">
        <ele>-10.199999809265</ele>
        <time>2020-05-17T09:04:57.000Z</time>
      </trkpt>
      <trkpt lat="47.29628" lon="-2.23994">
        <ele>-10.199999809265</ele>
        <time>2020-05-17T09:05:03.000Z</time>
      </trkpt>
      <trkpt lat="47.29623" lon="-2.24036">
        <ele>-10.199999809265</ele>
        <time>2020-05-17T09:05:10.000Z</time>
      </trkpt>
      <trkpt lat="47.29619" lon="-2.24067">
        <ele>-10.199999809265</ele>
        <time>2020-05-17T09:05:17.000Z</time>
      </trkpt>
      <trkpt lat="47.29621" lon="-2.2407">
        <ele>-10.199999809265</ele>
        <time>2020-05-17T09:05:19.000Z</time>
      </trkpt>
      <trkpt lat="47.29622" lon="-2.2407">
        <ele>-10.199999809265</ele>
        <time>2020-05-17T09:05:20.000Z</time>
      </trkpt>
      <trkpt lat="47.29628" lon="-2.2406">
        <ele>-10.199999809265</ele>
        <time>2020-05-17T09:05:24.000Z</time>
      </trkpt>
      <trkpt lat="47.29629" lon="-2.24037">
        <ele>-10.199999809265</ele>
        <time>2020-05-17T09:05:28.000Z</time>
      </trkpt>
      <trkpt lat="47.2963" lon="-2.24029">
        <ele>-10.199999809265</ele>
        <time>2020-05-17T09:05:29.000Z</time>
      </trkpt>
      <trkpt lat="47.29636" lon="-2.23995">
        <ele>-10.199999809265</ele>
        <time>2020-05-17T09:05:34.000Z</time>
      </trkpt>
      <trkpt lat="47.29651" lon="-2.23979">
        <ele>-10.199999809265</ele>
        <time>2020-05-17T09:05:38.000Z</time>
      </trkpt>
      <trkpt lat="47.29674" lon="-2.23957">
        <ele>-10.199999809265</ele>
        <time>2020-05-17T09:05:43.000Z</time>
      </trkpt>
      <trkpt lat="47.29689" lon="-2.23949">
        <ele>-10.199999809265</ele>
        <time>2020-05-17T09:05:47.000Z</time>
      </trkpt>
      <trkpt lat="47.29697" lon="-2.23944">
        <ele>-10.199999809265</ele>
        <time>2020-05-17T09:05:49.000Z</time>
      </trkpt>
      <trkpt lat="47.29703" lon="-2.23932">
        <ele>-10.199999809265</ele>
        <time>2020-05-17T09:05:51.000Z</time>
      </trkpt>
      <trkpt lat="47.29707" lon="-2.23917">
        <ele>-10.199999809265</ele>
        <time>2020-05-17T09:05:53.000Z</time>
      </trkpt>
      <trkpt lat="47.29709" lon="-2.23902">
        <ele>-10.199999809265</ele>
        <time>2020-05-17T09:05:55.000Z</time>
      </trkpt>
      <trkpt lat="47.2971" lon="-2.23895">
        <ele>-10.199999809265</ele>
        <time>2020-05-17T09:05:56.000Z</time>
      </trkpt>
      <trkpt lat="47.29714" lon="-2.2388">
        <ele>-10.199999809265</ele>
        <time>2020-05-17T09:05:58.000Z</time>
      </trkpt>
      <trkpt lat="47.29723" lon="-2.23852">
        <ele>-10.199999809265</ele>
        <time>2020-05-17T09:06:02.000Z</time>
      </trkpt>
      <trkpt lat="47.29743" lon="-2.23809">
        <ele>-10.199999809265</ele>
        <time>2020-05-17T09:06:09.000Z</time>
      </trkpt>
      <trkpt lat="47.29763" lon="-2.23788">
        <ele>-10.199999809265</ele>
        <time>2020-05-17T09:06:15.000Z</time>
      </trkpt>
      <trkpt lat="47.29776" lon="-2.2379">
        <ele>-10.199999809265</ele>
        <time>2020-05-17T09:06:19.000Z</time>
      </trkpt>
      <trkpt lat="47.29796" lon="-2.23801">
        <ele>-10.199999809265</ele>
        <time>2020-05-17T09:06:24.000Z</time>
      </trkpt>
      <trkpt lat="47.29827" lon="-2.23817">
        <ele>-10.199999809265</ele>
        <time>2020-05-17T09:06:29.000Z</time>
      </trkpt>
      <trkpt lat="47.29832" lon="-2.23819">
        <ele>-10.199999809265</ele>
        <time>2020-05-17T09:06:30.000Z</time>
      </trkpt>
      <trkpt lat="47.29855" lon="-2.2382">
        <ele>-10.199999809265</ele>
        <time>2020-05-17T09:06:34.000Z</time>
      </trkpt>
      <trkpt lat="47.29861" lon="-2.23819">
        <ele>-10.199999809265</ele>
        <time>2020-05-17T09:06:35.000Z</time>
      </trkpt>
      <trkpt lat="47.29887" lon="-2.23818">
        <ele>-10.199999809265</ele>
        <time>2020-05-17T09:06:40.000Z</time>
      </trkpt>
      <trkpt lat="47.29892" lon="-2.2382">
        <ele>-10.199999809265</ele>
        <time>2020-05-17T09:06:41.000Z</time>
      </trkpt>
      <trkpt lat="47.29922" lon="-2.23828">
        <ele>-10.199999809265</ele>
        <time>2020-05-17T09:06:46.000Z</time>
      </trkpt>
      <trkpt lat="47.29927" lon="-2.23831">
        <ele>-10.199999809265</ele>
        <time>2020-05-17T09:06:47.000Z</time>
      </trkpt>
      <trkpt lat="47.29937" lon="-2.23834">
        <ele>-10.199999809265</ele>
        <time>2020-05-17T09:06:49.000Z</time>
      </trkpt>
      <trkpt lat="47.29949" lon="-2.23839">
        <ele>-10.199999809265</ele>
        <time>2020-05-17T09:06:51.000Z</time>
      </trkpt>
      <trkpt lat="47.29956" lon="-2.23844">
        <ele>-10.199999809265</ele>
        <time>2020-05-17T09:06:52.000Z</time>
      </trkpt>
      <trkpt lat="47.29983" lon="-2.23863">
        <ele>-10.199999809265</ele>
        <time>2020-05-17T09:06:56.000Z</time>
      </trkpt>
      <trkpt lat="47.29989" lon="-2.2387">
        <ele>-10.199999809265</ele>
        <time>2020-05-17T09:06:57.000Z</time>
      </trkpt>
      <trkpt lat="47.29996" lon="-2.23884">
        <ele>-10.199999809265</ele>
        <time>2020-05-17T09:06:59.000Z</time>
      </trkpt>
      <trkpt lat="47.3" lon="-2.23917">
        <ele>-10.199999809265</ele>
        <time>2020-05-17T09:07:03.000Z</time>
      </trkpt>
      <trkpt lat="47.3" lon="-2.23926">
        <ele>-10.199999809265</ele>
        <time>2020-05-17T09:07:04.000Z</time>
      </trkpt>
      <trkpt lat="47.30001" lon="-2.23975">
        <ele>-10.199999809265</ele>
        <time>2020-05-17T09:07:10.000Z</time>
      </trkpt>
      <trkpt lat="47.29999" lon="-2.24009">
        <ele>-10.199999809265</ele>
        <time>2020-05-17T09:07:14.000Z</time>
      </trkpt>
      <trkpt lat="47.29998" lon="-2.24024">
        <ele>-10.199999809265</ele>
        <time>2020-05-17T09:07:16.000Z</time>
      </trkpt>
      <trkpt lat="47.29998" lon="-2.24038">
        <ele>-9.8000001907349</ele>
        <time>2020-05-17T09:07:18.000Z</time>
      </trkpt>
      <trkpt lat="47.29998" lon="-2.24045">
        <ele>-9.3999996185303</ele>
        <time>2020-05-17T09:07:19.000Z</time>
      </trkpt>
      <trkpt lat="47.29998" lon="-2.24052">
        <ele>-9</ele>
        <time>2020-05-17T09:07:20.000Z</time>
      </trkpt>
      <trkpt lat="47.29998" lon="-2.2406">
        <ele>-8.6000003814697</ele>
        <time>2020-05-17T09:07:21.000Z</time>
      </trkpt>
      <trkpt lat="47.29999" lon="-2.24066">
        <ele>-8.1999998092651</ele>
        <time>2020-05-17T09:07:22.000Z</time>
      </trkpt>
      <trkpt lat="47.29999" lon="-2.24081">
        <ele>-8.1999998092651</ele>
        <time>2020-05-17T09:07:24.000Z</time>
      </trkpt>
      <trkpt lat="47.3" lon="-2.241">
        <ele>-7.8000001907349</ele>
        <time>2020-05-17T09:07:27.000Z</time>
      </trkpt>
      <trkpt lat="47.30001" lon="-2.24105">
        <ele>-7.1999998092651</ele>
        <time>2020-05-17T09:07:28.000Z</time>
      </trkpt>
      <trkpt lat="47.30001" lon="-2.2411">
        <ele>-6.8000001907349</ele>
        <time>2020-05-17T09:07:29.000Z</time>
      </trkpt>
      <trkpt lat="47.30001" lon="-2.24115">
        <ele>-6.4000000953674</ele>
        <time>2020-05-17T09:07:30.000Z</time>
      </trkpt>
      <trkpt lat="47.3" lon="-2.2412">
        <ele>-6</ele>
        <time>2020-05-17T09:07:31.000Z</time>
      </trkpt>
      <trkpt lat="47.29997" lon="-2.24135">
        <ele>-5.5999999046326</ele>
        <time>2020-05-17T09:07:34.000Z</time>
      </trkpt>
      <trkpt lat="47.29996" lon="-2.2414">
        <ele>-5.1999998092651</ele>
        <time>2020-05-17T09:07:35.000Z</time>
      </trkpt>
      <trkpt lat="47.29995" lon="-2.24145">
        <ele>-4.8000001907349</ele>
        <time>2020-05-17T09:07:36.000Z</time>
      </trkpt>
      <trkpt lat="47.29994" lon="-2.24151">
        <ele>-4.1999998092651</ele>
        <time>2020-05-17T09:07:37.000Z</time>
      </trkpt>
      <trkpt lat="47.29993" lon="-2.24156">
        <ele>-3.7999999523163</ele>
        <time>2020-05-17T09:07:38.000Z</time>
      </trkpt>
      <trkpt lat="47.29992" lon="-2.24165">
        <ele>-3.4000000953674</ele>
        <time>2020-05-17T09:07:40.000Z</time>
      </trkpt>
      <trkpt lat="47.29991" lon="-2.2417">
        <ele>-3</ele>
        <time>2020-05-17T09:07:41.000Z</time>
      </trkpt>
      <trkpt lat="47.29991" lon="-2.24174">
        <ele>-2.5999999046326</ele>
        <time>2020-05-17T09:07:42.000Z</time>
      </trkpt>
      <trkpt lat="47.29989" lon="-2.24179">
        <ele>-2.2000000476837</ele>
        <time>2020-05-17T09:07:43.000Z</time>
      </trkpt>
      <trkpt lat="47.29987" lon="-2.24185">
        <ele>-1.7999999523163</ele>
        <time>2020-05-17T09:07:44.000Z</time>
      </trkpt>
      <trkpt lat="47.29982" lon="-2.24203">
        <ele>-1.7999999523163</ele>
        <time>2020-05-17T09:07:47.000Z</time>
      </trkpt>
      <trkpt lat="47.29979" lon="-2.24209">
        <ele>-1.3999999761581</ele>
        <time>2020-05-17T09:07:48.000Z</time>
      </trkpt>
      <trkpt lat="47.29976" lon="-2.24215">
        <ele>-1</ele>
        <time>2020-05-17T09:07:49.000Z</time>
      </trkpt>
      <trkpt lat="47.29973" lon="-2.24221">
        <ele>-0.60000002384186</ele>
        <time>2020-05-17T09:07:50.000Z</time>
      </trkpt>
      <trkpt lat="47.2997" lon="-2.24227">
        <ele>0.40000000596046</ele>
        <time>2020-05-17T09:07:51.000Z</time>
      </trkpt>
      <trkpt lat="47.29967" lon="-2.24234">
        <ele>0.40000000596046</ele>
        <time>2020-05-17T09:07:52.000Z</time>
      </trkpt>
      <trkpt lat="47.29957" lon="-2.24251">
        <ele>0.40000000596046</ele>
        <time>2020-05-17T09:07:55.000Z</time>
      </trkpt>
      <trkpt lat="47.2995" lon="-2.24263">
        <ele>0.40000000596046</ele>
        <time>2020-05-17T09:07:57.000Z</time>
      </trkpt>
      <trkpt lat="47.29937" lon="-2.24299">
        <ele>0.40000000596046</ele>
        <time>2020-05-17T09:08:03.000Z</time>
      </trkpt>
      <trkpt lat="47.29942" lon="-2.24313">
        <ele>0.40000000596046</ele>
        <time>2020-05-17T09:08:06.000Z</time>
      </trkpt>
      <trkpt lat="47.29953" lon="-2.24324">
        <ele>0.40000000596046</ele>
        <time>2020-05-17T09:08:09.000Z</time>
      </trkpt>
      <trkpt lat="47.29956" lon="-2.24328">
        <ele>0.40000000596046</ele>
        <time>2020-05-17T09:08:10.000Z</time>
      </trkpt>
      <trkpt lat="47.29963" lon="-2.24335">
        <ele>0.40000000596046</ele>
        <time>2020-05-17T09:08:12.000Z</time>
      </trkpt>
      <trkpt lat="47.29971" lon="-2.24344">
        <ele>0.40000000596046</ele>
        <time>2020-05-17T09:08:14.000Z</time>
      </trkpt>
      <trkpt lat="47.29979" lon="-2.24351">
        <ele>1.2000000476837</ele>
        <time>2020-05-17T09:08:16.000Z</time>
      </trkpt>
      <trkpt lat="47.29982" lon="-2.24354">
        <ele>1.6000000238419</ele>
        <time>2020-05-17T09:08:17.000Z</time>
      </trkpt>
      <trkpt lat="47.29986" lon="-2.24357">
        <ele>2</ele>
        <time>2020-05-17T09:08:18.000Z</time>
      </trkpt>
      <trkpt lat="47.29989" lon="-2.2436">
        <ele>2.4000000953674</ele>
        <time>2020-05-17T09:08:19.000Z</time>
      </trkpt>
      <trkpt lat="47.29991" lon="-2.2436">
        <ele>2.4000000953674</ele>
        <time>2020-05-17T09:08:20.000Z</time>
      </trkpt>
      <trkpt lat="47.29997" lon="-2.24356">
        <ele>2.4000000953674</ele>
        <time>2020-05-17T09:08:22.000Z</time>
      </trkpt>
      <trkpt lat="47.3" lon="-2.24344">
        <ele>2.4000000953674</ele>
        <time>2020-05-17T09:08:25.000Z</time>
      </trkpt>
      <trkpt lat="47.30001" lon="-2.2434">
        <ele>2.4000000953674</ele>
        <time>2020-05-17T09:08:26.000Z</time>
      </trkpt>
      <trkpt lat="47.30009" lon="-2.24315">
        <ele>2.4000000953674</ele>
        <time>2020-05-17T09:08:32.000Z</time>
      </trkpt>
      <trkpt lat="47.30018" lon="-2.2429">
        <ele>2.4000000953674</ele>
        <time>2020-05-17T09:08:38.000Z</time>
      </trkpt>
      <trkpt lat="47.30024" lon="-2.24279">
        <ele>2.4000000953674</ele>
        <time>2020-05-17T09:08:42.000Z</time>
      </trkpt>
      <trkpt lat="47.30026" lon="-2.24261">
        <ele>2.4000000953674</ele>
        <time>2020-05-17T09:08:46.000Z</time>
      </trkpt>
      <trkpt lat="47.30023" lon="-2.24244">
        <ele>2.4000000953674</ele>
        <time>2020-05-17T09:08:49.000Z</time>
      </trkpt>
      <trkpt lat="47.30022" lon="-2.24237">
        <ele>2</ele>
        <time>2020-05-17T09:08:50.000Z</time>
      </trkpt>
      <trkpt lat="47.30022" lon="-2.2423">
        <ele>1.6000000238419</ele>
        <time>2020-05-17T09:08:51.000Z</time>
      </trkpt>
      <trkpt lat="47.30022" lon="-2.24226">
        <ele>1</ele>
        <time>2020-05-17T09:08:52.000Z</time>
      </trkpt>
      <trkpt lat="47.30022" lon="-2.24221">
        <ele>0.60000002384186</ele>
        <time>2020-05-17T09:08:53.000Z</time>
      </trkpt>
      <trkpt lat="47.30022" lon="-2.24214">
        <ele>0.20000000298023</ele>
        <time>2020-05-17T09:08:54.000Z</time>
      </trkpt>
      <trkpt lat="47.30023" lon="-2.242">
        <ele>-0.20000000298023</ele>
        <time>2020-05-17T09:08:56.000Z</time>
      </trkpt>
      <trkpt lat="47.30023" lon="-2.24192">
        <ele>-0.60000002384186</ele>
        <time>2020-05-17T09:08:57.000Z</time>
      </trkpt>
      <trkpt lat="47.30024" lon="-2.24184">
        <ele>-1</ele>
        <time>2020-05-17T09:08:58.000Z</time>
      </trkpt>
      <trkpt lat="47.30025" lon="-2.24176">
        <ele>-1.3999999761581</ele>
        <time>2020-05-17T09:08:59.000Z</time>
      </trkpt>
      <trkpt lat="47.30024" lon="-2.2417">
        <ele>-2</ele>
        <time>2020-05-17T09:09:00.000Z</time>
      </trkpt>
      <trkpt lat="47.30023" lon="-2.24164">
        <ele>-2.4000000953674</ele>
        <time>2020-05-17T09:09:01.000Z</time>
      </trkpt>
      <trkpt lat="47.30022" lon="-2.24159">
        <ele>-3</ele>
        <time>2020-05-17T09:09:02.000Z</time>
      </trkpt>
      <trkpt lat="47.30022" lon="-2.24154">
        <ele>-3.4000000953674</ele>
        <time>2020-05-17T09:09:03.000Z</time>
      </trkpt>
      <trkpt lat="47.30023" lon="-2.24151">
        <ele>-4</ele>
        <time>2020-05-17T09:09:04.000Z</time>
      </trkpt>
      <trkpt lat="47.3003" lon="-2.24143">
        <ele>-4</ele>
        <time>2020-05-17T09:09:08.000Z</time>
      </trkpt>
      <trkpt lat="47.30047" lon="-2.24129">
        <ele>-4</ele>
        <time>2020-05-17T09:09:16.000Z</time>
      </trkpt>
      <trkpt lat="47.30064" lon="-2.24118">
        <ele>-4</ele>
        <time>2020-05-17T09:09:21.000Z</time>
      </trkpt>
      <trkpt lat="47.30085" lon="-2.24106">
        <ele>-4</ele>
        <time>2020-05-17T09:09:26.000Z</time>
      </trkpt>
      <trkpt lat="47.30107" lon="-2.24091">
        <ele>-3.5999999046326</ele>
        <time>2020-05-17T09:09:32.000Z</time>
      </trkpt>
      <trkpt lat="47.3011" lon="-2.24089">
        <ele>-3.2000000476837</ele>
        <time>2020-05-17T09:09:33.000Z</time>
      </trkpt>
      <trkpt lat="47.30114" lon="-2.24086">
        <ele>-2.7999999523163</ele>
        <time>2020-05-17T09:09:34.000Z</time>
      </trkpt>
      <trkpt lat="47.30119" lon="-2.24082">
        <ele>-2.4000000953674</ele>
        <time>2020-05-17T09:09:35.000Z</time>
      </trkpt>
      <trkpt lat="47.30123" lon="-2.24079">
        <ele>-2</ele>
        <time>2020-05-17T09:09:36.000Z</time>
      </trkpt>
      <trkpt lat="47.30126" lon="-2.24078">
        <ele>-2</ele>
        <time>2020-05-17T09:09:37.000Z</time>
      </trkpt>
      <trkpt lat="47.30137" lon="-2.24073">
        <ele>-2</ele>
        <time>2020-05-17T09:09:40.000Z</time>
      </trkpt>
      <trkpt lat="47.30145" lon="-2.24069">
        <ele>-2</ele>
        <time>2020-05-17T09:09:42.000Z</time>
      </trkpt>
      <trkpt lat="47.30171" lon="-2.24059">
        <ele>-2</ele>
        <time>2020-05-17T09:09:48.000Z</time>
      </trkpt>
      <trkpt lat="47.30185" lon="-2.24058">
        <ele>-2</ele>
        <time>2020-05-17T09:09:51.000Z</time>
      </trkpt>
      <trkpt lat="47.30195" lon="-2.24059">
        <ele>-2</ele>
        <time>2020-05-17T09:09:53.000Z</time>
      </trkpt>
      <trkpt lat="47.3021" lon="-2.24058">
        <ele>-2.4000000953674</ele>
        <time>2020-05-17T09:09:57.000Z</time>
      </trkpt>
      <trkpt lat="47.30214" lon="-2.24058">
        <ele>-2.7999999523163</ele>
        <time>2020-05-17T09:09:58.000Z</time>
      </trkpt>
      <trkpt lat="47.30216" lon="-2.24058">
        <ele>-3.2000000476837</ele>
        <time>2020-05-17T09:09:59.000Z</time>
      </trkpt>
      <trkpt lat="47.30218" lon="-2.24058">
        <ele>-3.5999999046326</ele>
        <time>2020-05-17T09:10:00.000Z</time>
      </trkpt>
      <trkpt lat="47.30219" lon="-2.24058">
        <ele>-4</ele>
        <time>2020-05-17T09:10:01.000Z</time>
      </trkpt>
      <trkpt lat="47.30223" lon="-2.24058">
        <ele>-4</ele>
        <time>2020-05-17T09:10:04.000Z</time>
      </trkpt>
      <trkpt lat="47.30226" lon="-2.24057">
        <ele>-4</ele>
        <time>2020-05-17T09:10:06.000Z</time>
      </trkpt>
      <trkpt lat="47.30229" lon="-2.24057">
        <ele>-4</ele>
        <time>2020-05-17T09:10:10.000Z</time>
      </trkpt>
      <trkpt lat="47.30231" lon="-2.24058">
        <ele>-5.4000000953674</ele>
        <time>2020-05-17T09:10:13.000Z</time>
      </trkpt>
      <trkpt lat="47.30232" lon="-2.24058">
        <ele>-5.8000001907349</ele>
        <time>2020-05-17T09:10:14.000Z</time>
      </trkpt>
      <trkpt lat="47.30233" lon="-2.24058">
        <ele>-6.1999998092651</ele>
        <time>2020-05-17T09:10:15.000Z</time>
      </trkpt>
      <trkpt lat="47.30234" lon="-2.24058">
        <ele>-4.8000001907349</ele>
        <time>2020-05-17T09:10:16.000Z</time>
      </trkpt>
      <trkpt lat="47.30236" lon="-2.24059">
        <ele>-4.5999999046326</ele>
        <time>2020-05-17T09:10:17.000Z</time>
      </trkpt>
      <trkpt lat="47.30238" lon="-2.2406">
        <ele>-4.1999998092651</ele>
        <time>2020-05-17T09:10:18.000Z</time>
      </trkpt>
      <trkpt lat="47.30241" lon="-2.2406">
        <ele>-4</ele>
        <time>2020-05-17T09:10:19.000Z</time>
      </trkpt>
      <trkpt lat="47.30244" lon="-2.2406">
        <ele>-3.2000000476837</ele>
        <time>2020-05-17T09:10:20.000Z</time>
      </trkpt>
      <trkpt lat="47.30249" lon="-2.24062">
        <ele>-3.2000000476837</ele>
        <time>2020-05-17T09:10:22.000Z</time>
      </trkpt>
      <trkpt lat="47.3026" lon="-2.24066">
        <ele>-3.2000000476837</ele>
        <time>2020-05-17T09:10:30.000Z</time>
      </trkpt>
      <trkpt lat="47.30265" lon="-2.24066">
        <ele>-3.2000000476837</ele>
        <time>2020-05-17T09:10:33.000Z</time>
      </trkpt>
      <trkpt lat="47.30271" lon="-2.24064">
        <ele>-3.2000000476837</ele>
        <time>2020-05-17T09:10:36.000Z</time>
      </trkpt>
      <trkpt lat="47.30277" lon="-2.24049">
        <ele>-3.2000000476837</ele>
        <time>2020-05-17T09:10:40.000Z</time>
      </trkpt>
      <trkpt lat="47.30278" lon="-2.24031">
        <ele>-3.7999999523163</ele>
        <time>2020-05-17T09:10:43.000Z</time>
      </trkpt>
      <trkpt lat="47.30278" lon="-2.24023">
        <ele>-4.1999998092651</ele>
        <time>2020-05-17T09:10:44.000Z</time>
      </trkpt>
      <trkpt lat="47.30277" lon="-2.24015">
        <ele>-5</ele>
        <time>2020-05-17T09:10:45.000Z</time>
      </trkpt>
      <trkpt lat="47.30276" lon="-2.24007">
        <ele>-5.4000000953674</ele>
        <time>2020-05-17T09:10:46.000Z</time>
      </trkpt>
      <trkpt lat="47.30268" lon="-2.23965">
        <ele>-5.4000000953674</ele>
        <time>2020-05-17T09:10:51.000Z</time>
      </trkpt>
      <trkpt lat="47.30264" lon="-2.23947">
        <ele>-6</ele>
        <time>2020-05-17T09:10:53.000Z</time>
      </trkpt>
      <trkpt lat="47.30262" lon="-2.23937">
        <ele>-6.4000000953674</ele>
        <time>2020-05-17T09:10:54.000Z</time>
      </trkpt>
      <trkpt lat="47.30261" lon="-2.23928">
        <ele>-6.8000001907349</ele>
        <time>2020-05-17T09:10:55.000Z</time>
      </trkpt>
      <trkpt lat="47.30261" lon="-2.23918">
        <ele>-7.1999998092651</ele>
        <time>2020-05-17T09:10:56.000Z</time>
      </trkpt>
      <trkpt lat="47.30261" lon="-2.2391">
        <ele>-7.5999999046326</ele>
        <time>2020-05-17T09:10:57.000Z</time>
      </trkpt>
      <trkpt lat="47.30268" lon="-2.23891">
        <ele>-7.5999999046326</ele>
        <time>2020-05-17T09:11:00.000Z</time>
      </trkpt>
      <trkpt lat="47.30277" lon="-2.23886">
        <ele>-7.5999999046326</ele>
        <time>2020-05-17T09:11:02.000Z</time>
      </trkpt>
      <trkpt lat="47.30282" lon="-2.23884">
        <ele>-8.1999998092651</ele>
        <time>2020-05-17T09:11:03.000Z</time>
      </trkpt>
      <trkpt lat="47.30288" lon="-2.23883">
        <ele>-8.6000003814697</ele>
        <time>2020-05-17T09:11:04.000Z</time>
      </trkpt>
      <trkpt lat="47.30294" lon="-2.23883">
        <ele>-9</ele>
        <time>2020-05-17T09:11:05.000Z</time>
      </trkpt>
      <trkpt lat="47.303" lon="-2.23881">
        <ele>-9.3999996185303</ele>
        <time>2020-05-17T09:11:06.000Z</time>
      </trkpt>
      <trkpt lat="47.30306" lon="-2.23878">
        <ele>-9.8000001907349</ele>
        <time>2020-05-17T09:11:07.000Z</time>
      </trkpt>
      <trkpt lat="47.30357" lon="-2.23858">
        <ele>-9.8000001907349</ele>
        <time>2020-05-17T09:11:15.000Z</time>
      </trkpt>
      <trkpt lat="47.30388" lon="-2.23853">
        <ele>-9.8000001907349</ele>
        <time>2020-05-17T09:11:20.000Z</time>
      </trkpt>
      <trkpt lat="47.30423" lon="-2.23846">
        <ele>-9.8000001907349</ele>
        <time>2020-05-17T09:11:27.000Z</time>
      </trkpt>
      <trkpt lat="47.30432" lon="-2.23846">
        <ele>-9.8000001907349</ele>
        <time>2020-05-17T09:11:29.000Z</time>
      </trkpt>
      <trkpt lat="47.30449" lon="-2.23843">
        <ele>-9.8000001907349</ele>
        <time>2020-05-17T09:11:33.000Z</time>
      </trkpt>
      <trkpt lat="47.30457" lon="-2.23842">
        <ele>-9.8000001907349</ele>
        <time>2020-05-17T09:11:35.000Z</time>
      </trkpt>
      <trkpt lat="47.30474" lon="-2.23841">
        <ele>-9.8000001907349</ele>
        <time>2020-05-17T09:11:39.000Z</time>
      </trkpt>
      <trkpt lat="47.30492" lon="-2.23846">
        <ele>-9.8000001907349</ele>
        <time>2020-05-17T09:11:44.000Z</time>
      </trkpt>
      <trkpt lat="47.30508" lon="-2.23865">
        <ele>-9.8000001907349</ele>
        <time>2020-05-17T09:11:50.000Z</time>
      </trkpt>
      <trkpt lat="47.30524" lon="-2.23888">
        <ele>-9.8000001907349</ele>
        <time>2020-05-17T09:11:57.000Z</time>
      </trkpt>
      <trkpt lat="47.30536" lon="-2.23907">
        <ele>-9.8000001907349</ele>
        <time>2020-05-17T09:12:03.000Z</time>
      </trkpt>
      <trkpt lat="47.3055" lon="-2.23937">
        <ele>-9.8000001907349</ele>
        <time>2020-05-17T09:12:10.000Z</time>
      </trkpt>
      <trkpt lat="47.30544" lon="-2.23952">
        <ele>-9.8000001907349</ele>
        <time>2020-05-17T09:12:13.000Z</time>
      </trkpt>
      <trkpt lat="47.30527" lon="-2.2397">
        <ele>-9.8000001907349</ele>
        <time>2020-05-17T09:12:19.000Z</time>
      </trkpt>
      <trkpt lat="47.30512" lon="-2.2399">
        <ele>-9.8000001907349</ele>
        <time>2020-05-17T09:12:25.000Z</time>
      </trkpt>
      <trkpt lat="47.30509" lon="-2.23993">
        <ele>-9.3999996185303</ele>
        <time>2020-05-17T09:12:26.000Z</time>
      </trkpt>
      <trkpt lat="47.30507" lon="-2.23997">
        <ele>-9</ele>
        <time>2020-05-17T09:12:27.000Z</time>
      </trkpt>
      <trkpt lat="47.30505" lon="-2.24">
        <ele>-8.6000003814697</ele>
        <time>2020-05-17T09:12:28.000Z</time>
      </trkpt>
      <trkpt lat="47.30502" lon="-2.24004">
        <ele>-8.1999998092651</ele>
        <time>2020-05-17T09:12:29.000Z</time>
      </trkpt>
      <trkpt lat="47.305" lon="-2.24007">
        <ele>-7.8000001907349</ele>
        <time>2020-05-17T09:12:30.000Z</time>
      </trkpt>
      <trkpt lat="47.30498" lon="-2.24011">
        <ele>-7.8000001907349</ele>
        <time>2020-05-17T09:12:31.000Z</time>
      </trkpt>
      <trkpt lat="47.3049" lon="-2.24022">
        <ele>-7.4000000953674</ele>
        <time>2020-05-17T09:12:34.000Z</time>
      </trkpt>
      <trkpt lat="47.30487" lon="-2.24026">
        <ele>-6.8000001907349</ele>
        <time>2020-05-17T09:12:35.000Z</time>
      </trkpt>
      <trkpt lat="47.30484" lon="-2.24029">
        <ele>-6.4000000953674</ele>
        <time>2020-05-17T09:12:36.000Z</time>
      </trkpt>
      <trkpt lat="47.30482" lon="-2.24032">
        <ele>-6</ele>
        <time>2020-05-17T09:12:37.000Z</time>
      </trkpt>
      <trkpt lat="47.30479" lon="-2.24035">
        <ele>-5.4000000953674</ele>
        <time>2020-05-17T09:12:38.000Z</time>
      </trkpt>
      <trkpt lat="47.30476" lon="-2.24037">
        <ele>-5</ele>
        <time>2020-05-17T09:12:39.000Z</time>
      </trkpt>
      <trkpt lat="47.30473" lon="-2.24039">
        <ele>-4.5999999046326</ele>
        <time>2020-05-17T09:12:40.000Z</time>
      </trkpt>
      <trkpt lat="47.3047" lon="-2.2404">
        <ele>-4.1999998092651</ele>
        <time>2020-05-17T09:12:41.000Z</time>
      </trkpt>
      <trkpt lat="47.30467" lon="-2.24041">
        <ele>-3.7999999523163</ele>
        <time>2020-05-17T09:12:42.000Z</time>
      </trkpt>
      <trkpt lat="47.30463" lon="-2.24043">
        <ele>-3.4000000953674</ele>
        <time>2020-05-17T09:12:43.000Z</time>
      </trkpt>
      <trkpt lat="47.30454" lon="-2.24052">
        <ele>-3</ele>
        <time>2020-05-17T09:12:46.000Z</time>
      </trkpt>
      <trkpt lat="47.30451" lon="-2.24055">
        <ele>-2.5999999046326</ele>
        <time>2020-05-17T09:12:47.000Z</time>
      </trkpt>
      <trkpt lat="47.30448" lon="-2.24058">
        <ele>-1.6000000238419</ele>
        <time>2020-05-17T09:12:48.000Z</time>
      </trkpt>
      <trkpt lat="47.30445" lon="-2.24061">
        <ele>-1.2000000476837</ele>
        <time>2020-05-17T09:12:49.000Z</time>
      </trkpt>
      <trkpt lat="47.30432" lon="-2.24076">
        <ele>-1.2000000476837</ele>
        <time>2020-05-17T09:12:54.000Z</time>
      </trkpt>
      <trkpt lat="47.30423" lon="-2.24087">
        <ele>-0.80000001192093</ele>
        <time>2020-05-17T09:12:58.000Z</time>
      </trkpt>
      <trkpt lat="47.3042" lon="-2.2409">
        <ele>-0.40000000596046</ele>
        <time>2020-05-17T09:12:59.000Z</time>
      </trkpt>
      <trkpt lat="47.30418" lon="-2.24092">
        <ele>0.20000000298023</ele>
        <time>2020-05-17T09:13:00.000Z</time>
      </trkpt>
      <trkpt lat="47.30415" lon="-2.24095">
        <ele>0.60000002384186</ele>
        <time>2020-05-17T09:13:01.000Z</time>
      </trkpt>
      <trkpt lat="47.30413" lon="-2.24098">
        <ele>1</ele>
        <time>2020-05-17T09:13:02.000Z</time>
      </trkpt>
      <trkpt lat="47.30396" lon="-2.24115">
        <ele>1</ele>
        <time>2020-05-17T09:13:07.000Z</time>
      </trkpt>
      <trkpt lat="47.30393" lon="-2.24119">
        <ele>1.3999999761581</ele>
        <time>2020-05-17T09:13:08.000Z</time>
      </trkpt>
      <trkpt lat="47.30389" lon="-2.24122">
        <ele>1.7999999523163</ele>
        <time>2020-05-17T09:13:09.000Z</time>
      </trkpt>
      <trkpt lat="47.30384" lon="-2.24125">
        <ele>2.2000000476837</ele>
        <time>2020-05-17T09:13:10.000Z</time>
      </trkpt>
      <trkpt lat="47.3038" lon="-2.24129">
        <ele>2.7999999523163</ele>
        <time>2020-05-17T09:13:11.000Z</time>
      </trkpt>
      <trkpt lat="47.30377" lon="-2.24133">
        <ele>3.2000000476837</ele>
        <time>2020-05-17T09:13:12.000Z</time>
      </trkpt>
      <trkpt lat="47.30373" lon="-2.24138">
        <ele>3.2000000476837</ele>
        <time>2020-05-17T09:13:13.000Z</time>
      </trkpt>
      <trkpt lat="47.30357" lon="-2.24161">
        <ele>3.2000000476837</ele>
        <time>2020-05-17T09:13:17.000Z</time>
      </trkpt>
      <trkpt lat="47.30352" lon="-2.24168">
        <ele>3.2000000476837</ele>
        <time>2020-05-17T09:13:18.000Z</time>
      </trkpt>
      <trkpt lat="47.30348" lon="-2.24192">
        <ele>3.2000000476837</ele>
        <time>2020-05-17T09:13:21.000Z</time>
      </trkpt>
      <trkpt lat="47.30357" lon="-2.2421">
        <ele>3.2000000476837</ele>
        <time>2020-05-17T09:13:24.000Z</time>
      </trkpt>
      <trkpt lat="47.30364" lon="-2.24218">
        <ele>3.2000000476837</ele>
        <time>2020-05-17T09:13:26.000Z</time>
      </trkpt>
      <trkpt lat="47.3038" lon="-2.24235">
        <ele>3.2000000476837</ele>
        <time>2020-05-17T09:13:30.000Z</time>
      </trkpt>
      <trkpt lat="47.30409" lon="-2.24263">
        <ele>3.2000000476837</ele>
        <time>2020-05-17T09:13:36.000Z</time>
      </trkpt>
      <trkpt lat="47.30419" lon="-2.24271">
        <ele>3.2000000476837</ele>
        <time>2020-05-17T09:13:38.000Z</time>
      </trkpt>
      <trkpt lat="47.30436" lon="-2.24276">
        <ele>3.2000000476837</ele>
        <time>2020-05-17T09:13:41.000Z</time>
      </trkpt>
      <trkpt lat="47.30477" lon="-2.24289">
        <ele>3.2000000476837</ele>
        <time>2020-05-17T09:13:48.000Z</time>
      </trkpt>
      <trkpt lat="47.30503" lon="-2.24304">
        <ele>3.2000000476837</ele>
        <time>2020-05-17T09:13:53.000Z</time>
      </trkpt>
      <trkpt lat="47.30507" lon="-2.24309">
        <ele>3.2000000476837</ele>
        <time>2020-05-17T09:13:54.000Z</time>
      </trkpt>
      <trkpt lat="47.30541" lon="-2.24345">
        <ele>3.2000000476837</ele>
        <time>2020-05-17T09:14:02.000Z</time>
      </trkpt>
      <trkpt lat="47.30558" lon="-2.24364">
        <ele>3.2000000476837</ele>
        <time>2020-05-17T09:14:06.000Z</time>
      </trkpt>
      <trkpt lat="47.30571" lon="-2.24379">
        <ele>3.2000000476837</ele>
        <time>2020-05-17T09:14:09.000Z</time>
      </trkpt>
      <trkpt lat="47.30605" lon="-2.24414">
        <ele>3.2000000476837</ele>
        <time>2020-05-17T09:14:16.000Z</time>
      </trkpt>
      <trkpt lat="47.3061" lon="-2.24417">
        <ele>3.2000000476837</ele>
        <time>2020-05-17T09:14:17.000Z</time>
      </trkpt>
      <trkpt lat="47.30616" lon="-2.2442">
        <ele>2.7999999523163</ele>
        <time>2020-05-17T09:14:18.000Z</time>
      </trkpt>
      <trkpt lat="47.30621" lon="-2.24422">
        <ele>2.2000000476837</ele>
        <time>2020-05-17T09:14:19.000Z</time>
      </trkpt>
      <trkpt lat="47.30625" lon="-2.24424">
        <ele>1.7999999523163</ele>
        <time>2020-05-17T09:14:20.000Z</time>
      </trkpt>
      <trkpt lat="47.30629" lon="-2.24427">
        <ele>1.3999999761581</ele>
        <time>2020-05-17T09:14:21.000Z</time>
      </trkpt>
      <trkpt lat="47.30632" lon="-2.2443">
        <ele>1</ele>
        <time>2020-05-17T09:14:22.000Z</time>
      </trkpt>
      <trkpt lat="47.30635" lon="-2.24444">
        <ele>1</ele>
        <time>2020-05-17T09:14:24.000Z</time>
      </trkpt>
      <trkpt lat="47.30635" lon="-2.24451">
        <ele>0.40000000596046</ele>
        <time>2020-05-17T09:14:25.000Z</time>
      </trkpt>
      <trkpt lat="47.30634" lon="-2.24459">
        <ele>-0.40000000596046</ele>
        <time>2020-05-17T09:14:26.000Z</time>
      </trkpt>
      <trkpt lat="47.30633" lon="-2.24469">
        <ele>-1</ele>
        <time>2020-05-17T09:14:27.000Z</time>
      </trkpt>
      <trkpt lat="47.30632" lon="-2.24478">
        <ele>-1.3999999761581</ele>
        <time>2020-05-17T09:14:28.000Z</time>
      </trkpt>
      <trkpt lat="47.30625" lon="-2.24522">
        <ele>-1.7999999523163</ele>
        <time>2020-05-17T09:14:32.000Z</time>
      </trkpt>
      <trkpt lat="47.30624" lon="-2.24534">
        <ele>-2.2000000476837</ele>
        <time>2020-05-17T09:14:33.000Z</time>
      </trkpt>
      <trkpt lat="47.30622" lon="-2.24547">
        <ele>-2.5999999046326</ele>
        <time>2020-05-17T09:14:34.000Z</time>
      </trkpt>
      <trkpt lat="47.3062" lon="-2.2456">
        <ele>-3</ele>
        <time>2020-05-17T09:14:35.000Z</time>
      </trkpt>
      <trkpt lat="47.30618" lon="-2.24573">
        <ele>-3.4000000953674</ele>
        <time>2020-05-17T09:14:36.000Z</time>
      </trkpt>
      <trkpt lat="47.30615" lon="-2.24597">
        <ele>-4</ele>
        <time>2020-05-17T09:14:38.000Z</time>
      </trkpt>
      <trkpt lat="47.30614" lon="-2.2461">
        <ele>-4.5999999046326</ele>
        <time>2020-05-17T09:14:39.000Z</time>
      </trkpt>
      <trkpt lat="47.30615" lon="-2.24622">
        <ele>-5.1999998092651</ele>
        <time>2020-05-17T09:14:40.000Z</time>
      </trkpt>
      <trkpt lat="47.30617" lon="-2.24633">
        <ele>-5.8000001907349</ele>
        <time>2020-05-17T09:14:41.000Z</time>
      </trkpt>
      <trkpt lat="47.3062" lon="-2.24645">
        <ele>-6.4000000953674</ele>
        <time>2020-05-17T09:14:42.000Z</time>
      </trkpt>
      <trkpt lat="47.30626" lon="-2.24666">
        <ele>-6.4000000953674</ele>
        <time>2020-05-17T09:14:44.000Z</time>
      </trkpt>
      <trkpt lat="47.30635" lon="-2.24697">
        <ele>-6.4000000953674</ele>
        <time>2020-05-17T09:14:47.000Z</time>
      </trkpt>
      <trkpt lat="47.30645" lon="-2.24726">
        <ele>-7.1999998092651</ele>
        <time>2020-05-17T09:14:50.000Z</time>
      </trkpt>
      <trkpt lat="47.30648" lon="-2.24735">
        <ele>-7.5999999046326</ele>
        <time>2020-05-17T09:14:51.000Z</time>
      </trkpt>
      <trkpt lat="47.3065" lon="-2.24743">
        <ele>-8</ele>
        <time>2020-05-17T09:14:52.000Z</time>
      </trkpt>
      <trkpt lat="47.30652" lon="-2.24751">
        <ele>-8.3999996185303</ele>
        <time>2020-05-17T09:14:53.000Z</time>
      </trkpt>
      <trkpt lat="47.30646" lon="-2.24773">
        <ele>-8.3999996185303</ele>
        <time>2020-05-17T09:14:56.000Z</time>
      </trkpt>
      <trkpt lat="47.30637" lon="-2.24784">
        <ele>-8.3999996185303</ele>
        <time>2020-05-17T09:14:58.000Z</time>
      </trkpt>
      <trkpt lat="47.30632" lon="-2.2479">
        <ele>-8.3999996185303</ele>
        <time>2020-05-17T09:14:59.000Z</time>
      </trkpt>
      <trkpt lat="47.30605" lon="-2.24829">
        <ele>-8.3999996185303</ele>
        <time>2020-05-17T09:15:05.000Z</time>
      </trkpt>
      <trkpt lat="47.30598" lon="-2.24843">
        <ele>-8.3999996185303</ele>
        <time>2020-05-17T09:15:07.000Z</time>
      </trkpt>
      <trkpt lat="47.30586" lon="-2.24872">
        <ele>-8.3999996185303</ele>
        <time>2020-05-17T09:15:11.000Z</time>
      </trkpt>
      <trkpt lat="47.30575" lon="-2.24915">
        <ele>-8.3999996185303</ele>
        <time>2020-05-17T09:15:17.000Z</time>
      </trkpt>
      <trkpt lat="47.30571" lon="-2.24951">
        <ele>-8.3999996185303</ele>
        <time>2020-05-17T09:15:22.000Z</time>
      </trkpt>
      <trkpt lat="47.30572" lon="-2.24958">
        <ele>-8.3999996185303</ele>
        <time>2020-05-17T09:15:23.000Z</time>
      </trkpt>
      <trkpt lat="47.30574" lon="-2.24992">
        <ele>-8.3999996185303</ele>
        <time>2020-05-17T09:15:27.000Z</time>
      </trkpt>
      <trkpt lat="47.3058" lon="-2.25053">
        <ele>-8.3999996185303</ele>
        <time>2020-05-17T09:15:34.000Z</time>
      </trkpt>
      <trkpt lat="47.30591" lon="-2.25123">
        <ele>-8.3999996185303</ele>
        <time>2020-05-17T09:15:43.000Z</time>
      </trkpt>
      <trkpt lat="47.30598" lon="-2.25144">
        <ele>-8.3999996185303</ele>
        <time>2020-05-17T09:15:46.000Z</time>
      </trkpt>
      <trkpt lat="47.30611" lon="-2.2517">
        <ele>-8.3999996185303</ele>
        <time>2020-05-17T09:15:50.000Z</time>
      </trkpt>
      <trkpt lat="47.30631" lon="-2.25217">
        <ele>-8.3999996185303</ele>
        <time>2020-05-17T09:15:57.000Z</time>
      </trkpt>
      <trkpt lat="47.30641" lon="-2.25252">
        <ele>-8.3999996185303</ele>
        <time>2020-05-17T09:16:02.000Z</time>
      </trkpt>
      <trkpt lat="47.30649" lon="-2.25297">
        <ele>-8.3999996185303</ele>
        <time>2020-05-17T09:16:08.000Z</time>
      </trkpt>
      <trkpt lat="47.3065" lon="-2.25304">
        <ele>-8.3999996185303</ele>
        <time>2020-05-17T09:16:09.000Z</time>
      </trkpt>
      <trkpt lat="47.30654" lon="-2.25335">
        <ele>-8.3999996185303</ele>
        <time>2020-05-17T09:16:13.000Z</time>
      </trkpt>
      <trkpt lat="47.30659" lon="-2.25376">
        <ele>-8.3999996185303</ele>
        <time>2020-05-17T09:16:18.000Z</time>
      </trkpt>
      <trkpt lat="47.30659" lon="-2.25382">
        <ele>-8.3999996185303</ele>
        <time>2020-05-17T09:16:19.000Z</time>
      </trkpt>
      <trkpt lat="47.3066" lon="-2.25398">
        <ele>-8.3999996185303</ele>
        <time>2020-05-17T09:16:22.000Z</time>
      </trkpt>
      <trkpt lat="47.30659" lon="-2.25404">
        <ele>-8.3999996185303</ele>
        <time>2020-05-17T09:16:24.000Z</time>
      </trkpt>
      <trkpt lat="47.30661" lon="-2.2541">
        <ele>-8.3999996185303</ele>
        <time>2020-05-17T09:16:27.000Z</time>
      </trkpt>
      <trkpt lat="47.30663" lon="-2.25411">
        <ele>-8.3999996185303</ele>
        <time>2020-05-17T09:16:28.000Z</time>
      </trkpt>
      <trkpt lat="47.30676" lon="-2.25421">
        <ele>-8.3999996185303</ele>
        <time>2020-05-17T09:16:33.000Z</time>
      </trkpt>
      <trkpt lat="47.3068" lon="-2.25428">
        <ele>-8.3999996185303</ele>
        <time>2020-05-17T09:16:35.000Z</time>
      </trkpt>
      <trkpt lat="47.30688" lon="-2.25431">
        <ele>-8.3999996185303</ele>
        <time>2020-05-17T09:16:38.000Z</time>
      </trkpt>
      <trkpt lat="47.30706" lon="-2.25429">
        <ele>-8.3999996185303</ele>
        <time>2020-05-17T09:16:44.000Z</time>
      </trkpt>
      <trkpt lat="47.30725" lon="-2.25431">
        <ele>-8.3999996185303</ele>
        <time>2020-05-17T09:16:50.000Z</time>
      </trkpt>
      <trkpt lat="47.30746" lon="-2.25431">
        <ele>-8.3999996185303</ele>
        <time>2020-05-17T09:16:57.000Z</time>
      </trkpt>
      <trkpt lat="47.30766" lon="-2.25428">
        <ele>-8.3999996185303</ele>
        <time>2020-05-17T09:17:05.000Z</time>
      </trkpt>
      <trkpt lat="47.30777" lon="-2.25426">
        <ele>-8.3999996185303</ele>
        <time>2020-05-17T09:17:11.000Z</time>
      </trkpt>
      <trkpt lat="47.30779" lon="-2.25424">
        <ele>-8.3999996185303</ele>
        <time>2020-05-17T09:17:12.000Z</time>
      </trkpt>
      <trkpt lat="47.30786" lon="-2.25423">
        <ele>-8.3999996185303</ele>
        <time>2020-05-17T09:17:16.000Z</time>
      </trkpt>
      <trkpt lat="47.30799" lon="-2.25422">
        <ele>-8</ele>
        <time>2020-05-17T09:17:21.000Z</time>
      </trkpt>
      <trkpt lat="47.30802" lon="-2.25422">
        <ele>-7.5999999046326</ele>
        <time>2020-05-17T09:17:22.000Z</time>
      </trkpt>
      <trkpt lat="47.30804" lon="-2.25421">
        <ele>-7.1999998092651</ele>
        <time>2020-05-17T09:17:23.000Z</time>
      </trkpt>
      <trkpt lat="47.30806" lon="-2.25421">
        <ele>-6.8000001907349</ele>
        <time>2020-05-17T09:17:24.000Z</time>
      </trkpt>
      <trkpt lat="47.30808" lon="-2.25419">
        <ele>-6.4000000953674</ele>
        <time>2020-05-17T09:17:25.000Z</time>
      </trkpt>
      <trkpt lat="47.30817" lon="-2.25418">
        <ele>-6.4000000953674</ele>
        <time>2020-05-17T09:17:28.000Z</time>
      </trkpt>
      <trkpt lat="47.30836" lon="-2.25414">
        <ele>-6.4000000953674</ele>
        <time>2020-05-17T09:17:35.000Z</time>
      </trkpt>
      <trkpt lat="47.30841" lon="-2.25414">
        <ele>-6</ele>
        <time>2020-05-17T09:17:37.000Z</time>
      </trkpt>
      <trkpt lat="47.30844" lon="-2.25414">
        <ele>-5.5999999046326</ele>
        <time>2020-05-17T09:17:38.000Z</time>
      </trkpt>
      <trkpt lat="47.30846" lon="-2.25415">
        <ele>-5.1999998092651</ele>
        <time>2020-05-17T09:17:39.000Z</time>
      </trkpt>
      <trkpt lat="47.30849" lon="-2.25418">
        <ele>-4.8000001907349</ele>
        <time>2020-05-17T09:17:40.000Z</time>
      </trkpt>
      <trkpt lat="47.30851" lon="-2.25421">
        <ele>-4.4000000953674</ele>
        <time>2020-05-17T09:17:41.000Z</time>
      </trkpt>
      <trkpt lat="47.30857" lon="-2.25444">
        <ele>-4.4000000953674</ele>
        <time>2020-05-17T09:17:46.000Z</time>
      </trkpt>
      <trkpt lat="47.30861" lon="-2.25484">
        <ele>-4.4000000953674</ele>
        <time>2020-05-17T09:17:52.000Z</time>
      </trkpt>
      <trkpt lat="47.30862" lon="-2.25505">
        <ele>-4</ele>
        <time>2020-05-17T09:17:55.000Z</time>
      </trkpt>
      <trkpt lat="47.30863" lon="-2.25511">
        <ele>-3.5999999046326</ele>
        <time>2020-05-17T09:17:56.000Z</time>
      </trkpt>
      <trkpt lat="47.30863" lon="-2.25518">
        <ele>-3.2000000476837</ele>
        <time>2020-05-17T09:17:57.000Z</time>
      </trkpt>
      <trkpt lat="47.30863" lon="-2.25524">
        <ele>-2.7999999523163</ele>
        <time>2020-05-17T09:17:58.000Z</time>
      </trkpt>
      <trkpt lat="47.30864" lon="-2.25531">
        <ele>-2.4000000953674</ele>
        <time>2020-05-17T09:17:59.000Z</time>
      </trkpt>
      <trkpt lat="47.30867" lon="-2.25559">
        <ele>-2.4000000953674</ele>
        <time>2020-05-17T09:18:03.000Z</time>
      </trkpt>
      <trkpt lat="47.30868" lon="-2.25572">
        <ele>-2.4000000953674</ele>
        <time>2020-05-17T09:18:05.000Z</time>
      </trkpt>
      <trkpt lat="47.30873" lon="-2.25618">
        <ele>-2.4000000953674</ele>
        <time>2020-05-17T09:18:12.000Z</time>
      </trkpt>
      <trkpt lat="47.30875" lon="-2.25668">
        <ele>-2.4000000953674</ele>
        <time>2020-05-17T09:18:19.000Z</time>
      </trkpt>
      <trkpt lat="47.30876" lon="-2.25687">
        <ele>-2</ele>
        <time>2020-05-17T09:18:22.000Z</time>
      </trkpt>
      <trkpt lat="47.30876" lon="-2.25694">
        <ele>-1.6000000238419</ele>
        <time>2020-05-17T09:18:23.000Z</time>
      </trkpt>
      <trkpt lat="47.30876" lon="-2.257">
        <ele>-1.2000000476837</ele>
        <time>2020-05-17T09:18:24.000Z</time>
      </trkpt>
      <trkpt lat="47.30876" lon="-2.25706">
        <ele>-0.80000001192093</ele>
        <time>2020-05-17T09:18:25.000Z</time>
      </trkpt>
      <trkpt lat="47.30876" lon="-2.25714">
        <ele>-0.40000000596046</ele>
        <time>2020-05-17T09:18:26.000Z</time>
      </trkpt>
      <trkpt lat="47.30879" lon="-2.25769">
        <ele>-0.40000000596046</ele>
        <time>2020-05-17T09:18:34.000Z</time>
      </trkpt>
      <trkpt lat="47.3088" lon="-2.25775">
        <ele>-0.40000000596046</ele>
        <time>2020-05-17T09:18:35.000Z</time>
      </trkpt>
      <trkpt lat="47.30887" lon="-2.25803">
        <ele>-0.40000000596046</ele>
        <time>2020-05-17T09:18:39.000Z</time>
      </trkpt>
      <trkpt lat="47.30897" lon="-2.25837">
        <ele>-0.40000000596046</ele>
        <time>2020-05-17T09:18:44.000Z</time>
      </trkpt>
      <trkpt lat="47.30902" lon="-2.2585">
        <ele>-0.40000000596046</ele>
        <time>2020-05-17T09:18:46.000Z</time>
      </trkpt>
      <trkpt lat="47.30911" lon="-2.25876">
        <ele>-0.40000000596046</ele>
        <time>2020-05-17T09:18:50.000Z</time>
      </trkpt>
      <trkpt lat="47.3091" lon="-2.25889">
        <ele>-0.40000000596046</ele>
        <time>2020-05-17T09:18:52.000Z</time>
      </trkpt>
      <trkpt lat="47.30899" lon="-2.25905">
        <ele>-0.40000000596046</ele>
        <time>2020-05-17T09:18:55.000Z</time>
      </trkpt>
      <trkpt lat="47.30889" lon="-2.25915">
        <ele>-0.40000000596046</ele>
        <time>2020-05-17T09:18:57.000Z</time>
      </trkpt>
      <trkpt lat="47.30885" lon="-2.25921">
        <ele>-0.40000000596046</ele>
        <time>2020-05-17T09:18:58.000Z</time>
      </trkpt>
      <trkpt lat="47.30876" lon="-2.25932">
        <ele>-0.40000000596046</ele>
        <time>2020-05-17T09:19:00.000Z</time>
      </trkpt>
      <trkpt lat="47.30847" lon="-2.25965">
        <ele>-0.40000000596046</ele>
        <time>2020-05-17T09:19:06.000Z</time>
      </trkpt>
      <trkpt lat="47.3082" lon="-2.25994">
        <ele>-0.40000000596046</ele>
        <time>2020-05-17T09:19:12.000Z</time>
      </trkpt>
      <trkpt lat="47.30811" lon="-2.2601">
        <ele>-0.40000000596046</ele>
        <time>2020-05-17T09:19:16.000Z</time>
      </trkpt>
      <trkpt lat="47.30813" lon="-2.26014">
        <ele>-0.40000000596046</ele>
        <time>2020-05-17T09:19:17.000Z</time>
      </trkpt>
      <trkpt lat="47.30817" lon="-2.26021">
        <ele>-0.40000000596046</ele>
        <time>2020-05-17T09:19:19.000Z</time>
      </trkpt>
      <trkpt lat="47.30821" lon="-2.26024">
        <ele>-0.40000000596046</ele>
        <time>2020-05-17T09:19:21.000Z</time>
      </trkpt>
      <trkpt lat="47.30825" lon="-2.26024">
        <ele>-0.40000000596046</ele>
        <time>2020-05-17T09:19:23.000Z</time>
      </trkpt>
      <trkpt lat="47.30843" lon="-2.26023">
        <ele>-0.40000000596046</ele>
        <time>2020-05-17T09:19:31.000Z</time>
      </trkpt>
      <trkpt lat="47.30859" lon="-2.26024">
        <ele>-0.80000001192093</ele>
        <time>2020-05-17T09:19:37.000Z</time>
      </trkpt>
      <trkpt lat="47.30861" lon="-2.26024">
        <ele>-1.2000000476837</ele>
        <time>2020-05-17T09:19:38.000Z</time>
      </trkpt>
      <trkpt lat="47.30865" lon="-2.26024">
        <ele>-1.6000000238419</ele>
        <time>2020-05-17T09:19:39.000Z</time>
      </trkpt>
      <trkpt lat="47.30868" lon="-2.26024">
        <ele>-2</ele>
        <time>2020-05-17T09:19:40.000Z</time>
      </trkpt>
      <trkpt lat="47.30872" lon="-2.26024">
        <ele>-2.4000000953674</ele>
        <time>2020-05-17T09:19:41.000Z</time>
      </trkpt>
      <trkpt lat="47.30882" lon="-2.26024">
        <ele>-2.4000000953674</ele>
        <time>2020-05-17T09:19:44.000Z</time>
      </trkpt>
      <trkpt lat="47.30902" lon="-2.2602">
        <ele>-2.4000000953674</ele>
        <time>2020-05-17T09:19:49.000Z</time>
      </trkpt>
      <trkpt lat="47.30934" lon="-2.26014">
        <ele>-2.4000000953674</ele>
        <time>2020-05-17T09:19:57.000Z</time>
      </trkpt>
      <trkpt lat="47.30959" lon="-2.26008">
        <ele>-2.4000000953674</ele>
        <time>2020-05-17T09:20:04.000Z</time>
      </trkpt>
      <trkpt lat="47.30971" lon="-2.26009">
        <ele>-2.7999999523163</ele>
        <time>2020-05-17T09:20:07.000Z</time>
      </trkpt>
      <trkpt lat="47.30974" lon="-2.26009">
        <ele>-3.2000000476837</ele>
        <time>2020-05-17T09:20:08.000Z</time>
      </trkpt>
      <trkpt lat="47.30978" lon="-2.26009">
        <ele>-3.5999999046326</ele>
        <time>2020-05-17T09:20:09.000Z</time>
      </trkpt>
      <trkpt lat="47.30981" lon="-2.26008">
        <ele>-4</ele>
        <time>2020-05-17T09:20:10.000Z</time>
      </trkpt>
      <trkpt lat="47.30984" lon="-2.26008">
        <ele>-4.4000000953674</ele>
        <time>2020-05-17T09:20:11.000Z</time>
      </trkpt>
      <trkpt lat="47.31002" lon="-2.26008">
        <ele>-4.4000000953674</ele>
        <time>2020-05-17T09:20:15.000Z</time>
      </trkpt>
      <trkpt lat="47.31038" lon="-2.26012">
        <ele>-4.4000000953674</ele>
        <time>2020-05-17T09:20:20.000Z</time>
      </trkpt>
      <trkpt lat="47.31044" lon="-2.26013">
        <ele>-4.4000000953674</ele>
        <time>2020-05-17T09:20:21.000Z</time>
      </trkpt>
      <trkpt lat="47.31051" lon="-2.26019">
        <ele>-4.4000000953674</ele>
        <time>2020-05-17T09:20:23.000Z</time>
      </trkpt>
      <trkpt lat="47.31053" lon="-2.26025">
        <ele>-4.4000000953674</ele>
        <time>2020-05-17T09:20:24.000Z</time>
      </trkpt>
      <trkpt lat="47.31049" lon="-2.26037">
        <ele>-4.4000000953674</ele>
        <time>2020-05-17T09:20:26.000Z</time>
      </trkpt>
      <trkpt lat="47.31046" lon="-2.26052">
        <ele>-4.4000000953674</ele>
        <time>2020-05-17T09:20:28.000Z</time>
      </trkpt>
      <trkpt lat="47.31042" lon="-2.2607">
        <ele>-4.4000000953674</ele>
        <time>2020-05-17T09:20:30.000Z</time>
      </trkpt>
      <trkpt lat="47.31034" lon="-2.26143">
        <ele>-4.4000000953674</ele>
        <time>2020-05-17T09:20:37.000Z</time>
      </trkpt>
      <trkpt lat="47.31025" lon="-2.26211">
        <ele>-4.8000001907349</ele>
        <time>2020-05-17T09:20:43.000Z</time>
      </trkpt>
      <trkpt lat="47.31024" lon="-2.26221">
        <ele>-5.1999998092651</ele>
        <time>2020-05-17T09:20:44.000Z</time>
      </trkpt>
      <trkpt lat="47.31022" lon="-2.26232">
        <ele>-5.8000001907349</ele>
        <time>2020-05-17T09:20:45.000Z</time>
      </trkpt>
      <trkpt lat="47.3102" lon="-2.26244">
        <ele>-6.1999998092651</ele>
        <time>2020-05-17T09:20:46.000Z</time>
      </trkpt>
      <trkpt lat="47.3102" lon="-2.26255">
        <ele>-6.5999999046326</ele>
        <time>2020-05-17T09:20:47.000Z</time>
      </trkpt>
      <trkpt lat="47.31016" lon="-2.26278">
        <ele>-6.5999999046326</ele>
        <time>2020-05-17T09:20:49.000Z</time>
      </trkpt>
      <trkpt lat="47.31013" lon="-2.26299">
        <ele>-6.5999999046326</ele>
        <time>2020-05-17T09:20:51.000Z</time>
      </trkpt>
      <trkpt lat="47.30996" lon="-2.26385">
        <ele>-6.5999999046326</ele>
        <time>2020-05-17T09:20:59.000Z</time>
      </trkpt>
      <trkpt lat="47.30994" lon="-2.26396">
        <ele>-6.5999999046326</ele>
        <time>2020-05-17T09:21:00.000Z</time>
      </trkpt>
      <trkpt lat="47.30979" lon="-2.26481">
        <ele>-6.5999999046326</ele>
        <time>2020-05-17T09:21:08.000Z</time>
      </trkpt>
      <trkpt lat="47.30964" lon="-2.26561">
        <ele>-6.5999999046326</ele>
        <time>2020-05-17T09:21:16.000Z</time>
      </trkpt>
      <trkpt lat="47.30962" lon="-2.26572">
        <ele>-6.5999999046326</ele>
        <time>2020-05-17T09:21:17.000Z</time>
      </trkpt>
      <trkpt lat="47.30951" lon="-2.26632">
        <ele>-6.5999999046326</ele>
        <time>2020-05-17T09:21:23.000Z</time>
      </trkpt>
      <trkpt lat="47.30935" lon="-2.26715">
        <ele>-6.5999999046326</ele>
        <time>2020-05-17T09:21:31.000Z</time>
      </trkpt>
      <trkpt lat="47.30923" lon="-2.26785">
        <ele>-6.5999999046326</ele>
        <time>2020-05-17T09:21:38.000Z</time>
      </trkpt>
      <trkpt lat="47.30908" lon="-2.26858">
        <ele>-6.5999999046326</ele>
        <time>2020-05-17T09:21:45.000Z</time>
      </trkpt>
      <trkpt lat="47.309" lon="-2.26887">
        <ele>-7</ele>
        <time>2020-05-17T09:21:48.000Z</time>
      </trkpt>
      <trkpt lat="47.30897" lon="-2.26896">
        <ele>-7.4000000953674</ele>
        <time>2020-05-17T09:21:49.000Z</time>
      </trkpt>
      <trkpt lat="47.30893" lon="-2.26904">
        <ele>-8.1999998092651</ele>
        <time>2020-05-17T09:21:50.000Z</time>
      </trkpt>
      <trkpt lat="47.30888" lon="-2.26911">
        <ele>-8.6000003814697</ele>
        <time>2020-05-17T09:21:51.000Z</time>
      </trkpt>
      <trkpt lat="47.30872" lon="-2.26926">
        <ele>-8.6000003814697</ele>
        <time>2020-05-17T09:21:54.000Z</time>
      </trkpt>
      <trkpt lat="47.30856" lon="-2.26931">
        <ele>-8.6000003814697</ele>
        <time>2020-05-17T09:21:57.000Z</time>
      </trkpt>
      <trkpt lat="47.30851" lon="-2.26933">
        <ele>-8.6000003814697</ele>
        <time>2020-05-17T09:21:58.000Z</time>
      </trkpt>
      <trkpt lat="47.30846" lon="-2.26934">
        <ele>-8.6000003814697</ele>
        <time>2020-05-17T09:21:59.000Z</time>
      </trkpt>
      <trkpt lat="47.30832" lon="-2.26941">
        <ele>-8.6000003814697</ele>
        <time>2020-05-17T09:22:02.000Z</time>
      </trkpt>
      <trkpt lat="47.30824" lon="-2.26948">
        <ele>-8.6000003814697</ele>
        <time>2020-05-17T09:22:04.000Z</time>
      </trkpt>
      <trkpt lat="47.30814" lon="-2.26955">
        <ele>-8.6000003814697</ele>
        <time>2020-05-17T09:22:08.000Z</time>
      </trkpt>
      <trkpt lat="47.30814" lon="-2.26957">
        <ele>-8.6000003814697</ele>
        <time>2020-05-17T09:22:09.000Z</time>
      </trkpt>
      <trkpt lat="47.30814" lon="-2.26966">
        <ele>-8.6000003814697</ele>
        <time>2020-05-17T09:22:13.000Z</time>
      </trkpt>
      <trkpt lat="47.30811" lon="-2.26978">
        <ele>-8.6000003814697</ele>
        <time>2020-05-17T09:22:16.000Z</time>
      </trkpt>
      <trkpt lat="47.3081" lon="-2.26982">
        <ele>-8.6000003814697</ele>
        <time>2020-05-17T09:22:17.000Z</time>
      </trkpt>
      <trkpt lat="47.30807" lon="-2.27004">
        <ele>-8.6000003814697</ele>
        <time>2020-05-17T09:22:22.000Z</time>
      </trkpt>
      <trkpt lat="47.30802" lon="-2.27034">
        <ele>-8.6000003814697</ele>
        <time>2020-05-17T09:22:29.000Z</time>
      </trkpt>
      <trkpt lat="47.30798" lon="-2.27055">
        <ele>-8.1999998092651</ele>
        <time>2020-05-17T09:22:33.000Z</time>
      </trkpt>
      <trkpt lat="47.30797" lon="-2.2706">
        <ele>-7.8000001907349</ele>
        <time>2020-05-17T09:22:34.000Z</time>
      </trkpt>
      <trkpt lat="47.30796" lon="-2.27064">
        <ele>-7.4000000953674</ele>
        <time>2020-05-17T09:22:35.000Z</time>
      </trkpt>
      <trkpt lat="47.30795" lon="-2.27069">
        <ele>-7</ele>
        <time>2020-05-17T09:22:36.000Z</time>
      </trkpt>
      <trkpt lat="47.30794" lon="-2.27074">
        <ele>-6.5999999046326</ele>
        <time>2020-05-17T09:22:37.000Z</time>
      </trkpt>
      <trkpt lat="47.30791" lon="-2.27087">
        <ele>-6.5999999046326</ele>
        <time>2020-05-17T09:22:41.000Z</time>
      </trkpt>
      <trkpt lat="47.30785" lon="-2.27105">
        <ele>-6.5999999046326</ele>
        <time>2020-05-17T09:22:48.000Z</time>
      </trkpt>
      <trkpt lat="47.30783" lon="-2.27108">
        <ele>-6.1999998092651</ele>
        <time>2020-05-17T09:22:49.000Z</time>
      </trkpt>
      <trkpt lat="47.30781" lon="-2.27111">
        <ele>-5.8000001907349</ele>
        <time>2020-05-17T09:22:50.000Z</time>
      </trkpt>
      <trkpt lat="47.30779" lon="-2.27113">
        <ele>-5.4000000953674</ele>
        <time>2020-05-17T09:22:51.000Z</time>
      </trkpt>
      <trkpt lat="47.30777" lon="-2.27116">
        <ele>-5</ele>
        <time>2020-05-17T09:22:52.000Z</time>
      </trkpt>
      <trkpt lat="47.30774" lon="-2.2712">
        <ele>-4.5999999046326</ele>
        <time>2020-05-17T09:22:53.000Z</time>
      </trkpt>
      <trkpt lat="47.30771" lon="-2.27123">
        <ele>-4.5999999046326</ele>
        <time>2020-05-17T09:22:54.000Z</time>
      </trkpt>
      <trkpt lat="47.30753" lon="-2.27138">
        <ele>-4.5999999046326</ele>
        <time>2020-05-17T09:23:00.000Z</time>
      </trkpt>
      <trkpt lat="47.30735" lon="-2.27144">
        <ele>-4.1999998092651</ele>
        <time>2020-05-17T09:23:05.000Z</time>
      </trkpt>
      <trkpt lat="47.30731" lon="-2.27145">
        <ele>-3.7999999523163</ele>
        <time>2020-05-17T09:23:06.000Z</time>
      </trkpt>
      <trkpt lat="47.30727" lon="-2.27146">
        <ele>-3.2000000476837</ele>
        <time>2020-05-17T09:23:07.000Z</time>
      </trkpt>
      <trkpt lat="47.30722" lon="-2.27147">
        <ele>-2.7999999523163</ele>
        <time>2020-05-17T09:23:08.000Z</time>
      </trkpt>
      <trkpt lat="47.30718" lon="-2.27149">
        <ele>-2.4000000953674</ele>
        <time>2020-05-17T09:23:09.000Z</time>
      </trkpt>
      <trkpt lat="47.307" lon="-2.27157">
        <ele>-2.4000000953674</ele>
        <time>2020-05-17T09:23:13.000Z</time>
      </trkpt>
      <trkpt lat="47.30682" lon="-2.27176">
        <ele>-2.4000000953674</ele>
        <time>2020-05-17T09:23:18.000Z</time>
      </trkpt>
      <trkpt lat="47.30665" lon="-2.27208">
        <ele>-2.4000000953674</ele>
        <time>2020-05-17T09:23:24.000Z</time>
      </trkpt>
      <trkpt lat="47.30656" lon="-2.27228">
        <ele>-2.4000000953674</ele>
        <time>2020-05-17T09:23:27.000Z</time>
      </trkpt>
      <trkpt lat="47.30648" lon="-2.27241">
        <ele>-2.4000000953674</ele>
        <time>2020-05-17T09:23:29.000Z</time>
      </trkpt>
      <trkpt lat="47.30617" lon="-2.27272">
        <ele>-2.4000000953674</ele>
        <time>2020-05-17T09:23:35.000Z</time>
      </trkpt>
      <trkpt lat="47.30586" lon="-2.27297">
        <ele>-2.4000000953674</ele>
        <time>2020-05-17T09:23:40.000Z</time>
      </trkpt>
      <trkpt lat="47.3058" lon="-2.27304">
        <ele>-2.7999999523163</ele>
        <time>2020-05-17T09:23:41.000Z</time>
      </trkpt>
      <trkpt lat="47.30574" lon="-2.2731">
        <ele>-3.4000000953674</ele>
        <time>2020-05-17T09:23:42.000Z</time>
      </trkpt>
      <trkpt lat="47.30568" lon="-2.27316">
        <ele>-3.7999999523163</ele>
        <time>2020-05-17T09:23:43.000Z</time>
      </trkpt>
      <trkpt lat="47.30563" lon="-2.27323">
        <ele>-4.1999998092651</ele>
        <time>2020-05-17T09:23:44.000Z</time>
      </trkpt>
      <trkpt lat="47.30558" lon="-2.27331">
        <ele>-4.5999999046326</ele>
        <time>2020-05-17T09:23:45.000Z</time>
      </trkpt>
      <trkpt lat="47.30553" lon="-2.2734">
        <ele>-4.5999999046326</ele>
        <time>2020-05-17T09:23:46.000Z</time>
      </trkpt>
      <trkpt lat="47.30544" lon="-2.27382">
        <ele>-4.5999999046326</ele>
        <time>2020-05-17T09:23:50.000Z</time>
      </trkpt>
      <trkpt lat="47.3055" lon="-2.27415">
        <ele>-4.5999999046326</ele>
        <time>2020-05-17T09:23:53.000Z</time>
      </trkpt>
      <trkpt lat="47.30557" lon="-2.27434">
        <ele>-5</ele>
        <time>2020-05-17T09:23:55.000Z</time>
      </trkpt>
      <trkpt lat="47.30561" lon="-2.27443">
        <ele>-5.4000000953674</ele>
        <time>2020-05-17T09:23:56.000Z</time>
      </trkpt>
      <trkpt lat="47.30565" lon="-2.27451">
        <ele>-5.8000001907349</ele>
        <time>2020-05-17T09:23:57.000Z</time>
      </trkpt>
      <trkpt lat="47.30569" lon="-2.27459">
        <ele>-6.1999998092651</ele>
        <time>2020-05-17T09:23:58.000Z</time>
      </trkpt>
      <trkpt lat="47.30573" lon="-2.27467">
        <ele>-6.5999999046326</ele>
        <time>2020-05-17T09:23:59.000Z</time>
      </trkpt>
      <trkpt lat="47.30596" lon="-2.27521">
        <ele>-6.5999999046326</ele>
        <time>2020-05-17T09:24:06.000Z</time>
      </trkpt>
      <trkpt lat="47.30594" lon="-2.27543">
        <ele>-6.5999999046326</ele>
        <time>2020-05-17T09:24:09.000Z</time>
      </trkpt>
      <trkpt lat="47.30586" lon="-2.2755">
        <ele>-6.5999999046326</ele>
        <time>2020-05-17T09:24:11.000Z</time>
      </trkpt>
      <trkpt lat="47.30579" lon="-2.27557">
        <ele>-6.5999999046326</ele>
        <time>2020-05-17T09:24:13.000Z</time>
      </trkpt>
      <trkpt lat="47.30565" lon="-2.27568">
        <ele>-6.5999999046326</ele>
        <time>2020-05-17T09:24:16.000Z</time>
      </trkpt>
      <trkpt lat="47.30552" lon="-2.27573">
        <ele>-6.5999999046326</ele>
        <time>2020-05-17T09:24:18.000Z</time>
      </trkpt>
      <trkpt lat="47.3051" lon="-2.27594">
        <ele>-6.5999999046326</ele>
        <time>2020-05-17T09:24:25.000Z</time>
      </trkpt>
      <trkpt lat="47.30469" lon="-2.27632">
        <ele>-6.5999999046326</ele>
        <time>2020-05-17T09:24:32.000Z</time>
      </trkpt>
      <trkpt lat="47.30463" lon="-2.27638">
        <ele>-6.1999998092651</ele>
        <time>2020-05-17T09:24:33.000Z</time>
      </trkpt>
      <trkpt lat="47.30457" lon="-2.27642">
        <ele>-5.8000001907349</ele>
        <time>2020-05-17T09:24:34.000Z</time>
      </trkpt>
      <trkpt lat="47.30451" lon="-2.27646">
        <ele>-5.4000000953674</ele>
        <time>2020-05-17T09:24:35.000Z</time>
      </trkpt>
      <trkpt lat="47.30445" lon="-2.27649">
        <ele>-5</ele>
        <time>2020-05-17T09:24:36.000Z</time>
      </trkpt>
      <trkpt lat="47.30439" lon="-2.27652">
        <ele>-4.4000000953674</ele>
        <time>2020-05-17T09:24:37.000Z</time>
      </trkpt>
      <trkpt lat="47.30433" lon="-2.27656">
        <ele>-4.4000000953674</ele>
        <time>2020-05-17T09:24:38.000Z</time>
      </trkpt>
      <trkpt lat="47.30416" lon="-2.27666">
        <ele>-4.4000000953674</ele>
        <time>2020-05-17T09:24:41.000Z</time>
      </trkpt>
      <trkpt lat="47.30409" lon="-2.27676">
        <ele>-4.4000000953674</ele>
        <time>2020-05-17T09:24:43.000Z</time>
      </trkpt>
      <trkpt lat="47.30405" lon="-2.27696">
        <ele>-4.4000000953674</ele>
        <time>2020-05-17T09:24:46.000Z</time>
      </trkpt>
      <trkpt lat="47.30414" lon="-2.27729">
        <ele>-4.4000000953674</ele>
        <time>2020-05-17T09:24:50.000Z</time>
      </trkpt>
      <trkpt lat="47.30422" lon="-2.27743">
        <ele>-4.4000000953674</ele>
        <time>2020-05-17T09:24:52.000Z</time>
      </trkpt>
      <trkpt lat="47.30436" lon="-2.27764">
        <ele>-4.4000000953674</ele>
        <time>2020-05-17T09:24:55.000Z</time>
      </trkpt>
      <trkpt lat="47.30441" lon="-2.2777">
        <ele>-4.8000001907349</ele>
        <time>2020-05-17T09:24:56.000Z</time>
      </trkpt>
      <trkpt lat="47.30446" lon="-2.27776">
        <ele>-5.1999998092651</ele>
        <time>2020-05-17T09:24:57.000Z</time>
      </trkpt>
      <trkpt lat="47.30451" lon="-2.27781">
        <ele>-5.5999999046326</ele>
        <time>2020-05-17T09:24:58.000Z</time>
      </trkpt>
      <trkpt lat="47.30456" lon="-2.27786">
        <ele>-6.1999998092651</ele>
        <time>2020-05-17T09:24:59.000Z</time>
      </trkpt>
      <trkpt lat="47.30461" lon="-2.27791">
        <ele>-6.5999999046326</ele>
        <time>2020-05-17T09:25:00.000Z</time>
      </trkpt>
      <trkpt lat="47.3047" lon="-2.27804">
        <ele>-6.5999999046326</ele>
        <time>2020-05-17T09:25:02.000Z</time>
      </trkpt>
      <trkpt lat="47.30475" lon="-2.2782">
        <ele>-6.5999999046326</ele>
        <time>2020-05-17T09:25:04.000Z</time>
      </trkpt>
      <trkpt lat="47.30474" lon="-2.2785">
        <ele>-6.5999999046326</ele>
        <time>2020-05-17T09:25:07.000Z</time>
      </trkpt>
      <trkpt lat="47.30469" lon="-2.27869">
        <ele>-6.5999999046326</ele>
        <time>2020-05-17T09:25:09.000Z</time>
      </trkpt>
      <trkpt lat="47.30465" lon="-2.27877">
        <ele>-6.5999999046326</ele>
        <time>2020-05-17T09:25:10.000Z</time>
      </trkpt>
      <trkpt lat="47.30461" lon="-2.27884">
        <ele>-6.5999999046326</ele>
        <time>2020-05-17T09:25:11.000Z</time>
      </trkpt>
      <trkpt lat="47.30446" lon="-2.27897">
        <ele>-7</ele>
        <time>2020-05-17T09:25:14.000Z</time>
      </trkpt>
      <trkpt lat="47.30441" lon="-2.27899">
        <ele>-7.4000000953674</ele>
        <time>2020-05-17T09:25:15.000Z</time>
      </trkpt>
      <trkpt lat="47.30435" lon="-2.279">
        <ele>-7.8000001907349</ele>
        <time>2020-05-17T09:25:16.000Z</time>
      </trkpt>
      <trkpt lat="47.3043" lon="-2.279">
        <ele>-8.1999998092651</ele>
        <time>2020-05-17T09:25:17.000Z</time>
      </trkpt>
      <trkpt lat="47.30424" lon="-2.279">
        <ele>-8.6000003814697</ele>
        <time>2020-05-17T09:25:18.000Z</time>
      </trkpt>
      <trkpt lat="47.30412" lon="-2.27901">
        <ele>-8.6000003814697</ele>
        <time>2020-05-17T09:25:20.000Z</time>
      </trkpt>
      <trkpt lat="47.30407" lon="-2.27901">
        <ele>-8.6000003814697</ele>
        <time>2020-05-17T09:25:21.000Z</time>
      </trkpt>
      <trkpt lat="47.30383" lon="-2.279">
        <ele>-8.6000003814697</ele>
        <time>2020-05-17T09:25:25.000Z</time>
      </trkpt>
      <trkpt lat="47.3034" lon="-2.27906">
        <ele>-8.6000003814697</ele>
        <time>2020-05-17T09:25:32.000Z</time>
      </trkpt>
      <trkpt lat="47.30313" lon="-2.27908">
        <ele>-8.1999998092651</ele>
        <time>2020-05-17T09:25:36.000Z</time>
      </trkpt>
      <trkpt lat="47.30306" lon="-2.2791">
        <ele>-7.8000001907349</ele>
        <time>2020-05-17T09:25:37.000Z</time>
      </trkpt>
      <trkpt lat="47.30299" lon="-2.2791">
        <ele>-7.4000000953674</ele>
        <time>2020-05-17T09:25:38.000Z</time>
      </trkpt>
      <trkpt lat="47.30292" lon="-2.27911">
        <ele>-6.8000001907349</ele>
        <time>2020-05-17T09:25:39.000Z</time>
      </trkpt>
      <trkpt lat="47.30285" lon="-2.27912">
        <ele>-6.4000000953674</ele>
        <time>2020-05-17T09:25:40.000Z</time>
      </trkpt>
      <trkpt lat="47.30253" lon="-2.27914">
        <ele>-6.4000000953674</ele>
        <time>2020-05-17T09:25:45.000Z</time>
      </trkpt>
      <trkpt lat="47.30248" lon="-2.27913">
        <ele>-6.4000000953674</ele>
        <time>2020-05-17T09:25:46.000Z</time>
      </trkpt>
      <trkpt lat="47.30219" lon="-2.27917">
        <ele>-6.4000000953674</ele>
        <time>2020-05-17T09:25:51.000Z</time>
      </trkpt>
      <trkpt lat="47.30187" lon="-2.2792">
        <ele>-6</ele>
        <time>2020-05-17T09:25:56.000Z</time>
      </trkpt>
      <trkpt lat="47.30182" lon="-2.27921">
        <ele>-5.1999998092651</ele>
        <time>2020-05-17T09:25:57.000Z</time>
      </trkpt>
      <trkpt lat="47.30175" lon="-2.27921">
        <ele>-4.8000001907349</ele>
        <time>2020-05-17T09:25:58.000Z</time>
      </trkpt>
      <trkpt lat="47.30169" lon="-2.27922">
        <ele>-4.4000000953674</ele>
        <time>2020-05-17T09:25:59.000Z</time>
      </trkpt>
      <trkpt lat="47.30131" lon="-2.27931">
        <ele>-4.4000000953674</ele>
        <time>2020-05-17T09:26:05.000Z</time>
      </trkpt>
      <trkpt lat="47.30119" lon="-2.27939">
        <ele>-4.4000000953674</ele>
        <time>2020-05-17T09:26:07.000Z</time>
      </trkpt>
      <trkpt lat="47.30104" lon="-2.27953">
        <ele>-4.4000000953674</ele>
        <time>2020-05-17T09:26:10.000Z</time>
      </trkpt>
      <trkpt lat="47.301" lon="-2.27958">
        <ele>-4</ele>
        <time>2020-05-17T09:26:11.000Z</time>
      </trkpt>
      <trkpt lat="47.30095" lon="-2.27963">
        <ele>-3.5999999046326</ele>
        <time>2020-05-17T09:26:12.000Z</time>
      </trkpt>
      <trkpt lat="47.3009" lon="-2.27967">
        <ele>-3.2000000476837</ele>
        <time>2020-05-17T09:26:13.000Z</time>
      </trkpt>
      <trkpt lat="47.30085" lon="-2.27971">
        <ele>-2.7999999523163</ele>
        <time>2020-05-17T09:26:14.000Z</time>
      </trkpt>
      <trkpt lat="47.30081" lon="-2.27975">
        <ele>-2.4000000953674</ele>
        <time>2020-05-17T09:26:15.000Z</time>
      </trkpt>
      <trkpt lat="47.30071" lon="-2.27983">
        <ele>-2.4000000953674</ele>
        <time>2020-05-17T09:26:17.000Z</time>
      </trkpt>
      <trkpt lat="47.30033" lon="-2.28014">
        <ele>-2.4000000953674</ele>
        <time>2020-05-17T09:26:25.000Z</time>
      </trkpt>
      <trkpt lat="47.30001" lon="-2.28031">
        <ele>-2.4000000953674</ele>
        <time>2020-05-17T09:26:32.000Z</time>
      </trkpt>
      <trkpt lat="47.29991" lon="-2.28043">
        <ele>-2.4000000953674</ele>
        <time>2020-05-17T09:26:36.000Z</time>
      </trkpt>
      <trkpt lat="47.29983" lon="-2.28069">
        <ele>-2.4000000953674</ele>
        <time>2020-05-17T09:26:41.000Z</time>
      </trkpt>
      <trkpt lat="47.29979" lon="-2.28081">
        <ele>-2</ele>
        <time>2020-05-17T09:26:43.000Z</time>
      </trkpt>
      <trkpt lat="47.29978" lon="-2.28087">
        <ele>-1.6000000238419</ele>
        <time>2020-05-17T09:26:44.000Z</time>
      </trkpt>
      <trkpt lat="47.29976" lon="-2.28094">
        <ele>-1.2000000476837</ele>
        <time>2020-05-17T09:26:45.000Z</time>
      </trkpt>
      <trkpt lat="47.29974" lon="-2.28101">
        <ele>-0.80000001192093</ele>
        <time>2020-05-17T09:26:46.000Z</time>
      </trkpt>
      <trkpt lat="47.29972" lon="-2.28108">
        <ele>-0.40000000596046</ele>
        <time>2020-05-17T09:26:47.000Z</time>
      </trkpt>
      <trkpt lat="47.2997" lon="-2.28116">
        <ele>-0.40000000596046</ele>
        <time>2020-05-17T09:26:48.000Z</time>
      </trkpt>
      <trkpt lat="47.29955" lon="-2.28169">
        <ele>-0.40000000596046</ele>
        <time>2020-05-17T09:26:56.000Z</time>
      </trkpt>
      <trkpt lat="47.2995" lon="-2.2819">
        <ele>-0.40000000596046</ele>
        <time>2020-05-17T09:26:59.000Z</time>
      </trkpt>
      <trkpt lat="47.29949" lon="-2.28205">
        <ele>-0.40000000596046</ele>
        <time>2020-05-17T09:27:01.000Z</time>
      </trkpt>
      <trkpt lat="47.2995" lon="-2.28254">
        <ele>-0.40000000596046</ele>
        <time>2020-05-17T09:27:06.000Z</time>
      </trkpt>
      <trkpt lat="47.29952" lon="-2.28282">
        <ele>-0.40000000596046</ele>
        <time>2020-05-17T09:27:09.000Z</time>
      </trkpt>
      <trkpt lat="47.29951" lon="-2.283">
        <ele>-0.40000000596046</ele>
        <time>2020-05-17T09:27:11.000Z</time>
      </trkpt>
      <trkpt lat="47.2995" lon="-2.28332">
        <ele>-0.40000000596046</ele>
        <time>2020-05-17T09:27:15.000Z</time>
      </trkpt>
      <trkpt lat="47.29948" lon="-2.2834">
        <ele>-0.40000000596046</ele>
        <time>2020-05-17T09:27:16.000Z</time>
      </trkpt>
      <trkpt lat="47.29944" lon="-2.2838">
        <ele>-0.40000000596046</ele>
        <time>2020-05-17T09:27:21.000Z</time>
      </trkpt>
      <trkpt lat="47.29944" lon="-2.28388">
        <ele>-0.40000000596046</ele>
        <time>2020-05-17T09:27:22.000Z</time>
      </trkpt>
      <trkpt lat="47.29944" lon="-2.28415">
        <ele>-0.40000000596046</ele>
        <time>2020-05-17T09:27:25.000Z</time>
      </trkpt>
      <trkpt lat="47.29934" lon="-2.28439">
        <ele>-0.40000000596046</ele>
        <time>2020-05-17T09:27:29.000Z</time>
      </trkpt>
      <trkpt lat="47.29932" lon="-2.28463">
        <ele>-0.40000000596046</ele>
        <time>2020-05-17T09:27:32.000Z</time>
      </trkpt>
      <trkpt lat="47.29933" lon="-2.28472">
        <ele>-0.40000000596046</ele>
        <time>2020-05-17T09:27:33.000Z</time>
      </trkpt>
      <trkpt lat="47.2993" lon="-2.28507">
        <ele>-0.40000000596046</ele>
        <time>2020-05-17T09:27:37.000Z</time>
      </trkpt>
      <trkpt lat="47.29928" lon="-2.28515">
        <ele>-0.40000000596046</ele>
        <time>2020-05-17T09:27:38.000Z</time>
      </trkpt>
      <trkpt lat="47.29925" lon="-2.2853">
        <ele>-0.40000000596046</ele>
        <time>2020-05-17T09:27:40.000Z</time>
      </trkpt>
      <trkpt lat="47.29925" lon="-2.28545">
        <ele>-0.40000000596046</ele>
        <time>2020-05-17T09:27:42.000Z</time>
      </trkpt>
      <trkpt lat="47.29935" lon="-2.2856">
        <ele>-0.40000000596046</ele>
        <time>2020-05-17T09:27:45.000Z</time>
      </trkpt>
      <trkpt lat="47.29939" lon="-2.28573">
        <ele>-0.40000000596046</ele>
        <time>2020-05-17T09:27:48.000Z</time>
      </trkpt>
      <trkpt lat="47.29936" lon="-2.28597">
        <ele>-0.40000000596046</ele>
        <time>2020-05-17T09:27:52.000Z</time>
      </trkpt>
      <trkpt lat="47.29934" lon="-2.28626">
        <ele>-0.40000000596046</ele>
        <time>2020-05-17T09:27:56.000Z</time>
      </trkpt>
      <trkpt lat="47.29932" lon="-2.28634">
        <ele>-0.40000000596046</ele>
        <time>2020-05-17T09:27:57.000Z</time>
      </trkpt>
      <trkpt lat="47.29927" lon="-2.28657">
        <ele>-0.40000000596046</ele>
        <time>2020-05-17T09:28:00.000Z</time>
      </trkpt>
      <trkpt lat="47.29924" lon="-2.28669">
        <ele>-0.40000000596046</ele>
        <time>2020-05-17T09:28:02.000Z</time>
      </trkpt>
      <trkpt lat="47.29923" lon="-2.28675">
        <ele>-0.80000001192093</ele>
        <time>2020-05-17T09:28:03.000Z</time>
      </trkpt>
      <trkpt lat="47.29921" lon="-2.28681">
        <ele>-1.2000000476837</ele>
        <time>2020-05-17T09:28:04.000Z</time>
      </trkpt>
      <trkpt lat="47.29919" lon="-2.28688">
        <ele>-1.6000000238419</ele>
        <time>2020-05-17T09:28:05.000Z</time>
      </trkpt>
      <trkpt lat="47.29918" lon="-2.28695">
        <ele>-2</ele>
        <time>2020-05-17T09:28:06.000Z</time>
      </trkpt>
      <trkpt lat="47.29918" lon="-2.28702">
        <ele>-2.4000000953674</ele>
        <time>2020-05-17T09:28:07.000Z</time>
      </trkpt>
      <trkpt lat="47.29915" lon="-2.28718">
        <ele>-2.4000000953674</ele>
        <time>2020-05-17T09:28:09.000Z</time>
      </trkpt>
      <trkpt lat="47.29908" lon="-2.28744">
        <ele>-2.4000000953674</ele>
        <time>2020-05-17T09:28:12.000Z</time>
      </trkpt>
      <trkpt lat="47.29901" lon="-2.28778">
        <ele>-2.4000000953674</ele>
        <time>2020-05-17T09:28:16.000Z</time>
      </trkpt>
      <trkpt lat="47.29898" lon="-2.28794">
        <ele>-2.4000000953674</ele>
        <time>2020-05-17T09:28:18.000Z</time>
      </trkpt>
      <trkpt lat="47.29892" lon="-2.28836">
        <ele>-2.4000000953674</ele>
        <time>2020-05-17T09:28:23.000Z</time>
      </trkpt>
      <trkpt lat="47.29882" lon="-2.28884">
        <ele>-2.4000000953674</ele>
        <time>2020-05-17T09:28:29.000Z</time>
      </trkpt>
      <trkpt lat="47.29875" lon="-2.28902">
        <ele>-2.4000000953674</ele>
        <time>2020-05-17T09:28:32.000Z</time>
      </trkpt>
      <trkpt lat="47.29875" lon="-2.28924">
        <ele>-2.4000000953674</ele>
        <time>2020-05-17T09:28:35.000Z</time>
      </trkpt>
      <trkpt lat="47.29876" lon="-2.2893">
        <ele>-2.4000000953674</ele>
        <time>2020-05-17T09:28:36.000Z</time>
      </trkpt>
      <trkpt lat="47.29885" lon="-2.28941">
        <ele>-2.4000000953674</ele>
        <time>2020-05-17T09:28:39.000Z</time>
      </trkpt>
      <trkpt lat="47.2989" lon="-2.28942">
        <ele>-2.4000000953674</ele>
        <time>2020-05-17T09:28:40.000Z</time>
      </trkpt>
      <trkpt lat="47.29918" lon="-2.28949">
        <ele>-2.4000000953674</ele>
        <time>2020-05-17T09:28:45.000Z</time>
      </trkpt>
      <trkpt lat="47.29923" lon="-2.28951">
        <ele>-2.4000000953674</ele>
        <time>2020-05-17T09:28:46.000Z</time>
      </trkpt>
      <trkpt lat="47.29929" lon="-2.28961">
        <ele>-2.4000000953674</ele>
        <time>2020-05-17T09:28:48.000Z</time>
      </trkpt>
      <trkpt lat="47.29932" lon="-2.28967">
        <ele>-2.7999999523163</ele>
        <time>2020-05-17T09:28:49.000Z</time>
      </trkpt>
      <trkpt lat="47.29936" lon="-2.28973">
        <ele>-3.2000000476837</ele>
        <time>2020-05-17T09:28:50.000Z</time>
      </trkpt>
      <trkpt lat="47.29939" lon="-2.28979">
        <ele>-4.1999998092651</ele>
        <time>2020-05-17T09:28:51.000Z</time>
      </trkpt>
      <trkpt lat="47.29942" lon="-2.28985">
        <ele>-4.5999999046326</ele>
        <time>2020-05-17T09:28:52.000Z</time>
      </trkpt>
      <trkpt lat="47.29945" lon="-2.28991">
        <ele>-4.5999999046326</ele>
        <time>2020-05-17T09:28:53.000Z</time>
      </trkpt>
      <trkpt lat="47.29968" lon="-2.29033">
        <ele>-4.5999999046326</ele>
        <time>2020-05-17T09:28:59.000Z</time>
      </trkpt>
      <trkpt lat="47.29985" lon="-2.29066">
        <ele>-4.5999999046326</ele>
        <time>2020-05-17T09:29:04.000Z</time>
      </trkpt>
      <trkpt lat="47.29988" lon="-2.29072">
        <ele>-4.5999999046326</ele>
        <time>2020-05-17T09:29:05.000Z</time>
      </trkpt>
      <trkpt lat="47.30004" lon="-2.29092">
        <ele>-4.5999999046326</ele>
        <time>2020-05-17T09:29:09.000Z</time>
      </trkpt>
      <trkpt lat="47.30021" lon="-2.2911">
        <ele>-4.5999999046326</ele>
        <time>2020-05-17T09:29:13.000Z</time>
      </trkpt>
      <trkpt lat="47.30029" lon="-2.29117">
        <ele>-4.5999999046326</ele>
        <time>2020-05-17T09:29:15.000Z</time>
      </trkpt>
      <trkpt lat="47.30046" lon="-2.29129">
        <ele>-4.5999999046326</ele>
        <time>2020-05-17T09:29:20.000Z</time>
      </trkpt>
      <trkpt lat="47.30049" lon="-2.2913">
        <ele>-4.5999999046326</ele>
        <time>2020-05-17T09:29:21.000Z</time>
      </trkpt>
      <trkpt lat="47.3006" lon="-2.29135">
        <ele>-4.5999999046326</ele>
        <time>2020-05-17T09:29:26.000Z</time>
      </trkpt>
      <trkpt lat="47.30063" lon="-2.29141">
        <ele>-5</ele>
        <time>2020-05-17T09:29:30.000Z</time>
      </trkpt>
      <trkpt lat="47.30063" lon="-2.29141">
        <ele>-5.5999999046326</ele>
        <time>2020-05-17T09:29:31.000Z</time>
      </trkpt>
      <trkpt lat="47.30063" lon="-2.29141">
        <ele>-6</ele>
        <time>2020-05-17T09:29:32.000Z</time>
      </trkpt>
      <trkpt lat="47.30063" lon="-2.29141">
        <ele>-6.4000000953674</ele>
        <time>2020-05-17T09:29:33.000Z</time>
      </trkpt>
      <trkpt lat="47.30063" lon="-2.29141">
        <ele>-6.8000001907349</ele>
        <time>2020-05-17T09:29:34.000Z</time>
      </trkpt>
      <trkpt lat="47.30063" lon="-2.29141">
        <ele>-6.8000001907349</ele>
        <time>2020-05-17T09:29:40.000Z</time>
      </trkpt>
      <trkpt lat="47.3007" lon="-2.29151">
        <ele>-6.8000001907349</ele>
        <time>2020-05-17T09:29:43.000Z</time>
      </trkpt>
      <trkpt lat="47.30073" lon="-2.29156">
        <ele>-6.8000001907349</ele>
        <time>2020-05-17T09:29:44.000Z</time>
      </trkpt>
      <trkpt lat="47.30086" lon="-2.29176">
        <ele>-6.8000001907349</ele>
        <time>2020-05-17T09:29:48.000Z</time>
      </trkpt>
      <trkpt lat="47.30112" lon="-2.29215">
        <ele>-6.8000001907349</ele>
        <time>2020-05-17T09:29:56.000Z</time>
      </trkpt>
      <trkpt lat="47.30133" lon="-2.29247">
        <ele>-6.8000001907349</ele>
        <time>2020-05-17T09:30:03.000Z</time>
      </trkpt>
      <trkpt lat="47.30161" lon="-2.29293">
        <ele>-6.8000001907349</ele>
        <time>2020-05-17T09:30:12.000Z</time>
      </trkpt>
      <trkpt lat="47.30189" lon="-2.29337">
        <ele>-6.8000001907349</ele>
        <time>2020-05-17T09:30:20.000Z</time>
      </trkpt>
      <trkpt lat="47.30203" lon="-2.29359">
        <ele>-6.8000001907349</ele>
        <time>2020-05-17T09:30:25.000Z</time>
      </trkpt>
      <trkpt lat="47.30204" lon="-2.29363">
        <ele>-7.1999998092651</ele>
        <time>2020-05-17T09:30:26.000Z</time>
      </trkpt>
      <trkpt lat="47.30204" lon="-2.29366">
        <ele>-7.5999999046326</ele>
        <time>2020-05-17T09:30:27.000Z</time>
      </trkpt>
      <trkpt lat="47.30204" lon="-2.2937">
        <ele>-8</ele>
        <time>2020-05-17T09:30:28.000Z</time>
      </trkpt>
      <trkpt lat="47.30204" lon="-2.29374">
        <ele>-8.8000001907349</ele>
        <time>2020-05-17T09:30:29.000Z</time>
      </trkpt>
      <trkpt lat="47.30211" lon="-2.29393">
        <ele>-8.8000001907349</ele>
        <time>2020-05-17T09:30:33.000Z</time>
      </trkpt>
      <trkpt lat="47.30214" lon="-2.29404">
        <ele>-8.8000001907349</ele>
        <time>2020-05-17T09:30:35.000Z</time>
      </trkpt>
      <trkpt lat="47.30214" lon="-2.29416">
        <ele>-8.8000001907349</ele>
        <time>2020-05-17T09:30:37.000Z</time>
      </trkpt>
      <trkpt lat="47.30206" lon="-2.2944">
        <ele>-8.8000001907349</ele>
        <time>2020-05-17T09:30:41.000Z</time>
      </trkpt>
      <trkpt lat="47.30203" lon="-2.29446">
        <ele>-8.8000001907349</ele>
        <time>2020-05-17T09:30:42.000Z</time>
      </trkpt>
      <trkpt lat="47.3019" lon="-2.29472">
        <ele>-8.8000001907349</ele>
        <time>2020-05-17T09:30:47.000Z</time>
      </trkpt>
      <trkpt lat="47.30172" lon="-2.29505">
        <ele>-8.8000001907349</ele>
        <time>2020-05-17T09:30:54.000Z</time>
      </trkpt>
      <trkpt lat="47.30161" lon="-2.29528">
        <ele>-8.8000001907349</ele>
        <time>2020-05-17T09:30:58.000Z</time>
      </trkpt>
      <trkpt lat="47.30156" lon="-2.29539">
        <ele>-8.8000001907349</ele>
        <time>2020-05-17T09:31:00.000Z</time>
      </trkpt>
      <trkpt lat="47.30144" lon="-2.29565">
        <ele>-8.8000001907349</ele>
        <time>2020-05-17T09:31:05.000Z</time>
      </trkpt>
      <trkpt lat="47.30143" lon="-2.2957">
        <ele>-8.8000001907349</ele>
        <time>2020-05-17T09:31:06.000Z</time>
      </trkpt>
      <trkpt lat="47.30144" lon="-2.29588">
        <ele>-8.8000001907349</ele>
        <time>2020-05-17T09:31:09.000Z</time>
      </trkpt>
      <trkpt lat="47.30145" lon="-2.29601">
        <ele>-8.8000001907349</ele>
        <time>2020-05-17T09:31:11.000Z</time>
      </trkpt>
      <trkpt lat="47.30144" lon="-2.29629">
        <ele>-8.8000001907349</ele>
        <time>2020-05-17T09:31:16.000Z</time>
      </trkpt>
      <trkpt lat="47.30143" lon="-2.29648">
        <ele>-8.8000001907349</ele>
        <time>2020-05-17T09:31:21.000Z</time>
      </trkpt>
      <trkpt lat="47.30148" lon="-2.29658">
        <ele>-8.8000001907349</ele>
        <time>2020-05-17T09:31:28.000Z</time>
      </trkpt>
      <trkpt lat="47.30153" lon="-2.29661">
        <ele>-8.8000001907349</ele>
        <time>2020-05-17T09:31:32.000Z</time>
      </trkpt>
      <trkpt lat="47.30154" lon="-2.29664">
        <ele>-8.8000001907349</ele>
        <time>2020-05-17T09:31:34.000Z</time>
      </trkpt>
      <trkpt lat="47.30153" lon="-2.29665">
        <ele>-8.8000001907349</ele>
        <time>2020-05-17T09:31:37.000Z</time>
      </trkpt>
      <trkpt lat="47.30151" lon="-2.29664">
        <ele>-8.8000001907349</ele>
        <time>2020-05-17T09:31:38.000Z</time>
      </trkpt>
      <trkpt lat="47.30147" lon="-2.29663">
        <ele>-8.8000001907349</ele>
        <time>2020-05-17T09:31:43.000Z</time>
      </trkpt>
      <trkpt lat="47.30146" lon="-2.29662">
        <ele>-8.8000001907349</ele>
        <time>2020-05-17T09:31:45.000Z</time>
      </trkpt>
      <trkpt lat="47.30146" lon="-2.29662">
        <ele>-8.8000001907349</ele>
        <time>2020-05-17T09:31:55.000Z</time>
      </trkpt>
      <trkpt lat="47.30146" lon="-2.29662">
        <ele>-8.8000001907349</ele>
        <time>2020-05-17T09:32:06.000Z</time>
      </trkpt>
      <trkpt lat="47.30145" lon="-2.29661">
        <ele>-8.8000001907349</ele>
        <time>2020-05-17T09:32:13.000Z</time>
      </trkpt>
      <trkpt lat="47.30144" lon="-2.2966">
        <ele>-8.8000001907349</ele>
        <time>2020-05-17T09:32:14.000Z</time>
      </trkpt>
      <trkpt lat="47.30133" lon="-2.29657">
        <ele>-8.8000001907349</ele>
        <time>2020-05-17T09:32:19.000Z</time>
      </trkpt>
      <trkpt lat="47.30114" lon="-2.29653">
        <ele>-8.8000001907349</ele>
        <time>2020-05-17T09:32:24.000Z</time>
      </trkpt>
      <trkpt lat="47.30085" lon="-2.29646">
        <ele>-8.8000001907349</ele>
        <time>2020-05-17T09:32:31.000Z</time>
      </trkpt>
      <trkpt lat="47.30059" lon="-2.29639">
        <ele>-8.8000001907349</ele>
        <time>2020-05-17T09:32:37.000Z</time>
      </trkpt>
      <trkpt lat="47.3005" lon="-2.29636">
        <ele>-8.8000001907349</ele>
        <time>2020-05-17T09:32:39.000Z</time>
      </trkpt>
      <trkpt lat="47.30017" lon="-2.29634">
        <ele>-8.8000001907349</ele>
        <time>2020-05-17T09:32:46.000Z</time>
      </trkpt>
      <trkpt lat="47.29967" lon="-2.29639">
        <ele>-8.8000001907349</ele>
        <time>2020-05-17T09:32:56.000Z</time>
      </trkpt>
      <trkpt lat="47.29944" lon="-2.29646">
        <ele>-8.8000001907349</ele>
        <time>2020-05-17T09:33:01.000Z</time>
      </trkpt>
      <trkpt lat="47.29934" lon="-2.29652">
        <ele>-8.8000001907349</ele>
        <time>2020-05-17T09:33:03.000Z</time>
      </trkpt>
      <trkpt lat="47.29926" lon="-2.29656">
        <ele>-8.8000001907349</ele>
        <time>2020-05-17T09:33:05.000Z</time>
      </trkpt>
      <trkpt lat="47.29913" lon="-2.29666">
        <ele>-8.8000001907349</ele>
        <time>2020-05-17T09:33:09.000Z</time>
      </trkpt>
      <trkpt lat="47.29911" lon="-2.29669">
        <ele>-8.3999996185303</ele>
        <time>2020-05-17T09:33:10.000Z</time>
      </trkpt>
      <trkpt lat="47.2991" lon="-2.2967">
        <ele>-8</ele>
        <time>2020-05-17T09:33:11.000Z</time>
      </trkpt>
      <trkpt lat="47.29909" lon="-2.29671">
        <ele>-7.5999999046326</ele>
        <time>2020-05-17T09:33:12.000Z</time>
      </trkpt>
      <trkpt lat="47.29908" lon="-2.29673">
        <ele>-7</ele>
        <time>2020-05-17T09:33:13.000Z</time>
      </trkpt>
      <trkpt lat="47.29907" lon="-2.29676">
        <ele>-6.5999999046326</ele>
        <time>2020-05-17T09:33:14.000Z</time>
      </trkpt>
      <trkpt lat="47.29898" lon="-2.29685">
        <ele>-6.5999999046326</ele>
        <time>2020-05-17T09:33:17.000Z</time>
      </trkpt>
      <trkpt lat="47.29883" lon="-2.2969">
        <ele>-6.5999999046326</ele>
        <time>2020-05-17T09:33:20.000Z</time>
      </trkpt>
      <trkpt lat="47.29873" lon="-2.29696">
        <ele>-6.5999999046326</ele>
        <time>2020-05-17T09:33:22.000Z</time>
      </trkpt>
      <trkpt lat="47.29863" lon="-2.29703">
        <ele>-6.5999999046326</ele>
        <time>2020-05-17T09:33:24.000Z</time>
      </trkpt>
      <trkpt lat="47.29859" lon="-2.29707">
        <ele>-6.1999998092651</ele>
        <time>2020-05-17T09:33:25.000Z</time>
      </trkpt>
      <trkpt lat="47.29854" lon="-2.29711">
        <ele>-5.8000001907349</ele>
        <time>2020-05-17T09:33:26.000Z</time>
      </trkpt>
      <trkpt lat="47.2985" lon="-2.29715">
        <ele>-5.4000000953674</ele>
        <time>2020-05-17T09:33:27.000Z</time>
      </trkpt>
      <trkpt lat="47.29846" lon="-2.29719">
        <ele>-5</ele>
        <time>2020-05-17T09:33:28.000Z</time>
      </trkpt>
      <trkpt lat="47.29841" lon="-2.29723">
        <ele>-4.5999999046326</ele>
        <time>2020-05-17T09:33:29.000Z</time>
      </trkpt>
      <trkpt lat="47.29831" lon="-2.29731">
        <ele>-4.5999999046326</ele>
        <time>2020-05-17T09:33:31.000Z</time>
      </trkpt>
      <trkpt lat="47.29791" lon="-2.29762">
        <ele>-4.5999999046326</ele>
        <time>2020-05-17T09:33:39.000Z</time>
      </trkpt>
      <trkpt lat="47.2976" lon="-2.29775">
        <ele>-4.5999999046326</ele>
        <time>2020-05-17T09:33:44.000Z</time>
      </trkpt>
      <trkpt lat="47.29719" lon="-2.2978">
        <ele>-4.5999999046326</ele>
        <time>2020-05-17T09:33:50.000Z</time>
      </trkpt>
      <trkpt lat="47.29675" lon="-2.29783">
        <ele>-4.5999999046326</ele>
        <time>2020-05-17T09:33:57.000Z</time>
      </trkpt>
      <trkpt lat="47.29635" lon="-2.29773">
        <ele>-4.5999999046326</ele>
        <time>2020-05-17T09:34:04.000Z</time>
      </trkpt>
      <trkpt lat="47.29626" lon="-2.29767">
        <ele>-4.5999999046326</ele>
        <time>2020-05-17T09:34:06.000Z</time>
      </trkpt>
      <trkpt lat="47.29608" lon="-2.29753">
        <ele>-4.5999999046326</ele>
        <time>2020-05-17T09:34:10.000Z</time>
      </trkpt>
      <trkpt lat="47.29599" lon="-2.29745">
        <ele>-4.5999999046326</ele>
        <time>2020-05-17T09:34:12.000Z</time>
      </trkpt>
      <trkpt lat="47.29589" lon="-2.29747">
        <ele>-4.5999999046326</ele>
        <time>2020-05-17T09:34:14.000Z</time>
      </trkpt>
      <trkpt lat="47.29579" lon="-2.29764">
        <ele>-4.5999999046326</ele>
        <time>2020-05-17T09:34:17.000Z</time>
      </trkpt>
      <trkpt lat="47.29573" lon="-2.2978">
        <ele>-4.5999999046326</ele>
        <time>2020-05-17T09:34:19.000Z</time>
      </trkpt>
      <trkpt lat="47.2956" lon="-2.29811">
        <ele>-4.1999998092651</ele>
        <time>2020-05-17T09:34:23.000Z</time>
      </trkpt>
      <trkpt lat="47.29558" lon="-2.29819">
        <ele>-3.7999999523163</ele>
        <time>2020-05-17T09:34:24.000Z</time>
      </trkpt>
      <trkpt lat="47.29555" lon="-2.29826">
        <ele>-3.4000000953674</ele>
        <time>2020-05-17T09:34:25.000Z</time>
      </trkpt>
      <trkpt lat="47.29552" lon="-2.29833">
        <ele>-3</ele>
        <time>2020-05-17T09:34:26.000Z</time>
      </trkpt>
      <trkpt lat="47.29549" lon="-2.29839">
        <ele>-2.5999999046326</ele>
        <time>2020-05-17T09:34:27.000Z</time>
      </trkpt>
      <trkpt lat="47.29541" lon="-2.29861">
        <ele>-2.5999999046326</ele>
        <time>2020-05-17T09:34:30.000Z</time>
      </trkpt>
      <trkpt lat="47.29528" lon="-2.29897">
        <ele>-2.5999999046326</ele>
        <time>2020-05-17T09:34:35.000Z</time>
      </trkpt>
      <trkpt lat="47.29527" lon="-2.29903">
        <ele>-2.5999999046326</ele>
        <time>2020-05-17T09:34:36.000Z</time>
      </trkpt>
      <trkpt lat="47.29525" lon="-2.2991">
        <ele>-2.5999999046326</ele>
        <time>2020-05-17T09:34:37.000Z</time>
      </trkpt>
      <trkpt lat="47.29523" lon="-2.29931">
        <ele>-2.5999999046326</ele>
        <time>2020-05-17T09:34:40.000Z</time>
      </trkpt>
      <trkpt lat="47.29521" lon="-2.29939">
        <ele>-2.5999999046326</ele>
        <time>2020-05-17T09:34:41.000Z</time>
      </trkpt>
      <trkpt lat="47.2952" lon="-2.29946">
        <ele>-2.5999999046326</ele>
        <time>2020-05-17T09:34:42.000Z</time>
      </trkpt>
      <trkpt lat="47.29519" lon="-2.29955">
        <ele>-3</ele>
        <time>2020-05-17T09:34:43.000Z</time>
      </trkpt>
      <trkpt lat="47.29517" lon="-2.29964">
        <ele>-3.4000000953674</ele>
        <time>2020-05-17T09:34:44.000Z</time>
      </trkpt>
      <trkpt lat="47.29516" lon="-2.29973">
        <ele>-3.7999999523163</ele>
        <time>2020-05-17T09:34:45.000Z</time>
      </trkpt>
      <trkpt lat="47.29515" lon="-2.29983">
        <ele>-4.1999998092651</ele>
        <time>2020-05-17T09:34:46.000Z</time>
      </trkpt>
      <trkpt lat="47.29515" lon="-2.29992">
        <ele>-4.5999999046326</ele>
        <time>2020-05-17T09:34:47.000Z</time>
      </trkpt>
      <trkpt lat="47.29512" lon="-2.30017">
        <ele>-4.5999999046326</ele>
        <time>2020-05-17T09:34:50.000Z</time>
      </trkpt>
      <trkpt lat="47.2951" lon="-2.30023">
        <ele>-4.5999999046326</ele>
        <time>2020-05-17T09:34:51.000Z</time>
      </trkpt>
      <trkpt lat="47.295" lon="-2.30028">
        <ele>-4.5999999046326</ele>
        <time>2020-05-17T09:34:54.000Z</time>
      </trkpt>
      <trkpt lat="47.29491" lon="-2.30031">
        <ele>-4.5999999046326</ele>
        <time>2020-05-17T09:34:56.000Z</time>
      </trkpt>
      <trkpt lat="47.2948" lon="-2.30032">
        <ele>-4.5999999046326</ele>
        <time>2020-05-17T09:34:58.000Z</time>
      </trkpt>
      <trkpt lat="47.29444" lon="-2.30032">
        <ele>-4.5999999046326</ele>
        <time>2020-05-17T09:35:04.000Z</time>
      </trkpt>
      <trkpt lat="47.29414" lon="-2.30031">
        <ele>-4.5999999046326</ele>
        <time>2020-05-17T09:35:09.000Z</time>
      </trkpt>
      <trkpt lat="47.29403" lon="-2.30028">
        <ele>-4.5999999046326</ele>
        <time>2020-05-17T09:35:11.000Z</time>
      </trkpt>
      <trkpt lat="47.29392" lon="-2.30023">
        <ele>-4.5999999046326</ele>
        <time>2020-05-17T09:35:13.000Z</time>
      </trkpt>
      <trkpt lat="47.29376" lon="-2.30017">
        <ele>-4.5999999046326</ele>
        <time>2020-05-17T09:35:16.000Z</time>
      </trkpt>
      <trkpt lat="47.29372" lon="-2.30014">
        <ele>-4.5999999046326</ele>
        <time>2020-05-17T09:35:17.000Z</time>
      </trkpt>
      <trkpt lat="47.29353" lon="-2.30006">
        <ele>-4.5999999046326</ele>
        <time>2020-05-17T09:35:22.000Z</time>
      </trkpt>
      <trkpt lat="47.29346" lon="-2.30006">
        <ele>-4.5999999046326</ele>
        <time>2020-05-17T09:35:25.000Z</time>
      </trkpt>
      <trkpt lat="47.29346" lon="-2.30009">
        <ele>-4.5999999046326</ele>
        <time>2020-05-17T09:35:26.000Z</time>
      </trkpt>
      <trkpt lat="47.29344" lon="-2.30029">
        <ele>-4.5999999046326</ele>
        <time>2020-05-17T09:35:30.000Z</time>
      </trkpt>
      <trkpt lat="47.29344" lon="-2.30036">
        <ele>-4.5999999046326</ele>
        <time>2020-05-17T09:35:31.000Z</time>
      </trkpt>
      <trkpt lat="47.29341" lon="-2.30078">
        <ele>-4.5999999046326</ele>
        <time>2020-05-17T09:35:36.000Z</time>
      </trkpt>
      <trkpt lat="47.29335" lon="-2.30112">
        <ele>-4.5999999046326</ele>
        <time>2020-05-17T09:35:40.000Z</time>
      </trkpt>
      <trkpt lat="47.29329" lon="-2.30124">
        <ele>-4.5999999046326</ele>
        <time>2020-05-17T09:35:42.000Z</time>
      </trkpt>
      <trkpt lat="47.29316" lon="-2.30126">
        <ele>-4.5999999046326</ele>
        <time>2020-05-17T09:35:45.000Z</time>
      </trkpt>
      <trkpt lat="47.29295" lon="-2.30124">
        <ele>-4.5999999046326</ele>
        <time>2020-05-17T09:35:49.000Z</time>
      </trkpt>
      <trkpt lat="47.29277" lon="-2.30124">
        <ele>-4.5999999046326</ele>
        <time>2020-05-17T09:35:52.000Z</time>
      </trkpt>
      <trkpt lat="47.29259" lon="-2.30126">
        <ele>-4.5999999046326</ele>
        <time>2020-05-17T09:35:55.000Z</time>
      </trkpt>
      <trkpt lat="47.29233" lon="-2.30132">
        <ele>-4.5999999046326</ele>
        <time>2020-05-17T09:35:59.000Z</time>
      </trkpt>
      <trkpt lat="47.29227" lon="-2.30136">
        <ele>-4.5999999046326</ele>
        <time>2020-05-17T09:36:00.000Z</time>
      </trkpt>
      <trkpt lat="47.29195" lon="-2.30152">
        <ele>-4.5999999046326</ele>
        <time>2020-05-17T09:36:05.000Z</time>
      </trkpt>
      <trkpt lat="47.29152" lon="-2.30175">
        <ele>-4.5999999046326</ele>
        <time>2020-05-17T09:36:12.000Z</time>
      </trkpt>
      <trkpt lat="47.29101" lon="-2.30203">
        <ele>-4.5999999046326</ele>
        <time>2020-05-17T09:36:20.000Z</time>
      </trkpt>
      <trkpt lat="47.29069" lon="-2.30222">
        <ele>-4.1999998092651</ele>
        <time>2020-05-17T09:36:25.000Z</time>
      </trkpt>
      <trkpt lat="47.29062" lon="-2.30225">
        <ele>-3.7999999523163</ele>
        <time>2020-05-17T09:36:26.000Z</time>
      </trkpt>
      <trkpt lat="47.29056" lon="-2.30228">
        <ele>-3.2000000476837</ele>
        <time>2020-05-17T09:36:27.000Z</time>
      </trkpt>
      <trkpt lat="47.29049" lon="-2.30231">
        <ele>-2.7999999523163</ele>
        <time>2020-05-17T09:36:28.000Z</time>
      </trkpt>
      <trkpt lat="47.29042" lon="-2.30233">
        <ele>-2.4000000953674</ele>
        <time>2020-05-17T09:36:29.000Z</time>
      </trkpt>
      <trkpt lat="47.29004" lon="-2.30246">
        <ele>-2.4000000953674</ele>
        <time>2020-05-17T09:36:35.000Z</time>
      </trkpt>
      <trkpt lat="47.28975" lon="-2.30249">
        <ele>-2.4000000953674</ele>
        <time>2020-05-17T09:36:40.000Z</time>
      </trkpt>
      <trkpt lat="47.2897" lon="-2.30247">
        <ele>-2.4000000953674</ele>
        <time>2020-05-17T09:36:41.000Z</time>
      </trkpt>
      <trkpt lat="47.28956" lon="-2.30228">
        <ele>-2.4000000953674</ele>
        <time>2020-05-17T09:36:44.000Z</time>
      </trkpt>
      <trkpt lat="47.28946" lon="-2.30215">
        <ele>-2</ele>
        <time>2020-05-17T09:36:46.000Z</time>
      </trkpt>
      <trkpt lat="47.28941" lon="-2.30209">
        <ele>-1.6000000238419</ele>
        <time>2020-05-17T09:36:47.000Z</time>
      </trkpt>
      <trkpt lat="47.28936" lon="-2.30203">
        <ele>-1.2000000476837</ele>
        <time>2020-05-17T09:36:48.000Z</time>
      </trkpt>
      <trkpt lat="47.28931" lon="-2.30196">
        <ele>-0.80000001192093</ele>
        <time>2020-05-17T09:36:49.000Z</time>
      </trkpt>
      <trkpt lat="47.28926" lon="-2.3019">
        <ele>-0.40000000596046</ele>
        <time>2020-05-17T09:36:50.000Z</time>
      </trkpt>
      <trkpt lat="47.289" lon="-2.30159">
        <ele>-0.40000000596046</ele>
        <time>2020-05-17T09:36:55.000Z</time>
      </trkpt>
      <trkpt lat="47.28879" lon="-2.30132">
        <ele>-0.40000000596046</ele>
        <time>2020-05-17T09:37:00.000Z</time>
      </trkpt>
      <trkpt lat="47.28876" lon="-2.30126">
        <ele>-0.40000000596046</ele>
        <time>2020-05-17T09:37:01.000Z</time>
      </trkpt>
      <trkpt lat="47.28864" lon="-2.30111">
        <ele>0.40000000596046</ele>
        <time>2020-05-17T09:37:04.000Z</time>
      </trkpt>
      <trkpt lat="47.28859" lon="-2.30106">
        <ele>0.80000001192093</ele>
        <time>2020-05-17T09:37:05.000Z</time>
      </trkpt>
      <trkpt lat="47.28855" lon="-2.30102">
        <ele>1.2000000476837</ele>
        <time>2020-05-17T09:37:06.000Z</time>
      </trkpt>
      <trkpt lat="47.2885" lon="-2.30097">
        <ele>1.7999999523163</ele>
        <time>2020-05-17T09:37:07.000Z</time>
      </trkpt>
      <trkpt lat="47.28831" lon="-2.30074">
        <ele>1.7999999523163</ele>
        <time>2020-05-17T09:37:12.000Z</time>
      </trkpt>
      <trkpt lat="47.28823" lon="-2.30065">
        <ele>1.7999999523163</ele>
        <time>2020-05-17T09:37:14.000Z</time>
      </trkpt>
      <trkpt lat="47.28808" lon="-2.30047">
        <ele>1.7999999523163</ele>
        <time>2020-05-17T09:37:18.000Z</time>
      </trkpt>
      <trkpt lat="47.288" lon="-2.30041">
        <ele>1.7999999523163</ele>
        <time>2020-05-17T09:37:20.000Z</time>
      </trkpt>
      <trkpt lat="47.2878" lon="-2.3003">
        <ele>1.7999999523163</ele>
        <time>2020-05-17T09:37:24.000Z</time>
      </trkpt>
      <trkpt lat="47.28775" lon="-2.30026">
        <ele>2.2000000476837</ele>
        <time>2020-05-17T09:37:25.000Z</time>
      </trkpt>
      <trkpt lat="47.28771" lon="-2.30021">
        <ele>2.5999999046326</ele>
        <time>2020-05-17T09:37:26.000Z</time>
      </trkpt>
      <trkpt lat="47.28769" lon="-2.30014">
        <ele>3</ele>
        <time>2020-05-17T09:37:27.000Z</time>
      </trkpt>
      <trkpt lat="47.28767" lon="-2.30007">
        <ele>3.4000000953674</ele>
        <time>2020-05-17T09:37:28.000Z</time>
      </trkpt>
      <trkpt lat="47.28763" lon="-2.3">
        <ele>3.7999999523163</ele>
        <time>2020-05-17T09:37:29.000Z</time>
      </trkpt>
      <trkpt lat="47.28752" lon="-2.29985">
        <ele>3.7999999523163</ele>
        <time>2020-05-17T09:37:32.000Z</time>
      </trkpt>
      <trkpt lat="47.28726" lon="-2.29954">
        <ele>3.7999999523163</ele>
        <time>2020-05-17T09:37:39.000Z</time>
      </trkpt>
      <trkpt lat="47.28723" lon="-2.29951">
        <ele>3.7999999523163</ele>
        <time>2020-05-17T09:37:40.000Z</time>
      </trkpt>
      <trkpt lat="47.28719" lon="-2.2995">
        <ele>4.1999998092651</ele>
        <time>2020-05-17T09:37:41.000Z</time>
      </trkpt>
      <trkpt lat="47.28715" lon="-2.2995">
        <ele>4.5999999046326</ele>
        <time>2020-05-17T09:37:42.000Z</time>
      </trkpt>
      <trkpt lat="47.28709" lon="-2.29949">
        <ele>5</ele>
        <time>2020-05-17T09:37:43.000Z</time>
      </trkpt>
      <trkpt lat="47.28704" lon="-2.29948">
        <ele>5.4000000953674</ele>
        <time>2020-05-17T09:37:44.000Z</time>
      </trkpt>
      <trkpt lat="47.28699" lon="-2.29945">
        <ele>5.8000001907349</ele>
        <time>2020-05-17T09:37:45.000Z</time>
      </trkpt>
      <trkpt lat="47.28695" lon="-2.29932">
        <ele>5.8000001907349</ele>
        <time>2020-05-17T09:37:47.000Z</time>
      </trkpt>
      <trkpt lat="47.287" lon="-2.29918">
        <ele>5.8000001907349</ele>
        <time>2020-05-17T09:37:50.000Z</time>
      </trkpt>
      <trkpt lat="47.28711" lon="-2.29923">
        <ele>5.8000001907349</ele>
        <time>2020-05-17T09:37:53.000Z</time>
      </trkpt>
      <trkpt lat="47.28715" lon="-2.29942">
        <ele>5.8000001907349</ele>
        <time>2020-05-17T09:37:56.000Z</time>
      </trkpt>
      <trkpt lat="47.28703" lon="-2.29962">
        <ele>5.8000001907349</ele>
        <time>2020-05-17T09:37:59.000Z</time>
      </trkpt>
      <trkpt lat="47.28698" lon="-2.2997">
        <ele>5.8000001907349</ele>
        <time>2020-05-17T09:38:00.000Z</time>
      </trkpt>
      <trkpt lat="47.28682" lon="-2.3">
        <ele>5.8000001907349</ele>
        <time>2020-05-17T09:38:04.000Z</time>
      </trkpt>
      <trkpt lat="47.28658" lon="-2.30032">
        <ele>5.8000001907349</ele>
        <time>2020-05-17T09:38:10.000Z</time>
      </trkpt>
      <trkpt lat="47.28653" lon="-2.30038">
        <ele>5.8000001907349</ele>
        <time>2020-05-17T09:38:11.000Z</time>
      </trkpt>
      <trkpt lat="47.28632" lon="-2.30055">
        <ele>6.1999998092651</ele>
        <time>2020-05-17T09:38:15.000Z</time>
      </trkpt>
      <trkpt lat="47.28626" lon="-2.30059">
        <ele>6.5999999046326</ele>
        <time>2020-05-17T09:38:16.000Z</time>
      </trkpt>
      <trkpt lat="47.28621" lon="-2.30062">
        <ele>7</ele>
        <time>2020-05-17T09:38:17.000Z</time>
      </trkpt>
      <trkpt lat="47.28615" lon="-2.30064">
        <ele>7.4000000953674</ele>
        <time>2020-05-17T09:38:18.000Z</time>
      </trkpt>
      <trkpt lat="47.2861" lon="-2.30067">
        <ele>7.8000001907349</ele>
        <time>2020-05-17T09:38:19.000Z</time>
      </trkpt>
      <trkpt lat="47.28593" lon="-2.30073">
        <ele>7.8000001907349</ele>
        <time>2020-05-17T09:38:22.000Z</time>
      </trkpt>
      <trkpt lat="47.28588" lon="-2.30075">
        <ele>8.1999998092651</ele>
        <time>2020-05-17T09:38:23.000Z</time>
      </trkpt>
      <trkpt lat="47.28582" lon="-2.30077">
        <ele>8.6000003814697</ele>
        <time>2020-05-17T09:38:24.000Z</time>
      </trkpt>
      <trkpt lat="47.28578" lon="-2.30078">
        <ele>9</ele>
        <time>2020-05-17T09:38:25.000Z</time>
      </trkpt>
      <trkpt lat="47.28573" lon="-2.3008">
        <ele>9.3999996185303</ele>
        <time>2020-05-17T09:38:26.000Z</time>
      </trkpt>
      <trkpt lat="47.28568" lon="-2.30081">
        <ele>9.8000001907349</ele>
        <time>2020-05-17T09:38:27.000Z</time>
      </trkpt>
      <trkpt lat="47.28563" lon="-2.30082">
        <ele>9.8000001907349</ele>
        <time>2020-05-17T09:38:28.000Z</time>
      </trkpt>
      <trkpt lat="47.2855" lon="-2.30087">
        <ele>10.39999961853</ele>
        <time>2020-05-17T09:38:31.000Z</time>
      </trkpt>
      <trkpt lat="47.28546" lon="-2.30089">
        <ele>10.800000190735</ele>
        <time>2020-05-17T09:38:32.000Z</time>
      </trkpt>
      <trkpt lat="47.28542" lon="-2.30091">
        <ele>11.199999809265</ele>
        <time>2020-05-17T09:38:33.000Z</time>
      </trkpt>
      <trkpt lat="47.28539" lon="-2.30093">
        <ele>11.60000038147</ele>
        <time>2020-05-17T09:38:34.000Z</time>
      </trkpt>
      <trkpt lat="47.28536" lon="-2.30096">
        <ele>12</ele>
        <time>2020-05-17T09:38:35.000Z</time>
      </trkpt>
      <trkpt lat="47.28531" lon="-2.30106">
        <ele>12</ele>
        <time>2020-05-17T09:38:38.000Z</time>
      </trkpt>
      <trkpt lat="47.28518" lon="-2.30121">
        <ele>12</ele>
        <time>2020-05-17T09:38:44.000Z</time>
      </trkpt>
      <trkpt lat="47.2851" lon="-2.30123">
        <ele>12</ele>
        <time>2020-05-17T09:38:46.000Z</time>
      </trkpt>
      <trkpt lat="47.28505" lon="-2.30122">
        <ele>12.39999961853</ele>
        <time>2020-05-17T09:38:47.000Z</time>
      </trkpt>
      <trkpt lat="47.285" lon="-2.30121">
        <ele>12.800000190735</ele>
        <time>2020-05-17T09:38:48.000Z</time>
      </trkpt>
      <trkpt lat="47.28495" lon="-2.30118">
        <ele>13.39999961853</ele>
        <time>2020-05-17T09:38:49.000Z</time>
      </trkpt>
      <trkpt lat="47.28491" lon="-2.30114">
        <ele>13.800000190735</ele>
        <time>2020-05-17T09:38:50.000Z</time>
      </trkpt>
      <trkpt lat="47.28486" lon="-2.3011">
        <ele>14.199999809265</ele>
        <time>2020-05-17T09:38:51.000Z</time>
      </trkpt>
      <trkpt lat="47.28482" lon="-2.30107">
        <ele>14.199999809265</ele>
        <time>2020-05-17T09:38:52.000Z</time>
      </trkpt>
      <trkpt lat="47.28466" lon="-2.30105">
        <ele>14.199999809265</ele>
        <time>2020-05-17T09:38:55.000Z</time>
      </trkpt>
      <trkpt lat="47.2846" lon="-2.30106">
        <ele>14.199999809265</ele>
        <time>2020-05-17T09:38:56.000Z</time>
      </trkpt>
      <trkpt lat="47.28424" lon="-2.30115">
        <ele>14.199999809265</ele>
        <time>2020-05-17T09:39:03.000Z</time>
      </trkpt>
      <trkpt lat="47.28413" lon="-2.30121">
        <ele>14.199999809265</ele>
        <time>2020-05-17T09:39:05.000Z</time>
      </trkpt>
      <trkpt lat="47.28397" lon="-2.30126">
        <ele>14.199999809265</ele>
        <time>2020-05-17T09:39:08.000Z</time>
      </trkpt>
      <trkpt lat="47.28391" lon="-2.30126">
        <ele>14.199999809265</ele>
        <time>2020-05-17T09:39:09.000Z</time>
      </trkpt>
      <trkpt lat="47.28385" lon="-2.30127">
        <ele>14.199999809265</ele>
        <time>2020-05-17T09:39:10.000Z</time>
      </trkpt>
      <trkpt lat="47.28361" lon="-2.30132">
        <ele>14.199999809265</ele>
        <time>2020-05-17T09:39:14.000Z</time>
      </trkpt>
      <trkpt lat="47.2831" lon="-2.30144">
        <ele>14.199999809265</ele>
        <time>2020-05-17T09:39:22.000Z</time>
      </trkpt>
      <trkpt lat="47.28254" lon="-2.30162">
        <ele>14.199999809265</ele>
        <time>2020-05-17T09:39:31.000Z</time>
      </trkpt>
      <trkpt lat="47.28204" lon="-2.30186">
        <ele>14.199999809265</ele>
        <time>2020-05-17T09:39:39.000Z</time>
      </trkpt>
      <trkpt lat="47.28157" lon="-2.30219">
        <ele>14.199999809265</ele>
        <time>2020-05-17T09:39:47.000Z</time>
      </trkpt>
      <trkpt lat="47.28124" lon="-2.30238">
        <ele>14.199999809265</ele>
        <time>2020-05-17T09:39:53.000Z</time>
      </trkpt>
      <trkpt lat="47.28108" lon="-2.30233">
        <ele>14.199999809265</ele>
        <time>2020-05-17T09:39:56.000Z</time>
      </trkpt>
      <trkpt lat="47.28097" lon="-2.30226">
        <ele>15</ele>
        <time>2020-05-17T09:39:58.000Z</time>
      </trkpt>
      <trkpt lat="47.28092" lon="-2.30222">
        <ele>15.39999961853</ele>
        <time>2020-05-17T09:39:59.000Z</time>
      </trkpt>
      <trkpt lat="47.28086" lon="-2.30219">
        <ele>15.800000190735</ele>
        <time>2020-05-17T09:40:00.000Z</time>
      </trkpt>
      <trkpt lat="47.28081" lon="-2.30216">
        <ele>16.39999961853</ele>
        <time>2020-05-17T09:40:01.000Z</time>
      </trkpt>
      <trkpt lat="47.28068" lon="-2.30211">
        <ele>16.39999961853</ele>
        <time>2020-05-17T09:40:03.000Z</time>
      </trkpt>
      <trkpt lat="47.28055" lon="-2.30213">
        <ele>16.39999961853</ele>
        <time>2020-05-17T09:40:05.000Z</time>
      </trkpt>
      <trkpt lat="47.28008" lon="-2.30231">
        <ele>15.800000190735</ele>
        <time>2020-05-17T09:40:12.000Z</time>
      </trkpt>
      <trkpt lat="47.28001" lon="-2.30235">
        <ele>15.39999961853</ele>
        <time>2020-05-17T09:40:13.000Z</time>
      </trkpt>
      <trkpt lat="47.27994" lon="-2.30239">
        <ele>15</ele>
        <time>2020-05-17T09:40:14.000Z</time>
      </trkpt>
      <trkpt lat="47.2799" lon="-2.30243">
        <ele>14.60000038147</ele>
        <time>2020-05-17T09:40:15.000Z</time>
      </trkpt>
      <trkpt lat="47.27986" lon="-2.30246">
        <ele>14.199999809265</ele>
        <time>2020-05-17T09:40:16.000Z</time>
      </trkpt>
      <trkpt lat="47.27983" lon="-2.30249">
        <ele>13.800000190735</ele>
        <time>2020-05-17T09:40:17.000Z</time>
      </trkpt>
      <trkpt lat="47.2798" lon="-2.30251">
        <ele>13.39999961853</ele>
        <time>2020-05-17T09:40:18.000Z</time>
      </trkpt>
      <trkpt lat="47.27977" lon="-2.30254">
        <ele>13</ele>
        <time>2020-05-17T09:40:19.000Z</time>
      </trkpt>
      <trkpt lat="47.27974" lon="-2.30255">
        <ele>12.60000038147</ele>
        <time>2020-05-17T09:40:20.000Z</time>
      </trkpt>
      <trkpt lat="47.2797" lon="-2.30255">
        <ele>12.199999809265</ele>
        <time>2020-05-17T09:40:21.000Z</time>
      </trkpt>
      <trkpt lat="47.27962" lon="-2.30257">
        <ele>12.199999809265</ele>
        <time>2020-05-17T09:40:23.000Z</time>
      </trkpt>
      <trkpt lat="47.27948" lon="-2.30261">
        <ele>12.199999809265</ele>
        <time>2020-05-17T09:40:26.000Z</time>
      </trkpt>
      <trkpt lat="47.27919" lon="-2.30278">
        <ele>12.199999809265</ele>
        <time>2020-05-17T09:40:32.000Z</time>
      </trkpt>
      <trkpt lat="47.27893" lon="-2.30297">
        <ele>12.60000038147</ele>
        <time>2020-05-17T09:40:38.000Z</time>
      </trkpt>
      <trkpt lat="47.27889" lon="-2.30301">
        <ele>13</ele>
        <time>2020-05-17T09:40:39.000Z</time>
      </trkpt>
      <trkpt lat="47.27884" lon="-2.30305">
        <ele>13.39999961853</ele>
        <time>2020-05-17T09:40:40.000Z</time>
      </trkpt>
      <trkpt lat="47.2788" lon="-2.30308">
        <ele>13.800000190735</ele>
        <time>2020-05-17T09:40:41.000Z</time>
      </trkpt>
      <trkpt lat="47.27876" lon="-2.30313">
        <ele>14.199999809265</ele>
        <time>2020-05-17T09:40:42.000Z</time>
      </trkpt>
      <trkpt lat="47.27862" lon="-2.30326">
        <ele>14.199999809265</ele>
        <time>2020-05-17T09:40:46.000Z</time>
      </trkpt>
      <trkpt lat="47.27858" lon="-2.3033">
        <ele>14.60000038147</ele>
        <time>2020-05-17T09:40:47.000Z</time>
      </trkpt>
      <trkpt lat="47.27854" lon="-2.30333">
        <ele>15.39999961853</ele>
        <time>2020-05-17T09:40:48.000Z</time>
      </trkpt>
      <trkpt lat="47.27849" lon="-2.30335">
        <ele>15.800000190735</ele>
        <time>2020-05-17T09:40:49.000Z</time>
      </trkpt>
      <trkpt lat="47.27845" lon="-2.30338">
        <ele>16.200000762939</ele>
        <time>2020-05-17T09:40:50.000Z</time>
      </trkpt>
      <trkpt lat="47.27837" lon="-2.30343">
        <ele>16.200000762939</ele>
        <time>2020-05-17T09:40:52.000Z</time>
      </trkpt>
      <trkpt lat="47.27802" lon="-2.30359">
        <ele>16.200000762939</ele>
        <time>2020-05-17T09:40:59.000Z</time>
      </trkpt>
      <trkpt lat="47.27765" lon="-2.30372">
        <ele>16.200000762939</ele>
        <time>2020-05-17T09:41:05.000Z</time>
      </trkpt>
      <trkpt lat="47.27726" lon="-2.30385">
        <ele>16.200000762939</ele>
        <time>2020-05-17T09:41:11.000Z</time>
      </trkpt>
      <trkpt lat="47.27684" lon="-2.30398">
        <ele>16.200000762939</ele>
        <time>2020-05-17T09:41:17.000Z</time>
      </trkpt>
      <trkpt lat="47.27645" lon="-2.30409">
        <ele>16.200000762939</ele>
        <time>2020-05-17T09:41:22.000Z</time>
      </trkpt>
      <trkpt lat="47.27636" lon="-2.30412">
        <ele>15.800000190735</ele>
        <time>2020-05-17T09:41:23.000Z</time>
      </trkpt>
      <trkpt lat="47.27628" lon="-2.30414">
        <ele>15.39999961853</ele>
        <time>2020-05-17T09:41:24.000Z</time>
      </trkpt>
      <trkpt lat="47.27619" lon="-2.30418">
        <ele>14.800000190735</ele>
        <time>2020-05-17T09:41:25.000Z</time>
      </trkpt>
      <trkpt lat="47.27611" lon="-2.30423">
        <ele>14.39999961853</ele>
        <time>2020-05-17T09:41:26.000Z</time>
      </trkpt>
      <trkpt lat="47.27603" lon="-2.30429">
        <ele>14</ele>
        <time>2020-05-17T09:41:27.000Z</time>
      </trkpt>
      <trkpt lat="47.27591" lon="-2.30448">
        <ele>13.60000038147</ele>
        <time>2020-05-17T09:41:29.000Z</time>
      </trkpt>
      <trkpt lat="47.27586" lon="-2.3046">
        <ele>13</ele>
        <time>2020-05-17T09:41:30.000Z</time>
      </trkpt>
      <trkpt lat="47.27583" lon="-2.30472">
        <ele>12.60000038147</ele>
        <time>2020-05-17T09:41:31.000Z</time>
      </trkpt>
      <trkpt lat="47.27581" lon="-2.30484">
        <ele>12.199999809265</ele>
        <time>2020-05-17T09:41:32.000Z</time>
      </trkpt>
      <trkpt lat="47.27578" lon="-2.30496">
        <ele>11.60000038147</ele>
        <time>2020-05-17T09:41:33.000Z</time>
      </trkpt>
      <trkpt lat="47.27566" lon="-2.30554">
        <ele>11.199999809265</ele>
        <time>2020-05-17T09:41:38.000Z</time>
      </trkpt>
      <trkpt lat="47.27563" lon="-2.30564">
        <ele>10.800000190735</ele>
        <time>2020-05-17T09:41:39.000Z</time>
      </trkpt>
      <trkpt lat="47.2756" lon="-2.30573">
        <ele>10.39999961853</ele>
        <time>2020-05-17T09:41:40.000Z</time>
      </trkpt>
      <trkpt lat="47.27556" lon="-2.30582">
        <ele>10</ele>
        <time>2020-05-17T09:41:41.000Z</time>
      </trkpt>
      <trkpt lat="47.27552" lon="-2.30589">
        <ele>9.6000003814697</ele>
        <time>2020-05-17T09:41:42.000Z</time>
      </trkpt>
      <trkpt lat="47.27548" lon="-2.30595">
        <ele>9.6000003814697</ele>
        <time>2020-05-17T09:41:43.000Z</time>
      </trkpt>
      <trkpt lat="47.27546" lon="-2.306">
        <ele>9.6000003814697</ele>
        <time>2020-05-17T09:41:44.000Z</time>
      </trkpt>
      <trkpt lat="47.27545" lon="-2.30606">
        <ele>9.1999998092651</ele>
        <time>2020-05-17T09:41:45.000Z</time>
      </trkpt>
      <trkpt lat="47.27546" lon="-2.30612">
        <ele>8.8000001907349</ele>
        <time>2020-05-17T09:41:46.000Z</time>
      </trkpt>
      <trkpt lat="47.27546" lon="-2.30617">
        <ele>8.1999998092651</ele>
        <time>2020-05-17T09:41:47.000Z</time>
      </trkpt>
      <trkpt lat="47.27548" lon="-2.30622">
        <ele>7.8000001907349</ele>
        <time>2020-05-17T09:41:48.000Z</time>
      </trkpt>
      <trkpt lat="47.2755" lon="-2.30627">
        <ele>7.4000000953674</ele>
        <time>2020-05-17T09:41:49.000Z</time>
      </trkpt>
      <trkpt lat="47.27553" lon="-2.30639">
        <ele>7.4000000953674</ele>
        <time>2020-05-17T09:41:51.000Z</time>
      </trkpt>
      <trkpt lat="47.27555" lon="-2.30646">
        <ele>7.4000000953674</ele>
        <time>2020-05-17T09:41:52.000Z</time>
      </trkpt>
      <trkpt lat="47.27561" lon="-2.30672">
        <ele>7.4000000953674</ele>
        <time>2020-05-17T09:41:56.000Z</time>
      </trkpt>
      <trkpt lat="47.27568" lon="-2.30712">
        <ele>7.4000000953674</ele>
        <time>2020-05-17T09:42:02.000Z</time>
      </trkpt>
      <trkpt lat="47.27577" lon="-2.30742">
        <ele>7.4000000953674</ele>
        <time>2020-05-17T09:42:07.000Z</time>
      </trkpt>
      <trkpt lat="47.27594" lon="-2.3079">
        <ele>7.8000001907349</ele>
        <time>2020-05-17T09:42:14.000Z</time>
      </trkpt>
      <trkpt lat="47.27597" lon="-2.30797">
        <ele>8.1999998092651</ele>
        <time>2020-05-17T09:42:15.000Z</time>
      </trkpt>
      <trkpt lat="47.276" lon="-2.30804">
        <ele>8.6000003814697</ele>
        <time>2020-05-17T09:42:16.000Z</time>
      </trkpt>
      <trkpt lat="47.27603" lon="-2.3081">
        <ele>9</ele>
        <time>2020-05-17T09:42:17.000Z</time>
      </trkpt>
      <trkpt lat="47.27606" lon="-2.30817">
        <ele>9.3999996185303</ele>
        <time>2020-05-17T09:42:18.000Z</time>
      </trkpt>
      <trkpt lat="47.27625" lon="-2.30861">
        <ele>9.3999996185303</ele>
        <time>2020-05-17T09:42:24.000Z</time>
      </trkpt>
      <trkpt lat="47.27628" lon="-2.30868">
        <ele>9.3999996185303</ele>
        <time>2020-05-17T09:42:25.000Z</time>
      </trkpt>
      <trkpt lat="47.2765" lon="-2.30912">
        <ele>9.3999996185303</ele>
        <time>2020-05-17T09:42:31.000Z</time>
      </trkpt>
      <trkpt lat="47.27668" lon="-2.30954">
        <ele>9.3999996185303</ele>
        <time>2020-05-17T09:42:36.000Z</time>
      </trkpt>
      <trkpt lat="47.27681" lon="-2.30989">
        <ele>9.3999996185303</ele>
        <time>2020-05-17T09:42:40.000Z</time>
      </trkpt>
      <trkpt lat="47.27688" lon="-2.31004">
        <ele>9.3999996185303</ele>
        <time>2020-05-17T09:42:42.000Z</time>
      </trkpt>
      <trkpt lat="47.27704" lon="-2.31047">
        <ele>9.3999996185303</ele>
        <time>2020-05-17T09:42:48.000Z</time>
      </trkpt>
      <trkpt lat="47.27712" lon="-2.31066">
        <ele>9.3999996185303</ele>
        <time>2020-05-17T09:42:51.000Z</time>
      </trkpt>
      <trkpt lat="47.27714" lon="-2.31073">
        <ele>9</ele>
        <time>2020-05-17T09:42:52.000Z</time>
      </trkpt>
      <trkpt lat="47.27715" lon="-2.31078">
        <ele>8.6000003814697</ele>
        <time>2020-05-17T09:42:53.000Z</time>
      </trkpt>
      <trkpt lat="47.27714" lon="-2.31084">
        <ele>8.1999998092651</ele>
        <time>2020-05-17T09:42:54.000Z</time>
      </trkpt>
      <trkpt lat="47.27713" lon="-2.31091">
        <ele>7.8000001907349</ele>
        <time>2020-05-17T09:42:55.000Z</time>
      </trkpt>
      <trkpt lat="47.27711" lon="-2.31097">
        <ele>7.4000000953674</ele>
        <time>2020-05-17T09:42:56.000Z</time>
      </trkpt>
      <trkpt lat="47.27709" lon="-2.31104">
        <ele>7.4000000953674</ele>
        <time>2020-05-17T09:42:57.000Z</time>
      </trkpt>
      <trkpt lat="47.27704" lon="-2.31115">
        <ele>7.4000000953674</ele>
        <time>2020-05-17T09:42:59.000Z</time>
      </trkpt>
      <trkpt lat="47.27703" lon="-2.31122">
        <ele>7.4000000953674</ele>
        <time>2020-05-17T09:43:00.000Z</time>
      </trkpt>
      <trkpt lat="47.27702" lon="-2.31128">
        <ele>7.4000000953674</ele>
        <time>2020-05-17T09:43:01.000Z</time>
      </trkpt>
      <trkpt lat="47.2769" lon="-2.31176">
        <ele>7.4000000953674</ele>
        <time>2020-05-17T09:43:07.000Z</time>
      </trkpt>
      <trkpt lat="47.27681" lon="-2.31222">
        <ele>7.4000000953674</ele>
        <time>2020-05-17T09:43:12.000Z</time>
      </trkpt>
      <trkpt lat="47.27671" lon="-2.31261">
        <ele>7.4000000953674</ele>
        <time>2020-05-17T09:43:16.000Z</time>
      </trkpt>
      <trkpt lat="47.27665" lon="-2.3128">
        <ele>7</ele>
        <time>2020-05-17T09:43:18.000Z</time>
      </trkpt>
      <trkpt lat="47.27663" lon="-2.3129">
        <ele>6.4000000953674</ele>
        <time>2020-05-17T09:43:19.000Z</time>
      </trkpt>
      <trkpt lat="47.27661" lon="-2.31299">
        <ele>6</ele>
        <time>2020-05-17T09:43:20.000Z</time>
      </trkpt>
      <trkpt lat="47.27658" lon="-2.3131">
        <ele>5.5999999046326</ele>
        <time>2020-05-17T09:43:21.000Z</time>
      </trkpt>
      <trkpt lat="47.27654" lon="-2.3132">
        <ele>5.1999998092651</ele>
        <time>2020-05-17T09:43:22.000Z</time>
      </trkpt>
      <trkpt lat="47.27641" lon="-2.31363">
        <ele>5.1999998092651</ele>
        <time>2020-05-17T09:43:26.000Z</time>
      </trkpt>
      <trkpt lat="47.27627" lon="-2.31413">
        <ele>4.8000001907349</ele>
        <time>2020-05-17T09:43:30.000Z</time>
      </trkpt>
      <trkpt lat="47.27624" lon="-2.31426">
        <ele>4.1999998092651</ele>
        <time>2020-05-17T09:43:31.000Z</time>
      </trkpt>
      <trkpt lat="47.27621" lon="-2.31439">
        <ele>3.7999999523163</ele>
        <time>2020-05-17T09:43:32.000Z</time>
      </trkpt>
      <trkpt lat="47.27617" lon="-2.31452">
        <ele>3.4000000953674</ele>
        <time>2020-05-17T09:43:33.000Z</time>
      </trkpt>
      <trkpt lat="47.27614" lon="-2.31466">
        <ele>3</ele>
        <time>2020-05-17T09:43:34.000Z</time>
      </trkpt>
      <trkpt lat="47.27601" lon="-2.31516">
        <ele>2.5999999046326</ele>
        <time>2020-05-17T09:43:38.000Z</time>
      </trkpt>
      <trkpt lat="47.27598" lon="-2.31528">
        <ele>2</ele>
        <time>2020-05-17T09:43:39.000Z</time>
      </trkpt>
      <trkpt lat="47.27595" lon="-2.31539">
        <ele>1.6000000238419</ele>
        <time>2020-05-17T09:43:40.000Z</time>
      </trkpt>
      <trkpt lat="47.27592" lon="-2.31551">
        <ele>0.80000001192093</ele>
        <time>2020-05-17T09:43:41.000Z</time>
      </trkpt>
      <trkpt lat="47.27588" lon="-2.31561">
        <ele>0.80000001192093</ele>
        <time>2020-05-17T09:43:42.000Z</time>
      </trkpt>
      <trkpt lat="47.27578" lon="-2.31582">
        <ele>0.80000001192093</ele>
        <time>2020-05-17T09:43:44.000Z</time>
      </trkpt>
      <trkpt lat="47.27574" lon="-2.31594">
        <ele>0.80000001192093</ele>
        <time>2020-05-17T09:43:45.000Z</time>
      </trkpt>
      <trkpt lat="47.27564" lon="-2.31627">
        <ele>0.80000001192093</ele>
        <time>2020-05-17T09:43:48.000Z</time>
      </trkpt>
      <trkpt lat="47.27543" lon="-2.31706">
        <ele>0.80000001192093</ele>
        <time>2020-05-17T09:43:55.000Z</time>
      </trkpt>
      <trkpt lat="47.27538" lon="-2.31731">
        <ele>0.40000000596046</ele>
        <time>2020-05-17T09:43:57.000Z</time>
      </trkpt>
      <trkpt lat="47.27535" lon="-2.31744">
        <ele>8.5</ele>
        <time>2020-05-17T09:43:58.000Z</time>
      </trkpt>
      <trkpt lat="47.27532" lon="-2.31756">
        <ele>-0.40000000596046</ele>
        <time>2020-05-17T09:43:59.000Z</time>
      </trkpt>
      <trkpt lat="47.2753" lon="-2.3177">
        <ele>-0.80000001192093</ele>
        <time>2020-05-17T09:44:00.000Z</time>
      </trkpt>
      <trkpt lat="47.27527" lon="-2.31783">
        <ele>-1.2000000476837</ele>
        <time>2020-05-17T09:44:01.000Z</time>
      </trkpt>
      <trkpt lat="47.27524" lon="-2.31796">
        <ele>-1.2000000476837</ele>
        <time>2020-05-17T09:44:02.000Z</time>
      </trkpt>
      <trkpt lat="47.27512" lon="-2.31834">
        <ele>-2</ele>
        <time>2020-05-17T09:44:05.000Z</time>
      </trkpt>
      <trkpt lat="47.27507" lon="-2.31846">
        <ele>-2.4000000953674</ele>
        <time>2020-05-17T09:44:06.000Z</time>
      </trkpt>
      <trkpt lat="47.27503" lon="-2.31859">
        <ele>-2.7999999523163</ele>
        <time>2020-05-17T09:44:07.000Z</time>
      </trkpt>
      <trkpt lat="47.27498" lon="-2.31873">
        <ele>-3.2000000476837</ele>
        <time>2020-05-17T09:44:08.000Z</time>
      </trkpt>
      <trkpt lat="47.27466" lon="-2.3195">
        <ele>-3.2000000476837</ele>
        <time>2020-05-17T09:44:14.000Z</time>
      </trkpt>
      <trkpt lat="47.27437" lon="-2.32022">
        <ele>-3.2000000476837</ele>
        <time>2020-05-17T09:44:20.000Z</time>
      </trkpt>
      <trkpt lat="47.27428" lon="-2.32039">
        <ele>-3.2000000476837</ele>
        <time>2020-05-17T09:44:22.000Z</time>
      </trkpt>
      <trkpt lat="47.27423" lon="-2.32044">
        <ele>-3.7999999523163</ele>
        <time>2020-05-17T09:44:23.000Z</time>
      </trkpt>
      <trkpt lat="47.27418" lon="-2.32046">
        <ele>-4.1999998092651</ele>
        <time>2020-05-17T09:44:24.000Z</time>
      </trkpt>
      <trkpt lat="47.27414" lon="-2.32046">
        <ele>-4.5999999046326</ele>
        <time>2020-05-17T09:44:25.000Z</time>
      </trkpt>
      <trkpt lat="47.27409" lon="-2.32045">
        <ele>-5</ele>
        <time>2020-05-17T09:44:26.000Z</time>
      </trkpt>
      <trkpt lat="47.27405" lon="-2.32043">
        <ele>-5.4000000953674</ele>
        <time>2020-05-17T09:44:27.000Z</time>
      </trkpt>
      <trkpt lat="47.274" lon="-2.3204">
        <ele>-5.4000000953674</ele>
        <time>2020-05-17T09:44:28.000Z</time>
      </trkpt>
      <trkpt lat="47.27388" lon="-2.32032">
        <ele>-5.4000000953674</ele>
        <time>2020-05-17T09:44:30.000Z</time>
      </trkpt>
      <trkpt lat="47.2736" lon="-2.32001">
        <ele>-5.4000000953674</ele>
        <time>2020-05-17T09:44:35.000Z</time>
      </trkpt>
      <trkpt lat="47.2735" lon="-2.31991">
        <ele>-5.4000000953674</ele>
        <time>2020-05-17T09:44:37.000Z</time>
      </trkpt>
      <trkpt lat="47.27343" lon="-2.31984">
        <ele>-5.4000000953674</ele>
        <time>2020-05-17T09:44:39.000Z</time>
      </trkpt>
      <trkpt lat="47.27322" lon="-2.31969">
        <ele>-5.4000000953674</ele>
        <time>2020-05-17T09:44:45.000Z</time>
      </trkpt>
      <trkpt lat="47.27317" lon="-2.31966">
        <ele>-5.4000000953674</ele>
        <time>2020-05-17T09:44:46.000Z</time>
      </trkpt>
      <trkpt lat="47.27307" lon="-2.31959">
        <ele>-5.4000000953674</ele>
        <time>2020-05-17T09:44:49.000Z</time>
      </trkpt>
      <trkpt lat="47.27295" lon="-2.31951">
        <ele>-5.4000000953674</ele>
        <time>2020-05-17T09:44:54.000Z</time>
      </trkpt>
      <trkpt lat="47.27277" lon="-2.31943">
        <ele>-5.4000000953674</ele>
        <time>2020-05-17T09:45:00.000Z</time>
      </trkpt>
      <trkpt lat="47.27252" lon="-2.31934">
        <ele>-5.4000000953674</ele>
        <time>2020-05-17T09:45:07.000Z</time>
      </trkpt>
      <trkpt lat="47.27227" lon="-2.31923">
        <ele>-5.4000000953674</ele>
        <time>2020-05-17T09:45:14.000Z</time>
      </trkpt>
      <trkpt lat="47.27221" lon="-2.31926">
        <ele>-5.4000000953674</ele>
        <time>2020-05-17T09:45:17.000Z</time>
      </trkpt>
      <trkpt lat="47.27218" lon="-2.31928">
        <ele>-5.4000000953674</ele>
        <time>2020-05-17T09:45:18.000Z</time>
      </trkpt>
      <trkpt lat="47.27203" lon="-2.31945">
        <ele>-5.4000000953674</ele>
        <time>2020-05-17T09:45:23.000Z</time>
      </trkpt>
      <trkpt lat="47.27184" lon="-2.31966">
        <ele>-5.4000000953674</ele>
        <time>2020-05-17T09:45:28.000Z</time>
      </trkpt>
      <trkpt lat="47.27181" lon="-2.31971">
        <ele>-5.4000000953674</ele>
        <time>2020-05-17T09:45:29.000Z</time>
      </trkpt>
      <trkpt lat="47.27173" lon="-2.31984">
        <ele>-5.4000000953674</ele>
        <time>2020-05-17T09:45:33.000Z</time>
      </trkpt>
      <trkpt lat="47.27161" lon="-2.31991">
        <ele>-5.4000000953674</ele>
        <time>2020-05-17T09:45:37.000Z</time>
      </trkpt>
      <trkpt lat="47.27158" lon="-2.3199">
        <ele>-5.4000000953674</ele>
        <time>2020-05-17T09:45:38.000Z</time>
      </trkpt>
      <trkpt lat="47.27142" lon="-2.3198">
        <ele>-5.4000000953674</ele>
        <time>2020-05-17T09:45:43.000Z</time>
      </trkpt>
      <trkpt lat="47.27119" lon="-2.31965">
        <ele>-5.4000000953674</ele>
        <time>2020-05-17T09:45:49.000Z</time>
      </trkpt>
      <trkpt lat="47.27111" lon="-2.31961">
        <ele>-5.4000000953674</ele>
        <time>2020-05-17T09:45:51.000Z</time>
      </trkpt>
      <trkpt lat="47.27093" lon="-2.31955">
        <ele>-5.4000000953674</ele>
        <time>2020-05-17T09:45:55.000Z</time>
      </trkpt>
      <trkpt lat="47.27088" lon="-2.31955">
        <ele>-5.4000000953674</ele>
        <time>2020-05-17T09:45:56.000Z</time>
      </trkpt>
      <trkpt lat="47.27069" lon="-2.31955">
        <ele>-5.4000000953674</ele>
        <time>2020-05-17T09:46:00.000Z</time>
      </trkpt>
      <trkpt lat="47.27059" lon="-2.31954">
        <ele>-5</ele>
        <time>2020-05-17T09:46:02.000Z</time>
      </trkpt>
      <trkpt lat="47.27054" lon="-2.31954">
        <ele>-4.5999999046326</ele>
        <time>2020-05-17T09:46:03.000Z</time>
      </trkpt>
      <trkpt lat="47.2705" lon="-2.31954">
        <ele>-4.1999998092651</ele>
        <time>2020-05-17T09:46:04.000Z</time>
      </trkpt>
      <trkpt lat="47.27045" lon="-2.31954">
        <ele>-3.7999999523163</ele>
        <time>2020-05-17T09:46:05.000Z</time>
      </trkpt>
      <trkpt lat="47.27041" lon="-2.31955">
        <ele>-3.4000000953674</ele>
        <time>2020-05-17T09:46:06.000Z</time>
      </trkpt>
      <trkpt lat="47.27037" lon="-2.31957">
        <ele>-3.4000000953674</ele>
        <time>2020-05-17T09:46:07.000Z</time>
      </trkpt>
      <trkpt lat="47.27025" lon="-2.31965">
        <ele>-3.4000000953674</ele>
        <time>2020-05-17T09:46:10.000Z</time>
      </trkpt>
      <trkpt lat="47.27016" lon="-2.31971">
        <ele>-3.4000000953674</ele>
        <time>2020-05-17T09:46:12.000Z</time>
      </trkpt>
      <trkpt lat="47.27007" lon="-2.31979">
        <ele>-3.4000000953674</ele>
        <time>2020-05-17T09:46:14.000Z</time>
      </trkpt>
      <trkpt lat="47.26999" lon="-2.31987">
        <ele>-3.4000000953674</ele>
        <time>2020-05-17T09:46:16.000Z</time>
      </trkpt>
      <trkpt lat="47.26992" lon="-2.31989">
        <ele>-3.4000000953674</ele>
        <time>2020-05-17T09:46:18.000Z</time>
      </trkpt>
      <trkpt lat="47.26985" lon="-2.31993">
        <ele>-3.4000000953674</ele>
        <time>2020-05-17T09:46:20.000Z</time>
      </trkpt>
      <trkpt lat="47.26961" lon="-2.32001">
        <ele>-3.4000000953674</ele>
        <time>2020-05-17T09:46:26.000Z</time>
      </trkpt>
      <trkpt lat="47.26953" lon="-2.31998">
        <ele>-3.4000000953674</ele>
        <time>2020-05-17T09:46:28.000Z</time>
      </trkpt>
      <trkpt lat="47.2695" lon="-2.31994">
        <ele>-3.4000000953674</ele>
        <time>2020-05-17T09:46:29.000Z</time>
      </trkpt>
      <trkpt lat="47.26947" lon="-2.3199">
        <ele>-3</ele>
        <time>2020-05-17T09:46:30.000Z</time>
      </trkpt>
      <trkpt lat="47.26944" lon="-2.31987">
        <ele>-2.5999999046326</ele>
        <time>2020-05-17T09:46:31.000Z</time>
      </trkpt>
      <trkpt lat="47.26941" lon="-2.31983">
        <ele>-2.2000000476837</ele>
        <time>2020-05-17T09:46:32.000Z</time>
      </trkpt>
      <trkpt lat="47.26938" lon="-2.31979">
        <ele>-1.7999999523163</ele>
        <time>2020-05-17T09:46:33.000Z</time>
      </trkpt>
      <trkpt lat="47.26935" lon="-2.31975">
        <ele>-1.2000000476837</ele>
        <time>2020-05-17T09:46:34.000Z</time>
      </trkpt>
      <trkpt lat="47.26929" lon="-2.31967">
        <ele>-1.2000000476837</ele>
        <time>2020-05-17T09:46:36.000Z</time>
      </trkpt>
      <trkpt lat="47.26923" lon="-2.3196">
        <ele>-0.80000001192093</ele>
        <time>2020-05-17T09:46:38.000Z</time>
      </trkpt>
      <trkpt lat="47.2692" lon="-2.31957">
        <ele>-0.40000000596046</ele>
        <time>2020-05-17T09:46:39.000Z</time>
      </trkpt>
      <trkpt lat="47.26916" lon="-2.31953">
        <ele>13</ele>
        <time>2020-05-17T09:46:40.000Z</time>
      </trkpt>
      <trkpt lat="47.26913" lon="-2.3195">
        <ele>0.40000000596046</ele>
        <time>2020-05-17T09:46:41.000Z</time>
      </trkpt>
      <trkpt lat="47.26909" lon="-2.31947">
        <ele>0.80000001192093</ele>
        <time>2020-05-17T09:46:42.000Z</time>
      </trkpt>
      <trkpt lat="47.26899" lon="-2.31932">
        <ele>0.80000001192093</ele>
        <time>2020-05-17T09:46:46.000Z</time>
      </trkpt>
      <trkpt lat="47.26894" lon="-2.31922">
        <ele>1.2000000476837</ele>
        <time>2020-05-17T09:46:48.000Z</time>
      </trkpt>
      <trkpt lat="47.26891" lon="-2.31918">
        <ele>1.6000000238419</ele>
        <time>2020-05-17T09:46:49.000Z</time>
      </trkpt>
      <trkpt lat="47.26889" lon="-2.31915">
        <ele>2</ele>
        <time>2020-05-17T09:46:50.000Z</time>
      </trkpt>
      <trkpt lat="47.26886" lon="-2.31912">
        <ele>2.4000000953674</ele>
        <time>2020-05-17T09:46:51.000Z</time>
      </trkpt>
      <trkpt lat="47.26883" lon="-2.31909">
        <ele>3</ele>
        <time>2020-05-17T09:46:52.000Z</time>
      </trkpt>
      <trkpt lat="47.26868" lon="-2.31899">
        <ele>3</ele>
        <time>2020-05-17T09:46:56.000Z</time>
      </trkpt>
      <trkpt lat="47.26855" lon="-2.31895">
        <ele>3</ele>
        <time>2020-05-17T09:47:00.000Z</time>
      </trkpt>
      <trkpt lat="47.26851" lon="-2.31893">
        <ele>3.4000000953674</ele>
        <time>2020-05-17T09:47:01.000Z</time>
      </trkpt>
      <trkpt lat="47.26848" lon="-2.3189">
        <ele>3.7999999523163</ele>
        <time>2020-05-17T09:47:02.000Z</time>
      </trkpt>
      <trkpt lat="47.26846" lon="-2.31887">
        <ele>4.1999998092651</ele>
        <time>2020-05-17T09:47:03.000Z</time>
      </trkpt>
      <trkpt lat="47.26844" lon="-2.31883">
        <ele>4.5999999046326</ele>
        <time>2020-05-17T09:47:04.000Z</time>
      </trkpt>
      <trkpt lat="47.26842" lon="-2.31879">
        <ele>5</ele>
        <time>2020-05-17T09:47:05.000Z</time>
      </trkpt>
      <trkpt lat="47.26832" lon="-2.3186">
        <ele>5.4000000953674</ele>
        <time>2020-05-17T09:47:10.000Z</time>
      </trkpt>
      <trkpt lat="47.26831" lon="-2.31856">
        <ele>5.8000001907349</ele>
        <time>2020-05-17T09:47:11.000Z</time>
      </trkpt>
      <trkpt lat="47.26829" lon="-2.31851">
        <ele>6.1999998092651</ele>
        <time>2020-05-17T09:47:12.000Z</time>
      </trkpt>
      <trkpt lat="47.26827" lon="-2.31846">
        <ele>6.5999999046326</ele>
        <time>2020-05-17T09:47:13.000Z</time>
      </trkpt>
      <trkpt lat="47.26826" lon="-2.31842">
        <ele>7</ele>
        <time>2020-05-17T09:47:14.000Z</time>
      </trkpt>
      <trkpt lat="47.26823" lon="-2.31834">
        <ele>7</ele>
        <time>2020-05-17T09:47:16.000Z</time>
      </trkpt>
      <trkpt lat="47.26817" lon="-2.31811">
        <ele>7</ele>
        <time>2020-05-17T09:47:22.000Z</time>
      </trkpt>
      <trkpt lat="47.26815" lon="-2.3181">
        <ele>7</ele>
        <time>2020-05-17T09:47:23.000Z</time>
      </trkpt>
      <trkpt lat="47.26808" lon="-2.31813">
        <ele>7</ele>
        <time>2020-05-17T09:47:25.000Z</time>
      </trkpt>
      <trkpt lat="47.26793" lon="-2.3182">
        <ele>7</ele>
        <time>2020-05-17T09:47:29.000Z</time>
      </trkpt>
      <trkpt lat="47.26782" lon="-2.31827">
        <ele>7</ele>
        <time>2020-05-17T09:47:32.000Z</time>
      </trkpt>
      <trkpt lat="47.26778" lon="-2.31829">
        <ele>7.4000000953674</ele>
        <time>2020-05-17T09:47:33.000Z</time>
      </trkpt>
      <trkpt lat="47.26774" lon="-2.31832">
        <ele>7.8000001907349</ele>
        <time>2020-05-17T09:47:34.000Z</time>
      </trkpt>
      <trkpt lat="47.2677" lon="-2.31835">
        <ele>8.1999998092651</ele>
        <time>2020-05-17T09:47:35.000Z</time>
      </trkpt>
      <trkpt lat="47.26766" lon="-2.31837">
        <ele>8.6000003814697</ele>
        <time>2020-05-17T09:47:36.000Z</time>
      </trkpt>
      <trkpt lat="47.26762" lon="-2.31839">
        <ele>9</ele>
        <time>2020-05-17T09:47:37.000Z</time>
      </trkpt>
      <trkpt lat="47.26758" lon="-2.31843">
        <ele>9</ele>
        <time>2020-05-17T09:47:38.000Z</time>
      </trkpt>
      <trkpt lat="47.26755" lon="-2.31846">
        <ele>9</ele>
        <time>2020-05-17T09:47:39.000Z</time>
      </trkpt>
      <trkpt lat="47.26738" lon="-2.31858">
        <ele>9</ele>
        <time>2020-05-17T09:47:45.000Z</time>
      </trkpt>
      <trkpt lat="47.26734" lon="-2.31866">
        <ele>9</ele>
        <time>2020-05-17T09:47:50.000Z</time>
      </trkpt>
      <trkpt lat="47.26733" lon="-2.31869">
        <ele>9</ele>
        <time>2020-05-17T09:47:52.000Z</time>
      </trkpt>
      <trkpt lat="47.26729" lon="-2.31868">
        <ele>9</ele>
        <time>2020-05-17T09:47:56.000Z</time>
      </trkpt>
      <trkpt lat="47.26728" lon="-2.31867">
        <ele>9</ele>
        <time>2020-05-17T09:47:57.000Z</time>
      </trkpt>
      <trkpt lat="47.26729" lon="-2.3186">
        <ele>9</ele>
        <time>2020-05-17T09:48:01.000Z</time>
      </trkpt>
      <trkpt lat="47.26732" lon="-2.31865">
        <ele>9</ele>
        <time>2020-05-17T09:48:05.000Z</time>
      </trkpt>
      <trkpt lat="47.26732" lon="-2.31865">
        <ele>9</ele>
        <time>2020-05-17T09:48:10.000Z</time>
      </trkpt>
      <trkpt lat="47.26732" lon="-2.31865">
        <ele>9</ele>
        <time>2020-05-17T09:48:23.000Z</time>
      </trkpt>
      <trkpt lat="47.26733" lon="-2.31868">
        <ele>9</ele>
        <time>2020-05-17T09:48:28.000Z</time>
      </trkpt>
      <trkpt lat="47.26737" lon="-2.31877">
        <ele>9</ele>
        <time>2020-05-17T09:48:33.000Z</time>
      </trkpt>
      <trkpt lat="47.26746" lon="-2.31901">
        <ele>9</ele>
        <time>2020-05-17T09:48:39.000Z</time>
      </trkpt>
      <trkpt lat="47.26758" lon="-2.31929">
        <ele>9</ele>
        <time>2020-05-17T09:48:44.000Z</time>
      </trkpt>
      <trkpt lat="47.26767" lon="-2.31949">
        <ele>8.6000003814697</ele>
        <time>2020-05-17T09:48:47.000Z</time>
      </trkpt>
      <trkpt lat="47.2677" lon="-2.31955">
        <ele>8.1999998092651</ele>
        <time>2020-05-17T09:48:48.000Z</time>
      </trkpt>
      <trkpt lat="47.26774" lon="-2.31962">
        <ele>7.5999999046326</ele>
        <time>2020-05-17T09:48:49.000Z</time>
      </trkpt>
      <trkpt lat="47.26777" lon="-2.31969">
        <ele>7.1999998092651</ele>
        <time>2020-05-17T09:48:50.000Z</time>
      </trkpt>
      <trkpt lat="47.26782" lon="-2.31975">
        <ele>6.8000001907349</ele>
        <time>2020-05-17T09:48:51.000Z</time>
      </trkpt>
      <trkpt lat="47.26798" lon="-2.32004">
        <ele>6.4000000953674</ele>
        <time>2020-05-17T09:48:55.000Z</time>
      </trkpt>
      <trkpt lat="47.26802" lon="-2.32011">
        <ele>6</ele>
        <time>2020-05-17T09:48:56.000Z</time>
      </trkpt>
      <trkpt lat="47.26805" lon="-2.32019">
        <ele>5.5999999046326</ele>
        <time>2020-05-17T09:48:57.000Z</time>
      </trkpt>
      <trkpt lat="47.26808" lon="-2.32027">
        <ele>5.1999998092651</ele>
        <time>2020-05-17T09:48:58.000Z</time>
      </trkpt>
      <trkpt lat="47.26811" lon="-2.32036">
        <ele>4.8000001907349</ele>
        <time>2020-05-17T09:48:59.000Z</time>
      </trkpt>
      <trkpt lat="47.26816" lon="-2.32054">
        <ele>4.8000001907349</ele>
        <time>2020-05-17T09:49:01.000Z</time>
      </trkpt>
      <trkpt lat="47.26827" lon="-2.32098">
        <ele>4.1999998092651</ele>
        <time>2020-05-17T09:49:06.000Z</time>
      </trkpt>
      <trkpt lat="47.26829" lon="-2.32106">
        <ele>3.7999999523163</ele>
        <time>2020-05-17T09:49:07.000Z</time>
      </trkpt>
      <trkpt lat="47.26831" lon="-2.32115">
        <ele>3.4000000953674</ele>
        <time>2020-05-17T09:49:08.000Z</time>
      </trkpt>
      <trkpt lat="47.26833" lon="-2.32123">
        <ele>3</ele>
        <time>2020-05-17T09:49:09.000Z</time>
      </trkpt>
      <trkpt lat="47.26835" lon="-2.32131">
        <ele>2.4000000953674</ele>
        <time>2020-05-17T09:49:10.000Z</time>
      </trkpt>
      <trkpt lat="47.26839" lon="-2.32147">
        <ele>2.4000000953674</ele>
        <time>2020-05-17T09:49:12.000Z</time>
      </trkpt>
      <trkpt lat="47.26846" lon="-2.32169">
        <ele>2.4000000953674</ele>
        <time>2020-05-17T09:49:15.000Z</time>
      </trkpt>
      <trkpt lat="47.26857" lon="-2.32192">
        <ele>2.4000000953674</ele>
        <time>2020-05-17T09:49:18.000Z</time>
      </trkpt>
      <trkpt lat="47.26864" lon="-2.32207">
        <ele>2.4000000953674</ele>
        <time>2020-05-17T09:49:20.000Z</time>
      </trkpt>
      <trkpt lat="47.26876" lon="-2.3223">
        <ele>2.4000000953674</ele>
        <time>2020-05-17T09:49:23.000Z</time>
      </trkpt>
      <trkpt lat="47.26885" lon="-2.32245">
        <ele>2</ele>
        <time>2020-05-17T09:49:25.000Z</time>
      </trkpt>
      <trkpt lat="47.26889" lon="-2.32253">
        <ele>1.6000000238419</ele>
        <time>2020-05-17T09:49:26.000Z</time>
      </trkpt>
      <trkpt lat="47.26894" lon="-2.3226">
        <ele>0.80000001192093</ele>
        <time>2020-05-17T09:49:27.000Z</time>
      </trkpt>
      <trkpt lat="47.26898" lon="-2.32269">
        <ele>0.40000000596046</ele>
        <time>2020-05-17T09:49:28.000Z</time>
      </trkpt>
      <trkpt lat="47.26907" lon="-2.32288">
        <ele>9.5</ele>
        <time>2020-05-17T09:49:30.000Z</time>
      </trkpt>
      <trkpt lat="47.26911" lon="-2.32298">
        <ele>-0.40000000596046</ele>
        <time>2020-05-17T09:49:31.000Z</time>
      </trkpt>
      <trkpt lat="47.26914" lon="-2.32308">
        <ele>-1</ele>
        <time>2020-05-17T09:49:32.000Z</time>
      </trkpt>
      <trkpt lat="47.26916" lon="-2.32316">
        <ele>-1.3999999761581</ele>
        <time>2020-05-17T09:49:33.000Z</time>
      </trkpt>
      <trkpt lat="47.26917" lon="-2.32323">
        <ele>-1.7999999523163</ele>
        <time>2020-05-17T09:49:34.000Z</time>
      </trkpt>
      <trkpt lat="47.26915" lon="-2.32329">
        <ele>-1.7999999523163</ele>
        <time>2020-05-17T09:49:35.000Z</time>
      </trkpt>
      <trkpt lat="47.26906" lon="-2.32337">
        <ele>-1.7999999523163</ele>
        <time>2020-05-17T09:49:38.000Z</time>
      </trkpt>
      <trkpt lat="47.26897" lon="-2.32339">
        <ele>-1.7999999523163</ele>
        <time>2020-05-17T09:49:40.000Z</time>
      </trkpt>
      <trkpt lat="47.26888" lon="-2.3234">
        <ele>-1.7999999523163</ele>
        <time>2020-05-17T09:49:42.000Z</time>
      </trkpt>
      <trkpt lat="47.26857" lon="-2.32344">
        <ele>-1.7999999523163</ele>
        <time>2020-05-17T09:49:48.000Z</time>
      </trkpt>
      <trkpt lat="47.26842" lon="-2.32348">
        <ele>-1.7999999523163</ele>
        <time>2020-05-17T09:49:51.000Z</time>
      </trkpt>
      <trkpt lat="47.26838" lon="-2.32349">
        <ele>-0.80000001192093</ele>
        <time>2020-05-17T09:49:52.000Z</time>
      </trkpt>
      <trkpt lat="47.26834" lon="-2.32349">
        <ele>-0.40000000596046</ele>
        <time>2020-05-17T09:49:53.000Z</time>
      </trkpt>
      <trkpt lat="47.2683" lon="-2.32351">
        <ele>15.2</ele>
        <time>2020-05-17T09:49:54.000Z</time>
      </trkpt>
      <trkpt lat="47.26826" lon="-2.32352">
        <ele>0.40000000596046</ele>
        <time>2020-05-17T09:49:55.000Z</time>
      </trkpt>
      <trkpt lat="47.26813" lon="-2.32354">
        <ele>0.80000001192093</ele>
        <time>2020-05-17T09:49:58.000Z</time>
      </trkpt>
      <trkpt lat="47.26808" lon="-2.32355">
        <ele>1.2000000476837</ele>
        <time>2020-05-17T09:49:59.000Z</time>
      </trkpt>
      <trkpt lat="47.26804" lon="-2.32356">
        <ele>1.7999999523163</ele>
        <time>2020-05-17T09:50:00.000Z</time>
      </trkpt>
      <trkpt lat="47.268" lon="-2.32358">
        <ele>2.2000000476837</ele>
        <time>2020-05-17T09:50:01.000Z</time>
      </trkpt>
      <trkpt lat="47.26796" lon="-2.3236">
        <ele>2.5999999046326</ele>
        <time>2020-05-17T09:50:02.000Z</time>
      </trkpt>
      <trkpt lat="47.26789" lon="-2.32363">
        <ele>2.5999999046326</ele>
        <time>2020-05-17T09:50:04.000Z</time>
      </trkpt>
      <trkpt lat="47.26786" lon="-2.32365">
        <ele>2.5999999046326</ele>
        <time>2020-05-17T09:50:05.000Z</time>
      </trkpt>
      <trkpt lat="47.26783" lon="-2.32367">
        <ele>3</ele>
        <time>2020-05-17T09:50:06.000Z</time>
      </trkpt>
      <trkpt lat="47.26781" lon="-2.3237">
        <ele>3.4000000953674</ele>
        <time>2020-05-17T09:50:07.000Z</time>
      </trkpt>
      <trkpt lat="47.26779" lon="-2.32375">
        <ele>3.7999999523163</ele>
        <time>2020-05-17T09:50:08.000Z</time>
      </trkpt>
      <trkpt lat="47.26779" lon="-2.3238">
        <ele>4.1999998092651</ele>
        <time>2020-05-17T09:50:09.000Z</time>
      </trkpt>
      <trkpt lat="47.26779" lon="-2.32386">
        <ele>4.5999999046326</ele>
        <time>2020-05-17T09:50:10.000Z</time>
      </trkpt>
      <trkpt lat="47.26782" lon="-2.32405">
        <ele>4.5999999046326</ele>
        <time>2020-05-17T09:50:13.000Z</time>
      </trkpt>
      <trkpt lat="47.26783" lon="-2.32411">
        <ele>4.5999999046326</ele>
        <time>2020-05-17T09:50:14.000Z</time>
      </trkpt>
      <trkpt lat="47.26788" lon="-2.3244">
        <ele>4.5999999046326</ele>
        <time>2020-05-17T09:50:18.000Z</time>
      </trkpt>
      <trkpt lat="47.26788" lon="-2.32447">
        <ele>4.5999999046326</ele>
        <time>2020-05-17T09:50:19.000Z</time>
      </trkpt>
      <trkpt lat="47.26792" lon="-2.3248">
        <ele>4.5999999046326</ele>
        <time>2020-05-17T09:50:23.000Z</time>
      </trkpt>
      <trkpt lat="47.26798" lon="-2.32541">
        <ele>4.5999999046326</ele>
        <time>2020-05-17T09:50:30.000Z</time>
      </trkpt>
      <trkpt lat="47.26799" lon="-2.32576">
        <ele>4.5999999046326</ele>
        <time>2020-05-17T09:50:34.000Z</time>
      </trkpt>
      <trkpt lat="47.268" lon="-2.32585">
        <ele>4.5999999046326</ele>
        <time>2020-05-17T09:50:35.000Z</time>
      </trkpt>
      <trkpt lat="47.26808" lon="-2.32637">
        <ele>4.5999999046326</ele>
        <time>2020-05-17T09:50:41.000Z</time>
      </trkpt>
      <trkpt lat="47.26809" lon="-2.32662">
        <ele>4.5999999046326</ele>
        <time>2020-05-17T09:50:44.000Z</time>
      </trkpt>
      <trkpt lat="47.26803" lon="-2.32674">
        <ele>4.5999999046326</ele>
        <time>2020-05-17T09:50:46.000Z</time>
      </trkpt>
      <trkpt lat="47.268" lon="-2.32689">
        <ele>4.5999999046326</ele>
        <time>2020-05-17T09:50:48.000Z</time>
      </trkpt>
      <trkpt lat="47.26804" lon="-2.32702">
        <ele>4.5999999046326</ele>
        <time>2020-05-17T09:50:50.000Z</time>
      </trkpt>
      <trkpt lat="47.2681" lon="-2.32716">
        <ele>4.5999999046326</ele>
        <time>2020-05-17T09:50:52.000Z</time>
      </trkpt>
      <trkpt lat="47.26821" lon="-2.32738">
        <ele>4.5999999046326</ele>
        <time>2020-05-17T09:50:55.000Z</time>
      </trkpt>
      <trkpt lat="47.26833" lon="-2.32772">
        <ele>4.1999998092651</ele>
        <time>2020-05-17T09:50:59.000Z</time>
      </trkpt>
      <trkpt lat="47.26836" lon="-2.32781">
        <ele>3.7999999523163</ele>
        <time>2020-05-17T09:51:00.000Z</time>
      </trkpt>
      <trkpt lat="47.26838" lon="-2.32791">
        <ele>3.2000000476837</ele>
        <time>2020-05-17T09:51:01.000Z</time>
      </trkpt>
      <trkpt lat="47.2684" lon="-2.32801">
        <ele>2.7999999523163</ele>
        <time>2020-05-17T09:51:02.000Z</time>
      </trkpt>
      <trkpt lat="47.26843" lon="-2.3281">
        <ele>2.2000000476837</ele>
        <time>2020-05-17T09:51:03.000Z</time>
      </trkpt>
      <trkpt lat="47.26846" lon="-2.32819">
        <ele>1.6000000238419</ele>
        <time>2020-05-17T09:51:04.000Z</time>
      </trkpt>
      <trkpt lat="47.26849" lon="-2.32828">
        <ele>1.2000000476837</ele>
        <time>2020-05-17T09:51:05.000Z</time>
      </trkpt>
      <trkpt lat="47.26852" lon="-2.32836">
        <ele>-0.20000000298023</ele>
        <time>2020-05-17T09:51:06.000Z</time>
      </trkpt>
      <trkpt lat="47.26855" lon="-2.32845">
        <ele>-0.80000001192093</ele>
        <time>2020-05-17T09:51:07.000Z</time>
      </trkpt>
      <trkpt lat="47.26858" lon="-2.32853">
        <ele>-1.6000000238419</ele>
        <time>2020-05-17T09:51:08.000Z</time>
      </trkpt>
      <trkpt lat="47.2686" lon="-2.32861">
        <ele>-2.4000000953674</ele>
        <time>2020-05-17T09:51:09.000Z</time>
      </trkpt>
      <trkpt lat="47.26862" lon="-2.32867">
        <ele>-3</ele>
        <time>2020-05-17T09:51:10.000Z</time>
      </trkpt>
      <trkpt lat="47.26862" lon="-2.32872">
        <ele>-3.7999999523163</ele>
        <time>2020-05-17T09:51:11.000Z</time>
      </trkpt>
      <trkpt lat="47.2686" lon="-2.32876">
        <ele>-4.5999999046326</ele>
        <time>2020-05-17T09:51:12.000Z</time>
      </trkpt>
      <trkpt lat="47.26858" lon="-2.3288">
        <ele>-5.4000000953674</ele>
        <time>2020-05-17T09:51:13.000Z</time>
      </trkpt>
      <trkpt lat="47.26853" lon="-2.32882">
        <ele>-6.1999998092651</ele>
        <time>2020-05-17T09:51:14.000Z</time>
      </trkpt>
      <trkpt lat="47.26849" lon="-2.32882">
        <ele>-7</ele>
        <time>2020-05-17T09:51:15.000Z</time>
      </trkpt>
      <trkpt lat="47.26834" lon="-2.32886">
        <ele>-7</ele>
        <time>2020-05-17T09:51:18.000Z</time>
      </trkpt>
      <trkpt lat="47.26828" lon="-2.32889">
        <ele>-7</ele>
        <time>2020-05-17T09:51:19.000Z</time>
      </trkpt>
      <trkpt lat="47.26813" lon="-2.32904">
        <ele>-7</ele>
        <time>2020-05-17T09:51:22.000Z</time>
      </trkpt>
      <trkpt lat="47.26798" lon="-2.32918">
        <ele>-7</ele>
        <time>2020-05-17T09:51:25.000Z</time>
      </trkpt>
      <trkpt lat="47.2678" lon="-2.32931">
        <ele>-7</ele>
        <time>2020-05-17T09:51:28.000Z</time>
      </trkpt>
      <trkpt lat="47.2676" lon="-2.32956">
        <ele>-7</ele>
        <time>2020-05-17T09:51:32.000Z</time>
      </trkpt>
      <trkpt lat="47.26736" lon="-2.32987">
        <ele>-7</ele>
        <time>2020-05-17T09:51:37.000Z</time>
      </trkpt>
      <trkpt lat="47.26733" lon="-2.32995">
        <ele>-7</ele>
        <time>2020-05-17T09:51:38.000Z</time>
      </trkpt>
      <trkpt lat="47.26731" lon="-2.33022">
        <ele>-7</ele>
        <time>2020-05-17T09:51:41.000Z</time>
      </trkpt>
      <trkpt lat="47.26731" lon="-2.33031">
        <ele>-7</ele>
        <time>2020-05-17T09:51:42.000Z</time>
      </trkpt>
      <trkpt lat="47.2673" lon="-2.3304">
        <ele>-7</ele>
        <time>2020-05-17T09:51:43.000Z</time>
      </trkpt>
      <trkpt lat="47.26721" lon="-2.33065">
        <ele>-7</ele>
        <time>2020-05-17T09:51:46.000Z</time>
      </trkpt>
      <trkpt lat="47.26701" lon="-2.33093">
        <ele>-7</ele>
        <time>2020-05-17T09:51:50.000Z</time>
      </trkpt>
      <trkpt lat="47.2669" lon="-2.33104">
        <ele>-7</ele>
        <time>2020-05-17T09:51:52.000Z</time>
      </trkpt>
      <trkpt lat="47.26678" lon="-2.33114">
        <ele>-7.4000000953674</ele>
        <time>2020-05-17T09:51:54.000Z</time>
      </trkpt>
      <trkpt lat="47.26672" lon="-2.33119">
        <ele>-7.8000001907349</ele>
        <time>2020-05-17T09:51:55.000Z</time>
      </trkpt>
      <trkpt lat="47.26666" lon="-2.33124">
        <ele>-8.6000003814697</ele>
        <time>2020-05-17T09:51:56.000Z</time>
      </trkpt>
      <trkpt lat="47.26661" lon="-2.3313">
        <ele>-9</ele>
        <time>2020-05-17T09:51:57.000Z</time>
      </trkpt>
      <trkpt lat="47.26632" lon="-2.33152">
        <ele>-9</ele>
        <time>2020-05-17T09:52:02.000Z</time>
      </trkpt>
      <trkpt lat="47.26626" lon="-2.33154">
        <ele>-9</ele>
        <time>2020-05-17T09:52:03.000Z</time>
      </trkpt>
      <trkpt lat="47.26601" lon="-2.33148">
        <ele>-9</ele>
        <time>2020-05-17T09:52:07.000Z</time>
      </trkpt>
      <trkpt lat="47.26595" lon="-2.3315">
        <ele>-9</ele>
        <time>2020-05-17T09:52:08.000Z</time>
      </trkpt>
      <trkpt lat="47.26586" lon="-2.33163">
        <ele>-9</ele>
        <time>2020-05-17T09:52:10.000Z</time>
      </trkpt>
      <trkpt lat="47.2658" lon="-2.3318">
        <ele>-9</ele>
        <time>2020-05-17T09:52:12.000Z</time>
      </trkpt>
      <trkpt lat="47.26571" lon="-2.33194">
        <ele>-9</ele>
        <time>2020-05-17T09:52:14.000Z</time>
      </trkpt>
      <trkpt lat="47.26554" lon="-2.33205">
        <ele>-9</ele>
        <time>2020-05-17T09:52:17.000Z</time>
      </trkpt>
      <trkpt lat="47.26548" lon="-2.33208">
        <ele>-9</ele>
        <time>2020-05-17T09:52:18.000Z</time>
      </trkpt>
      <trkpt lat="47.26519" lon="-2.33227">
        <ele>-9</ele>
        <time>2020-05-17T09:52:23.000Z</time>
      </trkpt>
      <trkpt lat="47.26514" lon="-2.33233">
        <ele>-9</ele>
        <time>2020-05-17T09:52:24.000Z</time>
      </trkpt>
      <trkpt lat="47.26504" lon="-2.33244">
        <ele>-9</ele>
        <time>2020-05-17T09:52:26.000Z</time>
      </trkpt>
      <trkpt lat="47.26495" lon="-2.33269">
        <ele>-9</ele>
        <time>2020-05-17T09:52:29.000Z</time>
      </trkpt>
      <trkpt lat="47.26493" lon="-2.33277">
        <ele>-9</ele>
        <time>2020-05-17T09:52:30.000Z</time>
      </trkpt>
      <trkpt lat="47.2649" lon="-2.33283">
        <ele>-9</ele>
        <time>2020-05-17T09:52:31.000Z</time>
      </trkpt>
      <trkpt lat="47.26479" lon="-2.33291">
        <ele>-9</ele>
        <time>2020-05-17T09:52:33.000Z</time>
      </trkpt>
      <trkpt lat="47.26461" lon="-2.33314">
        <ele>-9</ele>
        <time>2020-05-17T09:52:37.000Z</time>
      </trkpt>
      <trkpt lat="47.2645" lon="-2.33322">
        <ele>-9</ele>
        <time>2020-05-17T09:52:39.000Z</time>
      </trkpt>
      <trkpt lat="47.26433" lon="-2.33336">
        <ele>-9</ele>
        <time>2020-05-17T09:52:42.000Z</time>
      </trkpt>
      <trkpt lat="47.26393" lon="-2.33364">
        <ele>-9</ele>
        <time>2020-05-17T09:52:49.000Z</time>
      </trkpt>
      <trkpt lat="47.26347" lon="-2.3339">
        <ele>-9</ele>
        <time>2020-05-17T09:52:57.000Z</time>
      </trkpt>
      <trkpt lat="47.26313" lon="-2.3341">
        <ele>-9</ele>
        <time>2020-05-17T09:53:03.000Z</time>
      </trkpt>
      <trkpt lat="47.26294" lon="-2.33426">
        <ele>-9</ele>
        <time>2020-05-17T09:53:07.000Z</time>
      </trkpt>
      <trkpt lat="47.26282" lon="-2.33428">
        <ele>-9</ele>
        <time>2020-05-17T09:53:09.000Z</time>
      </trkpt>
      <trkpt lat="47.2627" lon="-2.3343">
        <ele>-9</ele>
        <time>2020-05-17T09:53:11.000Z</time>
      </trkpt>
      <trkpt lat="47.26221" lon="-2.33438">
        <ele>-9</ele>
        <time>2020-05-17T09:53:19.000Z</time>
      </trkpt>
      <trkpt lat="47.26171" lon="-2.33443">
        <ele>-9</ele>
        <time>2020-05-17T09:53:28.000Z</time>
      </trkpt>
      <trkpt lat="47.26148" lon="-2.33434">
        <ele>-9</ele>
        <time>2020-05-17T09:53:33.000Z</time>
      </trkpt>
      <trkpt lat="47.26138" lon="-2.33438">
        <ele>-9</ele>
        <time>2020-05-17T09:53:37.000Z</time>
      </trkpt>
      <trkpt lat="47.26131" lon="-2.33455">
        <ele>-9</ele>
        <time>2020-05-17T09:53:41.000Z</time>
      </trkpt>
      <trkpt lat="47.2612" lon="-2.33456">
        <ele>-9</ele>
        <time>2020-05-17T09:53:44.000Z</time>
      </trkpt>
      <trkpt lat="47.26116" lon="-2.33457">
        <ele>-9</ele>
        <time>2020-05-17T09:53:45.000Z</time>
      </trkpt>
      <trkpt lat="47.261" lon="-2.33466">
        <ele>-9</ele>
        <time>2020-05-17T09:53:49.000Z</time>
      </trkpt>
      <trkpt lat="47.26089" lon="-2.33469">
        <ele>-9</ele>
        <time>2020-05-17T09:53:51.000Z</time>
      </trkpt>
      <trkpt lat="47.26073" lon="-2.33467">
        <ele>-9</ele>
        <time>2020-05-17T09:53:54.000Z</time>
      </trkpt>
      <trkpt lat="47.26057" lon="-2.33453">
        <ele>-9</ele>
        <time>2020-05-17T09:53:57.000Z</time>
      </trkpt>
      <trkpt lat="47.26045" lon="-2.33457">
        <ele>-9</ele>
        <time>2020-05-17T09:53:59.000Z</time>
      </trkpt>
      <trkpt lat="47.26034" lon="-2.33476">
        <ele>-9</ele>
        <time>2020-05-17T09:54:02.000Z</time>
      </trkpt>
      <trkpt lat="47.26011" lon="-2.33489">
        <ele>-9</ele>
        <time>2020-05-17T09:54:06.000Z</time>
      </trkpt>
      <trkpt lat="47.25999" lon="-2.33492">
        <ele>-9</ele>
        <time>2020-05-17T09:54:08.000Z</time>
      </trkpt>
      <trkpt lat="47.25983" lon="-2.33503">
        <ele>-9</ele>
        <time>2020-05-17T09:54:11.000Z</time>
      </trkpt>
      <trkpt lat="47.25965" lon="-2.33511">
        <ele>-9</ele>
        <time>2020-05-17T09:54:15.000Z</time>
      </trkpt>
      <trkpt lat="47.25943" lon="-2.33523">
        <ele>-9</ele>
        <time>2020-05-17T09:54:19.000Z</time>
      </trkpt>
      <trkpt lat="47.25915" lon="-2.33548">
        <ele>-9</ele>
        <time>2020-05-17T09:54:25.000Z</time>
      </trkpt>
      <trkpt lat="47.25905" lon="-2.33556">
        <ele>-8.6000003814697</ele>
        <time>2020-05-17T09:54:27.000Z</time>
      </trkpt>
      <trkpt lat="47.259" lon="-2.3356">
        <ele>-8.1999998092651</ele>
        <time>2020-05-17T09:54:28.000Z</time>
      </trkpt>
      <trkpt lat="47.25895" lon="-2.33564">
        <ele>-7.8000001907349</ele>
        <time>2020-05-17T09:54:29.000Z</time>
      </trkpt>
      <trkpt lat="47.25891" lon="-2.33568">
        <ele>-7.4000000953674</ele>
        <time>2020-05-17T09:54:30.000Z</time>
      </trkpt>
      <trkpt lat="47.25886" lon="-2.33573">
        <ele>-7</ele>
        <time>2020-05-17T09:54:31.000Z</time>
      </trkpt>
      <trkpt lat="47.25881" lon="-2.33576">
        <ele>-7</ele>
        <time>2020-05-17T09:54:32.000Z</time>
      </trkpt>
      <trkpt lat="47.25857" lon="-2.33581">
        <ele>-7</ele>
        <time>2020-05-17T09:54:36.000Z</time>
      </trkpt>
      <trkpt lat="47.25814" lon="-2.33582">
        <ele>-7</ele>
        <time>2020-05-17T09:54:43.000Z</time>
      </trkpt>
      <trkpt lat="47.2578" lon="-2.33585">
        <ele>-7</ele>
        <time>2020-05-17T09:54:49.000Z</time>
      </trkpt>
      <trkpt lat="47.25753" lon="-2.33585">
        <ele>-7</ele>
        <time>2020-05-17T09:54:54.000Z</time>
      </trkpt>
      <trkpt lat="47.25749" lon="-2.33588">
        <ele>-7</ele>
        <time>2020-05-17T09:54:55.000Z</time>
      </trkpt>
      <trkpt lat="47.2574" lon="-2.33589">
        <ele>-7</ele>
        <time>2020-05-17T09:54:57.000Z</time>
      </trkpt>
      <trkpt lat="47.25729" lon="-2.33586">
        <ele>-7</ele>
        <time>2020-05-17T09:54:59.000Z</time>
      </trkpt>
      <trkpt lat="47.25718" lon="-2.33586">
        <ele>-7</ele>
        <time>2020-05-17T09:55:01.000Z</time>
      </trkpt>
      <trkpt lat="47.25713" lon="-2.33586">
        <ele>-7</ele>
        <time>2020-05-17T09:55:02.000Z</time>
      </trkpt>
      <trkpt lat="47.25698" lon="-2.33586">
        <ele>-7</ele>
        <time>2020-05-17T09:55:05.000Z</time>
      </trkpt>
      <trkpt lat="47.25677" lon="-2.33584">
        <ele>-7</ele>
        <time>2020-05-17T09:55:09.000Z</time>
      </trkpt>
      <trkpt lat="47.25667" lon="-2.33581">
        <ele>-7</ele>
        <time>2020-05-17T09:55:11.000Z</time>
      </trkpt>
      <trkpt lat="47.25627" lon="-2.33562">
        <ele>-6.5999999046326</ele>
        <time>2020-05-17T09:55:19.000Z</time>
      </trkpt>
      <trkpt lat="47.25622" lon="-2.33558">
        <ele>-6.1999998092651</ele>
        <time>2020-05-17T09:55:20.000Z</time>
      </trkpt>
      <trkpt lat="47.25618" lon="-2.33555">
        <ele>-5.8000001907349</ele>
        <time>2020-05-17T09:55:21.000Z</time>
      </trkpt>
      <trkpt lat="47.25613" lon="-2.3355">
        <ele>-5.4000000953674</ele>
        <time>2020-05-17T09:55:22.000Z</time>
      </trkpt>
      <trkpt lat="47.25608" lon="-2.33546">
        <ele>-5</ele>
        <time>2020-05-17T09:55:23.000Z</time>
      </trkpt>
      <trkpt lat="47.25599" lon="-2.33537">
        <ele>-5</ele>
        <time>2020-05-17T09:55:25.000Z</time>
      </trkpt>
      <trkpt lat="47.25569" lon="-2.33497">
        <ele>-5</ele>
        <time>2020-05-17T09:55:32.000Z</time>
      </trkpt>
      <trkpt lat="47.25556" lon="-2.33471">
        <ele>-5</ele>
        <time>2020-05-17T09:55:36.000Z</time>
      </trkpt>
      <trkpt lat="47.25547" lon="-2.33451">
        <ele>-5</ele>
        <time>2020-05-17T09:55:39.000Z</time>
      </trkpt>
      <trkpt lat="47.25534" lon="-2.33405">
        <ele>-5</ele>
        <time>2020-05-17T09:55:45.000Z</time>
      </trkpt>
      <trkpt lat="47.25525" lon="-2.33349">
        <ele>-5</ele>
        <time>2020-05-17T09:55:52.000Z</time>
      </trkpt>
      <trkpt lat="47.25517" lon="-2.33288">
        <ele>-5</ele>
        <time>2020-05-17T09:55:59.000Z</time>
      </trkpt>
      <trkpt lat="47.25508" lon="-2.33219">
        <ele>-5</ele>
        <time>2020-05-17T09:56:07.000Z</time>
      </trkpt>
      <trkpt lat="47.25497" lon="-2.33141">
        <ele>-5</ele>
        <time>2020-05-17T09:56:16.000Z</time>
      </trkpt>
      <trkpt lat="47.2549" lon="-2.33093">
        <ele>-5</ele>
        <time>2020-05-17T09:56:22.000Z</time>
      </trkpt>
      <trkpt lat="47.25484" lon="-2.33091">
        <ele>-5</ele>
        <time>2020-05-17T09:56:23.000Z</time>
      </trkpt>
      <trkpt lat="47.25468" lon="-2.33096">
        <ele>-5</ele>
        <time>2020-05-17T09:56:26.000Z</time>
      </trkpt>
      <trkpt lat="47.25452" lon="-2.33105">
        <ele>-5</ele>
        <time>2020-05-17T09:56:29.000Z</time>
      </trkpt>
      <trkpt lat="47.25437" lon="-2.33113">
        <ele>-5</ele>
        <time>2020-05-17T09:56:32.000Z</time>
      </trkpt>
      <trkpt lat="47.25419" lon="-2.33123">
        <ele>-5</ele>
        <time>2020-05-17T09:56:36.000Z</time>
      </trkpt>
      <trkpt lat="47.25411" lon="-2.33127">
        <ele>-5</ele>
        <time>2020-05-17T09:56:38.000Z</time>
      </trkpt>
      <trkpt lat="47.25394" lon="-2.33138">
        <ele>-5</ele>
        <time>2020-05-17T09:56:44.000Z</time>
      </trkpt>
      <trkpt lat="47.25377" lon="-2.33141">
        <ele>-5</ele>
        <time>2020-05-17T09:56:50.000Z</time>
      </trkpt>
      <trkpt lat="47.25376" lon="-2.33137">
        <ele>-5</ele>
        <time>2020-05-17T09:56:51.000Z</time>
      </trkpt>
      <trkpt lat="47.25375" lon="-2.3313">
        <ele>-5</ele>
        <time>2020-05-17T09:56:53.000Z</time>
      </trkpt>
      <trkpt lat="47.25375" lon="-2.33124">
        <ele>-5</ele>
        <time>2020-05-17T09:56:57.000Z</time>
      </trkpt>
      <trkpt lat="47.25375" lon="-2.33124">
        <ele>-5</ele>
        <time>2020-05-17T09:57:03.000Z</time>
      </trkpt>
      <trkpt lat="47.25374" lon="-2.33121">
        <ele>-5</ele>
        <time>2020-05-17T09:57:12.000Z</time>
      </trkpt>
      <trkpt lat="47.25373" lon="-2.3312">
        <ele>-5</ele>
        <time>2020-05-17T09:57:17.000Z</time>
      </trkpt>
      <trkpt lat="47.25373" lon="-2.33121">
        <ele>-5</ele>
        <time>2020-05-17T09:57:23.000Z</time>
      </trkpt>
      <trkpt lat="47.25373" lon="-2.33121">
        <ele>-5</ele>
        <time>2020-05-17T09:57:40.000Z</time>
      </trkpt>
      <trkpt lat="47.25372" lon="-2.33119">
        <ele>-5</ele>
        <time>2020-05-17T09:57:57.000Z</time>
      </trkpt>
      <trkpt lat="47.25372" lon="-2.33119">
        <ele>-5</ele>
        <time>2020-05-17T09:58:14.000Z</time>
      </trkpt>
      <trkpt lat="47.25372" lon="-2.33119">
        <ele>-5</ele>
        <time>2020-05-17T09:58:33.000Z</time>
      </trkpt>
      <trkpt lat="47.25372" lon="-2.33118">
        <ele>-5</ele>
        <time>2020-05-17T09:58:40.000Z</time>
      </trkpt>
      <trkpt lat="47.25372" lon="-2.33118">
        <ele>-5</ele>
        <time>2020-05-17T09:58:52.000Z</time>
      </trkpt>
      <trkpt lat="47.25372" lon="-2.33118">
        <ele>-5</ele>
        <time>2020-05-17T09:59:07.000Z</time>
      </trkpt>
      <trkpt lat="47.25372" lon="-2.33118">
        <ele>-5</ele>
        <time>2020-05-17T09:59:25.000Z</time>
      </trkpt>
      <trkpt lat="47.25372" lon="-2.33118">
        <ele>-5</ele>
        <time>2020-05-17T09:59:43.000Z</time>
      </trkpt>
      <trkpt lat="47.25372" lon="-2.33118">
        <ele>-5</ele>
        <time>2020-05-17T09:59:55.000Z</time>
      </trkpt>
      <trkpt lat="47.25371" lon="-2.33117">
        <ele>-5</ele>
        <time>2020-05-17T10:00:13.000Z</time>
      </trkpt>
      <trkpt lat="47.25371" lon="-2.33117">
        <ele>-5</ele>
        <time>2020-05-17T10:00:31.000Z</time>
      </trkpt>
      <trkpt lat="47.2537" lon="-2.33116">
        <ele>-5</ele>
        <time>2020-05-17T10:00:43.000Z</time>
      </trkpt>
      <trkpt lat="47.2537" lon="-2.33116">
        <ele>-5</ele>
        <time>2020-05-17T10:00:49.000Z</time>
      </trkpt>
      <trkpt lat="47.2537" lon="-2.33116">
        <ele>-5</ele>
        <time>2020-05-17T10:01:07.000Z</time>
      </trkpt>
      <trkpt lat="47.2537" lon="-2.33115">
        <ele>-5</ele>
        <time>2020-05-17T10:01:21.000Z</time>
      </trkpt>
      <trkpt lat="47.2537" lon="-2.33115">
        <ele>-5</ele>
        <time>2020-05-17T10:01:35.000Z</time>
      </trkpt>
      <trkpt lat="47.2537" lon="-2.33115">
        <ele>-5</ele>
        <time>2020-05-17T10:01:51.000Z</time>
      </trkpt>
      <trkpt lat="47.2537" lon="-2.33114">
        <ele>-5</ele>
        <time>2020-05-17T10:02:07.000Z</time>
      </trkpt>
      <trkpt lat="47.2537" lon="-2.33114">
        <ele>-5</ele>
        <time>2020-05-17T10:02:23.000Z</time>
      </trkpt>
      <trkpt lat="47.2537" lon="-2.33113">
        <ele>-5</ele>
        <time>2020-05-17T10:02:41.000Z</time>
      </trkpt>
      <trkpt lat="47.2537" lon="-2.33113">
        <ele>-5</ele>
        <time>2020-05-17T10:02:47.000Z</time>
      </trkpt>
      <trkpt lat="47.2537" lon="-2.33113">
        <ele>-5</ele>
        <time>2020-05-17T10:02:57.000Z</time>
      </trkpt>
      <trkpt lat="47.2537" lon="-2.33113">
        <ele>-5</ele>
        <time>2020-05-17T10:03:14.000Z</time>
      </trkpt>
      <trkpt lat="47.2537" lon="-2.33113">
        <ele>-5</ele>
        <time>2020-05-17T10:03:32.000Z</time>
      </trkpt>
      <trkpt lat="47.2537" lon="-2.33113">
        <ele>-5</ele>
        <time>2020-05-17T10:03:51.000Z</time>
      </trkpt>
      <trkpt lat="47.2537" lon="-2.3311">
        <ele>-5</ele>
        <time>2020-05-17T10:04:03.000Z</time>
      </trkpt>
      <trkpt lat="47.2537" lon="-2.33107">
        <ele>-5</ele>
        <time>2020-05-17T10:04:10.000Z</time>
      </trkpt>
      <trkpt lat="47.2537" lon="-2.33106">
        <ele>-5</ele>
        <time>2020-05-17T10:04:16.000Z</time>
      </trkpt>
      <trkpt lat="47.2537" lon="-2.33106">
        <ele>-5</ele>
        <time>2020-05-17T10:04:24.000Z</time>
      </trkpt>
      <trkpt lat="47.2537" lon="-2.33106">
        <ele>-5</ele>
        <time>2020-05-17T10:04:38.000Z</time>
      </trkpt>
      <trkpt lat="47.2537" lon="-2.33105">
        <ele>-5</ele>
        <time>2020-05-17T10:04:54.000Z</time>
      </trkpt>
      <trkpt lat="47.2537" lon="-2.33105">
        <ele>-5</ele>
        <time>2020-05-17T10:05:09.000Z</time>
      </trkpt>
      <trkpt lat="47.2537" lon="-2.33105">
        <ele>-5</ele>
        <time>2020-05-17T10:05:19.000Z</time>
      </trkpt>
      <trkpt lat="47.25369" lon="-2.33105">
        <ele>-5</ele>
        <time>2020-05-17T10:05:32.000Z</time>
      </trkpt>
      <trkpt lat="47.25369" lon="-2.33105">
        <ele>-5</ele>
        <time>2020-05-17T10:05:46.000Z</time>
      </trkpt>
      <trkpt lat="47.25369" lon="-2.33105">
        <ele>-5</ele>
        <time>2020-05-17T10:05:57.000Z</time>
      </trkpt>
      <trkpt lat="47.25369" lon="-2.33105">
        <ele>-5</ele>
        <time>2020-05-17T10:06:10.000Z</time>
      </trkpt>
      <trkpt lat="47.25369" lon="-2.33105">
        <ele>-5</ele>
        <time>2020-05-17T10:06:23.000Z</time>
      </trkpt>
      <trkpt lat="47.25369" lon="-2.33105">
        <ele>-5</ele>
        <time>2020-05-17T10:06:35.000Z</time>
      </trkpt>
      <trkpt lat="47.25369" lon="-2.33105">
        <ele>-5</ele>
        <time>2020-05-17T10:06:48.000Z</time>
      </trkpt>
      <trkpt lat="47.25369" lon="-2.33104">
        <ele>-5</ele>
        <time>2020-05-17T10:07:00.000Z</time>
      </trkpt>
      <trkpt lat="47.25369" lon="-2.33104">
        <ele>-5</ele>
        <time>2020-05-17T10:07:11.000Z</time>
      </trkpt>
      <trkpt lat="47.25369" lon="-2.33104">
        <ele>-5</ele>
        <time>2020-05-17T10:07:23.000Z</time>
      </trkpt>
      <trkpt lat="47.25369" lon="-2.33104">
        <ele>-5</ele>
        <time>2020-05-17T10:07:36.000Z</time>
      </trkpt>
      <trkpt lat="47.25369" lon="-2.33104">
        <ele>-5</ele>
        <time>2020-05-17T10:07:49.000Z</time>
      </trkpt>
      <trkpt lat="47.25369" lon="-2.33104">
        <ele>-5</ele>
        <time>2020-05-17T10:08:03.000Z</time>
      </trkpt>
      <trkpt lat="47.25369" lon="-2.33103">
        <ele>-5</ele>
        <time>2020-05-17T10:08:15.000Z</time>
      </trkpt>
      <trkpt lat="47.25369" lon="-2.33103">
        <ele>-5</ele>
        <time>2020-05-17T10:08:24.000Z</time>
      </trkpt>
      <trkpt lat="47.25369" lon="-2.33103">
        <ele>-5</ele>
        <time>2020-05-17T10:08:36.000Z</time>
      </trkpt>
      <trkpt lat="47.25369" lon="-2.33103">
        <ele>-5</ele>
        <time>2020-05-17T10:08:46.000Z</time>
      </trkpt>
      <trkpt lat="47.25369" lon="-2.33103">
        <ele>-5</ele>
        <time>2020-05-17T10:08:55.000Z</time>
      </trkpt>
      <trkpt lat="47.25369" lon="-2.33103">
        <ele>-5</ele>
        <time>2020-05-17T10:09:10.000Z</time>
      </trkpt>
      <trkpt lat="47.25369" lon="-2.33103">
        <ele>-5</ele>
        <time>2020-05-17T10:09:18.000Z</time>
      </trkpt>
      <trkpt lat="47.25369" lon="-2.33102">
        <ele>-5</ele>
        <time>2020-05-17T10:09:25.000Z</time>
      </trkpt>
      <trkpt lat="47.25369" lon="-2.33102">
        <ele>-5</ele>
        <time>2020-05-17T10:09:38.000Z</time>
      </trkpt>
      <trkpt lat="47.25369" lon="-2.33102">
        <ele>-5</ele>
        <time>2020-05-17T10:09:57.000Z</time>
      </trkpt>
      <trkpt lat="47.25369" lon="-2.33102">
        <ele>-5</ele>
        <time>2020-05-17T10:10:07.000Z</time>
      </trkpt>
      <trkpt lat="47.25369" lon="-2.33102">
        <ele>-5</ele>
        <time>2020-05-17T10:10:19.000Z</time>
      </trkpt>
      <trkpt lat="47.25369" lon="-2.33102">
        <ele>-5</ele>
        <time>2020-05-17T10:10:34.000Z</time>
      </trkpt>
      <trkpt lat="47.25369" lon="-2.33102">
        <ele>-5</ele>
        <time>2020-05-17T10:10:41.000Z</time>
      </trkpt>
      <trkpt lat="47.25369" lon="-2.33102">
        <ele>-5</ele>
        <time>2020-05-17T10:10:54.000Z</time>
      </trkpt>
      <trkpt lat="47.25369" lon="-2.33102">
        <ele>-5</ele>
        <time>2020-05-17T10:11:04.000Z</time>
      </trkpt>
      <trkpt lat="47.25369" lon="-2.33102">
        <ele>-5</ele>
        <time>2020-05-17T10:11:10.000Z</time>
      </trkpt>
      <trkpt lat="47.25369" lon="-2.33101">
        <ele>-5</ele>
        <time>2020-05-17T10:11:24.000Z</time>
      </trkpt>
      <trkpt lat="47.25369" lon="-2.33101">
        <ele>-5</ele>
        <time>2020-05-17T10:11:38.000Z</time>
      </trkpt>
      <trkpt lat="47.25369" lon="-2.33101">
        <ele>-5</ele>
        <time>2020-05-17T10:11:49.000Z</time>
      </trkpt>
      <trkpt lat="47.25369" lon="-2.33101">
        <ele>-5</ele>
        <time>2020-05-17T10:11:59.000Z</time>
      </trkpt>
      <trkpt lat="47.25369" lon="-2.33101">
        <ele>-5</ele>
        <time>2020-05-17T10:12:14.000Z</time>
      </trkpt>
      <trkpt lat="47.25369" lon="-2.33101">
        <ele>-5</ele>
        <time>2020-05-17T10:12:30.000Z</time>
      </trkpt>
      <trkpt lat="47.25369" lon="-2.33102">
        <ele>-5</ele>
        <time>2020-05-17T10:12:43.000Z</time>
      </trkpt>
      <trkpt lat="47.25369" lon="-2.33102">
        <ele>-5</ele>
        <time>2020-05-17T10:12:57.000Z</time>
      </trkpt>
      <trkpt lat="47.25369" lon="-2.33102">
        <ele>-5</ele>
        <time>2020-05-17T10:13:12.000Z</time>
      </trkpt>
      <trkpt lat="47.25368" lon="-2.33101">
        <ele>-5</ele>
        <time>2020-05-17T10:13:27.000Z</time>
      </trkpt>
      <trkpt lat="47.25368" lon="-2.33099">
        <ele>-5</ele>
        <time>2020-05-17T10:13:37.000Z</time>
      </trkpt>
      <trkpt lat="47.25368" lon="-2.33098">
        <ele>-5</ele>
        <time>2020-05-17T10:13:45.000Z</time>
      </trkpt>
      <trkpt lat="47.25368" lon="-2.33098">
        <ele>-5</ele>
        <time>2020-05-17T10:13:54.000Z</time>
      </trkpt>
      <trkpt lat="47.25368" lon="-2.33098">
        <ele>-5</ele>
        <time>2020-05-17T10:14:08.000Z</time>
      </trkpt>
      <trkpt lat="47.25368" lon="-2.33098">
        <ele>-5</ele>
        <time>2020-05-17T10:14:18.000Z</time>
      </trkpt>
      <trkpt lat="47.25368" lon="-2.33098">
        <ele>-5</ele>
        <time>2020-05-17T10:14:26.000Z</time>
      </trkpt>
      <trkpt lat="47.25366" lon="-2.33093">
        <ele>-5</ele>
        <time>2020-05-17T10:14:34.000Z</time>
      </trkpt>
      <trkpt lat="47.2536" lon="-2.33077">
        <ele>-4.5999999046326</ele>
        <time>2020-05-17T10:14:38.000Z</time>
      </trkpt>
      <trkpt lat="47.25358" lon="-2.33073">
        <ele>-4.1999998092651</ele>
        <time>2020-05-17T10:14:39.000Z</time>
      </trkpt>
      <trkpt lat="47.25356" lon="-2.33068">
        <ele>-3.7999999523163</ele>
        <time>2020-05-17T10:14:40.000Z</time>
      </trkpt>
      <trkpt lat="47.25354" lon="-2.33063">
        <ele>-3.4000000953674</ele>
        <time>2020-05-17T10:14:41.000Z</time>
      </trkpt>
      <trkpt lat="47.25351" lon="-2.33058">
        <ele>-3</ele>
        <time>2020-05-17T10:14:42.000Z</time>
      </trkpt>
      <trkpt lat="47.25345" lon="-2.33042">
        <ele>-3</ele>
        <time>2020-05-17T10:14:45.000Z</time>
      </trkpt>
      <trkpt lat="47.25327" lon="-2.32997">
        <ele>-3</ele>
        <time>2020-05-17T10:14:53.000Z</time>
      </trkpt>
      <trkpt lat="47.25312" lon="-2.32958">
        <ele>-2.5999999046326</ele>
        <time>2020-05-17T10:15:00.000Z</time>
      </trkpt>
      <trkpt lat="47.25311" lon="-2.32952">
        <ele>-2.2000000476837</ele>
        <time>2020-05-17T10:15:01.000Z</time>
      </trkpt>
      <trkpt lat="47.25309" lon="-2.32946">
        <ele>-1.3999999761581</ele>
        <time>2020-05-17T10:15:02.000Z</time>
      </trkpt>
      <trkpt lat="47.25307" lon="-2.32941">
        <ele>-1</ele>
        <time>2020-05-17T10:15:03.000Z</time>
      </trkpt>
      <trkpt lat="47.25303" lon="-2.32924">
        <ele>-1</ele>
        <time>2020-05-17T10:15:06.000Z</time>
      </trkpt>
      <trkpt lat="47.25309" lon="-2.32912">
        <ele>-1</ele>
        <time>2020-05-17T10:15:09.000Z</time>
      </trkpt>
      <trkpt lat="47.25317" lon="-2.32906">
        <ele>-1</ele>
        <time>2020-05-17T10:15:11.000Z</time>
      </trkpt>
      <trkpt lat="47.25325" lon="-2.32899">
        <ele>-1</ele>
        <time>2020-05-17T10:15:13.000Z</time>
      </trkpt>
      <trkpt lat="47.25358" lon="-2.32869">
        <ele>-1</ele>
        <time>2020-05-17T10:15:21.000Z</time>
      </trkpt>
      <trkpt lat="47.25363" lon="-2.32865">
        <ele>-1</ele>
        <time>2020-05-17T10:15:22.000Z</time>
      </trkpt>
      <trkpt lat="47.25379" lon="-2.32849">
        <ele>-1</ele>
        <time>2020-05-17T10:15:26.000Z</time>
      </trkpt>
      <trkpt lat="47.25401" lon="-2.32824">
        <ele>-1</ele>
        <time>2020-05-17T10:15:33.000Z</time>
      </trkpt>
      <trkpt lat="47.25407" lon="-2.32815">
        <ele>-1</ele>
        <time>2020-05-17T10:15:35.000Z</time>
      </trkpt>
      <trkpt lat="47.25426" lon="-2.32776">
        <ele>-1</ele>
        <time>2020-05-17T10:15:43.000Z</time>
      </trkpt>
      <trkpt lat="47.25436" lon="-2.32761">
        <ele>-1</ele>
        <time>2020-05-17T10:15:47.000Z</time>
      </trkpt>
      <trkpt lat="47.2545" lon="-2.32744">
        <ele>-0.60000002384186</ele>
        <time>2020-05-17T10:15:51.000Z</time>
      </trkpt>
      <trkpt lat="47.25454" lon="-2.3274">
        <ele>0.20000000298023</ele>
        <time>2020-05-17T10:15:52.000Z</time>
      </trkpt>
      <trkpt lat="47.25457" lon="-2.32735">
        <ele>0.60000002384186</ele>
        <time>2020-05-17T10:15:53.000Z</time>
      </trkpt>
      <trkpt lat="47.2546" lon="-2.32731">
        <ele>1</ele>
        <time>2020-05-17T10:15:54.000Z</time>
      </trkpt>
      <trkpt lat="47.25463" lon="-2.32725">
        <ele>1</ele>
        <time>2020-05-17T10:15:55.000Z</time>
      </trkpt>
      <trkpt lat="47.25473" lon="-2.32713">
        <ele>1</ele>
        <time>2020-05-17T10:15:58.000Z</time>
      </trkpt>
      <trkpt lat="47.25487" lon="-2.3269">
        <ele>1</ele>
        <time>2020-05-17T10:16:03.000Z</time>
      </trkpt>
      <trkpt lat="47.25488" lon="-2.32684">
        <ele>1</ele>
        <time>2020-05-17T10:16:04.000Z</time>
      </trkpt>
      <trkpt lat="47.25487" lon="-2.32656">
        <ele>1</ele>
        <time>2020-05-17T10:16:08.000Z</time>
      </trkpt>
      <trkpt lat="47.25486" lon="-2.32648">
        <ele>1</ele>
        <time>2020-05-17T10:16:09.000Z</time>
      </trkpt>
      <trkpt lat="47.25478" lon="-2.32608">
        <ele>1</ele>
        <time>2020-05-17T10:16:15.000Z</time>
      </trkpt>
      <trkpt lat="47.25475" lon="-2.32588">
        <ele>1</ele>
        <time>2020-05-17T10:16:18.000Z</time>
      </trkpt>
      <trkpt lat="47.25471" lon="-2.32577">
        <ele>1</ele>
        <time>2020-05-17T10:16:20.000Z</time>
      </trkpt>
      <trkpt lat="47.25475" lon="-2.32562">
        <ele>1</ele>
        <time>2020-05-17T10:16:23.000Z</time>
      </trkpt>
      <trkpt lat="47.25488" lon="-2.32551">
        <ele>1</ele>
        <time>2020-05-17T10:16:26.000Z</time>
      </trkpt>
      <trkpt lat="47.25492" lon="-2.32547">
        <ele>1</ele>
        <time>2020-05-17T10:16:27.000Z</time>
      </trkpt>
      <trkpt lat="47.25524" lon="-2.32515">
        <ele>1</ele>
        <time>2020-05-17T10:16:34.000Z</time>
      </trkpt>
      <trkpt lat="47.25561" lon="-2.32481">
        <ele>1</ele>
        <time>2020-05-17T10:16:41.000Z</time>
      </trkpt>
      <trkpt lat="47.25588" lon="-2.32454">
        <ele>0.60000002384186</ele>
        <time>2020-05-17T10:16:46.000Z</time>
      </trkpt>
      <trkpt lat="47.25594" lon="-2.32448">
        <ele>0.20000000298023</ele>
        <time>2020-05-17T10:16:47.000Z</time>
      </trkpt>
      <trkpt lat="47.256" lon="-2.32442">
        <ele>-0.20000000298023</ele>
        <time>2020-05-17T10:16:48.000Z</time>
      </trkpt>
      <trkpt lat="47.25605" lon="-2.32436">
        <ele>-0.60000002384186</ele>
        <time>2020-05-17T10:16:49.000Z</time>
      </trkpt>
      <trkpt lat="47.25611" lon="-2.3243">
        <ele>-1</ele>
        <time>2020-05-17T10:16:50.000Z</time>
      </trkpt>
      <trkpt lat="47.25628" lon="-2.32413">
        <ele>-1.3999999761581</ele>
        <time>2020-05-17T10:16:53.000Z</time>
      </trkpt>
      <trkpt lat="47.25634" lon="-2.32408">
        <ele>-1.7999999523163</ele>
        <time>2020-05-17T10:16:54.000Z</time>
      </trkpt>
      <trkpt lat="47.25641" lon="-2.32404">
        <ele>-2.2000000476837</ele>
        <time>2020-05-17T10:16:55.000Z</time>
      </trkpt>
      <trkpt lat="47.25646" lon="-2.32402">
        <ele>-2.5999999046326</ele>
        <time>2020-05-17T10:16:56.000Z</time>
      </trkpt>
      <trkpt lat="47.25652" lon="-2.32401">
        <ele>-3.2000000476837</ele>
        <time>2020-05-17T10:16:57.000Z</time>
      </trkpt>
      <trkpt lat="47.25662" lon="-2.32404">
        <ele>-3.2000000476837</ele>
        <time>2020-05-17T10:16:59.000Z</time>
      </trkpt>
      <trkpt lat="47.25676" lon="-2.32417">
        <ele>-3.2000000476837</ele>
        <time>2020-05-17T10:17:02.000Z</time>
      </trkpt>
      <trkpt lat="47.25694" lon="-2.3242">
        <ele>-3.2000000476837</ele>
        <time>2020-05-17T10:17:05.000Z</time>
      </trkpt>
      <trkpt lat="47.257" lon="-2.3242">
        <ele>-4</ele>
        <time>2020-05-17T10:17:06.000Z</time>
      </trkpt>
      <trkpt lat="47.25707" lon="-2.32421">
        <ele>-4.4000000953674</ele>
        <time>2020-05-17T10:17:07.000Z</time>
      </trkpt>
      <trkpt lat="47.25713" lon="-2.32421">
        <ele>-4.8000001907349</ele>
        <time>2020-05-17T10:17:08.000Z</time>
      </trkpt>
      <trkpt lat="47.25719" lon="-2.32422">
        <ele>-5.1999998092651</ele>
        <time>2020-05-17T10:17:09.000Z</time>
      </trkpt>
      <trkpt lat="47.25744" lon="-2.32424">
        <ele>-5.1999998092651</ele>
        <time>2020-05-17T10:17:13.000Z</time>
      </trkpt>
      <trkpt lat="47.25749" lon="-2.32423">
        <ele>-5.1999998092651</ele>
        <time>2020-05-17T10:17:14.000Z</time>
      </trkpt>
      <trkpt lat="47.25759" lon="-2.32423">
        <ele>-5.1999998092651</ele>
        <time>2020-05-17T10:17:16.000Z</time>
      </trkpt>
      <trkpt lat="47.25762" lon="-2.32424">
        <ele>-5.1999998092651</ele>
        <time>2020-05-17T10:17:17.000Z</time>
      </trkpt>
      <trkpt lat="47.25767" lon="-2.32423">
        <ele>-5.1999998092651</ele>
        <time>2020-05-17T10:17:19.000Z</time>
      </trkpt>
      <trkpt lat="47.2577" lon="-2.32417">
        <ele>-5.1999998092651</ele>
        <time>2020-05-17T10:17:21.000Z</time>
      </trkpt>
      <trkpt lat="47.25779" lon="-2.32413">
        <ele>-5.1999998092651</ele>
        <time>2020-05-17T10:17:25.000Z</time>
      </trkpt>
      <trkpt lat="47.25789" lon="-2.32429">
        <ele>-5.1999998092651</ele>
        <time>2020-05-17T10:17:28.000Z</time>
      </trkpt>
      <trkpt lat="47.25798" lon="-2.32448">
        <ele>-5.1999998092651</ele>
        <time>2020-05-17T10:17:31.000Z</time>
      </trkpt>
      <trkpt lat="47.25809" lon="-2.32456">
        <ele>-5.1999998092651</ele>
        <time>2020-05-17T10:17:33.000Z</time>
      </trkpt>
      <trkpt lat="47.25846" lon="-2.32474">
        <ele>-5.1999998092651</ele>
        <time>2020-05-17T10:17:40.000Z</time>
      </trkpt>
      <trkpt lat="47.25852" lon="-2.32474">
        <ele>-5.1999998092651</ele>
        <time>2020-05-17T10:17:41.000Z</time>
      </trkpt>
      <trkpt lat="47.25868" lon="-2.32473">
        <ele>-5.1999998092651</ele>
        <time>2020-05-17T10:17:44.000Z</time>
      </trkpt>
      <trkpt lat="47.25884" lon="-2.3247">
        <ele>-5.1999998092651</ele>
        <time>2020-05-17T10:17:47.000Z</time>
      </trkpt>
      <trkpt lat="47.25895" lon="-2.32464">
        <ele>-5.1999998092651</ele>
        <time>2020-05-17T10:17:49.000Z</time>
      </trkpt>
      <trkpt lat="47.25904" lon="-2.32455">
        <ele>-5.1999998092651</ele>
        <time>2020-05-17T10:17:51.000Z</time>
      </trkpt>
      <trkpt lat="47.25934" lon="-2.32417">
        <ele>-5.1999998092651</ele>
        <time>2020-05-17T10:17:58.000Z</time>
      </trkpt>
      <trkpt lat="47.25967" lon="-2.32372">
        <ele>-5.1999998092651</ele>
        <time>2020-05-17T10:18:06.000Z</time>
      </trkpt>
      <trkpt lat="47.25999" lon="-2.3233">
        <ele>-5.1999998092651</ele>
        <time>2020-05-17T10:18:14.000Z</time>
      </trkpt>
      <trkpt lat="47.26026" lon="-2.32295">
        <ele>-5.5999999046326</ele>
        <time>2020-05-17T10:18:21.000Z</time>
      </trkpt>
      <trkpt lat="47.2603" lon="-2.3229">
        <ele>-6</ele>
        <time>2020-05-17T10:18:22.000Z</time>
      </trkpt>
      <trkpt lat="47.26034" lon="-2.32285">
        <ele>-6.4000000953674</ele>
        <time>2020-05-17T10:18:23.000Z</time>
      </trkpt>
      <trkpt lat="47.26039" lon="-2.3228">
        <ele>-6.8000001907349</ele>
        <time>2020-05-17T10:18:24.000Z</time>
      </trkpt>
      <trkpt lat="47.26043" lon="-2.32276">
        <ele>-7.1999998092651</ele>
        <time>2020-05-17T10:18:25.000Z</time>
      </trkpt>
      <trkpt lat="47.26065" lon="-2.32252">
        <ele>-7.1999998092651</ele>
        <time>2020-05-17T10:18:30.000Z</time>
      </trkpt>
      <trkpt lat="47.26069" lon="-2.32248">
        <ele>-7.1999998092651</ele>
        <time>2020-05-17T10:18:31.000Z</time>
      </trkpt>
      <trkpt lat="47.26089" lon="-2.32223">
        <ele>-7.1999998092651</ele>
        <time>2020-05-17T10:18:36.000Z</time>
      </trkpt>
      <trkpt lat="47.261" lon="-2.32205">
        <ele>-7.1999998092651</ele>
        <time>2020-05-17T10:18:39.000Z</time>
      </trkpt>
      <trkpt lat="47.26108" lon="-2.32185">
        <ele>-7.1999998092651</ele>
        <time>2020-05-17T10:18:42.000Z</time>
      </trkpt>
      <trkpt lat="47.26126" lon="-2.32129">
        <ele>-7.1999998092651</ele>
        <time>2020-05-17T10:18:50.000Z</time>
      </trkpt>
      <trkpt lat="47.26139" lon="-2.32081">
        <ele>-7.1999998092651</ele>
        <time>2020-05-17T10:18:57.000Z</time>
      </trkpt>
      <trkpt lat="47.26151" lon="-2.32042">
        <ele>-7.1999998092651</ele>
        <time>2020-05-17T10:19:03.000Z</time>
      </trkpt>
      <trkpt lat="47.26157" lon="-2.3203">
        <ele>-7.1999998092651</ele>
        <time>2020-05-17T10:19:05.000Z</time>
      </trkpt>
      <trkpt lat="47.26167" lon="-2.32019">
        <ele>-7.1999998092651</ele>
        <time>2020-05-17T10:19:08.000Z</time>
      </trkpt>
      <trkpt lat="47.2617" lon="-2.3202">
        <ele>-7.1999998092651</ele>
        <time>2020-05-17T10:19:09.000Z</time>
      </trkpt>
      <trkpt lat="47.2619" lon="-2.32026">
        <ele>-7.1999998092651</ele>
        <time>2020-05-17T10:19:15.000Z</time>
      </trkpt>
      <trkpt lat="47.26196" lon="-2.32025">
        <ele>-7.1999998092651</ele>
        <time>2020-05-17T10:19:18.000Z</time>
      </trkpt>
      <trkpt lat="47.26198" lon="-2.32021">
        <ele>-7.1999998092651</ele>
        <time>2020-05-17T10:19:20.000Z</time>
      </trkpt>
      <trkpt lat="47.26207" lon="-2.32007">
        <ele>-7.1999998092651</ele>
        <time>2020-05-17T10:19:26.000Z</time>
      </trkpt>
      <trkpt lat="47.2622" lon="-2.31986">
        <ele>-7.1999998092651</ele>
        <time>2020-05-17T10:19:32.000Z</time>
      </trkpt>
      <trkpt lat="47.26226" lon="-2.31983">
        <ele>-7.1999998092651</ele>
        <time>2020-05-17T10:19:34.000Z</time>
      </trkpt>
      <trkpt lat="47.26232" lon="-2.31978">
        <ele>-7.1999998092651</ele>
        <time>2020-05-17T10:19:36.000Z</time>
      </trkpt>
      <trkpt lat="47.26237" lon="-2.31965">
        <ele>-7.1999998092651</ele>
        <time>2020-05-17T10:19:39.000Z</time>
      </trkpt>
      <trkpt lat="47.26241" lon="-2.31956">
        <ele>-7.1999998092651</ele>
        <time>2020-05-17T10:19:41.000Z</time>
      </trkpt>
      <trkpt lat="47.26253" lon="-2.31929">
        <ele>-7.1999998092651</ele>
        <time>2020-05-17T10:19:48.000Z</time>
      </trkpt>
      <trkpt lat="47.26272" lon="-2.31911">
        <ele>-7.1999998092651</ele>
        <time>2020-05-17T10:19:53.000Z</time>
      </trkpt>
      <trkpt lat="47.26298" lon="-2.31888">
        <ele>-7.1999998092651</ele>
        <time>2020-05-17T10:19:59.000Z</time>
      </trkpt>
      <trkpt lat="47.26302" lon="-2.31864">
        <ele>-7.1999998092651</ele>
        <time>2020-05-17T10:20:03.000Z</time>
      </trkpt>
      <trkpt lat="47.26301" lon="-2.31842">
        <ele>-7.1999998092651</ele>
        <time>2020-05-17T10:20:07.000Z</time>
      </trkpt>
      <trkpt lat="47.26302" lon="-2.31835">
        <ele>-7.1999998092651</ele>
        <time>2020-05-17T10:20:09.000Z</time>
      </trkpt>
      <trkpt lat="47.26301" lon="-2.31812">
        <ele>-7.1999998092651</ele>
        <time>2020-05-17T10:20:16.000Z</time>
      </trkpt>
      <trkpt lat="47.26303" lon="-2.31788">
        <ele>-7.1999998092651</ele>
        <time>2020-05-17T10:20:22.000Z</time>
      </trkpt>
      <trkpt lat="47.26301" lon="-2.31754">
        <ele>-7.1999998092651</ele>
        <time>2020-05-17T10:20:29.000Z</time>
      </trkpt>
      <trkpt lat="47.26301" lon="-2.31722">
        <ele>-7.1999998092651</ele>
        <time>2020-05-17T10:20:35.000Z</time>
      </trkpt>
      <trkpt lat="47.26303" lon="-2.3172">
        <ele>-7.1999998092651</ele>
        <time>2020-05-17T10:20:36.000Z</time>
      </trkpt>
      <trkpt lat="47.26306" lon="-2.31717">
        <ele>-7.1999998092651</ele>
        <time>2020-05-17T10:20:38.000Z</time>
      </trkpt>
      <trkpt lat="47.26318" lon="-2.31713">
        <ele>-7.1999998092651</ele>
        <time>2020-05-17T10:20:44.000Z</time>
      </trkpt>
      <trkpt lat="47.26331" lon="-2.31705">
        <ele>-7.1999998092651</ele>
        <time>2020-05-17T10:20:52.000Z</time>
      </trkpt>
      <trkpt lat="47.26341" lon="-2.31698">
        <ele>-7.1999998092651</ele>
        <time>2020-05-17T10:20:58.000Z</time>
      </trkpt>
      <trkpt lat="47.26349" lon="-2.31692">
        <ele>-7.1999998092651</ele>
        <time>2020-05-17T10:21:05.000Z</time>
      </trkpt>
      <trkpt lat="47.26353" lon="-2.31688">
        <ele>-6.8000001907349</ele>
        <time>2020-05-17T10:21:10.000Z</time>
      </trkpt>
      <trkpt lat="47.26354" lon="-2.31688">
        <ele>-6.4000000953674</ele>
        <time>2020-05-17T10:21:11.000Z</time>
      </trkpt>
      <trkpt lat="47.26356" lon="-2.31688">
        <ele>-6</ele>
        <time>2020-05-17T10:21:12.000Z</time>
      </trkpt>
      <trkpt lat="47.26357" lon="-2.31687">
        <ele>-5.1999998092651</ele>
        <time>2020-05-17T10:21:13.000Z</time>
      </trkpt>
      <trkpt lat="47.26368" lon="-2.31681">
        <ele>-5.1999998092651</ele>
        <time>2020-05-17T10:21:18.000Z</time>
      </trkpt>
      <trkpt lat="47.26385" lon="-2.31671">
        <ele>-5.1999998092651</ele>
        <time>2020-05-17T10:21:25.000Z</time>
      </trkpt>
      <trkpt lat="47.26396" lon="-2.31666">
        <ele>-5.1999998092651</ele>
        <time>2020-05-17T10:21:30.000Z</time>
      </trkpt>
      <trkpt lat="47.26405" lon="-2.31659">
        <ele>-4.8000001907349</ele>
        <time>2020-05-17T10:21:34.000Z</time>
      </trkpt>
      <trkpt lat="47.26406" lon="-2.31656">
        <ele>-4.4000000953674</ele>
        <time>2020-05-17T10:21:35.000Z</time>
      </trkpt>
      <trkpt lat="47.26407" lon="-2.31652">
        <ele>-4</ele>
        <time>2020-05-17T10:21:36.000Z</time>
      </trkpt>
      <trkpt lat="47.26406" lon="-2.31648">
        <ele>-3.5999999046326</ele>
        <time>2020-05-17T10:21:37.000Z</time>
      </trkpt>
      <trkpt lat="47.26406" lon="-2.31644">
        <ele>-3.2000000476837</ele>
        <time>2020-05-17T10:21:38.000Z</time>
      </trkpt>
      <trkpt lat="47.26405" lon="-2.3164">
        <ele>-3.2000000476837</ele>
        <time>2020-05-17T10:21:39.000Z</time>
      </trkpt>
      <trkpt lat="47.26405" lon="-2.31618">
        <ele>-3.2000000476837</ele>
        <time>2020-05-17T10:21:44.000Z</time>
      </trkpt>
      <trkpt lat="47.26405" lon="-2.31613">
        <ele>-3.2000000476837</ele>
        <time>2020-05-17T10:21:45.000Z</time>
      </trkpt>
      <trkpt lat="47.26406" lon="-2.31587">
        <ele>-3.2000000476837</ele>
        <time>2020-05-17T10:21:51.000Z</time>
      </trkpt>
      <trkpt lat="47.26405" lon="-2.31562">
        <ele>-3.2000000476837</ele>
        <time>2020-05-17T10:21:57.000Z</time>
      </trkpt>
      <trkpt lat="47.26411" lon="-2.31552">
        <ele>-3.2000000476837</ele>
        <time>2020-05-17T10:22:01.000Z</time>
      </trkpt>
      <trkpt lat="47.26416" lon="-2.31553">
        <ele>-2.7999999523163</ele>
        <time>2020-05-17T10:22:05.000Z</time>
      </trkpt>
      <trkpt lat="47.26416" lon="-2.31553">
        <ele>-2.2000000476837</ele>
        <time>2020-05-17T10:22:06.000Z</time>
      </trkpt>
      <trkpt lat="47.26416" lon="-2.31553">
        <ele>-1.7999999523163</ele>
        <time>2020-05-17T10:22:07.000Z</time>
      </trkpt>
      <trkpt lat="47.26416" lon="-2.31553">
        <ele>-1.3999999761581</ele>
        <time>2020-05-17T10:22:08.000Z</time>
      </trkpt>
      <trkpt lat="47.26416" lon="-2.31553">
        <ele>-1</ele>
        <time>2020-05-17T10:22:09.000Z</time>
      </trkpt>
      <trkpt lat="47.26416" lon="-2.31553">
        <ele>-1</ele>
        <time>2020-05-17T10:22:11.000Z</time>
      </trkpt>
    </trkseg>
  </trk>
</gpx>